<?xml version="1.0" encoding="UTF-8" standalone="no" ?>
<gpx xmlns="http://www.topografix.com/GPX/1/1" xmlns:xsi="http://www.w3.org/2001/XMLSchema-instance" xsi:schemaLocation="http://www.topografix.com/GPX/1/1 http://www.topografix.com/GPX/1/1/gpx.xsd" version="1.1" creator="VisuGPX - https://www.visugpx.com">
  <metadata>
    <name>Tour VTT au départ de Cervières</name>
  </metadata>
  <trk>
    <name><![CDATA[Tour VTT au départ de Cervières_1]]></name>
    <trkseg>
      <trkpt lat="44.87021" lon="6.7235">
        <ele>1627.155136</ele>
        <time>2022-09-03T09:16:06+0200</time>
      </trkpt>
      <trkpt lat="44.87022" lon="6.72343">
        <ele>1626.608469</ele>
        <time>2022-09-03T09:16:10+0200</time>
      </trkpt>
      <trkpt lat="44.87021" lon="6.7235">
        <ele>1626.148101</ele>
        <time>2022-09-03T09:16:19+0200</time>
      </trkpt>
      <trkpt lat="44.87026" lon="6.72348">
        <ele>1626.117117</ele>
        <time>2022-09-03T09:16:26+0200</time>
      </trkpt>
      <trkpt lat="44.87029" lon="6.7234">
        <ele>1626.017009</ele>
        <time>2022-09-03T09:16:33+0200</time>
      </trkpt>
      <trkpt lat="44.87029" lon="6.7233">
        <ele>1627.042219</ele>
        <time>2022-09-03T09:16:35+0200</time>
      </trkpt>
      <trkpt lat="44.87029" lon="6.72321">
        <ele>1627.467246</ele>
        <time>2022-09-03T09:16:37+0200</time>
      </trkpt>
      <trkpt lat="44.87028" lon="6.72312">
        <ele>1627.408157</ele>
        <time>2022-09-03T09:16:39+0200</time>
      </trkpt>
      <trkpt lat="44.87026" lon="6.72305">
        <ele>1627.554028</ele>
        <time>2022-09-03T09:16:41+0200</time>
      </trkpt>
      <trkpt lat="44.87028" lon="6.72298">
        <ele>1625.542797</ele>
        <time>2022-09-03T09:17:04+0200</time>
      </trkpt>
      <trkpt lat="44.87028" lon="6.7229">
        <ele>1627.336274</ele>
        <time>2022-09-03T09:17:22+0200</time>
      </trkpt>
      <trkpt lat="44.87028" lon="6.72282">
        <ele>1627.220801</ele>
        <time>2022-09-03T09:17:25+0200</time>
      </trkpt>
      <trkpt lat="44.87028" lon="6.72271">
        <ele>1627.067729</ele>
        <time>2022-09-03T09:17:27+0200</time>
      </trkpt>
      <trkpt lat="44.87028" lon="6.72264">
        <ele>1626.84303</ele>
        <time>2022-09-03T09:17:28+0200</time>
      </trkpt>
      <trkpt lat="44.87026" lon="6.72257">
        <ele>1626.547186</ele>
        <time>2022-09-03T09:17:29+0200</time>
      </trkpt>
      <trkpt lat="44.87025" lon="6.7225">
        <ele>1625.964728</ele>
        <time>2022-09-03T09:17:30+0200</time>
      </trkpt>
      <trkpt lat="44.87024" lon="6.72243">
        <ele>1625.726775</ele>
        <time>2022-09-03T09:17:31+0200</time>
      </trkpt>
      <trkpt lat="44.87023" lon="6.72235">
        <ele>1625.642456</ele>
        <time>2022-09-03T09:17:32+0200</time>
      </trkpt>
      <trkpt lat="44.87023" lon="6.72227">
        <ele>1625.863165</ele>
        <time>2022-09-03T09:17:33+0200</time>
      </trkpt>
      <trkpt lat="44.87019" lon="6.72221">
        <ele>1626.224241</ele>
        <time>2022-09-03T09:17:34+0200</time>
      </trkpt>
      <trkpt lat="44.87018" lon="6.72213">
        <ele>1626.174422</ele>
        <time>2022-09-03T09:17:35+0200</time>
      </trkpt>
      <trkpt lat="44.87017" lon="6.72207">
        <ele>1625.987787</ele>
        <time>2022-09-03T09:17:36+0200</time>
      </trkpt>
      <trkpt lat="44.87016" lon="6.72199">
        <ele>1625.788174</ele>
        <time>2022-09-03T09:17:37+0200</time>
      </trkpt>
      <trkpt lat="44.87015" lon="6.72192">
        <ele>1625.619098</ele>
        <time>2022-09-03T09:17:38+0200</time>
      </trkpt>
      <trkpt lat="44.87014" lon="6.72184">
        <ele>1625.555926</ele>
        <time>2022-09-03T09:17:39+0200</time>
      </trkpt>
      <trkpt lat="44.87013" lon="6.72177">
        <ele>1625.712325</ele>
        <time>2022-09-03T09:17:40+0200</time>
      </trkpt>
      <trkpt lat="44.87012" lon="6.72169">
        <ele>1625.724179</ele>
        <time>2022-09-03T09:17:41+0200</time>
      </trkpt>
      <trkpt lat="44.87011" lon="6.72161">
        <ele>1625.396593</ele>
        <time>2022-09-03T09:17:42+0200</time>
      </trkpt>
      <trkpt lat="44.8701" lon="6.72154">
        <ele>1625.80712</ele>
        <time>2022-09-03T09:17:43+0200</time>
      </trkpt>
      <trkpt lat="44.87009" lon="6.72146">
        <ele>1625.687745</ele>
        <time>2022-09-03T09:17:44+0200</time>
      </trkpt>
      <trkpt lat="44.87009" lon="6.72136">
        <ele>1626.080977</ele>
        <time>2022-09-03T09:17:45+0200</time>
      </trkpt>
      <trkpt lat="44.8701" lon="6.72129">
        <ele>1626.264584</ele>
        <time>2022-09-03T09:17:46+0200</time>
      </trkpt>
      <trkpt lat="44.87011" lon="6.7212">
        <ele>1626.594034</ele>
        <time>2022-09-03T09:17:47+0200</time>
      </trkpt>
      <trkpt lat="44.87012" lon="6.72113">
        <ele>1627.432977</ele>
        <time>2022-09-03T09:17:48+0200</time>
      </trkpt>
      <trkpt lat="44.87012" lon="6.72105">
        <ele>1628.029674</ele>
        <time>2022-09-03T09:17:49+0200</time>
      </trkpt>
      <trkpt lat="44.87012" lon="6.72098">
        <ele>1628.997421</ele>
        <time>2022-09-03T09:17:50+0200</time>
      </trkpt>
      <trkpt lat="44.87012" lon="6.72092">
        <ele>1629.245722</ele>
        <time>2022-09-03T09:17:51+0200</time>
      </trkpt>
      <trkpt lat="44.87013" lon="6.72084">
        <ele>1629.352609</ele>
        <time>2022-09-03T09:17:52+0200</time>
      </trkpt>
      <trkpt lat="44.87013" lon="6.72072">
        <ele>1630.139465</ele>
        <time>2022-09-03T09:17:54+0200</time>
      </trkpt>
      <trkpt lat="44.87013" lon="6.72061">
        <ele>1631.361496</ele>
        <time>2022-09-03T09:17:56+0200</time>
      </trkpt>
      <trkpt lat="44.87015" lon="6.72052">
        <ele>1632.409564</ele>
        <time>2022-09-03T09:17:58+0200</time>
      </trkpt>
      <trkpt lat="44.87014" lon="6.72042">
        <ele>1632.761009</ele>
        <time>2022-09-03T09:18:00+0200</time>
      </trkpt>
      <trkpt lat="44.87014" lon="6.72033">
        <ele>1633.372057</ele>
        <time>2022-09-03T09:18:02+0200</time>
      </trkpt>
      <trkpt lat="44.87014" lon="6.72023">
        <ele>1634.751511</ele>
        <time>2022-09-03T09:18:04+0200</time>
      </trkpt>
      <trkpt lat="44.87014" lon="6.72014">
        <ele>1635.672211</ele>
        <time>2022-09-03T09:18:06+0200</time>
      </trkpt>
      <trkpt lat="44.87014" lon="6.72008">
        <ele>1637.329699</ele>
        <time>2022-09-03T09:18:09+0200</time>
      </trkpt>
      <trkpt lat="44.87009" lon="6.7201">
        <ele>1635.015634</ele>
        <time>2022-09-03T09:19:37+0200</time>
      </trkpt>
      <trkpt lat="44.87011" lon="6.72004">
        <ele>1635.299859</ele>
        <time>2022-09-03T09:19:51+0200</time>
      </trkpt>
      <trkpt lat="44.87011" lon="6.71997">
        <ele>1634.593346</ele>
        <time>2022-09-03T09:19:53+0200</time>
      </trkpt>
      <trkpt lat="44.87012" lon="6.7199">
        <ele>1635.636737</ele>
        <time>2022-09-03T09:19:57+0200</time>
      </trkpt>
      <trkpt lat="44.87013" lon="6.71981">
        <ele>1635.211438</ele>
        <time>2022-09-03T09:20:01+0200</time>
      </trkpt>
      <trkpt lat="44.87016" lon="6.71977">
        <ele>1637.192997</ele>
        <time>2022-09-03T09:20:08+0200</time>
      </trkpt>
      <trkpt lat="44.87018" lon="6.71971">
        <ele>1636.896958</ele>
        <time>2022-09-03T09:20:23+0200</time>
      </trkpt>
      <trkpt lat="44.87014" lon="6.71967">
        <ele>1638.011205</ele>
        <time>2022-09-03T09:20:28+0200</time>
      </trkpt>
      <trkpt lat="44.87013" lon="6.71974">
        <ele>1635.178941</ele>
        <time>2022-09-03T09:20:43+0200</time>
      </trkpt>
      <trkpt lat="44.87009" lon="6.71967">
        <ele>1638.708986</ele>
        <time>2022-09-03T09:29:31+0200</time>
      </trkpt>
      <trkpt lat="44.8701" lon="6.7196">
        <ele>1639.487149</ele>
        <time>2022-09-03T09:29:36+0200</time>
      </trkpt>
      <trkpt lat="44.87009" lon="6.71952">
        <ele>1640.906902</ele>
        <time>2022-09-03T09:29:38+0200</time>
      </trkpt>
      <trkpt lat="44.8701" lon="6.71943">
        <ele>1643.821518</ele>
        <time>2022-09-03T09:29:41+0200</time>
      </trkpt>
      <trkpt lat="44.8701" lon="6.71936">
        <ele>1644.6769</ele>
        <time>2022-09-03T09:29:43+0200</time>
      </trkpt>
      <trkpt lat="44.8701" lon="6.71929">
        <ele>1645.475817</ele>
        <time>2022-09-03T09:29:46+0200</time>
      </trkpt>
      <trkpt lat="44.87013" lon="6.71922">
        <ele>1645.676694</ele>
        <time>2022-09-03T09:29:48+0200</time>
      </trkpt>
      <trkpt lat="44.87017" lon="6.71915">
        <ele>1645.29288</ele>
        <time>2022-09-03T09:29:50+0200</time>
      </trkpt>
      <trkpt lat="44.87021" lon="6.7191">
        <ele>1643.259758</ele>
        <time>2022-09-03T09:29:53+0200</time>
      </trkpt>
      <trkpt lat="44.87028" lon="6.71915">
        <ele>1642.447917</ele>
        <time>2022-09-03T09:29:56+0200</time>
      </trkpt>
      <trkpt lat="44.87032" lon="6.7192">
        <ele>1641.978105</ele>
        <time>2022-09-03T09:29:58+0200</time>
      </trkpt>
      <trkpt lat="44.87037" lon="6.71925">
        <ele>1640.932056</ele>
        <time>2022-09-03T09:30:00+0200</time>
      </trkpt>
      <trkpt lat="44.87043" lon="6.71934">
        <ele>1641.719913</ele>
        <time>2022-09-03T09:30:02+0200</time>
      </trkpt>
      <trkpt lat="44.87047" lon="6.71942">
        <ele>1642.581787</ele>
        <time>2022-09-03T09:30:04+0200</time>
      </trkpt>
      <trkpt lat="44.87049" lon="6.71949">
        <ele>1643.937829</ele>
        <time>2022-09-03T09:30:06+0200</time>
      </trkpt>
      <trkpt lat="44.87053" lon="6.71957">
        <ele>1645.434294</ele>
        <time>2022-09-03T09:30:08+0200</time>
      </trkpt>
      <trkpt lat="44.87054" lon="6.71963">
        <ele>1647.934986</ele>
        <time>2022-09-03T09:30:10+0200</time>
      </trkpt>
      <trkpt lat="44.87057" lon="6.71968">
        <ele>1649.928053</ele>
        <time>2022-09-03T09:30:12+0200</time>
      </trkpt>
      <trkpt lat="44.8706" lon="6.71976">
        <ele>1650.957303</ele>
        <time>2022-09-03T09:30:14+0200</time>
      </trkpt>
      <trkpt lat="44.8706" lon="6.71983">
        <ele>1651.141722</ele>
        <time>2022-09-03T09:30:16+0200</time>
      </trkpt>
      <trkpt lat="44.87063" lon="6.71991">
        <ele>1647.590707</ele>
        <time>2022-09-03T09:30:18+0200</time>
      </trkpt>
      <trkpt lat="44.87068" lon="6.72003">
        <ele>1645.62519</ele>
        <time>2022-09-03T09:30:20+0200</time>
      </trkpt>
      <trkpt lat="44.8707" lon="6.7201">
        <ele>1645.239715</ele>
        <time>2022-09-03T09:30:21+0200</time>
      </trkpt>
      <trkpt lat="44.87073" lon="6.72017">
        <ele>1644.675424</ele>
        <time>2022-09-03T09:30:22+0200</time>
      </trkpt>
      <trkpt lat="44.87075" lon="6.72023">
        <ele>1644.556104</ele>
        <time>2022-09-03T09:30:23+0200</time>
      </trkpt>
      <trkpt lat="44.87077" lon="6.7203">
        <ele>1644.97793</ele>
        <time>2022-09-03T09:30:24+0200</time>
      </trkpt>
      <trkpt lat="44.87082" lon="6.72041">
        <ele>1645.773265</ele>
        <time>2022-09-03T09:30:26+0200</time>
      </trkpt>
      <trkpt lat="44.87085" lon="6.72051">
        <ele>1647.615238</ele>
        <time>2022-09-03T09:30:28+0200</time>
      </trkpt>
      <trkpt lat="44.87087" lon="6.72056">
        <ele>1647.779469</ele>
        <time>2022-09-03T09:30:29+0200</time>
      </trkpt>
      <trkpt lat="44.87089" lon="6.72062">
        <ele>1648.294451</ele>
        <time>2022-09-03T09:30:30+0200</time>
      </trkpt>
      <trkpt lat="44.87092" lon="6.72068">
        <ele>1648.604761</ele>
        <time>2022-09-03T09:30:31+0200</time>
      </trkpt>
      <trkpt lat="44.87094" lon="6.72074">
        <ele>1649.233684</ele>
        <time>2022-09-03T09:30:32+0200</time>
      </trkpt>
      <trkpt lat="44.87094" lon="6.72082">
        <ele>1650.013147</ele>
        <time>2022-09-03T09:30:33+0200</time>
      </trkpt>
      <trkpt lat="44.87096" lon="6.72089">
        <ele>1650.960368</ele>
        <time>2022-09-03T09:30:34+0200</time>
      </trkpt>
      <trkpt lat="44.87098" lon="6.72101">
        <ele>1651.62314</ele>
        <time>2022-09-03T09:30:36+0200</time>
      </trkpt>
      <trkpt lat="44.871" lon="6.72109">
        <ele>1650.902675</ele>
        <time>2022-09-03T09:30:37+0200</time>
      </trkpt>
      <trkpt lat="44.87101" lon="6.72119">
        <ele>1648.873484</ele>
        <time>2022-09-03T09:30:39+0200</time>
      </trkpt>
      <trkpt lat="44.87105" lon="6.72129">
        <ele>1648.167783</ele>
        <time>2022-09-03T09:30:41+0200</time>
      </trkpt>
      <trkpt lat="44.87109" lon="6.72138">
        <ele>1648.496666</ele>
        <time>2022-09-03T09:30:43+0200</time>
      </trkpt>
      <trkpt lat="44.87113" lon="6.72146">
        <ele>1648.807359</ele>
        <time>2022-09-03T09:30:45+0200</time>
      </trkpt>
      <trkpt lat="44.87114" lon="6.72156">
        <ele>1649.19251</ele>
        <time>2022-09-03T09:30:47+0200</time>
      </trkpt>
      <trkpt lat="44.87116" lon="6.72168">
        <ele>1650.20701</ele>
        <time>2022-09-03T09:30:49+0200</time>
      </trkpt>
      <trkpt lat="44.87116" lon="6.72175">
        <ele>1650.250809</ele>
        <time>2022-09-03T09:30:50+0200</time>
      </trkpt>
      <trkpt lat="44.87117" lon="6.72182">
        <ele>1650.484789</ele>
        <time>2022-09-03T09:30:51+0200</time>
      </trkpt>
      <trkpt lat="44.87118" lon="6.7219">
        <ele>1650.266005</ele>
        <time>2022-09-03T09:30:52+0200</time>
      </trkpt>
      <trkpt lat="44.8712" lon="6.72199">
        <ele>1649.775423</ele>
        <time>2022-09-03T09:30:53+0200</time>
      </trkpt>
      <trkpt lat="44.87121" lon="6.72207">
        <ele>1649.58521</ele>
        <time>2022-09-03T09:30:54+0200</time>
      </trkpt>
      <trkpt lat="44.87122" lon="6.72215">
        <ele>1650.323469</ele>
        <time>2022-09-03T09:30:55+0200</time>
      </trkpt>
      <trkpt lat="44.87124" lon="6.72223">
        <ele>1650.817259</ele>
        <time>2022-09-03T09:30:56+0200</time>
      </trkpt>
      <trkpt lat="44.87125" lon="6.72231">
        <ele>1650.483266</ele>
        <time>2022-09-03T09:30:57+0200</time>
      </trkpt>
      <trkpt lat="44.87127" lon="6.72239">
        <ele>1650.609708</ele>
        <time>2022-09-03T09:30:58+0200</time>
      </trkpt>
      <trkpt lat="44.87128" lon="6.72247">
        <ele>1651.27095</ele>
        <time>2022-09-03T09:30:59+0200</time>
      </trkpt>
      <trkpt lat="44.8713" lon="6.72254">
        <ele>1651.420479</ele>
        <time>2022-09-03T09:31:00+0200</time>
      </trkpt>
      <trkpt lat="44.87131" lon="6.72261">
        <ele>1651.638775</ele>
        <time>2022-09-03T09:31:01+0200</time>
      </trkpt>
      <trkpt lat="44.87132" lon="6.72269">
        <ele>1651.724535</ele>
        <time>2022-09-03T09:31:02+0200</time>
      </trkpt>
      <trkpt lat="44.87132" lon="6.72278">
        <ele>1651.435332</ele>
        <time>2022-09-03T09:31:03+0200</time>
      </trkpt>
      <trkpt lat="44.87133" lon="6.72286">
        <ele>1651.776246</ele>
        <time>2022-09-03T09:31:04+0200</time>
      </trkpt>
      <trkpt lat="44.87134" lon="6.72292">
        <ele>1652.611486</ele>
        <time>2022-09-03T09:31:05+0200</time>
      </trkpt>
      <trkpt lat="44.87133" lon="6.72302">
        <ele>1651.242047</ele>
        <time>2022-09-03T09:31:07+0200</time>
      </trkpt>
      <trkpt lat="44.87133" lon="6.72312">
        <ele>1649.62817</ele>
        <time>2022-09-03T09:31:09+0200</time>
      </trkpt>
      <trkpt lat="44.87133" lon="6.72325">
        <ele>1650.953535</ele>
        <time>2022-09-03T09:31:11+0200</time>
      </trkpt>
      <trkpt lat="44.87133" lon="6.72333">
        <ele>1651.110664</ele>
        <time>2022-09-03T09:31:12+0200</time>
      </trkpt>
      <trkpt lat="44.87133" lon="6.72339">
        <ele>1651.907271</ele>
        <time>2022-09-03T09:31:13+0200</time>
      </trkpt>
      <trkpt lat="44.87134" lon="6.72352">
        <ele>1653.14973</ele>
        <time>2022-09-03T09:31:15+0200</time>
      </trkpt>
      <trkpt lat="44.87135" lon="6.72359">
        <ele>1653.263693</ele>
        <time>2022-09-03T09:31:16+0200</time>
      </trkpt>
      <trkpt lat="44.87135" lon="6.72371">
        <ele>1654.081645</ele>
        <time>2022-09-03T09:31:18+0200</time>
      </trkpt>
      <trkpt lat="44.87136" lon="6.72378">
        <ele>1654.622132</ele>
        <time>2022-09-03T09:31:19+0200</time>
      </trkpt>
      <trkpt lat="44.87137" lon="6.7239">
        <ele>1655.422756</ele>
        <time>2022-09-03T09:31:21+0200</time>
      </trkpt>
      <trkpt lat="44.87139" lon="6.72396">
        <ele>1655.721762</ele>
        <time>2022-09-03T09:31:22+0200</time>
      </trkpt>
      <trkpt lat="44.87143" lon="6.72407">
        <ele>1655.553406</ele>
        <time>2022-09-03T09:31:24+0200</time>
      </trkpt>
      <trkpt lat="44.87146" lon="6.72414">
        <ele>1656.372394</ele>
        <time>2022-09-03T09:31:25+0200</time>
      </trkpt>
      <trkpt lat="44.87149" lon="6.72419">
        <ele>1657.353873</ele>
        <time>2022-09-03T09:31:26+0200</time>
      </trkpt>
      <trkpt lat="44.87152" lon="6.72426">
        <ele>1657.633452</ele>
        <time>2022-09-03T09:31:27+0200</time>
      </trkpt>
      <trkpt lat="44.87156" lon="6.72436">
        <ele>1658.71711</ele>
        <time>2022-09-03T09:31:29+0200</time>
      </trkpt>
      <trkpt lat="44.87158" lon="6.72443">
        <ele>1659.018957</ele>
        <time>2022-09-03T09:31:30+0200</time>
      </trkpt>
      <trkpt lat="44.8716" lon="6.72451">
        <ele>1660.108384</ele>
        <time>2022-09-03T09:31:32+0200</time>
      </trkpt>
      <trkpt lat="44.87162" lon="6.72462">
        <ele>1661.232324</ele>
        <time>2022-09-03T09:31:34+0200</time>
      </trkpt>
      <trkpt lat="44.87165" lon="6.72473">
        <ele>1660.034108</ele>
        <time>2022-09-03T09:31:36+0200</time>
      </trkpt>
      <trkpt lat="44.87167" lon="6.72483">
        <ele>1657.785669</ele>
        <time>2022-09-03T09:31:38+0200</time>
      </trkpt>
      <trkpt lat="44.87168" lon="6.72489">
        <ele>1657.292838</ele>
        <time>2022-09-03T09:31:39+0200</time>
      </trkpt>
      <trkpt lat="44.87171" lon="6.72501">
        <ele>1657.356473</ele>
        <time>2022-09-03T09:31:41+0200</time>
      </trkpt>
      <trkpt lat="44.87174" lon="6.72512">
        <ele>1658.150726</ele>
        <time>2022-09-03T09:31:43+0200</time>
      </trkpt>
      <trkpt lat="44.87179" lon="6.7252">
        <ele>1659.415218</ele>
        <time>2022-09-03T09:31:45+0200</time>
      </trkpt>
      <trkpt lat="44.87187" lon="6.72522">
        <ele>1659.842094</ele>
        <time>2022-09-03T09:31:47+0200</time>
      </trkpt>
      <trkpt lat="44.87193" lon="6.72517">
        <ele>1661.483441</ele>
        <time>2022-09-03T09:31:49+0200</time>
      </trkpt>
      <trkpt lat="44.87195" lon="6.72508">
        <ele>1662.868177</ele>
        <time>2022-09-03T09:31:51+0200</time>
      </trkpt>
      <trkpt lat="44.87194" lon="6.72498">
        <ele>1665.075363</ele>
        <time>2022-09-03T09:31:53+0200</time>
      </trkpt>
      <trkpt lat="44.87193" lon="6.72492">
        <ele>1666.444797</ele>
        <time>2022-09-03T09:31:54+0200</time>
      </trkpt>
      <trkpt lat="44.87191" lon="6.72482">
        <ele>1667.928089</ele>
        <time>2022-09-03T09:31:56+0200</time>
      </trkpt>
      <trkpt lat="44.87191" lon="6.72471">
        <ele>1668.795745</ele>
        <time>2022-09-03T09:31:58+0200</time>
      </trkpt>
      <trkpt lat="44.87191" lon="6.72464">
        <ele>1669.173427</ele>
        <time>2022-09-03T09:31:59+0200</time>
      </trkpt>
      <trkpt lat="44.87189" lon="6.72455">
        <ele>1669.118478</ele>
        <time>2022-09-03T09:32:01+0200</time>
      </trkpt>
      <trkpt lat="44.8719" lon="6.72444">
        <ele>1669.296429</ele>
        <time>2022-09-03T09:32:03+0200</time>
      </trkpt>
      <trkpt lat="44.8719" lon="6.72435">
        <ele>1669.423883</ele>
        <time>2022-09-03T09:32:05+0200</time>
      </trkpt>
      <trkpt lat="44.87191" lon="6.72424">
        <ele>1669.751261</ele>
        <time>2022-09-03T09:32:07+0200</time>
      </trkpt>
      <trkpt lat="44.8719" lon="6.72414">
        <ele>1670.284293</ele>
        <time>2022-09-03T09:32:09+0200</time>
      </trkpt>
      <trkpt lat="44.87189" lon="6.72404">
        <ele>1670.098149</ele>
        <time>2022-09-03T09:32:11+0200</time>
      </trkpt>
      <trkpt lat="44.87189" lon="6.72393">
        <ele>1670.641183</ele>
        <time>2022-09-03T09:32:13+0200</time>
      </trkpt>
      <trkpt lat="44.87189" lon="6.72382">
        <ele>1670.675047</ele>
        <time>2022-09-03T09:32:15+0200</time>
      </trkpt>
      <trkpt lat="44.8719" lon="6.72375">
        <ele>1670.10763</ele>
        <time>2022-09-03T09:32:17+0200</time>
      </trkpt>
      <trkpt lat="44.87193" lon="6.72365">
        <ele>1670.645426</ele>
        <time>2022-09-03T09:32:19+0200</time>
      </trkpt>
      <trkpt lat="44.87195" lon="6.72356">
        <ele>1670.514617</ele>
        <time>2022-09-03T09:32:21+0200</time>
      </trkpt>
      <trkpt lat="44.87196" lon="6.72348">
        <ele>1671.157454</ele>
        <time>2022-09-03T09:32:23+0200</time>
      </trkpt>
      <trkpt lat="44.87198" lon="6.72337">
        <ele>1671.447873</ele>
        <time>2022-09-03T09:32:25+0200</time>
      </trkpt>
      <trkpt lat="44.872" lon="6.72327">
        <ele>1672.556504</ele>
        <time>2022-09-03T09:32:27+0200</time>
      </trkpt>
      <trkpt lat="44.872" lon="6.72316">
        <ele>1672.642594</ele>
        <time>2022-09-03T09:32:29+0200</time>
      </trkpt>
      <trkpt lat="44.87199" lon="6.72307">
        <ele>1674.02223</ele>
        <time>2022-09-03T09:32:31+0200</time>
      </trkpt>
      <trkpt lat="44.872" lon="6.72296">
        <ele>1675.60818</ele>
        <time>2022-09-03T09:32:33+0200</time>
      </trkpt>
      <trkpt lat="44.87199" lon="6.72285">
        <ele>1675.619048</ele>
        <time>2022-09-03T09:32:35+0200</time>
      </trkpt>
      <trkpt lat="44.872" lon="6.72274">
        <ele>1676.212411</ele>
        <time>2022-09-03T09:32:37+0200</time>
      </trkpt>
      <trkpt lat="44.87198" lon="6.72266">
        <ele>1676.860649</ele>
        <time>2022-09-03T09:32:39+0200</time>
      </trkpt>
      <trkpt lat="44.87197" lon="6.72257">
        <ele>1676.819292</ele>
        <time>2022-09-03T09:32:41+0200</time>
      </trkpt>
      <trkpt lat="44.87197" lon="6.72248">
        <ele>1678.020483</ele>
        <time>2022-09-03T09:32:43+0200</time>
      </trkpt>
      <trkpt lat="44.87198" lon="6.72237">
        <ele>1679.164537</ele>
        <time>2022-09-03T09:32:45+0200</time>
      </trkpt>
      <trkpt lat="44.87198" lon="6.72227">
        <ele>1680.165372</ele>
        <time>2022-09-03T09:32:47+0200</time>
      </trkpt>
      <trkpt lat="44.87196" lon="6.72217">
        <ele>1681.711211</ele>
        <time>2022-09-03T09:32:49+0200</time>
      </trkpt>
      <trkpt lat="44.87194" lon="6.72206">
        <ele>1681.761321</ele>
        <time>2022-09-03T09:32:51+0200</time>
      </trkpt>
      <trkpt lat="44.87193" lon="6.72195">
        <ele>1682.532893</ele>
        <time>2022-09-03T09:32:53+0200</time>
      </trkpt>
      <trkpt lat="44.87192" lon="6.72185">
        <ele>1681.816513</ele>
        <time>2022-09-03T09:32:55+0200</time>
      </trkpt>
      <trkpt lat="44.87191" lon="6.72177">
        <ele>1682.062188</ele>
        <time>2022-09-03T09:32:57+0200</time>
      </trkpt>
      <trkpt lat="44.87191" lon="6.72167">
        <ele>1681.693992</ele>
        <time>2022-09-03T09:32:59+0200</time>
      </trkpt>
      <trkpt lat="44.8719" lon="6.72157">
        <ele>1683.072412</ele>
        <time>2022-09-03T09:33:01+0200</time>
      </trkpt>
      <trkpt lat="44.87189" lon="6.72146">
        <ele>1683.891332</ele>
        <time>2022-09-03T09:33:03+0200</time>
      </trkpt>
      <trkpt lat="44.87187" lon="6.72138">
        <ele>1684.723117</ele>
        <time>2022-09-03T09:33:05+0200</time>
      </trkpt>
      <trkpt lat="44.87185" lon="6.72128">
        <ele>1684.627204</ele>
        <time>2022-09-03T09:33:07+0200</time>
      </trkpt>
      <trkpt lat="44.87183" lon="6.72121">
        <ele>1685.925883</ele>
        <time>2022-09-03T09:33:09+0200</time>
      </trkpt>
      <trkpt lat="44.87183" lon="6.72113">
        <ele>1685.273222</ele>
        <time>2022-09-03T09:33:11+0200</time>
      </trkpt>
      <trkpt lat="44.87189" lon="6.72109">
        <ele>1685.954142</ele>
        <time>2022-09-03T09:33:13+0200</time>
      </trkpt>
      <trkpt lat="44.87192" lon="6.72119">
        <ele>1686.341946</ele>
        <time>2022-09-03T09:33:16+0200</time>
      </trkpt>
      <trkpt lat="44.87194" lon="6.72128">
        <ele>1686.871637</ele>
        <time>2022-09-03T09:33:18+0200</time>
      </trkpt>
      <trkpt lat="44.87195" lon="6.72135">
        <ele>1687.208878</ele>
        <time>2022-09-03T09:33:20+0200</time>
      </trkpt>
      <trkpt lat="44.87196" lon="6.72142">
        <ele>1687.90461</ele>
        <time>2022-09-03T09:33:22+0200</time>
      </trkpt>
      <trkpt lat="44.87197" lon="6.72148">
        <ele>1688.903146</ele>
        <time>2022-09-03T09:33:24+0200</time>
      </trkpt>
      <trkpt lat="44.87199" lon="6.72156">
        <ele>1689.464237</ele>
        <time>2022-09-03T09:33:26+0200</time>
      </trkpt>
      <trkpt lat="44.87201" lon="6.72165">
        <ele>1690.033649</ele>
        <time>2022-09-03T09:33:28+0200</time>
      </trkpt>
      <trkpt lat="44.87203" lon="6.72173">
        <ele>1689.725917</ele>
        <time>2022-09-03T09:33:30+0200</time>
      </trkpt>
      <trkpt lat="44.87205" lon="6.72181">
        <ele>1690.220985</ele>
        <time>2022-09-03T09:33:32+0200</time>
      </trkpt>
      <trkpt lat="44.87208" lon="6.72189">
        <ele>1690.200367</ele>
        <time>2022-09-03T09:33:34+0200</time>
      </trkpt>
      <trkpt lat="44.87211" lon="6.72197">
        <ele>1689.5391</ele>
        <time>2022-09-03T09:33:36+0200</time>
      </trkpt>
      <trkpt lat="44.87216" lon="6.72206">
        <ele>1689.404001</ele>
        <time>2022-09-03T09:33:38+0200</time>
      </trkpt>
      <trkpt lat="44.87218" lon="6.72213">
        <ele>1689.198292</ele>
        <time>2022-09-03T09:33:40+0200</time>
      </trkpt>
      <trkpt lat="44.87219" lon="6.7222">
        <ele>1690.403032</ele>
        <time>2022-09-03T09:33:42+0200</time>
      </trkpt>
      <trkpt lat="44.8722" lon="6.72228">
        <ele>1691.293023</ele>
        <time>2022-09-03T09:33:44+0200</time>
      </trkpt>
      <trkpt lat="44.87222" lon="6.72237">
        <ele>1692.872846</ele>
        <time>2022-09-03T09:33:46+0200</time>
      </trkpt>
      <trkpt lat="44.87223" lon="6.72244">
        <ele>1693.94156</ele>
        <time>2022-09-03T09:33:48+0200</time>
      </trkpt>
      <trkpt lat="44.87225" lon="6.72254">
        <ele>1694.437733</ele>
        <time>2022-09-03T09:33:50+0200</time>
      </trkpt>
      <trkpt lat="44.87227" lon="6.72263">
        <ele>1694.94133</ele>
        <time>2022-09-03T09:33:52+0200</time>
      </trkpt>
      <trkpt lat="44.8723" lon="6.72272">
        <ele>1695.084899</ele>
        <time>2022-09-03T09:33:54+0200</time>
      </trkpt>
      <trkpt lat="44.87234" lon="6.72281">
        <ele>1695.278608</ele>
        <time>2022-09-03T09:33:56+0200</time>
      </trkpt>
      <trkpt lat="44.87238" lon="6.7229">
        <ele>1695.568615</ele>
        <time>2022-09-03T09:33:58+0200</time>
      </trkpt>
      <trkpt lat="44.87241" lon="6.72298">
        <ele>1696.507555</ele>
        <time>2022-09-03T09:34:00+0200</time>
      </trkpt>
      <trkpt lat="44.87244" lon="6.72306">
        <ele>1697.533291</ele>
        <time>2022-09-03T09:34:02+0200</time>
      </trkpt>
      <trkpt lat="44.87248" lon="6.72312">
        <ele>1697.868944</ele>
        <time>2022-09-03T09:34:04+0200</time>
      </trkpt>
      <trkpt lat="44.8725" lon="6.7232">
        <ele>1699.435459</ele>
        <time>2022-09-03T09:34:06+0200</time>
      </trkpt>
      <trkpt lat="44.87253" lon="6.72328">
        <ele>1700.565067</ele>
        <time>2022-09-03T09:34:08+0200</time>
      </trkpt>
      <trkpt lat="44.87256" lon="6.72336">
        <ele>1701.493111</ele>
        <time>2022-09-03T09:34:10+0200</time>
      </trkpt>
      <trkpt lat="44.87258" lon="6.72343">
        <ele>1703.006376</ele>
        <time>2022-09-03T09:34:12+0200</time>
      </trkpt>
      <trkpt lat="44.87262" lon="6.7235">
        <ele>1703.5594</ele>
        <time>2022-09-03T09:34:14+0200</time>
      </trkpt>
      <trkpt lat="44.87265" lon="6.72358">
        <ele>1703.259197</ele>
        <time>2022-09-03T09:34:16+0200</time>
      </trkpt>
      <trkpt lat="44.87268" lon="6.72367">
        <ele>1703.448693</ele>
        <time>2022-09-03T09:34:18+0200</time>
      </trkpt>
      <trkpt lat="44.87268" lon="6.72374">
        <ele>1703.31013</ele>
        <time>2022-09-03T09:34:20+0200</time>
      </trkpt>
      <trkpt lat="44.87268" lon="6.72382">
        <ele>1703.915806</ele>
        <time>2022-09-03T09:34:23+0200</time>
      </trkpt>
      <trkpt lat="44.87268" lon="6.7239">
        <ele>1705.273028</ele>
        <time>2022-09-03T09:34:26+0200</time>
      </trkpt>
      <trkpt lat="44.87268" lon="6.724">
        <ele>1705.132098</ele>
        <time>2022-09-03T09:34:29+0200</time>
      </trkpt>
      <trkpt lat="44.8727" lon="6.72408">
        <ele>1704.541043</ele>
        <time>2022-09-03T09:34:31+0200</time>
      </trkpt>
      <trkpt lat="44.87272" lon="6.72416">
        <ele>1704.830786</ele>
        <time>2022-09-03T09:34:33+0200</time>
      </trkpt>
      <trkpt lat="44.87273" lon="6.72425">
        <ele>1704.723541</ele>
        <time>2022-09-03T09:34:35+0200</time>
      </trkpt>
      <trkpt lat="44.87274" lon="6.72432">
        <ele>1705.636728</ele>
        <time>2022-09-03T09:34:37+0200</time>
      </trkpt>
      <trkpt lat="44.87276" lon="6.72439">
        <ele>1705.796782</ele>
        <time>2022-09-03T09:34:39+0200</time>
      </trkpt>
      <trkpt lat="44.87278" lon="6.72449">
        <ele>1706.034228</ele>
        <time>2022-09-03T09:34:41+0200</time>
      </trkpt>
      <trkpt lat="44.87281" lon="6.72458">
        <ele>1706.711021</ele>
        <time>2022-09-03T09:34:43+0200</time>
      </trkpt>
      <trkpt lat="44.87283" lon="6.72464">
        <ele>1707.858533</ele>
        <time>2022-09-03T09:34:45+0200</time>
      </trkpt>
      <trkpt lat="44.87286" lon="6.72471">
        <ele>1709.101894</ele>
        <time>2022-09-03T09:34:47+0200</time>
      </trkpt>
      <trkpt lat="44.8729" lon="6.7248">
        <ele>1710.870172</ele>
        <time>2022-09-03T09:34:49+0200</time>
      </trkpt>
      <trkpt lat="44.87293" lon="6.72488">
        <ele>1711.746813</ele>
        <time>2022-09-03T09:34:51+0200</time>
      </trkpt>
      <trkpt lat="44.87296" lon="6.72496">
        <ele>1712.170288</ele>
        <time>2022-09-03T09:34:53+0200</time>
      </trkpt>
      <trkpt lat="44.87299" lon="6.72504">
        <ele>1712.387054</ele>
        <time>2022-09-03T09:34:55+0200</time>
      </trkpt>
      <trkpt lat="44.87301" lon="6.72512">
        <ele>1713.067337</ele>
        <time>2022-09-03T09:34:57+0200</time>
      </trkpt>
      <trkpt lat="44.87303" lon="6.7252">
        <ele>1713.90119</ele>
        <time>2022-09-03T09:34:59+0200</time>
      </trkpt>
      <trkpt lat="44.87306" lon="6.72529">
        <ele>1714.289887</ele>
        <time>2022-09-03T09:35:01+0200</time>
      </trkpt>
      <trkpt lat="44.8731" lon="6.72538">
        <ele>1714.560442</ele>
        <time>2022-09-03T09:35:03+0200</time>
      </trkpt>
      <trkpt lat="44.87314" lon="6.72547">
        <ele>1714.500568</ele>
        <time>2022-09-03T09:35:05+0200</time>
      </trkpt>
      <trkpt lat="44.8732" lon="6.72552">
        <ele>1714.749225</ele>
        <time>2022-09-03T09:35:07+0200</time>
      </trkpt>
      <trkpt lat="44.87325" lon="6.72558">
        <ele>1715.326586</ele>
        <time>2022-09-03T09:35:09+0200</time>
      </trkpt>
      <trkpt lat="44.87329" lon="6.72564">
        <ele>1716.923768</ele>
        <time>2022-09-03T09:35:11+0200</time>
      </trkpt>
      <trkpt lat="44.87331" lon="6.72572">
        <ele>1718.375222</ele>
        <time>2022-09-03T09:35:13+0200</time>
      </trkpt>
      <trkpt lat="44.87329" lon="6.72579">
        <ele>1719.808781</ele>
        <time>2022-09-03T09:35:15+0200</time>
      </trkpt>
      <trkpt lat="44.87327" lon="6.72587">
        <ele>1719.515216</ele>
        <time>2022-09-03T09:35:18+0200</time>
      </trkpt>
      <trkpt lat="44.87324" lon="6.72595">
        <ele>1719.179976</ele>
        <time>2022-09-03T09:35:20+0200</time>
      </trkpt>
      <trkpt lat="44.8732" lon="6.726">
        <ele>1719.88144</ele>
        <time>2022-09-03T09:35:22+0200</time>
      </trkpt>
      <trkpt lat="44.87318" lon="6.72607">
        <ele>1721.249147</ele>
        <time>2022-09-03T09:35:24+0200</time>
      </trkpt>
      <trkpt lat="44.87315" lon="6.72615">
        <ele>1721.506357</ele>
        <time>2022-09-03T09:35:26+0200</time>
      </trkpt>
      <trkpt lat="44.87312" lon="6.72622">
        <ele>1721.760003</ele>
        <time>2022-09-03T09:35:28+0200</time>
      </trkpt>
      <trkpt lat="44.8731" lon="6.72631">
        <ele>1722.63082</ele>
        <time>2022-09-03T09:35:31+0200</time>
      </trkpt>
      <trkpt lat="44.87306" lon="6.72641">
        <ele>1721.890282</ele>
        <time>2022-09-03T09:35:34+0200</time>
      </trkpt>
      <trkpt lat="44.87302" lon="6.72647">
        <ele>1723.477473</ele>
        <time>2022-09-03T09:35:36+0200</time>
      </trkpt>
      <trkpt lat="44.87301" lon="6.72656">
        <ele>1723.471393</ele>
        <time>2022-09-03T09:35:38+0200</time>
      </trkpt>
      <trkpt lat="44.873" lon="6.72666">
        <ele>1724.020303</ele>
        <time>2022-09-03T09:35:40+0200</time>
      </trkpt>
      <trkpt lat="44.873" lon="6.72677">
        <ele>1723.921565</ele>
        <time>2022-09-03T09:35:42+0200</time>
      </trkpt>
      <trkpt lat="44.87299" lon="6.72689">
        <ele>1723.422004</ele>
        <time>2022-09-03T09:35:44+0200</time>
      </trkpt>
      <trkpt lat="44.873" lon="6.72698">
        <ele>1724.064473</ele>
        <time>2022-09-03T09:35:46+0200</time>
      </trkpt>
      <trkpt lat="44.873" lon="6.72708">
        <ele>1725.016378</ele>
        <time>2022-09-03T09:35:48+0200</time>
      </trkpt>
      <trkpt lat="44.87301" lon="6.72716">
        <ele>1724.951295</ele>
        <time>2022-09-03T09:35:50+0200</time>
      </trkpt>
      <trkpt lat="44.87302" lon="6.72727">
        <ele>1726.183902</ele>
        <time>2022-09-03T09:35:52+0200</time>
      </trkpt>
      <trkpt lat="44.87302" lon="6.72735">
        <ele>1726.88829</ele>
        <time>2022-09-03T09:35:54+0200</time>
      </trkpt>
      <trkpt lat="44.87304" lon="6.72745">
        <ele>1726.618435</ele>
        <time>2022-09-03T09:35:56+0200</time>
      </trkpt>
      <trkpt lat="44.87306" lon="6.72754">
        <ele>1725.529541</ele>
        <time>2022-09-03T09:35:58+0200</time>
      </trkpt>
      <trkpt lat="44.87308" lon="6.72763">
        <ele>1725.056344</ele>
        <time>2022-09-03T09:36:00+0200</time>
      </trkpt>
      <trkpt lat="44.8731" lon="6.72773">
        <ele>1725.487164</ele>
        <time>2022-09-03T09:36:02+0200</time>
      </trkpt>
      <trkpt lat="44.87313" lon="6.72781">
        <ele>1726.178352</ele>
        <time>2022-09-03T09:36:04+0200</time>
      </trkpt>
      <trkpt lat="44.87316" lon="6.72789">
        <ele>1726.516642</ele>
        <time>2022-09-03T09:36:06+0200</time>
      </trkpt>
      <trkpt lat="44.87319" lon="6.72797">
        <ele>1727.982819</ele>
        <time>2022-09-03T09:36:09+0200</time>
      </trkpt>
      <trkpt lat="44.87321" lon="6.72803">
        <ele>1729.189647</ele>
        <time>2022-09-03T09:36:11+0200</time>
      </trkpt>
      <trkpt lat="44.87324" lon="6.72811">
        <ele>1731.224</ele>
        <time>2022-09-03T09:36:13+0200</time>
      </trkpt>
      <trkpt lat="44.87327" lon="6.72817">
        <ele>1733.62231</ele>
        <time>2022-09-03T09:36:16+0200</time>
      </trkpt>
      <trkpt lat="44.87331" lon="6.72823">
        <ele>1735.160673</ele>
        <time>2022-09-03T09:36:18+0200</time>
      </trkpt>
      <trkpt lat="44.87338" lon="6.72831">
        <ele>1736.501855</ele>
        <time>2022-09-03T09:36:20+0200</time>
      </trkpt>
      <trkpt lat="44.87346" lon="6.72836">
        <ele>1738.38266</ele>
        <time>2022-09-03T09:36:22+0200</time>
      </trkpt>
      <trkpt lat="44.87352" lon="6.7284">
        <ele>1739.788756</ele>
        <time>2022-09-03T09:36:24+0200</time>
      </trkpt>
      <trkpt lat="44.87359" lon="6.72844">
        <ele>1741.593119</ele>
        <time>2022-09-03T09:36:26+0200</time>
      </trkpt>
      <trkpt lat="44.87366" lon="6.72847">
        <ele>1742.920321</ele>
        <time>2022-09-03T09:36:28+0200</time>
      </trkpt>
      <trkpt lat="44.87373" lon="6.72848">
        <ele>1743.959824</ele>
        <time>2022-09-03T09:36:30+0200</time>
      </trkpt>
      <trkpt lat="44.87379" lon="6.72851">
        <ele>1745.833423</ele>
        <time>2022-09-03T09:36:32+0200</time>
      </trkpt>
      <trkpt lat="44.87384" lon="6.72854">
        <ele>1747.324131</ele>
        <time>2022-09-03T09:36:34+0200</time>
      </trkpt>
      <trkpt lat="44.87388" lon="6.72857">
        <ele>1750.518267</ele>
        <time>2022-09-03T09:36:36+0200</time>
      </trkpt>
      <trkpt lat="44.87393" lon="6.72862">
        <ele>1752.006172</ele>
        <time>2022-09-03T09:36:38+0200</time>
      </trkpt>
      <trkpt lat="44.87398" lon="6.72861">
        <ele>1751.820829</ele>
        <time>2022-09-03T09:36:39+0200</time>
      </trkpt>
      <trkpt lat="44.87404" lon="6.72862">
        <ele>1752.492467</ele>
        <time>2022-09-03T09:36:41+0200</time>
      </trkpt>
      <trkpt lat="44.8741" lon="6.72863">
        <ele>1753.839624</ele>
        <time>2022-09-03T09:36:43+0200</time>
      </trkpt>
      <trkpt lat="44.87415" lon="6.72865">
        <ele>1755.092217</ele>
        <time>2022-09-03T09:36:45+0200</time>
      </trkpt>
      <trkpt lat="44.87421" lon="6.72871">
        <ele>1756.021855</ele>
        <time>2022-09-03T09:36:47+0200</time>
      </trkpt>
      <trkpt lat="44.87426" lon="6.72875">
        <ele>1756.035047</ele>
        <time>2022-09-03T09:36:49+0200</time>
      </trkpt>
      <trkpt lat="44.87432" lon="6.72877">
        <ele>1755.80683</ele>
        <time>2022-09-03T09:36:51+0200</time>
      </trkpt>
      <trkpt lat="44.87437" lon="6.72881">
        <ele>1755.187471</ele>
        <time>2022-09-03T09:36:53+0200</time>
      </trkpt>
      <trkpt lat="44.87441" lon="6.72885">
        <ele>1754.992634</ele>
        <time>2022-09-03T09:36:54+0200</time>
      </trkpt>
      <trkpt lat="44.87447" lon="6.72888">
        <ele>1753.7154</ele>
        <time>2022-09-03T09:36:56+0200</time>
      </trkpt>
      <trkpt lat="44.87454" lon="6.7289">
        <ele>1752.834743</ele>
        <time>2022-09-03T09:36:58+0200</time>
      </trkpt>
      <trkpt lat="44.87461" lon="6.72892">
        <ele>1751.544551</ele>
        <time>2022-09-03T09:37:00+0200</time>
      </trkpt>
      <trkpt lat="44.87468" lon="6.72893">
        <ele>1750.855184</ele>
        <time>2022-09-03T09:37:02+0200</time>
      </trkpt>
      <trkpt lat="44.87474" lon="6.72896">
        <ele>1749.847751</ele>
        <time>2022-09-03T09:37:04+0200</time>
      </trkpt>
      <trkpt lat="44.87478" lon="6.72899">
        <ele>1749.624136</ele>
        <time>2022-09-03T09:37:06+0200</time>
      </trkpt>
      <trkpt lat="44.87483" lon="6.72904">
        <ele>1749.806361</ele>
        <time>2022-09-03T09:37:08+0200</time>
      </trkpt>
      <trkpt lat="44.87487" lon="6.72908">
        <ele>1749.497064</ele>
        <time>2022-09-03T09:37:10+0200</time>
      </trkpt>
      <trkpt lat="44.87491" lon="6.72907">
        <ele>1749.513609</ele>
        <time>2022-09-03T09:37:15+0200</time>
      </trkpt>
      <trkpt lat="44.87492" lon="6.72915">
        <ele>1748.776853</ele>
        <time>2022-09-03T09:37:21+0200</time>
      </trkpt>
      <trkpt lat="44.87491" lon="6.72924">
        <ele>1747.7376</ele>
        <time>2022-09-03T09:37:24+0200</time>
      </trkpt>
      <trkpt lat="44.8749" lon="6.72931">
        <ele>1747.261166</ele>
        <time>2022-09-03T09:37:26+0200</time>
      </trkpt>
      <trkpt lat="44.87492" lon="6.72943">
        <ele>1747.120046</ele>
        <time>2022-09-03T09:37:28+0200</time>
      </trkpt>
      <trkpt lat="44.87495" lon="6.72954">
        <ele>1747.555386</ele>
        <time>2022-09-03T09:37:30+0200</time>
      </trkpt>
      <trkpt lat="44.87498" lon="6.72964">
        <ele>1748.237232</ele>
        <time>2022-09-03T09:37:32+0200</time>
      </trkpt>
      <trkpt lat="44.87499" lon="6.7297">
        <ele>1748.376605</ele>
        <time>2022-09-03T09:37:33+0200</time>
      </trkpt>
      <trkpt lat="44.87502" lon="6.7298">
        <ele>1749.742289</ele>
        <time>2022-09-03T09:37:35+0200</time>
      </trkpt>
      <trkpt lat="44.87504" lon="6.72988">
        <ele>1751.343495</ele>
        <time>2022-09-03T09:37:37+0200</time>
      </trkpt>
      <trkpt lat="44.87506" lon="6.72994">
        <ele>1752.185995</ele>
        <time>2022-09-03T09:37:38+0200</time>
      </trkpt>
      <trkpt lat="44.87509" lon="6.73003">
        <ele>1753.574819</ele>
        <time>2022-09-03T09:37:40+0200</time>
      </trkpt>
      <trkpt lat="44.87512" lon="6.73011">
        <ele>1755.510828</ele>
        <time>2022-09-03T09:37:42+0200</time>
      </trkpt>
      <trkpt lat="44.87516" lon="6.7302">
        <ele>1756.842787</ele>
        <time>2022-09-03T09:37:44+0200</time>
      </trkpt>
      <trkpt lat="44.87523" lon="6.73028">
        <ele>1758.775219</ele>
        <time>2022-09-03T09:37:46+0200</time>
      </trkpt>
      <trkpt lat="44.87527" lon="6.73033">
        <ele>1759.871596</ele>
        <time>2022-09-03T09:37:47+0200</time>
      </trkpt>
      <trkpt lat="44.87533" lon="6.7304">
        <ele>1761.729593</ele>
        <time>2022-09-03T09:37:49+0200</time>
      </trkpt>
      <trkpt lat="44.87537" lon="6.73043">
        <ele>1762.675761</ele>
        <time>2022-09-03T09:37:50+0200</time>
      </trkpt>
      <trkpt lat="44.87544" lon="6.73048">
        <ele>1763.19677</ele>
        <time>2022-09-03T09:37:52+0200</time>
      </trkpt>
      <trkpt lat="44.87548" lon="6.73055">
        <ele>1763.844655</ele>
        <time>2022-09-03T09:37:54+0200</time>
      </trkpt>
      <trkpt lat="44.87554" lon="6.73057">
        <ele>1764.112617</ele>
        <time>2022-09-03T09:37:56+0200</time>
      </trkpt>
      <trkpt lat="44.87561" lon="6.73056">
        <ele>1765.000725</ele>
        <time>2022-09-03T09:37:58+0200</time>
      </trkpt>
      <trkpt lat="44.87564" lon="6.73049">
        <ele>1766.245995</ele>
        <time>2022-09-03T09:38:00+0200</time>
      </trkpt>
      <trkpt lat="44.87562" lon="6.73042">
        <ele>1767.428554</ele>
        <time>2022-09-03T09:38:02+0200</time>
      </trkpt>
      <trkpt lat="44.87558" lon="6.73038">
        <ele>1769.006878</ele>
        <time>2022-09-03T09:38:04+0200</time>
      </trkpt>
      <trkpt lat="44.87554" lon="6.73035">
        <ele>1770.327662</ele>
        <time>2022-09-03T09:38:06+0200</time>
      </trkpt>
      <trkpt lat="44.87552" lon="6.73029">
        <ele>1771.03443</ele>
        <time>2022-09-03T09:38:08+0200</time>
      </trkpt>
      <trkpt lat="44.87547" lon="6.73026">
        <ele>1771.93158</ele>
        <time>2022-09-03T09:38:10+0200</time>
      </trkpt>
      <trkpt lat="44.87542" lon="6.73022">
        <ele>1771.894104</ele>
        <time>2022-09-03T09:38:12+0200</time>
      </trkpt>
      <trkpt lat="44.8754" lon="6.73013">
        <ele>1772.662395</ele>
        <time>2022-09-03T09:38:15+0200</time>
      </trkpt>
      <trkpt lat="44.87538" lon="6.73007">
        <ele>1773.554544</ele>
        <time>2022-09-03T09:38:17+0200</time>
      </trkpt>
      <trkpt lat="44.87535" lon="6.73">
        <ele>1773.368699</ele>
        <time>2022-09-03T09:38:19+0200</time>
      </trkpt>
      <trkpt lat="44.87531" lon="6.72993">
        <ele>1773.680095</ele>
        <time>2022-09-03T09:38:21+0200</time>
      </trkpt>
      <trkpt lat="44.87529" lon="6.72986">
        <ele>1773.47413</ele>
        <time>2022-09-03T09:38:23+0200</time>
      </trkpt>
      <trkpt lat="44.87529" lon="6.72976">
        <ele>1771.45234</ele>
        <time>2022-09-03T09:38:25+0200</time>
      </trkpt>
      <trkpt lat="44.8753" lon="6.72967">
        <ele>1769.351122</ele>
        <time>2022-09-03T09:38:27+0200</time>
      </trkpt>
      <trkpt lat="44.87536" lon="6.72962">
        <ele>1768.051012</ele>
        <time>2022-09-03T09:38:29+0200</time>
      </trkpt>
      <trkpt lat="44.87542" lon="6.72965">
        <ele>1767.879095</ele>
        <time>2022-09-03T09:38:31+0200</time>
      </trkpt>
      <trkpt lat="44.87545" lon="6.72972">
        <ele>1769.228654</ele>
        <time>2022-09-03T09:38:33+0200</time>
      </trkpt>
      <trkpt lat="44.87547" lon="6.72978">
        <ele>1770.610085</ele>
        <time>2022-09-03T09:38:35+0200</time>
      </trkpt>
      <trkpt lat="44.8755" lon="6.72984">
        <ele>1772.234401</ele>
        <time>2022-09-03T09:38:37+0200</time>
      </trkpt>
      <trkpt lat="44.87554" lon="6.72991">
        <ele>1774.802617</ele>
        <time>2022-09-03T09:38:40+0200</time>
      </trkpt>
      <trkpt lat="44.87558" lon="6.72998">
        <ele>1776.178814</ele>
        <time>2022-09-03T09:38:42+0200</time>
      </trkpt>
      <trkpt lat="44.87564" lon="6.73004">
        <ele>1779.70688</ele>
        <time>2022-09-03T09:38:45+0200</time>
      </trkpt>
      <trkpt lat="44.87569" lon="6.73009">
        <ele>1782.011289</ele>
        <time>2022-09-03T09:38:47+0200</time>
      </trkpt>
      <trkpt lat="44.87575" lon="6.73014">
        <ele>1782.692508</ele>
        <time>2022-09-03T09:38:49+0200</time>
      </trkpt>
      <trkpt lat="44.87579" lon="6.73018">
        <ele>1783.159243</ele>
        <time>2022-09-03T09:38:51+0200</time>
      </trkpt>
      <trkpt lat="44.87583" lon="6.73026">
        <ele>1784.496883</ele>
        <time>2022-09-03T09:38:54+0200</time>
      </trkpt>
      <trkpt lat="44.87586" lon="6.73032">
        <ele>1783.531213</ele>
        <time>2022-09-03T09:38:56+0200</time>
      </trkpt>
      <trkpt lat="44.87589" lon="6.73038">
        <ele>1783.068358</ele>
        <time>2022-09-03T09:38:58+0200</time>
      </trkpt>
      <trkpt lat="44.87591" lon="6.73044">
        <ele>1782.166284</ele>
        <time>2022-09-03T09:39:00+0200</time>
      </trkpt>
      <trkpt lat="44.87593" lon="6.73051">
        <ele>1781.209981</ele>
        <time>2022-09-03T09:39:03+0200</time>
      </trkpt>
      <trkpt lat="44.87596" lon="6.73059">
        <ele>1780.636854</ele>
        <time>2022-09-03T09:39:06+0200</time>
      </trkpt>
      <trkpt lat="44.87599" lon="6.73066">
        <ele>1780.76281</ele>
        <time>2022-09-03T09:39:08+0200</time>
      </trkpt>
      <trkpt lat="44.87604" lon="6.73069">
        <ele>1780.890244</ele>
        <time>2022-09-03T09:39:10+0200</time>
      </trkpt>
      <trkpt lat="44.87613" lon="6.73071">
        <ele>1782.549229</ele>
        <time>2022-09-03T09:39:12+0200</time>
      </trkpt>
      <trkpt lat="44.87615" lon="6.73066">
        <ele>1785.339649</ele>
        <time>2022-09-03T09:39:15+0200</time>
      </trkpt>
      <trkpt lat="44.87612" lon="6.73059">
        <ele>1787.436276</ele>
        <time>2022-09-03T09:39:17+0200</time>
      </trkpt>
      <trkpt lat="44.87612" lon="6.7305">
        <ele>1788.593768</ele>
        <time>2022-09-03T09:39:20+0200</time>
      </trkpt>
      <trkpt lat="44.87611" lon="6.73044">
        <ele>1790.195624</ele>
        <time>2022-09-03T09:39:22+0200</time>
      </trkpt>
      <trkpt lat="44.87609" lon="6.73036">
        <ele>1791.241324</ele>
        <time>2022-09-03T09:39:24+0200</time>
      </trkpt>
      <trkpt lat="44.87607" lon="6.73026">
        <ele>1792.559149</ele>
        <time>2022-09-03T09:39:26+0200</time>
      </trkpt>
      <trkpt lat="44.87604" lon="6.73019">
        <ele>1794.071423</ele>
        <time>2022-09-03T09:39:28+0200</time>
      </trkpt>
      <trkpt lat="44.87602" lon="6.73011">
        <ele>1794.343261</ele>
        <time>2022-09-03T09:39:30+0200</time>
      </trkpt>
      <trkpt lat="44.87601" lon="6.73003">
        <ele>1794.683812</ele>
        <time>2022-09-03T09:39:32+0200</time>
      </trkpt>
      <trkpt lat="44.87598" lon="6.72995">
        <ele>1794.641248</ele>
        <time>2022-09-03T09:39:34+0200</time>
      </trkpt>
      <trkpt lat="44.87597" lon="6.72988">
        <ele>1795.609668</ele>
        <time>2022-09-03T09:39:36+0200</time>
      </trkpt>
      <trkpt lat="44.87595" lon="6.72981">
        <ele>1796.778968</ele>
        <time>2022-09-03T09:39:38+0200</time>
      </trkpt>
      <trkpt lat="44.87597" lon="6.7297">
        <ele>1795.790735</ele>
        <time>2022-09-03T09:39:41+0200</time>
      </trkpt>
      <trkpt lat="44.876" lon="6.72964">
        <ele>1795.232387</ele>
        <time>2022-09-03T09:39:43+0200</time>
      </trkpt>
      <trkpt lat="44.87604" lon="6.7297">
        <ele>1796.374053</ele>
        <time>2022-09-03T09:39:47+0200</time>
      </trkpt>
      <trkpt lat="44.87605" lon="6.72978">
        <ele>1797.568639</ele>
        <time>2022-09-03T09:39:50+0200</time>
      </trkpt>
      <trkpt lat="44.87607" lon="6.72986">
        <ele>1798.092887</ele>
        <time>2022-09-03T09:39:53+0200</time>
      </trkpt>
      <trkpt lat="44.87609" lon="6.72993">
        <ele>1797.566657</ele>
        <time>2022-09-03T09:39:55+0200</time>
      </trkpt>
      <trkpt lat="44.87613" lon="6.72999">
        <ele>1797.312018</ele>
        <time>2022-09-03T09:39:57+0200</time>
      </trkpt>
      <trkpt lat="44.87617" lon="6.73007">
        <ele>1796.678538</ele>
        <time>2022-09-03T09:39:59+0200</time>
      </trkpt>
      <trkpt lat="44.8762" lon="6.73014">
        <ele>1796.696052</ele>
        <time>2022-09-03T09:40:01+0200</time>
      </trkpt>
      <trkpt lat="44.87624" lon="6.73021">
        <ele>1796.683797</ele>
        <time>2022-09-03T09:40:03+0200</time>
      </trkpt>
      <trkpt lat="44.8763" lon="6.73028">
        <ele>1797.291154</ele>
        <time>2022-09-03T09:40:05+0200</time>
      </trkpt>
      <trkpt lat="44.87635" lon="6.73032">
        <ele>1797.619468</ele>
        <time>2022-09-03T09:40:07+0200</time>
      </trkpt>
      <trkpt lat="44.8764" lon="6.73037">
        <ele>1797.92658</ele>
        <time>2022-09-03T09:40:09+0200</time>
      </trkpt>
      <trkpt lat="44.87647" lon="6.7304">
        <ele>1797.158874</ele>
        <time>2022-09-03T09:40:11+0200</time>
      </trkpt>
      <trkpt lat="44.87652" lon="6.73046">
        <ele>1798.05624</ele>
        <time>2022-09-03T09:40:13+0200</time>
      </trkpt>
      <trkpt lat="44.87659" lon="6.73047">
        <ele>1799.006591</ele>
        <time>2022-09-03T09:40:15+0200</time>
      </trkpt>
      <trkpt lat="44.87665" lon="6.7305">
        <ele>1799.356038</ele>
        <time>2022-09-03T09:40:17+0200</time>
      </trkpt>
      <trkpt lat="44.8767" lon="6.73056">
        <ele>1800.29236</ele>
        <time>2022-09-03T09:40:19+0200</time>
      </trkpt>
      <trkpt lat="44.87675" lon="6.73062">
        <ele>1801.434655</ele>
        <time>2022-09-03T09:40:21+0200</time>
      </trkpt>
      <trkpt lat="44.8768" lon="6.73068">
        <ele>1803.365717</ele>
        <time>2022-09-03T09:40:24+0200</time>
      </trkpt>
      <trkpt lat="44.87683" lon="6.73073">
        <ele>1803.905955</ele>
        <time>2022-09-03T09:40:26+0200</time>
      </trkpt>
      <trkpt lat="44.87688" lon="6.73076">
        <ele>1804.949415</ele>
        <time>2022-09-03T09:40:28+0200</time>
      </trkpt>
      <trkpt lat="44.87691" lon="6.7308">
        <ele>1805.935826</ele>
        <time>2022-09-03T09:40:30+0200</time>
      </trkpt>
      <trkpt lat="44.87695" lon="6.73083">
        <ele>1806.774921</ele>
        <time>2022-09-03T09:40:32+0200</time>
      </trkpt>
      <trkpt lat="44.87702" lon="6.73084">
        <ele>1809.026391</ele>
        <time>2022-09-03T09:40:34+0200</time>
      </trkpt>
      <trkpt lat="44.87708" lon="6.73084">
        <ele>1810.183475</ele>
        <time>2022-09-03T09:40:36+0200</time>
      </trkpt>
      <trkpt lat="44.87713" lon="6.73087">
        <ele>1811.175934</ele>
        <time>2022-09-03T09:40:38+0200</time>
      </trkpt>
      <trkpt lat="44.87718" lon="6.73093">
        <ele>1812.064498</ele>
        <time>2022-09-03T09:40:40+0200</time>
      </trkpt>
      <trkpt lat="44.87721" lon="6.73098">
        <ele>1812.403185</ele>
        <time>2022-09-03T09:40:42+0200</time>
      </trkpt>
      <trkpt lat="44.87722" lon="6.73107">
        <ele>1812.17126</ele>
        <time>2022-09-03T09:40:46+0200</time>
      </trkpt>
      <trkpt lat="44.87721" lon="6.73117">
        <ele>1811.860772</ele>
        <time>2022-09-03T09:40:49+0200</time>
      </trkpt>
      <trkpt lat="44.87721" lon="6.73123">
        <ele>1812.117454</ele>
        <time>2022-09-03T09:40:51+0200</time>
      </trkpt>
      <trkpt lat="44.8772" lon="6.7313">
        <ele>1811.656918</ele>
        <time>2022-09-03T09:40:53+0200</time>
      </trkpt>
      <trkpt lat="44.8772" lon="6.73139">
        <ele>1812.517443</ele>
        <time>2022-09-03T09:40:56+0200</time>
      </trkpt>
      <trkpt lat="44.87717" lon="6.73148">
        <ele>1812.57055</ele>
        <time>2022-09-03T09:40:58+0200</time>
      </trkpt>
      <trkpt lat="44.87716" lon="6.73154">
        <ele>1813.653525</ele>
        <time>2022-09-03T09:41:00+0200</time>
      </trkpt>
      <trkpt lat="44.87714" lon="6.7316">
        <ele>1815.578519</ele>
        <time>2022-09-03T09:41:02+0200</time>
      </trkpt>
      <trkpt lat="44.87711" lon="6.73164">
        <ele>1815.885543</ele>
        <time>2022-09-03T09:41:04+0200</time>
      </trkpt>
      <trkpt lat="44.87707" lon="6.7317">
        <ele>1815.123341</ele>
        <time>2022-09-03T09:41:06+0200</time>
      </trkpt>
      <trkpt lat="44.87703" lon="6.73173">
        <ele>1814.896168</ele>
        <time>2022-09-03T09:41:08+0200</time>
      </trkpt>
      <trkpt lat="44.877" lon="6.73177">
        <ele>1814.015133</ele>
        <time>2022-09-03T09:41:10+0200</time>
      </trkpt>
      <trkpt lat="44.87695" lon="6.73182">
        <ele>1813.732099</ele>
        <time>2022-09-03T09:41:12+0200</time>
      </trkpt>
      <trkpt lat="44.87691" lon="6.73188">
        <ele>1812.780865</ele>
        <time>2022-09-03T09:41:14+0200</time>
      </trkpt>
      <trkpt lat="44.87685" lon="6.73193">
        <ele>1811.733742</ele>
        <time>2022-09-03T09:41:16+0200</time>
      </trkpt>
      <trkpt lat="44.87681" lon="6.73197">
        <ele>1811.227104</ele>
        <time>2022-09-03T09:41:18+0200</time>
      </trkpt>
      <trkpt lat="44.87678" lon="6.73207">
        <ele>1811.131526</ele>
        <time>2022-09-03T09:41:20+0200</time>
      </trkpt>
      <trkpt lat="44.87674" lon="6.73218">
        <ele>1811.41639</ele>
        <time>2022-09-03T09:41:22+0200</time>
      </trkpt>
      <trkpt lat="44.87672" lon="6.73226">
        <ele>1813.614844</ele>
        <time>2022-09-03T09:41:24+0200</time>
      </trkpt>
      <trkpt lat="44.87671" lon="6.73236">
        <ele>1814.337389</ele>
        <time>2022-09-03T09:41:26+0200</time>
      </trkpt>
      <trkpt lat="44.8767" lon="6.73245">
        <ele>1815.923809</ele>
        <time>2022-09-03T09:41:28+0200</time>
      </trkpt>
      <trkpt lat="44.8767" lon="6.73255">
        <ele>1816.477063</ele>
        <time>2022-09-03T09:41:30+0200</time>
      </trkpt>
      <trkpt lat="44.87672" lon="6.73264">
        <ele>1817.45107</ele>
        <time>2022-09-03T09:41:32+0200</time>
      </trkpt>
      <trkpt lat="44.87676" lon="6.73272">
        <ele>1818.565213</ele>
        <time>2022-09-03T09:41:34+0200</time>
      </trkpt>
      <trkpt lat="44.8768" lon="6.7328">
        <ele>1819.476979</ele>
        <time>2022-09-03T09:41:36+0200</time>
      </trkpt>
      <trkpt lat="44.87683" lon="6.73288">
        <ele>1820.614499</ele>
        <time>2022-09-03T09:41:38+0200</time>
      </trkpt>
      <trkpt lat="44.87686" lon="6.73297">
        <ele>1821.482926</ele>
        <time>2022-09-03T09:41:40+0200</time>
      </trkpt>
      <trkpt lat="44.87688" lon="6.73306">
        <ele>1821.474831</ele>
        <time>2022-09-03T09:41:42+0200</time>
      </trkpt>
      <trkpt lat="44.87689" lon="6.73316">
        <ele>1821.044377</ele>
        <time>2022-09-03T09:41:44+0200</time>
      </trkpt>
      <trkpt lat="44.87688" lon="6.73324">
        <ele>1821.311558</ele>
        <time>2022-09-03T09:41:46+0200</time>
      </trkpt>
      <trkpt lat="44.87685" lon="6.7333">
        <ele>1821.75121</ele>
        <time>2022-09-03T09:41:48+0200</time>
      </trkpt>
      <trkpt lat="44.87683" lon="6.73339">
        <ele>1822.083891</ele>
        <time>2022-09-03T09:41:50+0200</time>
      </trkpt>
      <trkpt lat="44.87682" lon="6.73348">
        <ele>1822.434931</ele>
        <time>2022-09-03T09:41:52+0200</time>
      </trkpt>
      <trkpt lat="44.87682" lon="6.73357">
        <ele>1823.716723</ele>
        <time>2022-09-03T09:41:54+0200</time>
      </trkpt>
      <trkpt lat="44.87682" lon="6.73365">
        <ele>1825.144959</ele>
        <time>2022-09-03T09:41:56+0200</time>
      </trkpt>
      <trkpt lat="44.87683" lon="6.73374">
        <ele>1825.902411</ele>
        <time>2022-09-03T09:41:58+0200</time>
      </trkpt>
      <trkpt lat="44.87683" lon="6.73384">
        <ele>1827.771354</ele>
        <time>2022-09-03T09:42:00+0200</time>
      </trkpt>
      <trkpt lat="44.87683" lon="6.73393">
        <ele>1829.21573</ele>
        <time>2022-09-03T09:42:02+0200</time>
      </trkpt>
      <trkpt lat="44.87683" lon="6.73401">
        <ele>1830.716172</ele>
        <time>2022-09-03T09:42:04+0200</time>
      </trkpt>
      <trkpt lat="44.87683" lon="6.73408">
        <ele>1831.040546</ele>
        <time>2022-09-03T09:42:06+0200</time>
      </trkpt>
      <trkpt lat="44.87683" lon="6.73419">
        <ele>1831.168394</ele>
        <time>2022-09-03T09:42:09+0200</time>
      </trkpt>
      <trkpt lat="44.87684" lon="6.73428">
        <ele>1832.471982</ele>
        <time>2022-09-03T09:42:12+0200</time>
      </trkpt>
      <trkpt lat="44.87684" lon="6.73436">
        <ele>1832.321932</ele>
        <time>2022-09-03T09:42:14+0200</time>
      </trkpt>
      <trkpt lat="44.87687" lon="6.73445">
        <ele>1833.305892</ele>
        <time>2022-09-03T09:42:16+0200</time>
      </trkpt>
      <trkpt lat="44.87687" lon="6.73454">
        <ele>1834.432178</ele>
        <time>2022-09-03T09:42:18+0200</time>
      </trkpt>
      <trkpt lat="44.87689" lon="6.73464">
        <ele>1833.959968</ele>
        <time>2022-09-03T09:42:20+0200</time>
      </trkpt>
      <trkpt lat="44.87691" lon="6.73474">
        <ele>1833.589432</ele>
        <time>2022-09-03T09:42:22+0200</time>
      </trkpt>
      <trkpt lat="44.87694" lon="6.73483">
        <ele>1832.837193</ele>
        <time>2022-09-03T09:42:24+0200</time>
      </trkpt>
      <trkpt lat="44.87698" lon="6.73493">
        <ele>1832.186295</ele>
        <time>2022-09-03T09:42:26+0200</time>
      </trkpt>
      <trkpt lat="44.87702" lon="6.73503">
        <ele>1832.194463</ele>
        <time>2022-09-03T09:42:28+0200</time>
      </trkpt>
      <trkpt lat="44.87705" lon="6.73512">
        <ele>1831.822542</ele>
        <time>2022-09-03T09:42:30+0200</time>
      </trkpt>
      <trkpt lat="44.87709" lon="6.73521">
        <ele>1832.250281</ele>
        <time>2022-09-03T09:42:32+0200</time>
      </trkpt>
      <trkpt lat="44.87712" lon="6.73531">
        <ele>1832.802216</ele>
        <time>2022-09-03T09:42:34+0200</time>
      </trkpt>
      <trkpt lat="44.87716" lon="6.7354">
        <ele>1832.960277</ele>
        <time>2022-09-03T09:42:36+0200</time>
      </trkpt>
      <trkpt lat="44.8772" lon="6.73548">
        <ele>1833.514615</ele>
        <time>2022-09-03T09:42:38+0200</time>
      </trkpt>
      <trkpt lat="44.87724" lon="6.73557">
        <ele>1833.696864</ele>
        <time>2022-09-03T09:42:40+0200</time>
      </trkpt>
      <trkpt lat="44.87727" lon="6.73565">
        <ele>1834.524671</ele>
        <time>2022-09-03T09:42:42+0200</time>
      </trkpt>
      <trkpt lat="44.87728" lon="6.73573">
        <ele>1835.111122</ele>
        <time>2022-09-03T09:42:44+0200</time>
      </trkpt>
      <trkpt lat="44.8773" lon="6.73583">
        <ele>1836.580328</ele>
        <time>2022-09-03T09:42:46+0200</time>
      </trkpt>
      <trkpt lat="44.8773" lon="6.73592">
        <ele>1838.035956</ele>
        <time>2022-09-03T09:42:48+0200</time>
      </trkpt>
      <trkpt lat="44.87731" lon="6.73601">
        <ele>1837.926501</ele>
        <time>2022-09-03T09:42:50+0200</time>
      </trkpt>
      <trkpt lat="44.87734" lon="6.7361">
        <ele>1837.506233</ele>
        <time>2022-09-03T09:42:52+0200</time>
      </trkpt>
      <trkpt lat="44.87737" lon="6.73618">
        <ele>1836.944961</ele>
        <time>2022-09-03T09:42:54+0200</time>
      </trkpt>
      <trkpt lat="44.87738" lon="6.73627">
        <ele>1836.634485</ele>
        <time>2022-09-03T09:42:56+0200</time>
      </trkpt>
      <trkpt lat="44.87742" lon="6.73634">
        <ele>1836.564823</ele>
        <time>2022-09-03T09:42:58+0200</time>
      </trkpt>
      <trkpt lat="44.87746" lon="6.73643">
        <ele>1837.481484</ele>
        <time>2022-09-03T09:43:00+0200</time>
      </trkpt>
      <trkpt lat="44.87749" lon="6.73652">
        <ele>1838.452052</ele>
        <time>2022-09-03T09:43:02+0200</time>
      </trkpt>
      <trkpt lat="44.87751" lon="6.7366">
        <ele>1839.814243</ele>
        <time>2022-09-03T09:43:04+0200</time>
      </trkpt>
      <trkpt lat="44.87756" lon="6.73666">
        <ele>1841.260254</ele>
        <time>2022-09-03T09:43:06+0200</time>
      </trkpt>
      <trkpt lat="44.8776" lon="6.73671">
        <ele>1842.568085</ele>
        <time>2022-09-03T09:43:08+0200</time>
      </trkpt>
      <trkpt lat="44.87766" lon="6.73677">
        <ele>1844.51421</ele>
        <time>2022-09-03T09:43:10+0200</time>
      </trkpt>
      <trkpt lat="44.8777" lon="6.73683">
        <ele>1845.618415</ele>
        <time>2022-09-03T09:43:12+0200</time>
      </trkpt>
      <trkpt lat="44.87774" lon="6.7369">
        <ele>1847.01401</ele>
        <time>2022-09-03T09:43:14+0200</time>
      </trkpt>
      <trkpt lat="44.87778" lon="6.73698">
        <ele>1847.840605</ele>
        <time>2022-09-03T09:43:16+0200</time>
      </trkpt>
      <trkpt lat="44.87782" lon="6.73705">
        <ele>1848.182264</ele>
        <time>2022-09-03T09:43:18+0200</time>
      </trkpt>
      <trkpt lat="44.87786" lon="6.73712">
        <ele>1848.3678</ele>
        <time>2022-09-03T09:43:20+0200</time>
      </trkpt>
      <trkpt lat="44.8779" lon="6.7372">
        <ele>1848.772569</ele>
        <time>2022-09-03T09:43:22+0200</time>
      </trkpt>
      <trkpt lat="44.87793" lon="6.73726">
        <ele>1849.150771</ele>
        <time>2022-09-03T09:43:24+0200</time>
      </trkpt>
      <trkpt lat="44.87795" lon="6.73734">
        <ele>1849.297468</ele>
        <time>2022-09-03T09:43:26+0200</time>
      </trkpt>
      <trkpt lat="44.87799" lon="6.73741">
        <ele>1848.722635</ele>
        <time>2022-09-03T09:43:28+0200</time>
      </trkpt>
      <trkpt lat="44.87802" lon="6.73747">
        <ele>1848.992895</ele>
        <time>2022-09-03T09:43:30+0200</time>
      </trkpt>
      <trkpt lat="44.87804" lon="6.73754">
        <ele>1849.36573</ele>
        <time>2022-09-03T09:43:32+0200</time>
      </trkpt>
      <trkpt lat="44.87808" lon="6.73759">
        <ele>1848.981555</ele>
        <time>2022-09-03T09:43:34+0200</time>
      </trkpt>
      <trkpt lat="44.87812" lon="6.73764">
        <ele>1850.479379</ele>
        <time>2022-09-03T09:43:36+0200</time>
      </trkpt>
      <trkpt lat="44.87819" lon="6.73772">
        <ele>1851.382439</ele>
        <time>2022-09-03T09:43:38+0200</time>
      </trkpt>
      <trkpt lat="44.87822" lon="6.73778">
        <ele>1852.017432</ele>
        <time>2022-09-03T09:43:40+0200</time>
      </trkpt>
      <trkpt lat="44.87826" lon="6.73784">
        <ele>1852.827045</ele>
        <time>2022-09-03T09:43:42+0200</time>
      </trkpt>
      <trkpt lat="44.8783" lon="6.73789">
        <ele>1854.091217</ele>
        <time>2022-09-03T09:43:44+0200</time>
      </trkpt>
      <trkpt lat="44.87833" lon="6.73795">
        <ele>1855.088877</ele>
        <time>2022-09-03T09:43:46+0200</time>
      </trkpt>
      <trkpt lat="44.87835" lon="6.73802">
        <ele>1856.251844</ele>
        <time>2022-09-03T09:43:48+0200</time>
      </trkpt>
      <trkpt lat="44.87837" lon="6.73809">
        <ele>1856.716554</ele>
        <time>2022-09-03T09:43:50+0200</time>
      </trkpt>
      <trkpt lat="44.87836" lon="6.73816">
        <ele>1857.553574</ele>
        <time>2022-09-03T09:43:52+0200</time>
      </trkpt>
      <trkpt lat="44.87835" lon="6.73823">
        <ele>1858.429083</ele>
        <time>2022-09-03T09:43:54+0200</time>
      </trkpt>
      <trkpt lat="44.87835" lon="6.73831">
        <ele>1858.188124</ele>
        <time>2022-09-03T09:43:57+0200</time>
      </trkpt>
      <trkpt lat="44.87833" lon="6.7384">
        <ele>1858.687181</ele>
        <time>2022-09-03T09:44:00+0200</time>
      </trkpt>
      <trkpt lat="44.87831" lon="6.73847">
        <ele>1858.057111</ele>
        <time>2022-09-03T09:44:02+0200</time>
      </trkpt>
      <trkpt lat="44.8783" lon="6.73854">
        <ele>1857.014293</ele>
        <time>2022-09-03T09:44:04+0200</time>
      </trkpt>
      <trkpt lat="44.87827" lon="6.73861">
        <ele>1856.938005</ele>
        <time>2022-09-03T09:44:07+0200</time>
      </trkpt>
      <trkpt lat="44.87824" lon="6.73869">
        <ele>1856.619989</ele>
        <time>2022-09-03T09:44:09+0200</time>
      </trkpt>
      <trkpt lat="44.87821" lon="6.73875">
        <ele>1857.267627</ele>
        <time>2022-09-03T09:44:11+0200</time>
      </trkpt>
      <trkpt lat="44.87817" lon="6.73879">
        <ele>1857.603852</ele>
        <time>2022-09-03T09:44:13+0200</time>
      </trkpt>
      <trkpt lat="44.87814" lon="6.73885">
        <ele>1857.803409</ele>
        <time>2022-09-03T09:44:15+0200</time>
      </trkpt>
      <trkpt lat="44.87811" lon="6.73892">
        <ele>1856.866953</ele>
        <time>2022-09-03T09:44:17+0200</time>
      </trkpt>
      <trkpt lat="44.87807" lon="6.73899">
        <ele>1856.791684</ele>
        <time>2022-09-03T09:44:19+0200</time>
      </trkpt>
      <trkpt lat="44.87802" lon="6.73906">
        <ele>1857.288505</ele>
        <time>2022-09-03T09:44:21+0200</time>
      </trkpt>
      <trkpt lat="44.87797" lon="6.73908">
        <ele>1857.759902</ele>
        <time>2022-09-03T09:44:23+0200</time>
      </trkpt>
      <trkpt lat="44.87792" lon="6.73908">
        <ele>1858.057205</ele>
        <time>2022-09-03T09:44:25+0200</time>
      </trkpt>
      <trkpt lat="44.87786" lon="6.7391">
        <ele>1858.25214</ele>
        <time>2022-09-03T09:44:27+0200</time>
      </trkpt>
      <trkpt lat="44.8778" lon="6.73912">
        <ele>1859.535695</ele>
        <time>2022-09-03T09:44:29+0200</time>
      </trkpt>
      <trkpt lat="44.87773" lon="6.73915">
        <ele>1861.698464</ele>
        <time>2022-09-03T09:44:31+0200</time>
      </trkpt>
      <trkpt lat="44.87767" lon="6.73919">
        <ele>1862.515387</ele>
        <time>2022-09-03T09:44:33+0200</time>
      </trkpt>
      <trkpt lat="44.87764" lon="6.73925">
        <ele>1862.33361</ele>
        <time>2022-09-03T09:44:34+0200</time>
      </trkpt>
      <trkpt lat="44.87761" lon="6.73934">
        <ele>1861.170072</ele>
        <time>2022-09-03T09:44:36+0200</time>
      </trkpt>
      <trkpt lat="44.87757" lon="6.73943">
        <ele>1861.454635</ele>
        <time>2022-09-03T09:44:38+0200</time>
      </trkpt>
      <trkpt lat="44.87751" lon="6.73951">
        <ele>1861.406412</ele>
        <time>2022-09-03T09:44:40+0200</time>
      </trkpt>
      <trkpt lat="44.87745" lon="6.73957">
        <ele>1862.161503</ele>
        <time>2022-09-03T09:44:42+0200</time>
      </trkpt>
      <trkpt lat="44.87739" lon="6.73959">
        <ele>1862.798552</ele>
        <time>2022-09-03T09:44:44+0200</time>
      </trkpt>
      <trkpt lat="44.87734" lon="6.73964">
        <ele>1862.602031</ele>
        <time>2022-09-03T09:44:46+0200</time>
      </trkpt>
      <trkpt lat="44.87728" lon="6.7397">
        <ele>1862.861094</ele>
        <time>2022-09-03T09:44:48+0200</time>
      </trkpt>
      <trkpt lat="44.87723" lon="6.73978">
        <ele>1863.57455</ele>
        <time>2022-09-03T09:44:50+0200</time>
      </trkpt>
      <trkpt lat="44.87721" lon="6.73987">
        <ele>1864.399774</ele>
        <time>2022-09-03T09:44:52+0200</time>
      </trkpt>
      <trkpt lat="44.87718" lon="6.73998">
        <ele>1865.495752</ele>
        <time>2022-09-03T09:44:54+0200</time>
      </trkpt>
      <trkpt lat="44.87717" lon="6.74005">
        <ele>1867.568696</ele>
        <time>2022-09-03T09:44:56+0200</time>
      </trkpt>
      <trkpt lat="44.87716" lon="6.74014">
        <ele>1869.037051</ele>
        <time>2022-09-03T09:44:58+0200</time>
      </trkpt>
      <trkpt lat="44.87718" lon="6.74022">
        <ele>1869.394453</ele>
        <time>2022-09-03T09:45:00+0200</time>
      </trkpt>
      <trkpt lat="44.87721" lon="6.7403">
        <ele>1869.691653</ele>
        <time>2022-09-03T09:45:02+0200</time>
      </trkpt>
      <trkpt lat="44.87724" lon="6.74038">
        <ele>1869.986404</ele>
        <time>2022-09-03T09:45:04+0200</time>
      </trkpt>
      <trkpt lat="44.87727" lon="6.74046">
        <ele>1870.504414</ele>
        <time>2022-09-03T09:45:06+0200</time>
      </trkpt>
      <trkpt lat="44.87729" lon="6.74053">
        <ele>1871.050139</ele>
        <time>2022-09-03T09:45:08+0200</time>
      </trkpt>
      <trkpt lat="44.87733" lon="6.74061">
        <ele>1871.059312</ele>
        <time>2022-09-03T09:45:10+0200</time>
      </trkpt>
      <trkpt lat="44.87737" lon="6.74069">
        <ele>1871.616839</ele>
        <time>2022-09-03T09:45:12+0200</time>
      </trkpt>
      <trkpt lat="44.87741" lon="6.74078">
        <ele>1872.275884</ele>
        <time>2022-09-03T09:45:14+0200</time>
      </trkpt>
      <trkpt lat="44.87744" lon="6.74085">
        <ele>1873.33183</ele>
        <time>2022-09-03T09:45:16+0200</time>
      </trkpt>
      <trkpt lat="44.87748" lon="6.74092">
        <ele>1874.212623</ele>
        <time>2022-09-03T09:45:18+0200</time>
      </trkpt>
      <trkpt lat="44.87751" lon="6.741">
        <ele>1875.262763</ele>
        <time>2022-09-03T09:45:20+0200</time>
      </trkpt>
      <trkpt lat="44.87756" lon="6.74108">
        <ele>1875.984989</ele>
        <time>2022-09-03T09:45:22+0200</time>
      </trkpt>
      <trkpt lat="44.87761" lon="6.74115">
        <ele>1876.699075</ele>
        <time>2022-09-03T09:45:24+0200</time>
      </trkpt>
      <trkpt lat="44.87766" lon="6.74121">
        <ele>1877.798854</ele>
        <time>2022-09-03T09:45:26+0200</time>
      </trkpt>
      <trkpt lat="44.87771" lon="6.74125">
        <ele>1878.202504</ele>
        <time>2022-09-03T09:45:28+0200</time>
      </trkpt>
      <trkpt lat="44.87777" lon="6.74131">
        <ele>1878.642148</ele>
        <time>2022-09-03T09:45:30+0200</time>
      </trkpt>
      <trkpt lat="44.87785" lon="6.74135">
        <ele>1879.031218</ele>
        <time>2022-09-03T09:45:32+0200</time>
      </trkpt>
      <trkpt lat="44.87792" lon="6.74139">
        <ele>1878.609976</ele>
        <time>2022-09-03T09:45:34+0200</time>
      </trkpt>
      <trkpt lat="44.87798" lon="6.74146">
        <ele>1878.847512</ele>
        <time>2022-09-03T09:45:36+0200</time>
      </trkpt>
      <trkpt lat="44.87803" lon="6.74153">
        <ele>1879.754584</ele>
        <time>2022-09-03T09:45:38+0200</time>
      </trkpt>
      <trkpt lat="44.87806" lon="6.74158">
        <ele>1880.294988</ele>
        <time>2022-09-03T09:45:39+0200</time>
      </trkpt>
      <trkpt lat="44.87809" lon="6.74166">
        <ele>1881.671349</ele>
        <time>2022-09-03T09:45:41+0200</time>
      </trkpt>
      <trkpt lat="44.87809" lon="6.74175">
        <ele>1882.378524</ele>
        <time>2022-09-03T09:45:43+0200</time>
      </trkpt>
      <trkpt lat="44.8781" lon="6.74186">
        <ele>1883.507166</ele>
        <time>2022-09-03T09:45:45+0200</time>
      </trkpt>
      <trkpt lat="44.8781" lon="6.74195">
        <ele>1883.378233</ele>
        <time>2022-09-03T09:45:47+0200</time>
      </trkpt>
      <trkpt lat="44.87811" lon="6.74206">
        <ele>1883.91847</ele>
        <time>2022-09-03T09:45:49+0200</time>
      </trkpt>
      <trkpt lat="44.87813" lon="6.74217">
        <ele>1883.780758</ele>
        <time>2022-09-03T09:45:51+0200</time>
      </trkpt>
      <trkpt lat="44.87815" lon="6.74227">
        <ele>1883.791808</ele>
        <time>2022-09-03T09:45:53+0200</time>
      </trkpt>
      <trkpt lat="44.87815" lon="6.74234">
        <ele>1883.657141</ele>
        <time>2022-09-03T09:45:54+0200</time>
      </trkpt>
      <trkpt lat="44.87817" lon="6.74246">
        <ele>1882.906689</ele>
        <time>2022-09-03T09:45:56+0200</time>
      </trkpt>
      <trkpt lat="44.8782" lon="6.74255">
        <ele>1881.741522</ele>
        <time>2022-09-03T09:45:58+0200</time>
      </trkpt>
      <trkpt lat="44.87821" lon="6.74261">
        <ele>1881.425328</ele>
        <time>2022-09-03T09:45:59+0200</time>
      </trkpt>
      <trkpt lat="44.87823" lon="6.74272">
        <ele>1880.713834</ele>
        <time>2022-09-03T09:46:01+0200</time>
      </trkpt>
      <trkpt lat="44.87826" lon="6.74278">
        <ele>1880.351446</ele>
        <time>2022-09-03T09:46:02+0200</time>
      </trkpt>
      <trkpt lat="44.87828" lon="6.74284">
        <ele>1879.7783</ele>
        <time>2022-09-03T09:46:03+0200</time>
      </trkpt>
      <trkpt lat="44.87832" lon="6.74294">
        <ele>1880.041257</ele>
        <time>2022-09-03T09:46:05+0200</time>
      </trkpt>
      <trkpt lat="44.87833" lon="6.74304">
        <ele>1880.605874</ele>
        <time>2022-09-03T09:46:07+0200</time>
      </trkpt>
      <trkpt lat="44.87833" lon="6.74315">
        <ele>1882.370183</ele>
        <time>2022-09-03T09:46:09+0200</time>
      </trkpt>
      <trkpt lat="44.87831" lon="6.74325">
        <ele>1883.231727</ele>
        <time>2022-09-03T09:46:11+0200</time>
      </trkpt>
      <trkpt lat="44.8783" lon="6.74335">
        <ele>1883.077809</ele>
        <time>2022-09-03T09:46:13+0200</time>
      </trkpt>
      <trkpt lat="44.87829" lon="6.74347">
        <ele>1882.87161</ele>
        <time>2022-09-03T09:46:15+0200</time>
      </trkpt>
      <trkpt lat="44.87828" lon="6.74354">
        <ele>1883.246344</ele>
        <time>2022-09-03T09:46:16+0200</time>
      </trkpt>
      <trkpt lat="44.87827" lon="6.74366">
        <ele>1883.485845</ele>
        <time>2022-09-03T09:46:18+0200</time>
      </trkpt>
      <trkpt lat="44.87826" lon="6.74377">
        <ele>1884.400391</ele>
        <time>2022-09-03T09:46:20+0200</time>
      </trkpt>
      <trkpt lat="44.87825" lon="6.74386">
        <ele>1883.825881</ele>
        <time>2022-09-03T09:46:22+0200</time>
      </trkpt>
      <trkpt lat="44.87823" lon="6.74397">
        <ele>1883.426519</ele>
        <time>2022-09-03T09:46:24+0200</time>
      </trkpt>
      <trkpt lat="44.87823" lon="6.74403">
        <ele>1882.776634</ele>
        <time>2022-09-03T09:46:25+0200</time>
      </trkpt>
      <trkpt lat="44.87822" lon="6.7441">
        <ele>1882.478798</ele>
        <time>2022-09-03T09:46:26+0200</time>
      </trkpt>
      <trkpt lat="44.87821" lon="6.74417">
        <ele>1882.427413</ele>
        <time>2022-09-03T09:46:27+0200</time>
      </trkpt>
      <trkpt lat="44.87823" lon="6.74429">
        <ele>1882.702432</ele>
        <time>2022-09-03T09:46:29+0200</time>
      </trkpt>
      <trkpt lat="44.87824" lon="6.74438">
        <ele>1883.148254</ele>
        <time>2022-09-03T09:46:31+0200</time>
      </trkpt>
      <trkpt lat="44.87826" lon="6.74444">
        <ele>1883.484587</ele>
        <time>2022-09-03T09:46:32+0200</time>
      </trkpt>
      <trkpt lat="44.87829" lon="6.74456">
        <ele>1883.90325</ele>
        <time>2022-09-03T09:46:34+0200</time>
      </trkpt>
      <trkpt lat="44.87831" lon="6.74467">
        <ele>1885.712216</ele>
        <time>2022-09-03T09:46:36+0200</time>
      </trkpt>
      <trkpt lat="44.87831" lon="6.7448">
        <ele>1886.760599</ele>
        <time>2022-09-03T09:46:38+0200</time>
      </trkpt>
      <trkpt lat="44.87832" lon="6.74486">
        <ele>1887.033476</ele>
        <time>2022-09-03T09:46:39+0200</time>
      </trkpt>
      <trkpt lat="44.87831" lon="6.74492">
        <ele>1888.132788</ele>
        <time>2022-09-03T09:46:40+0200</time>
      </trkpt>
      <trkpt lat="44.8783" lon="6.74499">
        <ele>1888.417217</ele>
        <time>2022-09-03T09:46:41+0200</time>
      </trkpt>
      <trkpt lat="44.87828" lon="6.74507">
        <ele>1888.5559</ele>
        <time>2022-09-03T09:46:42+0200</time>
      </trkpt>
      <trkpt lat="44.87828" lon="6.74513">
        <ele>1889.253102</ele>
        <time>2022-09-03T09:46:43+0200</time>
      </trkpt>
      <trkpt lat="44.87825" lon="6.74526">
        <ele>1890.239336</ele>
        <time>2022-09-03T09:46:45+0200</time>
      </trkpt>
      <trkpt lat="44.87824" lon="6.74533">
        <ele>1890.801041</ele>
        <time>2022-09-03T09:46:46+0200</time>
      </trkpt>
      <trkpt lat="44.87823" lon="6.7454">
        <ele>1891.044046</ele>
        <time>2022-09-03T09:46:47+0200</time>
      </trkpt>
      <trkpt lat="44.87822" lon="6.74546">
        <ele>1890.924094</ele>
        <time>2022-09-03T09:46:48+0200</time>
      </trkpt>
      <trkpt lat="44.87822" lon="6.74553">
        <ele>1891.038823</ele>
        <time>2022-09-03T09:46:49+0200</time>
      </trkpt>
      <trkpt lat="44.87821" lon="6.7456">
        <ele>1891.575595</ele>
        <time>2022-09-03T09:46:50+0200</time>
      </trkpt>
      <trkpt lat="44.8782" lon="6.74567">
        <ele>1891.85573</ele>
        <time>2022-09-03T09:46:51+0200</time>
      </trkpt>
      <trkpt lat="44.87818" lon="6.74578">
        <ele>1892.222288</ele>
        <time>2022-09-03T09:46:53+0200</time>
      </trkpt>
      <trkpt lat="44.87818" lon="6.74585">
        <ele>1892.131589</ele>
        <time>2022-09-03T09:46:54+0200</time>
      </trkpt>
      <trkpt lat="44.87817" lon="6.74593">
        <ele>1891.692469</ele>
        <time>2022-09-03T09:46:55+0200</time>
      </trkpt>
      <trkpt lat="44.87816" lon="6.74599">
        <ele>1891.771864</ele>
        <time>2022-09-03T09:46:56+0200</time>
      </trkpt>
      <trkpt lat="44.87816" lon="6.74606">
        <ele>1891.600593</ele>
        <time>2022-09-03T09:46:57+0200</time>
      </trkpt>
      <trkpt lat="44.87815" lon="6.74614">
        <ele>1891.2346</ele>
        <time>2022-09-03T09:46:58+0200</time>
      </trkpt>
      <trkpt lat="44.87814" lon="6.74622">
        <ele>1891.192163</ele>
        <time>2022-09-03T09:46:59+0200</time>
      </trkpt>
      <trkpt lat="44.8781" lon="6.74629">
        <ele>1891.472795</ele>
        <time>2022-09-03T09:47:00+0200</time>
      </trkpt>
      <trkpt lat="44.8781" lon="6.74638">
        <ele>1892.173411</ele>
        <time>2022-09-03T09:47:01+0200</time>
      </trkpt>
      <trkpt lat="44.87812" lon="6.74653">
        <ele>1892.011519</ele>
        <time>2022-09-03T09:47:03+0200</time>
      </trkpt>
      <trkpt lat="44.87815" lon="6.7466">
        <ele>1891.959094</ele>
        <time>2022-09-03T09:47:04+0200</time>
      </trkpt>
      <trkpt lat="44.87821" lon="6.74666">
        <ele>1892.100435</ele>
        <time>2022-09-03T09:47:05+0200</time>
      </trkpt>
      <trkpt lat="44.87825" lon="6.74671">
        <ele>1892.475813</ele>
        <time>2022-09-03T09:47:06+0200</time>
      </trkpt>
      <trkpt lat="44.87831" lon="6.74676">
        <ele>1892.260289</ele>
        <time>2022-09-03T09:47:07+0200</time>
      </trkpt>
      <trkpt lat="44.87836" lon="6.74681">
        <ele>1892.103209</ele>
        <time>2022-09-03T09:47:08+0200</time>
      </trkpt>
      <trkpt lat="44.87841" lon="6.74687">
        <ele>1892.219575</ele>
        <time>2022-09-03T09:47:09+0200</time>
      </trkpt>
      <trkpt lat="44.87846" lon="6.74692">
        <ele>1892.13569</ele>
        <time>2022-09-03T09:47:10+0200</time>
      </trkpt>
      <trkpt lat="44.87851" lon="6.74697">
        <ele>1892.608674</ele>
        <time>2022-09-03T09:47:11+0200</time>
      </trkpt>
      <trkpt lat="44.87856" lon="6.74702">
        <ele>1892.631057</ele>
        <time>2022-09-03T09:47:12+0200</time>
      </trkpt>
      <trkpt lat="44.87861" lon="6.74707">
        <ele>1892.630575</ele>
        <time>2022-09-03T09:47:13+0200</time>
      </trkpt>
      <trkpt lat="44.87866" lon="6.74711">
        <ele>1891.849856</ele>
        <time>2022-09-03T09:47:14+0200</time>
      </trkpt>
      <trkpt lat="44.8787" lon="6.74716">
        <ele>1891.612172</ele>
        <time>2022-09-03T09:47:15+0200</time>
      </trkpt>
      <trkpt lat="44.87875" lon="6.74722">
        <ele>1890.905762</ele>
        <time>2022-09-03T09:47:16+0200</time>
      </trkpt>
      <trkpt lat="44.8788" lon="6.74728">
        <ele>1889.941418</ele>
        <time>2022-09-03T09:47:17+0200</time>
      </trkpt>
      <trkpt lat="44.87885" lon="6.74733">
        <ele>1889.054088</ele>
        <time>2022-09-03T09:47:18+0200</time>
      </trkpt>
      <trkpt lat="44.8789" lon="6.7474">
        <ele>1889.061904</ele>
        <time>2022-09-03T09:47:19+0200</time>
      </trkpt>
      <trkpt lat="44.87896" lon="6.74747">
        <ele>1888.630721</ele>
        <time>2022-09-03T09:47:20+0200</time>
      </trkpt>
      <trkpt lat="44.87902" lon="6.74753">
        <ele>1888.422724</ele>
        <time>2022-09-03T09:47:21+0200</time>
      </trkpt>
      <trkpt lat="44.87908" lon="6.7476">
        <ele>1888.362698</ele>
        <time>2022-09-03T09:47:22+0200</time>
      </trkpt>
      <trkpt lat="44.87912" lon="6.74768">
        <ele>1888.352802</ele>
        <time>2022-09-03T09:47:23+0200</time>
      </trkpt>
      <trkpt lat="44.87915" lon="6.74776">
        <ele>1888.241942</ele>
        <time>2022-09-03T09:47:24+0200</time>
      </trkpt>
      <trkpt lat="44.87919" lon="6.74786">
        <ele>1887.803838</ele>
        <time>2022-09-03T09:47:25+0200</time>
      </trkpt>
      <trkpt lat="44.87919" lon="6.74797">
        <ele>1886.960164</ele>
        <time>2022-09-03T09:47:26+0200</time>
      </trkpt>
      <trkpt lat="44.87919" lon="6.74807">
        <ele>1886.652565</ele>
        <time>2022-09-03T09:47:27+0200</time>
      </trkpt>
      <trkpt lat="44.87919" lon="6.74818">
        <ele>1886.125171</ele>
        <time>2022-09-03T09:47:28+0200</time>
      </trkpt>
      <trkpt lat="44.87917" lon="6.74829">
        <ele>1885.018853</ele>
        <time>2022-09-03T09:47:29+0200</time>
      </trkpt>
      <trkpt lat="44.87914" lon="6.7484">
        <ele>1883.911736</ele>
        <time>2022-09-03T09:47:30+0200</time>
      </trkpt>
      <trkpt lat="44.8791" lon="6.74849">
        <ele>1882.944782</ele>
        <time>2022-09-03T09:47:31+0200</time>
      </trkpt>
      <trkpt lat="44.87905" lon="6.74858">
        <ele>1882.009318</ele>
        <time>2022-09-03T09:47:32+0200</time>
      </trkpt>
      <trkpt lat="44.87899" lon="6.74864">
        <ele>1880.985012</ele>
        <time>2022-09-03T09:47:33+0200</time>
      </trkpt>
      <trkpt lat="44.87893" lon="6.7487">
        <ele>1879.719159</ele>
        <time>2022-09-03T09:47:34+0200</time>
      </trkpt>
      <trkpt lat="44.87886" lon="6.74874">
        <ele>1878.608356</ele>
        <time>2022-09-03T09:47:35+0200</time>
      </trkpt>
      <trkpt lat="44.87881" lon="6.74882">
        <ele>1877.459121</ele>
        <time>2022-09-03T09:47:36+0200</time>
      </trkpt>
      <trkpt lat="44.87874" lon="6.74886">
        <ele>1876.80754</ele>
        <time>2022-09-03T09:47:37+0200</time>
      </trkpt>
      <trkpt lat="44.87871" lon="6.74897">
        <ele>1876.42056</ele>
        <time>2022-09-03T09:47:38+0200</time>
      </trkpt>
      <trkpt lat="44.87869" lon="6.74906">
        <ele>1875.965639</ele>
        <time>2022-09-03T09:47:39+0200</time>
      </trkpt>
      <trkpt lat="44.87869" lon="6.74918">
        <ele>1875.397357</ele>
        <time>2022-09-03T09:47:40+0200</time>
      </trkpt>
      <trkpt lat="44.87868" lon="6.7493">
        <ele>1874.927798</ele>
        <time>2022-09-03T09:47:41+0200</time>
      </trkpt>
      <trkpt lat="44.87867" lon="6.74941">
        <ele>1874.503396</ele>
        <time>2022-09-03T09:47:42+0200</time>
      </trkpt>
      <trkpt lat="44.87865" lon="6.74952">
        <ele>1874.067593</ele>
        <time>2022-09-03T09:47:43+0200</time>
      </trkpt>
      <trkpt lat="44.87866" lon="6.74964">
        <ele>1873.754084</ele>
        <time>2022-09-03T09:47:44+0200</time>
      </trkpt>
      <trkpt lat="44.87863" lon="6.74974">
        <ele>1873.733219</ele>
        <time>2022-09-03T09:47:45+0200</time>
      </trkpt>
      <trkpt lat="44.87859" lon="6.74984">
        <ele>1873.88253</ele>
        <time>2022-09-03T09:47:46+0200</time>
      </trkpt>
      <trkpt lat="44.87857" lon="6.74994">
        <ele>1873.825721</ele>
        <time>2022-09-03T09:47:47+0200</time>
      </trkpt>
      <trkpt lat="44.87855" lon="6.75005">
        <ele>1873.515585</ele>
        <time>2022-09-03T09:47:48+0200</time>
      </trkpt>
      <trkpt lat="44.87853" lon="6.75017">
        <ele>1873.340199</ele>
        <time>2022-09-03T09:47:49+0200</time>
      </trkpt>
      <trkpt lat="44.87852" lon="6.7503">
        <ele>1872.992557</ele>
        <time>2022-09-03T09:47:50+0200</time>
      </trkpt>
      <trkpt lat="44.87853" lon="6.75043">
        <ele>1872.413349</ele>
        <time>2022-09-03T09:47:51+0200</time>
      </trkpt>
      <trkpt lat="44.87855" lon="6.75056">
        <ele>1872.184257</ele>
        <time>2022-09-03T09:47:52+0200</time>
      </trkpt>
      <trkpt lat="44.87855" lon="6.75068">
        <ele>1871.8586</ele>
        <time>2022-09-03T09:47:53+0200</time>
      </trkpt>
      <trkpt lat="44.87855" lon="6.75081">
        <ele>1871.559175</ele>
        <time>2022-09-03T09:47:54+0200</time>
      </trkpt>
      <trkpt lat="44.87855" lon="6.75094">
        <ele>1871.26791</ele>
        <time>2022-09-03T09:47:55+0200</time>
      </trkpt>
      <trkpt lat="44.87853" lon="6.75108">
        <ele>1870.985549</ele>
        <time>2022-09-03T09:47:56+0200</time>
      </trkpt>
      <trkpt lat="44.87851" lon="6.75121">
        <ele>1870.812667</ele>
        <time>2022-09-03T09:47:57+0200</time>
      </trkpt>
      <trkpt lat="44.87848" lon="6.75134">
        <ele>1870.322912</ele>
        <time>2022-09-03T09:47:58+0200</time>
      </trkpt>
      <trkpt lat="44.87845" lon="6.75146">
        <ele>1869.775255</ele>
        <time>2022-09-03T09:47:59+0200</time>
      </trkpt>
      <trkpt lat="44.87841" lon="6.7516">
        <ele>1869.445218</ele>
        <time>2022-09-03T09:48:00+0200</time>
      </trkpt>
      <trkpt lat="44.87838" lon="6.75173">
        <ele>1869.054749</ele>
        <time>2022-09-03T09:48:01+0200</time>
      </trkpt>
      <trkpt lat="44.87835" lon="6.75186">
        <ele>1868.470558</ele>
        <time>2022-09-03T09:48:02+0200</time>
      </trkpt>
      <trkpt lat="44.87834" lon="6.75201">
        <ele>1867.576716</ele>
        <time>2022-09-03T09:48:03+0200</time>
      </trkpt>
      <trkpt lat="44.87833" lon="6.75215">
        <ele>1866.831465</ele>
        <time>2022-09-03T09:48:04+0200</time>
      </trkpt>
      <trkpt lat="44.8783" lon="6.75229">
        <ele>1866.245091</ele>
        <time>2022-09-03T09:48:05+0200</time>
      </trkpt>
      <trkpt lat="44.87827" lon="6.75243">
        <ele>1865.603929</ele>
        <time>2022-09-03T09:48:06+0200</time>
      </trkpt>
      <trkpt lat="44.87825" lon="6.75257">
        <ele>1864.878815</ele>
        <time>2022-09-03T09:48:07+0200</time>
      </trkpt>
      <trkpt lat="44.87825" lon="6.75273">
        <ele>1864.151504</ele>
        <time>2022-09-03T09:48:08+0200</time>
      </trkpt>
      <trkpt lat="44.87824" lon="6.75288">
        <ele>1863.952421</ele>
        <time>2022-09-03T09:48:09+0200</time>
      </trkpt>
      <trkpt lat="44.87818" lon="6.75301">
        <ele>1863.740455</ele>
        <time>2022-09-03T09:48:10+0200</time>
      </trkpt>
      <trkpt lat="44.87807" lon="6.75306">
        <ele>1864.102317</ele>
        <time>2022-09-03T09:48:11+0200</time>
      </trkpt>
      <trkpt lat="44.87799" lon="6.75315">
        <ele>1863.850082</ele>
        <time>2022-09-03T09:48:12+0200</time>
      </trkpt>
      <trkpt lat="44.87791" lon="6.75322">
        <ele>1863.617475</ele>
        <time>2022-09-03T09:48:13+0200</time>
      </trkpt>
      <trkpt lat="44.87783" lon="6.7533">
        <ele>1863.297037</ele>
        <time>2022-09-03T09:48:14+0200</time>
      </trkpt>
      <trkpt lat="44.87775" lon="6.75333">
        <ele>1863.012266</ele>
        <time>2022-09-03T09:48:15+0200</time>
      </trkpt>
      <trkpt lat="44.87768" lon="6.75332">
        <ele>1862.510967</ele>
        <time>2022-09-03T09:48:16+0200</time>
      </trkpt>
      <trkpt lat="44.87764" lon="6.7532">
        <ele>1862.236137</ele>
        <time>2022-09-03T09:48:17+0200</time>
      </trkpt>
      <trkpt lat="44.87757" lon="6.75312">
        <ele>1860.781548</ele>
        <time>2022-09-03T09:48:18+0200</time>
      </trkpt>
      <trkpt lat="44.87752" lon="6.75308">
        <ele>1860.340556</ele>
        <time>2022-09-03T09:48:19+0200</time>
      </trkpt>
      <trkpt lat="44.87745" lon="6.7531">
        <ele>1859.876616</ele>
        <time>2022-09-03T09:48:20+0200</time>
      </trkpt>
      <trkpt lat="44.87739" lon="6.75318">
        <ele>1859.469677</ele>
        <time>2022-09-03T09:48:21+0200</time>
      </trkpt>
      <trkpt lat="44.87736" lon="6.75327">
        <ele>1859.421095</ele>
        <time>2022-09-03T09:48:22+0200</time>
      </trkpt>
      <trkpt lat="44.87735" lon="6.75333">
        <ele>1858.929716</ele>
        <time>2022-09-03T09:48:23+0200</time>
      </trkpt>
      <trkpt lat="44.87733" lon="6.75339">
        <ele>1858.937682</ele>
        <time>2022-09-03T09:48:25+0200</time>
      </trkpt>
      <trkpt lat="44.87731" lon="6.75349">
        <ele>1859.676376</ele>
        <time>2022-09-03T09:48:27+0200</time>
      </trkpt>
      <trkpt lat="44.87729" lon="6.75357">
        <ele>1860.690235</ele>
        <time>2022-09-03T09:48:29+0200</time>
      </trkpt>
      <trkpt lat="44.87727" lon="6.75365">
        <ele>1860.502128</ele>
        <time>2022-09-03T09:48:31+0200</time>
      </trkpt>
      <trkpt lat="44.87725" lon="6.75375">
        <ele>1860.656137</ele>
        <time>2022-09-03T09:48:33+0200</time>
      </trkpt>
      <trkpt lat="44.87727" lon="6.75384">
        <ele>1860.812174</ele>
        <time>2022-09-03T09:48:35+0200</time>
      </trkpt>
      <trkpt lat="44.87758" lon="6.75403">
        <ele>1861.13233</ele>
        <time>2022-09-03T09:48:36+0200</time>
      </trkpt>
      <trkpt lat="44.8776" lon="6.75409">
        <ele>1861.387169</ele>
        <time>2022-09-03T09:48:37+0200</time>
      </trkpt>
      <trkpt lat="44.87766" lon="6.75419">
        <ele>1862.314974</ele>
        <time>2022-09-03T09:48:39+0200</time>
      </trkpt>
      <trkpt lat="44.8777" lon="6.75429">
        <ele>1863.547414</ele>
        <time>2022-09-03T09:48:41+0200</time>
      </trkpt>
      <trkpt lat="44.87773" lon="6.75439">
        <ele>1864.212732</ele>
        <time>2022-09-03T09:48:43+0200</time>
      </trkpt>
      <trkpt lat="44.87777" lon="6.75449">
        <ele>1865.307648</ele>
        <time>2022-09-03T09:48:45+0200</time>
      </trkpt>
      <trkpt lat="44.87782" lon="6.75458">
        <ele>1866.400009</ele>
        <time>2022-09-03T09:48:47+0200</time>
      </trkpt>
      <trkpt lat="44.87786" lon="6.75468">
        <ele>1866.827447</ele>
        <time>2022-09-03T09:48:49+0200</time>
      </trkpt>
      <trkpt lat="44.87789" lon="6.75473">
        <ele>1866.523802</ele>
        <time>2022-09-03T09:48:50+0200</time>
      </trkpt>
      <trkpt lat="44.87794" lon="6.75482">
        <ele>1866.73386</ele>
        <time>2022-09-03T09:48:52+0200</time>
      </trkpt>
      <trkpt lat="44.87799" lon="6.7549">
        <ele>1866.890888</ele>
        <time>2022-09-03T09:48:54+0200</time>
      </trkpt>
      <trkpt lat="44.87803" lon="6.75495">
        <ele>1866.731312</ele>
        <time>2022-09-03T09:48:55+0200</time>
      </trkpt>
      <trkpt lat="44.8781" lon="6.755">
        <ele>1866.975184</ele>
        <time>2022-09-03T09:48:57+0200</time>
      </trkpt>
      <trkpt lat="44.87816" lon="6.75504">
        <ele>1866.799442</ele>
        <time>2022-09-03T09:48:59+0200</time>
      </trkpt>
      <trkpt lat="44.87823" lon="6.75509">
        <ele>1867.20449</ele>
        <time>2022-09-03T09:49:01+0200</time>
      </trkpt>
      <trkpt lat="44.87828" lon="6.75514">
        <ele>1867.458532</ele>
        <time>2022-09-03T09:49:03+0200</time>
      </trkpt>
      <trkpt lat="44.87835" lon="6.75521">
        <ele>1867.447138</ele>
        <time>2022-09-03T09:49:05+0200</time>
      </trkpt>
      <trkpt lat="44.8784" lon="6.75526">
        <ele>1867.957174</ele>
        <time>2022-09-03T09:49:07+0200</time>
      </trkpt>
      <trkpt lat="44.87845" lon="6.75532">
        <ele>1868.334773</ele>
        <time>2022-09-03T09:49:09+0200</time>
      </trkpt>
      <trkpt lat="44.8785" lon="6.75538">
        <ele>1868.764111</ele>
        <time>2022-09-03T09:49:11+0200</time>
      </trkpt>
      <trkpt lat="44.87855" lon="6.75545">
        <ele>1869.429677</ele>
        <time>2022-09-03T09:49:13+0200</time>
      </trkpt>
      <trkpt lat="44.8786" lon="6.75551">
        <ele>1869.196587</ele>
        <time>2022-09-03T09:49:15+0200</time>
      </trkpt>
      <trkpt lat="44.87867" lon="6.75557">
        <ele>1869.448045</ele>
        <time>2022-09-03T09:49:17+0200</time>
      </trkpt>
      <trkpt lat="44.8787" lon="6.75566">
        <ele>1869.103588</ele>
        <time>2022-09-03T09:49:19+0200</time>
      </trkpt>
      <trkpt lat="44.87872" lon="6.75576">
        <ele>1868.160699</ele>
        <time>2022-09-03T09:49:21+0200</time>
      </trkpt>
      <trkpt lat="44.87875" lon="6.75587">
        <ele>1868.203352</ele>
        <time>2022-09-03T09:49:23+0200</time>
      </trkpt>
      <trkpt lat="44.87877" lon="6.75594">
        <ele>1867.744274</ele>
        <time>2022-09-03T09:49:24+0200</time>
      </trkpt>
      <trkpt lat="44.87879" lon="6.75601">
        <ele>1867.612207</ele>
        <time>2022-09-03T09:49:25+0200</time>
      </trkpt>
      <trkpt lat="44.87881" lon="6.75608">
        <ele>1867.566402</ele>
        <time>2022-09-03T09:49:26+0200</time>
      </trkpt>
      <trkpt lat="44.87883" lon="6.75615">
        <ele>1867.471762</ele>
        <time>2022-09-03T09:49:27+0200</time>
      </trkpt>
      <trkpt lat="44.87883" lon="6.75621">
        <ele>1867.633733</ele>
        <time>2022-09-03T09:49:28+0200</time>
      </trkpt>
      <trkpt lat="44.87886" lon="6.75628">
        <ele>1868.103861</ele>
        <time>2022-09-03T09:49:29+0200</time>
      </trkpt>
      <trkpt lat="44.87888" lon="6.75636">
        <ele>1867.929652</ele>
        <time>2022-09-03T09:49:30+0200</time>
      </trkpt>
      <trkpt lat="44.87888" lon="6.75642">
        <ele>1867.00132</ele>
        <time>2022-09-03T09:49:31+0200</time>
      </trkpt>
      <trkpt lat="44.87887" lon="6.7565">
        <ele>1867.214802</ele>
        <time>2022-09-03T09:49:32+0200</time>
      </trkpt>
      <trkpt lat="44.87886" lon="6.75658">
        <ele>1867.218149</ele>
        <time>2022-09-03T09:49:33+0200</time>
      </trkpt>
      <trkpt lat="44.87886" lon="6.75665">
        <ele>1867.533758</ele>
        <time>2022-09-03T09:49:34+0200</time>
      </trkpt>
      <trkpt lat="44.87885" lon="6.75673">
        <ele>1867.550775</ele>
        <time>2022-09-03T09:49:35+0200</time>
      </trkpt>
      <trkpt lat="44.87883" lon="6.75682">
        <ele>1867.747965</ele>
        <time>2022-09-03T09:49:36+0200</time>
      </trkpt>
      <trkpt lat="44.87881" lon="6.7569">
        <ele>1867.870788</ele>
        <time>2022-09-03T09:49:37+0200</time>
      </trkpt>
      <trkpt lat="44.87881" lon="6.75699">
        <ele>1868.466973</ele>
        <time>2022-09-03T09:49:38+0200</time>
      </trkpt>
      <trkpt lat="44.87882" lon="6.75705">
        <ele>1868.147271</ele>
        <time>2022-09-03T09:49:39+0200</time>
      </trkpt>
      <trkpt lat="44.87884" lon="6.75713">
        <ele>1868.691187</ele>
        <time>2022-09-03T09:49:40+0200</time>
      </trkpt>
      <trkpt lat="44.87885" lon="6.7572">
        <ele>1868.202248</ele>
        <time>2022-09-03T09:49:41+0200</time>
      </trkpt>
      <trkpt lat="44.87888" lon="6.75727">
        <ele>1867.710157</ele>
        <time>2022-09-03T09:49:42+0200</time>
      </trkpt>
      <trkpt lat="44.87891" lon="6.75733">
        <ele>1867.576207</ele>
        <time>2022-09-03T09:49:43+0200</time>
      </trkpt>
      <trkpt lat="44.87894" lon="6.75741">
        <ele>1867.754834</ele>
        <time>2022-09-03T09:49:44+0200</time>
      </trkpt>
      <trkpt lat="44.87897" lon="6.75748">
        <ele>1867.970282</ele>
        <time>2022-09-03T09:49:45+0200</time>
      </trkpt>
      <trkpt lat="44.87901" lon="6.75754">
        <ele>1867.733023</ele>
        <time>2022-09-03T09:49:46+0200</time>
      </trkpt>
      <trkpt lat="44.87904" lon="6.7576">
        <ele>1867.631157</ele>
        <time>2022-09-03T09:49:47+0200</time>
      </trkpt>
      <trkpt lat="44.87905" lon="6.75767">
        <ele>1867.799231</ele>
        <time>2022-09-03T09:49:48+0200</time>
      </trkpt>
      <trkpt lat="44.87905" lon="6.75774">
        <ele>1867.679344</ele>
        <time>2022-09-03T09:49:49+0200</time>
      </trkpt>
      <trkpt lat="44.87904" lon="6.7578">
        <ele>1867.137913</ele>
        <time>2022-09-03T09:49:50+0200</time>
      </trkpt>
      <trkpt lat="44.87904" lon="6.75787">
        <ele>1867.240643</ele>
        <time>2022-09-03T09:49:51+0200</time>
      </trkpt>
      <trkpt lat="44.87904" lon="6.75794">
        <ele>1867.631268</ele>
        <time>2022-09-03T09:49:52+0200</time>
      </trkpt>
      <trkpt lat="44.87903" lon="6.75805">
        <ele>1868.944623</ele>
        <time>2022-09-03T09:49:54+0200</time>
      </trkpt>
      <trkpt lat="44.87903" lon="6.75815">
        <ele>1869.450691</ele>
        <time>2022-09-03T09:49:56+0200</time>
      </trkpt>
      <trkpt lat="44.87903" lon="6.75821">
        <ele>1869.243768</ele>
        <time>2022-09-03T09:49:57+0200</time>
      </trkpt>
      <trkpt lat="44.87902" lon="6.75829">
        <ele>1869.657881</ele>
        <time>2022-09-03T09:49:58+0200</time>
      </trkpt>
      <trkpt lat="44.87899" lon="6.75836">
        <ele>1869.041188</ele>
        <time>2022-09-03T09:49:59+0200</time>
      </trkpt>
      <trkpt lat="44.87897" lon="6.75844">
        <ele>1868.532196</ele>
        <time>2022-09-03T09:50:00+0200</time>
      </trkpt>
      <trkpt lat="44.87895" lon="6.7585">
        <ele>1868.864431</ele>
        <time>2022-09-03T09:50:01+0200</time>
      </trkpt>
      <trkpt lat="44.87893" lon="6.75857">
        <ele>1869.291853</ele>
        <time>2022-09-03T09:50:02+0200</time>
      </trkpt>
      <trkpt lat="44.8789" lon="6.75864">
        <ele>1869.904374</ele>
        <time>2022-09-03T09:50:03+0200</time>
      </trkpt>
      <trkpt lat="44.87887" lon="6.75876">
        <ele>1869.46477</ele>
        <time>2022-09-03T09:50:05+0200</time>
      </trkpt>
      <trkpt lat="44.87884" lon="6.75887">
        <ele>1868.964756</ele>
        <time>2022-09-03T09:50:07+0200</time>
      </trkpt>
      <trkpt lat="44.87881" lon="6.75897">
        <ele>1868.468697</ele>
        <time>2022-09-03T09:50:09+0200</time>
      </trkpt>
      <trkpt lat="44.87879" lon="6.75903">
        <ele>1868.572523</ele>
        <time>2022-09-03T09:50:10+0200</time>
      </trkpt>
      <trkpt lat="44.87876" lon="6.75916">
        <ele>1867.350736</ele>
        <time>2022-09-03T09:50:12+0200</time>
      </trkpt>
      <trkpt lat="44.87874" lon="6.75921">
        <ele>1867.070406</ele>
        <time>2022-09-03T09:50:13+0200</time>
      </trkpt>
      <trkpt lat="44.87871" lon="6.75926">
        <ele>1866.293744</ele>
        <time>2022-09-03T09:50:14+0200</time>
      </trkpt>
      <trkpt lat="44.87867" lon="6.75931">
        <ele>1866.716059</ele>
        <time>2022-09-03T09:50:15+0200</time>
      </trkpt>
      <trkpt lat="44.87865" lon="6.75937">
        <ele>1866.969053</ele>
        <time>2022-09-03T09:50:16+0200</time>
      </trkpt>
      <trkpt lat="44.87863" lon="6.75943">
        <ele>1867.252493</ele>
        <time>2022-09-03T09:50:17+0200</time>
      </trkpt>
      <trkpt lat="44.87861" lon="6.75949">
        <ele>1867.471678</ele>
        <time>2022-09-03T09:50:18+0200</time>
      </trkpt>
      <trkpt lat="44.87857" lon="6.7596">
        <ele>1868.37964</ele>
        <time>2022-09-03T09:50:20+0200</time>
      </trkpt>
      <trkpt lat="44.87856" lon="6.75971">
        <ele>1868.888323</ele>
        <time>2022-09-03T09:50:22+0200</time>
      </trkpt>
      <trkpt lat="44.87857" lon="6.75982">
        <ele>1869.031923</ele>
        <time>2022-09-03T09:50:24+0200</time>
      </trkpt>
      <trkpt lat="44.87858" lon="6.75991">
        <ele>1869.843337</ele>
        <time>2022-09-03T09:50:26+0200</time>
      </trkpt>
      <trkpt lat="44.87859" lon="6.76002">
        <ele>1869.466369</ele>
        <time>2022-09-03T09:50:28+0200</time>
      </trkpt>
      <trkpt lat="44.87861" lon="6.76014">
        <ele>1868.942783</ele>
        <time>2022-09-03T09:50:30+0200</time>
      </trkpt>
      <trkpt lat="44.87862" lon="6.7602">
        <ele>1869.0581</ele>
        <time>2022-09-03T09:50:31+0200</time>
      </trkpt>
      <trkpt lat="44.87864" lon="6.76032">
        <ele>1869.042425</ele>
        <time>2022-09-03T09:50:33+0200</time>
      </trkpt>
      <trkpt lat="44.87867" lon="6.76044">
        <ele>1868.537249</ele>
        <time>2022-09-03T09:50:35+0200</time>
      </trkpt>
      <trkpt lat="44.8787" lon="6.76049">
        <ele>1868.321238</ele>
        <time>2022-09-03T09:50:36+0200</time>
      </trkpt>
      <trkpt lat="44.87873" lon="6.76055">
        <ele>1868.156789</ele>
        <time>2022-09-03T09:50:37+0200</time>
      </trkpt>
      <trkpt lat="44.87877" lon="6.76066">
        <ele>1867.99409</ele>
        <time>2022-09-03T09:50:39+0200</time>
      </trkpt>
      <trkpt lat="44.8788" lon="6.76077">
        <ele>1867.954257</ele>
        <time>2022-09-03T09:50:41+0200</time>
      </trkpt>
      <trkpt lat="44.87883" lon="6.76088">
        <ele>1868.761712</ele>
        <time>2022-09-03T09:50:43+0200</time>
      </trkpt>
      <trkpt lat="44.87885" lon="6.76093">
        <ele>1868.357344</ele>
        <time>2022-09-03T09:50:44+0200</time>
      </trkpt>
      <trkpt lat="44.87887" lon="6.76106">
        <ele>1868.088144</ele>
        <time>2022-09-03T09:50:46+0200</time>
      </trkpt>
      <trkpt lat="44.87888" lon="6.76113">
        <ele>1867.983765</ele>
        <time>2022-09-03T09:50:47+0200</time>
      </trkpt>
      <trkpt lat="44.87891" lon="6.7612">
        <ele>1868.274782</ele>
        <time>2022-09-03T09:50:48+0200</time>
      </trkpt>
      <trkpt lat="44.8789" lon="6.76132">
        <ele>1868.562348</ele>
        <time>2022-09-03T09:50:50+0200</time>
      </trkpt>
      <trkpt lat="44.8789" lon="6.76145">
        <ele>1868.495826</ele>
        <time>2022-09-03T09:50:52+0200</time>
      </trkpt>
      <trkpt lat="44.8789" lon="6.76156">
        <ele>1868.941648</ele>
        <time>2022-09-03T09:50:54+0200</time>
      </trkpt>
      <trkpt lat="44.8789" lon="6.76169">
        <ele>1869.153879</ele>
        <time>2022-09-03T09:50:56+0200</time>
      </trkpt>
      <trkpt lat="44.87888" lon="6.76181">
        <ele>1869.085323</ele>
        <time>2022-09-03T09:50:58+0200</time>
      </trkpt>
      <trkpt lat="44.87886" lon="6.76187">
        <ele>1869.058327</ele>
        <time>2022-09-03T09:50:59+0200</time>
      </trkpt>
      <trkpt lat="44.87884" lon="6.76198">
        <ele>1870.333637</ele>
        <time>2022-09-03T09:51:01+0200</time>
      </trkpt>
      <trkpt lat="44.87883" lon="6.76209">
        <ele>1870.179366</ele>
        <time>2022-09-03T09:51:03+0200</time>
      </trkpt>
      <trkpt lat="44.87883" lon="6.76219">
        <ele>1869.624176</ele>
        <time>2022-09-03T09:51:05+0200</time>
      </trkpt>
      <trkpt lat="44.87881" lon="6.76228">
        <ele>1869.85259</ele>
        <time>2022-09-03T09:51:07+0200</time>
      </trkpt>
      <trkpt lat="44.87878" lon="6.76237">
        <ele>1870.094348</ele>
        <time>2022-09-03T09:51:09+0200</time>
      </trkpt>
      <trkpt lat="44.87875" lon="6.76248">
        <ele>1870.181545</ele>
        <time>2022-09-03T09:51:11+0200</time>
      </trkpt>
      <trkpt lat="44.87873" lon="6.76255">
        <ele>1869.876328</ele>
        <time>2022-09-03T09:51:13+0200</time>
      </trkpt>
      <trkpt lat="44.8787" lon="6.76262">
        <ele>1870.118068</ele>
        <time>2022-09-03T09:51:15+0200</time>
      </trkpt>
      <trkpt lat="44.87867" lon="6.76269">
        <ele>1871.457966</ele>
        <time>2022-09-03T09:51:17+0200</time>
      </trkpt>
      <trkpt lat="44.87866" lon="6.7628">
        <ele>1870.611157</ele>
        <time>2022-09-03T09:51:19+0200</time>
      </trkpt>
      <trkpt lat="44.87865" lon="6.76291">
        <ele>1870.125245</ele>
        <time>2022-09-03T09:51:21+0200</time>
      </trkpt>
      <trkpt lat="44.87864" lon="6.76299">
        <ele>1870.106619</ele>
        <time>2022-09-03T09:51:22+0200</time>
      </trkpt>
      <trkpt lat="44.87863" lon="6.76312">
        <ele>1869.722021</ele>
        <time>2022-09-03T09:51:24+0200</time>
      </trkpt>
      <trkpt lat="44.87862" lon="6.7632">
        <ele>1869.572972</ele>
        <time>2022-09-03T09:51:25+0200</time>
      </trkpt>
      <trkpt lat="44.87861" lon="6.76327">
        <ele>1869.82641</ele>
        <time>2022-09-03T09:51:26+0200</time>
      </trkpt>
      <trkpt lat="44.87856" lon="6.76335">
        <ele>1870.459071</ele>
        <time>2022-09-03T09:51:28+0200</time>
      </trkpt>
      <trkpt lat="44.87853" lon="6.76344">
        <ele>1870.465886</ele>
        <time>2022-09-03T09:51:30+0200</time>
      </trkpt>
      <trkpt lat="44.8785" lon="6.76353">
        <ele>1870.073208</ele>
        <time>2022-09-03T09:51:32+0200</time>
      </trkpt>
      <trkpt lat="44.8785" lon="6.76362">
        <ele>1869.925155</ele>
        <time>2022-09-03T09:51:34+0200</time>
      </trkpt>
      <trkpt lat="44.87849" lon="6.76369">
        <ele>1870.254634</ele>
        <time>2022-09-03T09:51:36+0200</time>
      </trkpt>
      <trkpt lat="44.87849" lon="6.7638">
        <ele>1870.164226</ele>
        <time>2022-09-03T09:51:38+0200</time>
      </trkpt>
      <trkpt lat="44.8785" lon="6.76389">
        <ele>1870.957524</ele>
        <time>2022-09-03T09:51:40+0200</time>
      </trkpt>
      <trkpt lat="44.87852" lon="6.76396">
        <ele>1871.778033</ele>
        <time>2022-09-03T09:51:42+0200</time>
      </trkpt>
      <trkpt lat="44.8785" lon="6.76405">
        <ele>1871.126007</ele>
        <time>2022-09-03T09:51:46+0200</time>
      </trkpt>
      <trkpt lat="44.87849" lon="6.76411">
        <ele>1872.076174</ele>
        <time>2022-09-03T09:51:48+0200</time>
      </trkpt>
      <trkpt lat="44.87844" lon="6.76419">
        <ele>1872.655305</ele>
        <time>2022-09-03T09:51:50+0200</time>
      </trkpt>
      <trkpt lat="44.87841" lon="6.76424">
        <ele>1872.491837</ele>
        <time>2022-09-03T09:51:52+0200</time>
      </trkpt>
      <trkpt lat="44.87837" lon="6.76431">
        <ele>1872.692116</ele>
        <time>2022-09-03T09:51:54+0200</time>
      </trkpt>
      <trkpt lat="44.87834" lon="6.76437">
        <ele>1872.754003</ele>
        <time>2022-09-03T09:51:56+0200</time>
      </trkpt>
      <trkpt lat="44.87831" lon="6.76443">
        <ele>1873.088194</ele>
        <time>2022-09-03T09:51:58+0200</time>
      </trkpt>
      <trkpt lat="44.87826" lon="6.76449">
        <ele>1873.649102</ele>
        <time>2022-09-03T09:52:01+0200</time>
      </trkpt>
      <trkpt lat="44.8782" lon="6.76454">
        <ele>1874.197736</ele>
        <time>2022-09-03T09:52:03+0200</time>
      </trkpt>
      <trkpt lat="44.87815" lon="6.76458">
        <ele>1875.381509</ele>
        <time>2022-09-03T09:52:06+0200</time>
      </trkpt>
      <trkpt lat="44.8781" lon="6.76461">
        <ele>1875.498249</ele>
        <time>2022-09-03T09:52:10+0200</time>
      </trkpt>
      <trkpt lat="44.87805" lon="6.76465">
        <ele>1874.983772</ele>
        <time>2022-09-03T09:52:13+0200</time>
      </trkpt>
      <trkpt lat="44.87802" lon="6.7647">
        <ele>1874.432295</ele>
        <time>2022-09-03T09:52:16+0200</time>
      </trkpt>
      <trkpt lat="44.87796" lon="6.76472">
        <ele>1873.368003</ele>
        <time>2022-09-03T09:52:40+0200</time>
      </trkpt>
      <trkpt lat="44.8779" lon="6.76479">
        <ele>1873.330269</ele>
        <time>2022-09-03T09:52:42+0200</time>
      </trkpt>
      <trkpt lat="44.87785" lon="6.76483">
        <ele>1873.461921</ele>
        <time>2022-09-03T09:52:44+0200</time>
      </trkpt>
      <trkpt lat="44.87778" lon="6.76492">
        <ele>1872.902066</ele>
        <time>2022-09-03T09:52:46+0200</time>
      </trkpt>
      <trkpt lat="44.87773" lon="6.76498">
        <ele>1872.639882</ele>
        <time>2022-09-03T09:52:47+0200</time>
      </trkpt>
      <trkpt lat="44.87769" lon="6.76504">
        <ele>1872.553046</ele>
        <time>2022-09-03T09:52:48+0200</time>
      </trkpt>
      <trkpt lat="44.87764" lon="6.7651">
        <ele>1872.647435</ele>
        <time>2022-09-03T09:52:49+0200</time>
      </trkpt>
      <trkpt lat="44.8776" lon="6.76514">
        <ele>1872.892774</ele>
        <time>2022-09-03T09:52:50+0200</time>
      </trkpt>
      <trkpt lat="44.87756" lon="6.76519">
        <ele>1872.650483</ele>
        <time>2022-09-03T09:52:51+0200</time>
      </trkpt>
      <trkpt lat="44.87749" lon="6.76525">
        <ele>1872.568557</ele>
        <time>2022-09-03T09:52:53+0200</time>
      </trkpt>
      <trkpt lat="44.87744" lon="6.7653">
        <ele>1873.053226</ele>
        <time>2022-09-03T09:52:55+0200</time>
      </trkpt>
      <trkpt lat="44.87738" lon="6.7653">
        <ele>1873.656863</ele>
        <time>2022-09-03T09:52:57+0200</time>
      </trkpt>
      <trkpt lat="44.87732" lon="6.76532">
        <ele>1873.913808</ele>
        <time>2022-09-03T09:52:59+0200</time>
      </trkpt>
      <trkpt lat="44.87725" lon="6.76532">
        <ele>1873.836173</ele>
        <time>2022-09-03T09:53:01+0200</time>
      </trkpt>
      <trkpt lat="44.87718" lon="6.76526">
        <ele>1873.99548</ele>
        <time>2022-09-03T09:53:03+0200</time>
      </trkpt>
      <trkpt lat="44.87714" lon="6.76523">
        <ele>1873.875157</ele>
        <time>2022-09-03T09:53:04+0200</time>
      </trkpt>
      <trkpt lat="44.87708" lon="6.76516">
        <ele>1873.975145</ele>
        <time>2022-09-03T09:53:06+0200</time>
      </trkpt>
      <trkpt lat="44.87703" lon="6.76519">
        <ele>1873.863234</ele>
        <time>2022-09-03T09:53:08+0200</time>
      </trkpt>
      <trkpt lat="44.87695" lon="6.76527">
        <ele>1872.925932</ele>
        <time>2022-09-03T09:53:10+0200</time>
      </trkpt>
      <trkpt lat="44.87692" lon="6.76534">
        <ele>1872.128765</ele>
        <time>2022-09-03T09:53:11+0200</time>
      </trkpt>
      <trkpt lat="44.8769" lon="6.76542">
        <ele>1871.244912</ele>
        <time>2022-09-03T09:53:12+0200</time>
      </trkpt>
      <trkpt lat="44.8769" lon="6.76551">
        <ele>1871.217982</ele>
        <time>2022-09-03T09:53:13+0200</time>
      </trkpt>
      <trkpt lat="44.87688" lon="6.76558">
        <ele>1870.958533</ele>
        <time>2022-09-03T09:53:14+0200</time>
      </trkpt>
      <trkpt lat="44.87686" lon="6.76564">
        <ele>1870.277293</ele>
        <time>2022-09-03T09:53:16+0200</time>
      </trkpt>
      <trkpt lat="44.87683" lon="6.76573">
        <ele>1869.261456</ele>
        <time>2022-09-03T09:53:19+0200</time>
      </trkpt>
      <trkpt lat="44.8768" lon="6.76582">
        <ele>1869.093741</ele>
        <time>2022-09-03T09:53:21+0200</time>
      </trkpt>
      <trkpt lat="44.87678" lon="6.7659">
        <ele>1869.184284</ele>
        <time>2022-09-03T09:53:23+0200</time>
      </trkpt>
      <trkpt lat="44.87678" lon="6.766">
        <ele>1868.651125</ele>
        <time>2022-09-03T09:53:25+0200</time>
      </trkpt>
      <trkpt lat="44.87677" lon="6.76613">
        <ele>1867.19744</ele>
        <time>2022-09-03T09:53:27+0200</time>
      </trkpt>
      <trkpt lat="44.8768" lon="6.76623">
        <ele>1867.714604</ele>
        <time>2022-09-03T09:53:29+0200</time>
      </trkpt>
      <trkpt lat="44.87683" lon="6.76631">
        <ele>1868.395161</ele>
        <time>2022-09-03T09:53:31+0200</time>
      </trkpt>
      <trkpt lat="44.87686" lon="6.76638">
        <ele>1869.150294</ele>
        <time>2022-09-03T09:53:33+0200</time>
      </trkpt>
      <trkpt lat="44.87689" lon="6.76645">
        <ele>1869.323334</ele>
        <time>2022-09-03T09:53:34+0200</time>
      </trkpt>
      <trkpt lat="44.87692" lon="6.76652">
        <ele>1869.920917</ele>
        <time>2022-09-03T09:53:36+0200</time>
      </trkpt>
      <trkpt lat="44.87692" lon="6.76659">
        <ele>1870.83946</ele>
        <time>2022-09-03T09:53:38+0200</time>
      </trkpt>
      <trkpt lat="44.87693" lon="6.76666">
        <ele>1871.374603</ele>
        <time>2022-09-03T09:53:40+0200</time>
      </trkpt>
      <trkpt lat="44.8769" lon="6.76673">
        <ele>1872.172044</ele>
        <time>2022-09-03T09:53:42+0200</time>
      </trkpt>
      <trkpt lat="44.87684" lon="6.76676">
        <ele>1872.5791</ele>
        <time>2022-09-03T09:53:44+0200</time>
      </trkpt>
      <trkpt lat="44.87678" lon="6.76679">
        <ele>1871.84838</ele>
        <time>2022-09-03T09:53:46+0200</time>
      </trkpt>
      <trkpt lat="44.87673" lon="6.76682">
        <ele>1871.663633</ele>
        <time>2022-09-03T09:53:48+0200</time>
      </trkpt>
      <trkpt lat="44.8767" lon="6.76687">
        <ele>1871.340865</ele>
        <time>2022-09-03T09:53:50+0200</time>
      </trkpt>
      <trkpt lat="44.87666" lon="6.76696">
        <ele>1871.100767</ele>
        <time>2022-09-03T09:53:52+0200</time>
      </trkpt>
      <trkpt lat="44.87664" lon="6.76702">
        <ele>1871.388247</ele>
        <time>2022-09-03T09:53:53+0200</time>
      </trkpt>
      <trkpt lat="44.87661" lon="6.76714">
        <ele>1871.556883</ele>
        <time>2022-09-03T09:53:55+0200</time>
      </trkpt>
      <trkpt lat="44.87658" lon="6.76722">
        <ele>1871.616149</ele>
        <time>2022-09-03T09:53:57+0200</time>
      </trkpt>
      <trkpt lat="44.8766" lon="6.76732">
        <ele>1871.239603</ele>
        <time>2022-09-03T09:53:59+0200</time>
      </trkpt>
      <trkpt lat="44.87661" lon="6.76743">
        <ele>1871.486996</ele>
        <time>2022-09-03T09:54:01+0200</time>
      </trkpt>
      <trkpt lat="44.87664" lon="6.7675">
        <ele>1871.222162</ele>
        <time>2022-09-03T09:54:03+0200</time>
      </trkpt>
      <trkpt lat="44.87667" lon="6.76759">
        <ele>1871.474625</ele>
        <time>2022-09-03T09:54:05+0200</time>
      </trkpt>
      <trkpt lat="44.87668" lon="6.7677">
        <ele>1872.109779</ele>
        <time>2022-09-03T09:54:07+0200</time>
      </trkpt>
      <trkpt lat="44.87668" lon="6.76777">
        <ele>1872.3451</ele>
        <time>2022-09-03T09:54:08+0200</time>
      </trkpt>
      <trkpt lat="44.87667" lon="6.76786">
        <ele>1872.941856</ele>
        <time>2022-09-03T09:54:10+0200</time>
      </trkpt>
      <trkpt lat="44.87669" lon="6.76792">
        <ele>1873.04127</ele>
        <time>2022-09-03T09:54:12+0200</time>
      </trkpt>
      <trkpt lat="44.87667" lon="6.76799">
        <ele>1874.506766</ele>
        <time>2022-09-03T09:54:17+0200</time>
      </trkpt>
      <trkpt lat="44.87664" lon="6.76805">
        <ele>1874.381986</ele>
        <time>2022-09-03T09:54:20+0200</time>
      </trkpt>
      <trkpt lat="44.87661" lon="6.76812">
        <ele>1874.123155</ele>
        <time>2022-09-03T09:54:23+0200</time>
      </trkpt>
      <trkpt lat="44.87662" lon="6.76818">
        <ele>1874.493997</ele>
        <time>2022-09-03T09:54:26+0200</time>
      </trkpt>
      <trkpt lat="44.87666" lon="6.76827">
        <ele>1874.193594</ele>
        <time>2022-09-03T09:54:28+0200</time>
      </trkpt>
      <trkpt lat="44.87667" lon="6.76833">
        <ele>1874.157014</ele>
        <time>2022-09-03T09:54:30+0200</time>
      </trkpt>
      <trkpt lat="44.87671" lon="6.7684">
        <ele>1875.47317</ele>
        <time>2022-09-03T09:54:32+0200</time>
      </trkpt>
      <trkpt lat="44.87676" lon="6.76844">
        <ele>1875.662358</ele>
        <time>2022-09-03T09:54:34+0200</time>
      </trkpt>
      <trkpt lat="44.87678" lon="6.76852">
        <ele>1875.450749</ele>
        <time>2022-09-03T09:54:37+0200</time>
      </trkpt>
      <trkpt lat="44.87679" lon="6.76861">
        <ele>1875.348477</ele>
        <time>2022-09-03T09:54:39+0200</time>
      </trkpt>
      <trkpt lat="44.8768" lon="6.76867">
        <ele>1875.255601</ele>
        <time>2022-09-03T09:54:40+0200</time>
      </trkpt>
      <trkpt lat="44.87682" lon="6.76875">
        <ele>1875.117693</ele>
        <time>2022-09-03T09:54:41+0200</time>
      </trkpt>
      <trkpt lat="44.87682" lon="6.76881">
        <ele>1874.641141</ele>
        <time>2022-09-03T09:54:42+0200</time>
      </trkpt>
      <trkpt lat="44.87676" lon="6.7689">
        <ele>1873.345025</ele>
        <time>2022-09-03T09:54:44+0200</time>
      </trkpt>
      <trkpt lat="44.87672" lon="6.76894">
        <ele>1873.529269</ele>
        <time>2022-09-03T09:54:46+0200</time>
      </trkpt>
      <trkpt lat="44.87666" lon="6.76897">
        <ele>1873.547803</ele>
        <time>2022-09-03T09:54:48+0200</time>
      </trkpt>
      <trkpt lat="44.87661" lon="6.76902">
        <ele>1873.36586</ele>
        <time>2022-09-03T09:54:51+0200</time>
      </trkpt>
      <trkpt lat="44.87656" lon="6.76907">
        <ele>1873.782953</ele>
        <time>2022-09-03T09:54:54+0200</time>
      </trkpt>
      <trkpt lat="44.8765" lon="6.76911">
        <ele>1873.200473</ele>
        <time>2022-09-03T09:54:57+0200</time>
      </trkpt>
      <trkpt lat="44.87646" lon="6.76916">
        <ele>1873.339789</ele>
        <time>2022-09-03T09:54:59+0200</time>
      </trkpt>
      <trkpt lat="44.87642" lon="6.76921">
        <ele>1873.352087</ele>
        <time>2022-09-03T09:55:02+0200</time>
      </trkpt>
      <trkpt lat="44.87638" lon="6.76926">
        <ele>1872.706052</ele>
        <time>2022-09-03T09:55:05+0200</time>
      </trkpt>
      <trkpt lat="44.87632" lon="6.76929">
        <ele>1872.479493</ele>
        <time>2022-09-03T09:55:08+0200</time>
      </trkpt>
      <trkpt lat="44.87635" lon="6.76924">
        <ele>1872.124391</ele>
        <time>2022-09-03T09:55:25+0200</time>
      </trkpt>
      <trkpt lat="44.87633" lon="6.76918">
        <ele>1871.423564</ele>
        <time>2022-09-03T09:59:28+0200</time>
      </trkpt>
      <trkpt lat="44.87636" lon="6.76923">
        <ele>1871.984721</ele>
        <time>2022-09-03T09:59:47+0200</time>
      </trkpt>
      <trkpt lat="44.87632" lon="6.7692">
        <ele>1872.161061</ele>
        <time>2022-09-03T09:59:58+0200</time>
      </trkpt>
      <trkpt lat="44.87636" lon="6.76921">
        <ele>1873.061862</ele>
        <time>2022-09-03T10:00:20+0200</time>
      </trkpt>
      <trkpt lat="44.87638" lon="6.76928">
        <ele>1874.035099</ele>
        <time>2022-09-03T10:00:27+0200</time>
      </trkpt>
      <trkpt lat="44.87644" lon="6.76927">
        <ele>1875.219529</ele>
        <time>2022-09-03T10:00:31+0200</time>
      </trkpt>
      <trkpt lat="44.87647" lon="6.76923">
        <ele>1874.788879</ele>
        <time>2022-09-03T10:00:33+0200</time>
      </trkpt>
      <trkpt lat="44.87653" lon="6.76921">
        <ele>1874.773011</ele>
        <time>2022-09-03T10:00:35+0200</time>
      </trkpt>
      <trkpt lat="44.87658" lon="6.76919">
        <ele>1874.804416</ele>
        <time>2022-09-03T10:00:37+0200</time>
      </trkpt>
      <trkpt lat="44.87664" lon="6.76917">
        <ele>1874.7873</ele>
        <time>2022-09-03T10:00:39+0200</time>
      </trkpt>
      <trkpt lat="44.87669" lon="6.76914">
        <ele>1875.843785</ele>
        <time>2022-09-03T10:00:41+0200</time>
      </trkpt>
      <trkpt lat="44.87674" lon="6.76914">
        <ele>1875.962324</ele>
        <time>2022-09-03T10:00:43+0200</time>
      </trkpt>
      <trkpt lat="44.87681" lon="6.76912">
        <ele>1876.802577</ele>
        <time>2022-09-03T10:00:45+0200</time>
      </trkpt>
      <trkpt lat="44.87686" lon="6.76911">
        <ele>1877.457664</ele>
        <time>2022-09-03T10:00:47+0200</time>
      </trkpt>
      <trkpt lat="44.87692" lon="6.76909">
        <ele>1878.353476</ele>
        <time>2022-09-03T10:00:49+0200</time>
      </trkpt>
      <trkpt lat="44.87698" lon="6.76907">
        <ele>1879.420234</ele>
        <time>2022-09-03T10:00:51+0200</time>
      </trkpt>
      <trkpt lat="44.87703" lon="6.76901">
        <ele>1880.689631</ele>
        <time>2022-09-03T10:00:53+0200</time>
      </trkpt>
      <trkpt lat="44.87706" lon="6.76893">
        <ele>1881.990988</ele>
        <time>2022-09-03T10:00:55+0200</time>
      </trkpt>
      <trkpt lat="44.87707" lon="6.76884">
        <ele>1882.083978</ele>
        <time>2022-09-03T10:00:57+0200</time>
      </trkpt>
      <trkpt lat="44.87706" lon="6.76874">
        <ele>1882.988508</ele>
        <time>2022-09-03T10:00:59+0200</time>
      </trkpt>
      <trkpt lat="44.87704" lon="6.76865">
        <ele>1882.784313</ele>
        <time>2022-09-03T10:01:02+0200</time>
      </trkpt>
      <trkpt lat="44.87702" lon="6.76858">
        <ele>1882.63557</ele>
        <time>2022-09-03T10:01:04+0200</time>
      </trkpt>
      <trkpt lat="44.87701" lon="6.7685">
        <ele>1881.705828</ele>
        <time>2022-09-03T10:01:06+0200</time>
      </trkpt>
      <trkpt lat="44.87701" lon="6.76843">
        <ele>1881.339186</ele>
        <time>2022-09-03T10:01:08+0200</time>
      </trkpt>
      <trkpt lat="44.877" lon="6.76835">
        <ele>1881.649739</ele>
        <time>2022-09-03T10:01:11+0200</time>
      </trkpt>
      <trkpt lat="44.87701" lon="6.76826">
        <ele>1882.875524</ele>
        <time>2022-09-03T10:01:14+0200</time>
      </trkpt>
      <trkpt lat="44.87703" lon="6.7682">
        <ele>1883.843562</ele>
        <time>2022-09-03T10:01:16+0200</time>
      </trkpt>
      <trkpt lat="44.87706" lon="6.76815">
        <ele>1883.695436</ele>
        <time>2022-09-03T10:01:18+0200</time>
      </trkpt>
      <trkpt lat="44.8771" lon="6.76809">
        <ele>1885.535707</ele>
        <time>2022-09-03T10:01:21+0200</time>
      </trkpt>
      <trkpt lat="44.87715" lon="6.76805">
        <ele>1887.735269</ele>
        <time>2022-09-03T10:01:24+0200</time>
      </trkpt>
      <trkpt lat="44.8772" lon="6.768">
        <ele>1890.12261</ele>
        <time>2022-09-03T10:01:27+0200</time>
      </trkpt>
      <trkpt lat="44.87723" lon="6.76793">
        <ele>1892.738464</ele>
        <time>2022-09-03T10:01:30+0200</time>
      </trkpt>
      <trkpt lat="44.87724" lon="6.76786">
        <ele>1894.307379</ele>
        <time>2022-09-03T10:01:33+0200</time>
      </trkpt>
      <trkpt lat="44.87723" lon="6.76778">
        <ele>1894.160381</ele>
        <time>2022-09-03T10:01:36+0200</time>
      </trkpt>
      <trkpt lat="44.87723" lon="6.76771">
        <ele>1894.048808</ele>
        <time>2022-09-03T10:01:39+0200</time>
      </trkpt>
      <trkpt lat="44.87728" lon="6.76767">
        <ele>1892.624344</ele>
        <time>2022-09-03T10:01:42+0200</time>
      </trkpt>
      <trkpt lat="44.87733" lon="6.7677">
        <ele>1892.203172</ele>
        <time>2022-09-03T10:01:45+0200</time>
      </trkpt>
      <trkpt lat="44.87738" lon="6.76774">
        <ele>1893.386919</ele>
        <time>2022-09-03T10:01:48+0200</time>
      </trkpt>
      <trkpt lat="44.87743" lon="6.76777">
        <ele>1894.790247</ele>
        <time>2022-09-03T10:01:51+0200</time>
      </trkpt>
      <trkpt lat="44.87748" lon="6.76779">
        <ele>1894.971697</ele>
        <time>2022-09-03T10:01:54+0200</time>
      </trkpt>
      <trkpt lat="44.87753" lon="6.76776">
        <ele>1895.392116</ele>
        <time>2022-09-03T10:01:57+0200</time>
      </trkpt>
      <trkpt lat="44.87758" lon="6.76773">
        <ele>1896.260865</ele>
        <time>2022-09-03T10:02:00+0200</time>
      </trkpt>
      <trkpt lat="44.87764" lon="6.7677">
        <ele>1896.196218</ele>
        <time>2022-09-03T10:02:04+0200</time>
      </trkpt>
      <trkpt lat="44.8777" lon="6.76768">
        <ele>1897.420825</ele>
        <time>2022-09-03T10:02:07+0200</time>
      </trkpt>
      <trkpt lat="44.87775" lon="6.76768">
        <ele>1898.219295</ele>
        <time>2022-09-03T10:02:09+0200</time>
      </trkpt>
      <trkpt lat="44.87779" lon="6.7677">
        <ele>1899.619814</ele>
        <time>2022-09-03T10:02:12+0200</time>
      </trkpt>
      <trkpt lat="44.87784" lon="6.76775">
        <ele>1900.779596</ele>
        <time>2022-09-03T10:02:16+0200</time>
      </trkpt>
      <trkpt lat="44.87789" lon="6.76777">
        <ele>1900.794399</ele>
        <time>2022-09-03T10:02:20+0200</time>
      </trkpt>
      <trkpt lat="44.87795" lon="6.7678">
        <ele>1901.366167</ele>
        <time>2022-09-03T10:02:24+0200</time>
      </trkpt>
      <trkpt lat="44.87799" lon="6.76783">
        <ele>1901.634187</ele>
        <time>2022-09-03T10:02:27+0200</time>
      </trkpt>
      <trkpt lat="44.87805" lon="6.76783">
        <ele>1902.902434</ele>
        <time>2022-09-03T10:02:32+0200</time>
      </trkpt>
      <trkpt lat="44.8781" lon="6.76784">
        <ele>1904.100125</ele>
        <time>2022-09-03T10:02:35+0200</time>
      </trkpt>
      <trkpt lat="44.87815" lon="6.76781">
        <ele>1904.424979</ele>
        <time>2022-09-03T10:02:38+0200</time>
      </trkpt>
      <trkpt lat="44.87819" lon="6.76779">
        <ele>1906.362796</ele>
        <time>2022-09-03T10:02:41+0200</time>
      </trkpt>
      <trkpt lat="44.87823" lon="6.76775">
        <ele>1907.553831</ele>
        <time>2022-09-03T10:02:45+0200</time>
      </trkpt>
      <trkpt lat="44.87828" lon="6.76769">
        <ele>1908.005017</ele>
        <time>2022-09-03T10:02:48+0200</time>
      </trkpt>
      <trkpt lat="44.87833" lon="6.76766">
        <ele>1908.882266</ele>
        <time>2022-09-03T10:02:51+0200</time>
      </trkpt>
      <trkpt lat="44.87838" lon="6.76764">
        <ele>1910.55937</ele>
        <time>2022-09-03T10:02:56+0200</time>
      </trkpt>
      <trkpt lat="44.87843" lon="6.7676">
        <ele>1911.665968</ele>
        <time>2022-09-03T10:02:59+0200</time>
      </trkpt>
      <trkpt lat="44.87848" lon="6.7676">
        <ele>1913.430031</ele>
        <time>2022-09-03T10:03:03+0200</time>
      </trkpt>
      <trkpt lat="44.87853" lon="6.76756">
        <ele>1914.226938</ele>
        <time>2022-09-03T10:03:07+0200</time>
      </trkpt>
      <trkpt lat="44.87856" lon="6.76752">
        <ele>1915.4676</ele>
        <time>2022-09-03T10:03:11+0200</time>
      </trkpt>
      <trkpt lat="44.87861" lon="6.7675">
        <ele>1916.549753</ele>
        <time>2022-09-03T10:03:14+0200</time>
      </trkpt>
      <trkpt lat="44.87866" lon="6.76747">
        <ele>1916.282924</ele>
        <time>2022-09-03T10:03:19+0200</time>
      </trkpt>
      <trkpt lat="44.87871" lon="6.76743">
        <ele>1916.605892</ele>
        <time>2022-09-03T10:03:23+0200</time>
      </trkpt>
      <trkpt lat="44.87875" lon="6.76741">
        <ele>1916.88956</ele>
        <time>2022-09-03T10:03:27+0200</time>
      </trkpt>
      <trkpt lat="44.8788" lon="6.76742">
        <ele>1918.388166</ele>
        <time>2022-09-03T10:03:32+0200</time>
      </trkpt>
      <trkpt lat="44.87884" lon="6.7674">
        <ele>1919.571966</ele>
        <time>2022-09-03T10:03:35+0200</time>
      </trkpt>
      <trkpt lat="44.87889" lon="6.76739">
        <ele>1920.332143</ele>
        <time>2022-09-03T10:03:39+0200</time>
      </trkpt>
      <trkpt lat="44.87895" lon="6.76741">
        <ele>1922.308184</ele>
        <time>2022-09-03T10:03:44+0200</time>
      </trkpt>
      <trkpt lat="44.879" lon="6.7674">
        <ele>1925.10544</ele>
        <time>2022-09-03T10:03:49+0200</time>
      </trkpt>
      <trkpt lat="44.87906" lon="6.76737">
        <ele>1926.259907</ele>
        <time>2022-09-03T10:03:54+0200</time>
      </trkpt>
      <trkpt lat="44.8791" lon="6.76734">
        <ele>1927.352634</ele>
        <time>2022-09-03T10:03:58+0200</time>
      </trkpt>
      <trkpt lat="44.87915" lon="6.76732">
        <ele>1928.520412</ele>
        <time>2022-09-03T10:04:03+0200</time>
      </trkpt>
      <trkpt lat="44.87919" lon="6.76736">
        <ele>1930.588955</ele>
        <time>2022-09-03T10:04:07+0200</time>
      </trkpt>
      <trkpt lat="44.87919" lon="6.76743">
        <ele>1931.456838</ele>
        <time>2022-09-03T10:04:12+0200</time>
      </trkpt>
      <trkpt lat="44.87919" lon="6.7675">
        <ele>1931.936215</ele>
        <time>2022-09-03T10:04:16+0200</time>
      </trkpt>
      <trkpt lat="44.8792" lon="6.76756">
        <ele>1931.83723</ele>
        <time>2022-09-03T10:04:20+0200</time>
      </trkpt>
      <trkpt lat="44.87922" lon="6.76763">
        <ele>1932.874657</ele>
        <time>2022-09-03T10:04:24+0200</time>
      </trkpt>
      <trkpt lat="44.87924" lon="6.76768">
        <ele>1935.055976</ele>
        <time>2022-09-03T10:04:28+0200</time>
      </trkpt>
      <trkpt lat="44.87927" lon="6.76774">
        <ele>1936.30864</ele>
        <time>2022-09-03T10:04:31+0200</time>
      </trkpt>
      <trkpt lat="44.87931" lon="6.76777">
        <ele>1938.181256</ele>
        <time>2022-09-03T10:04:35+0200</time>
      </trkpt>
      <trkpt lat="44.87936" lon="6.7678">
        <ele>1939.63726</ele>
        <time>2022-09-03T10:04:38+0200</time>
      </trkpt>
      <trkpt lat="44.87939" lon="6.76785">
        <ele>1941.417078</ele>
        <time>2022-09-03T10:04:41+0200</time>
      </trkpt>
      <trkpt lat="44.87942" lon="6.76792">
        <ele>1942.628442</ele>
        <time>2022-09-03T10:04:44+0200</time>
      </trkpt>
      <trkpt lat="44.87946" lon="6.76798">
        <ele>1943.125552</ele>
        <time>2022-09-03T10:04:47+0200</time>
      </trkpt>
      <trkpt lat="44.87949" lon="6.76804">
        <ele>1943.872401</ele>
        <time>2022-09-03T10:04:50+0200</time>
      </trkpt>
      <trkpt lat="44.87951" lon="6.7681">
        <ele>1944.509781</ele>
        <time>2022-09-03T10:04:52+0200</time>
      </trkpt>
      <trkpt lat="44.87955" lon="6.76817">
        <ele>1945.141036</ele>
        <time>2022-09-03T10:04:55+0200</time>
      </trkpt>
      <trkpt lat="44.87959" lon="6.76824">
        <ele>1944.991065</ele>
        <time>2022-09-03T10:04:58+0200</time>
      </trkpt>
      <trkpt lat="44.87962" lon="6.76829">
        <ele>1945.071332</ele>
        <time>2022-09-03T10:05:00+0200</time>
      </trkpt>
      <trkpt lat="44.87965" lon="6.76833">
        <ele>1944.987661</ele>
        <time>2022-09-03T10:05:02+0200</time>
      </trkpt>
      <trkpt lat="44.8797" lon="6.76839">
        <ele>1945.590954</ele>
        <time>2022-09-03T10:05:05+0200</time>
      </trkpt>
      <trkpt lat="44.87975" lon="6.76841">
        <ele>1945.833368</ele>
        <time>2022-09-03T10:05:07+0200</time>
      </trkpt>
      <trkpt lat="44.87981" lon="6.76845">
        <ele>1946.02379</ele>
        <time>2022-09-03T10:05:10+0200</time>
      </trkpt>
      <trkpt lat="44.87986" lon="6.7685">
        <ele>1946.967479</ele>
        <time>2022-09-03T10:05:13+0200</time>
      </trkpt>
      <trkpt lat="44.87991" lon="6.76853">
        <ele>1948.159484</ele>
        <time>2022-09-03T10:05:16+0200</time>
      </trkpt>
      <trkpt lat="44.87996" lon="6.76858">
        <ele>1949.546277</ele>
        <time>2022-09-03T10:05:19+0200</time>
      </trkpt>
      <trkpt lat="44.88001" lon="6.76863">
        <ele>1949.732268</ele>
        <time>2022-09-03T10:05:22+0200</time>
      </trkpt>
      <trkpt lat="44.88005" lon="6.7687">
        <ele>1949.566941</ele>
        <time>2022-09-03T10:05:25+0200</time>
      </trkpt>
      <trkpt lat="44.88008" lon="6.76874">
        <ele>1950.023921</ele>
        <time>2022-09-03T10:05:27+0200</time>
      </trkpt>
      <trkpt lat="44.88014" lon="6.76879">
        <ele>1950.732028</ele>
        <time>2022-09-03T10:05:31+0200</time>
      </trkpt>
      <trkpt lat="44.88018" lon="6.76881">
        <ele>1950.482376</ele>
        <time>2022-09-03T10:05:33+0200</time>
      </trkpt>
      <trkpt lat="44.88024" lon="6.76886">
        <ele>1950.712028</ele>
        <time>2022-09-03T10:05:36+0200</time>
      </trkpt>
      <trkpt lat="44.88029" lon="6.7689">
        <ele>1951.952574</ele>
        <time>2022-09-03T10:05:39+0200</time>
      </trkpt>
      <trkpt lat="44.88033" lon="6.76896">
        <ele>1952.103069</ele>
        <time>2022-09-03T10:05:42+0200</time>
      </trkpt>
      <trkpt lat="44.88038" lon="6.769">
        <ele>1953.826174</ele>
        <time>2022-09-03T10:05:45+0200</time>
      </trkpt>
      <trkpt lat="44.88043" lon="6.76905">
        <ele>1955.411151</ele>
        <time>2022-09-03T10:05:48+0200</time>
      </trkpt>
      <trkpt lat="44.88047" lon="6.7691">
        <ele>1956.919538</ele>
        <time>2022-09-03T10:05:51+0200</time>
      </trkpt>
      <trkpt lat="44.88051" lon="6.76914">
        <ele>1957.585411</ele>
        <time>2022-09-03T10:05:54+0200</time>
      </trkpt>
      <trkpt lat="44.88055" lon="6.76917">
        <ele>1958.717605</ele>
        <time>2022-09-03T10:05:58+0200</time>
      </trkpt>
      <trkpt lat="44.8806" lon="6.7692">
        <ele>1959.484769</ele>
        <time>2022-09-03T10:06:01+0200</time>
      </trkpt>
      <trkpt lat="44.88065" lon="6.76922">
        <ele>1960.414427</ele>
        <time>2022-09-03T10:06:04+0200</time>
      </trkpt>
      <trkpt lat="44.8807" lon="6.76926">
        <ele>1961.099476</ele>
        <time>2022-09-03T10:06:07+0200</time>
      </trkpt>
      <trkpt lat="44.88076" lon="6.76928">
        <ele>1961.953199</ele>
        <time>2022-09-03T10:06:10+0200</time>
      </trkpt>
      <trkpt lat="44.8808" lon="6.7693">
        <ele>1963.145364</ele>
        <time>2022-09-03T10:06:13+0200</time>
      </trkpt>
      <trkpt lat="44.88086" lon="6.76933">
        <ele>1963.880884</ele>
        <time>2022-09-03T10:06:16+0200</time>
      </trkpt>
      <trkpt lat="44.88091" lon="6.76937">
        <ele>1965.37599</ele>
        <time>2022-09-03T10:06:19+0200</time>
      </trkpt>
      <trkpt lat="44.88096" lon="6.76939">
        <ele>1965.840172</ele>
        <time>2022-09-03T10:06:22+0200</time>
      </trkpt>
      <trkpt lat="44.88101" lon="6.76944">
        <ele>1966.692948</ele>
        <time>2022-09-03T10:06:25+0200</time>
      </trkpt>
      <trkpt lat="44.88104" lon="6.76948">
        <ele>1967.116078</ele>
        <time>2022-09-03T10:06:28+0200</time>
      </trkpt>
      <trkpt lat="44.88109" lon="6.76952">
        <ele>1967.251682</ele>
        <time>2022-09-03T10:06:32+0200</time>
      </trkpt>
      <trkpt lat="44.88114" lon="6.76955">
        <ele>1966.985732</ele>
        <time>2022-09-03T10:06:36+0200</time>
      </trkpt>
      <trkpt lat="44.88119" lon="6.76957">
        <ele>1967.210287</ele>
        <time>2022-09-03T10:06:39+0200</time>
      </trkpt>
      <trkpt lat="44.88123" lon="6.76961">
        <ele>1967.026633</ele>
        <time>2022-09-03T10:06:44+0200</time>
      </trkpt>
      <trkpt lat="44.88128" lon="6.76965">
        <ele>1968.579673</ele>
        <time>2022-09-03T10:06:49+0200</time>
      </trkpt>
      <trkpt lat="44.88133" lon="6.76967">
        <ele>1969.683147</ele>
        <time>2022-09-03T10:06:54+0200</time>
      </trkpt>
      <trkpt lat="44.88138" lon="6.7697">
        <ele>1971.042565</ele>
        <time>2022-09-03T10:06:58+0200</time>
      </trkpt>
      <trkpt lat="44.88144" lon="6.76971">
        <ele>1973.068404</ele>
        <time>2022-09-03T10:07:01+0200</time>
      </trkpt>
      <trkpt lat="44.88148" lon="6.76973">
        <ele>1974.579075</ele>
        <time>2022-09-03T10:07:04+0200</time>
      </trkpt>
      <trkpt lat="44.88153" lon="6.76978">
        <ele>1976.480589</ele>
        <time>2022-09-03T10:07:07+0200</time>
      </trkpt>
      <trkpt lat="44.88156" lon="6.76983">
        <ele>1978.083151</ele>
        <time>2022-09-03T10:07:09+0200</time>
      </trkpt>
      <trkpt lat="44.88161" lon="6.76988">
        <ele>1979.646927</ele>
        <time>2022-09-03T10:07:12+0200</time>
      </trkpt>
      <trkpt lat="44.88165" lon="6.76991">
        <ele>1980.651338</ele>
        <time>2022-09-03T10:07:16+0200</time>
      </trkpt>
      <trkpt lat="44.8817" lon="6.76993">
        <ele>1981.780434</ele>
        <time>2022-09-03T10:07:19+0200</time>
      </trkpt>
      <trkpt lat="44.88173" lon="6.76999">
        <ele>1982.37922</ele>
        <time>2022-09-03T10:07:22+0200</time>
      </trkpt>
      <trkpt lat="44.88178" lon="6.77004">
        <ele>1983.096965</ele>
        <time>2022-09-03T10:07:25+0200</time>
      </trkpt>
      <trkpt lat="44.88182" lon="6.7701">
        <ele>1984.093316</ele>
        <time>2022-09-03T10:07:29+0200</time>
      </trkpt>
      <trkpt lat="44.88185" lon="6.77017">
        <ele>1984.545477</ele>
        <time>2022-09-03T10:07:33+0200</time>
      </trkpt>
      <trkpt lat="44.88188" lon="6.77022">
        <ele>1985.61338</ele>
        <time>2022-09-03T10:07:37+0200</time>
      </trkpt>
      <trkpt lat="44.88193" lon="6.77029">
        <ele>1987.145887</ele>
        <time>2022-09-03T10:07:41+0200</time>
      </trkpt>
      <trkpt lat="44.88197" lon="6.77033">
        <ele>1987.220746</ele>
        <time>2022-09-03T10:07:44+0200</time>
      </trkpt>
      <trkpt lat="44.88202" lon="6.77037">
        <ele>1987.980657</ele>
        <time>2022-09-03T10:07:47+0200</time>
      </trkpt>
      <trkpt lat="44.88206" lon="6.77041">
        <ele>1988.403785</ele>
        <time>2022-09-03T10:07:52+0200</time>
      </trkpt>
      <trkpt lat="44.88212" lon="6.77042">
        <ele>1989.446624</ele>
        <time>2022-09-03T10:07:56+0200</time>
      </trkpt>
      <trkpt lat="44.88218" lon="6.77044">
        <ele>1990.261781</ele>
        <time>2022-09-03T10:08:00+0200</time>
      </trkpt>
      <trkpt lat="44.88222" lon="6.77045">
        <ele>1991.612928</ele>
        <time>2022-09-03T10:08:04+0200</time>
      </trkpt>
      <trkpt lat="44.88227" lon="6.77049">
        <ele>1992.135962</ele>
        <time>2022-09-03T10:08:08+0200</time>
      </trkpt>
      <trkpt lat="44.88232" lon="6.77052">
        <ele>1993.114562</ele>
        <time>2022-09-03T10:08:12+0200</time>
      </trkpt>
      <trkpt lat="44.88236" lon="6.77057">
        <ele>1994.042797</ele>
        <time>2022-09-03T10:08:16+0200</time>
      </trkpt>
      <trkpt lat="44.8824" lon="6.77063">
        <ele>1995.800387</ele>
        <time>2022-09-03T10:08:20+0200</time>
      </trkpt>
      <trkpt lat="44.88244" lon="6.77068">
        <ele>1996.89151</ele>
        <time>2022-09-03T10:08:24+0200</time>
      </trkpt>
      <trkpt lat="44.88249" lon="6.77072">
        <ele>1997.681718</ele>
        <time>2022-09-03T10:08:28+0200</time>
      </trkpt>
      <trkpt lat="44.88253" lon="6.77076">
        <ele>1999.634756</ele>
        <time>2022-09-03T10:08:32+0200</time>
      </trkpt>
      <trkpt lat="44.88256" lon="6.77081">
        <ele>2000.766285</ele>
        <time>2022-09-03T10:08:36+0200</time>
      </trkpt>
      <trkpt lat="44.8826" lon="6.77085">
        <ele>2001.933178</ele>
        <time>2022-09-03T10:08:39+0200</time>
      </trkpt>
      <trkpt lat="44.88265" lon="6.77089">
        <ele>2001.969223</ele>
        <time>2022-09-03T10:08:42+0200</time>
      </trkpt>
      <trkpt lat="44.88268" lon="6.77094">
        <ele>2002.987199</ele>
        <time>2022-09-03T10:08:45+0200</time>
      </trkpt>
      <trkpt lat="44.88273" lon="6.77099">
        <ele>2003.833416</ele>
        <time>2022-09-03T10:08:49+0200</time>
      </trkpt>
      <trkpt lat="44.88278" lon="6.77103">
        <ele>2005.346384</ele>
        <time>2022-09-03T10:08:53+0200</time>
      </trkpt>
      <trkpt lat="44.88283" lon="6.77106">
        <ele>2007.342736</ele>
        <time>2022-09-03T10:08:57+0200</time>
      </trkpt>
      <trkpt lat="44.88288" lon="6.77109">
        <ele>2008.504025</ele>
        <time>2022-09-03T10:09:01+0200</time>
      </trkpt>
      <trkpt lat="44.88293" lon="6.7711">
        <ele>2010.21314</ele>
        <time>2022-09-03T10:09:04+0200</time>
      </trkpt>
      <trkpt lat="44.88297" lon="6.77113">
        <ele>2011.198108</ele>
        <time>2022-09-03T10:09:07+0200</time>
      </trkpt>
      <trkpt lat="44.88302" lon="6.77117">
        <ele>2013.528898</ele>
        <time>2022-09-03T10:09:11+0200</time>
      </trkpt>
      <trkpt lat="44.88308" lon="6.7712">
        <ele>2014.337835</ele>
        <time>2022-09-03T10:09:15+0200</time>
      </trkpt>
      <trkpt lat="44.88313" lon="6.77123">
        <ele>2015.274288</ele>
        <time>2022-09-03T10:09:18+0200</time>
      </trkpt>
      <trkpt lat="44.88318" lon="6.77127">
        <ele>2017.084412</ele>
        <time>2022-09-03T10:09:22+0200</time>
      </trkpt>
      <trkpt lat="44.88323" lon="6.77131">
        <ele>2019.212713</ele>
        <time>2022-09-03T10:09:26+0200</time>
      </trkpt>
      <trkpt lat="44.88327" lon="6.77136">
        <ele>2019.965077</ele>
        <time>2022-09-03T10:09:30+0200</time>
      </trkpt>
      <trkpt lat="44.88331" lon="6.7714">
        <ele>2020.861159</ele>
        <time>2022-09-03T10:09:34+0200</time>
      </trkpt>
      <trkpt lat="44.88334" lon="6.77145">
        <ele>2021.130251</ele>
        <time>2022-09-03T10:09:37+0200</time>
      </trkpt>
      <trkpt lat="44.88335" lon="6.77151">
        <ele>2022.774081</ele>
        <time>2022-09-03T10:09:41+0200</time>
      </trkpt>
      <trkpt lat="44.88339" lon="6.77156">
        <ele>2023.8354</ele>
        <time>2022-09-03T10:09:45+0200</time>
      </trkpt>
      <trkpt lat="44.8834" lon="6.77164">
        <ele>2024.298316</ele>
        <time>2022-09-03T10:09:50+0200</time>
      </trkpt>
      <trkpt lat="44.8834" lon="6.7717">
        <ele>2025.21858</ele>
        <time>2022-09-03T10:09:53+0200</time>
      </trkpt>
      <trkpt lat="44.88338" lon="6.77177">
        <ele>2026.307427</ele>
        <time>2022-09-03T10:09:57+0200</time>
      </trkpt>
      <trkpt lat="44.88337" lon="6.77185">
        <ele>2025.262201</ele>
        <time>2022-09-03T10:10:01+0200</time>
      </trkpt>
      <trkpt lat="44.88338" lon="6.77192">
        <ele>2025.731767</ele>
        <time>2022-09-03T10:10:05+0200</time>
      </trkpt>
      <trkpt lat="44.88338" lon="6.77199">
        <ele>2024.681175</ele>
        <time>2022-09-03T10:10:09+0200</time>
      </trkpt>
      <trkpt lat="44.8834" lon="6.77206">
        <ele>2026.273009</ele>
        <time>2022-09-03T10:10:14+0200</time>
      </trkpt>
      <trkpt lat="44.8834" lon="6.77214">
        <ele>2026.523669</ele>
        <time>2022-09-03T10:10:47+0200</time>
      </trkpt>
      <trkpt lat="44.8834" lon="6.77224">
        <ele>2027.596034</ele>
        <time>2022-09-03T10:10:50+0200</time>
      </trkpt>
      <trkpt lat="44.88339" lon="6.77232">
        <ele>2028.895742</ele>
        <time>2022-09-03T10:10:53+0200</time>
      </trkpt>
      <trkpt lat="44.88338" lon="6.77241">
        <ele>2029.383379</ele>
        <time>2022-09-03T10:10:56+0200</time>
      </trkpt>
      <trkpt lat="44.88336" lon="6.77249">
        <ele>2029.552986</ele>
        <time>2022-09-03T10:10:59+0200</time>
      </trkpt>
      <trkpt lat="44.88336" lon="6.77258">
        <ele>2029.407295</ele>
        <time>2022-09-03T10:11:02+0200</time>
      </trkpt>
      <trkpt lat="44.88336" lon="6.77267">
        <ele>2029.38969</ele>
        <time>2022-09-03T10:11:05+0200</time>
      </trkpt>
      <trkpt lat="44.88336" lon="6.77277">
        <ele>2029.239887</ele>
        <time>2022-09-03T10:11:08+0200</time>
      </trkpt>
      <trkpt lat="44.88336" lon="6.77288">
        <ele>2028.069975</ele>
        <time>2022-09-03T10:11:10+0200</time>
      </trkpt>
      <trkpt lat="44.88337" lon="6.77299">
        <ele>2028.431651</ele>
        <time>2022-09-03T10:11:12+0200</time>
      </trkpt>
      <trkpt lat="44.88339" lon="6.77306">
        <ele>2028.196635</ele>
        <time>2022-09-03T10:11:13+0200</time>
      </trkpt>
      <trkpt lat="44.88341" lon="6.77312">
        <ele>2028.382804</ele>
        <time>2022-09-03T10:11:14+0200</time>
      </trkpt>
      <trkpt lat="44.88344" lon="6.77318">
        <ele>2028.732396</ele>
        <time>2022-09-03T10:11:15+0200</time>
      </trkpt>
      <trkpt lat="44.88348" lon="6.77323">
        <ele>2028.993571</ele>
        <time>2022-09-03T10:11:16+0200</time>
      </trkpt>
      <trkpt lat="44.88354" lon="6.77327">
        <ele>2028.951756</ele>
        <time>2022-09-03T10:11:18+0200</time>
      </trkpt>
      <trkpt lat="44.88359" lon="6.77331">
        <ele>2028.825382</ele>
        <time>2022-09-03T10:11:20+0200</time>
      </trkpt>
      <trkpt lat="44.88365" lon="6.77334">
        <ele>2028.521292</ele>
        <time>2022-09-03T10:11:22+0200</time>
      </trkpt>
      <trkpt lat="44.88372" lon="6.77337">
        <ele>2028.034848</ele>
        <time>2022-09-03T10:11:24+0200</time>
      </trkpt>
      <trkpt lat="44.88378" lon="6.7734">
        <ele>2028.956606</ele>
        <time>2022-09-03T10:11:26+0200</time>
      </trkpt>
      <trkpt lat="44.88384" lon="6.77341">
        <ele>2029.316061</ele>
        <time>2022-09-03T10:11:28+0200</time>
      </trkpt>
      <trkpt lat="44.88389" lon="6.77342">
        <ele>2029.918338</ele>
        <time>2022-09-03T10:11:30+0200</time>
      </trkpt>
      <trkpt lat="44.88395" lon="6.77342">
        <ele>2030.055402</ele>
        <time>2022-09-03T10:11:32+0200</time>
      </trkpt>
      <trkpt lat="44.88398" lon="6.77337">
        <ele>2031.373191</ele>
        <time>2022-09-03T10:11:36+0200</time>
      </trkpt>
      <trkpt lat="44.88402" lon="6.77331">
        <ele>2031.431036</ele>
        <time>2022-09-03T10:11:39+0200</time>
      </trkpt>
      <trkpt lat="44.88402" lon="6.77324">
        <ele>2031.592599</ele>
        <time>2022-09-03T10:11:41+0200</time>
      </trkpt>
      <trkpt lat="44.88403" lon="6.77313">
        <ele>2031.109404</ele>
        <time>2022-09-03T10:11:43+0200</time>
      </trkpt>
      <trkpt lat="44.88404" lon="6.77306">
        <ele>2029.724927</ele>
        <time>2022-09-03T10:11:45+0200</time>
      </trkpt>
      <trkpt lat="44.88403" lon="6.77299">
        <ele>2029.661959</ele>
        <time>2022-09-03T10:11:47+0200</time>
      </trkpt>
      <trkpt lat="44.88401" lon="6.77292">
        <ele>2029.026972</ele>
        <time>2022-09-03T10:11:52+0200</time>
      </trkpt>
      <trkpt lat="44.88401" lon="6.77284">
        <ele>2028.472597</ele>
        <time>2022-09-03T10:11:54+0200</time>
      </trkpt>
      <trkpt lat="44.88403" lon="6.77278">
        <ele>2028.647192</ele>
        <time>2022-09-03T10:11:56+0200</time>
      </trkpt>
      <trkpt lat="44.88408" lon="6.77276">
        <ele>2029.755372</ele>
        <time>2022-09-03T10:11:59+0200</time>
      </trkpt>
      <trkpt lat="44.88411" lon="6.77272">
        <ele>2029.238443</ele>
        <time>2022-09-03T10:12:01+0200</time>
      </trkpt>
      <trkpt lat="44.88416" lon="6.7727">
        <ele>2029.218956</ele>
        <time>2022-09-03T10:12:03+0200</time>
      </trkpt>
      <trkpt lat="44.88423" lon="6.7727">
        <ele>2028.440087</ele>
        <time>2022-09-03T10:12:06+0200</time>
      </trkpt>
      <trkpt lat="44.88428" lon="6.77269">
        <ele>2029.101082</ele>
        <time>2022-09-03T10:12:08+0200</time>
      </trkpt>
      <trkpt lat="44.88433" lon="6.77268">
        <ele>2029.62066</ele>
        <time>2022-09-03T10:12:10+0200</time>
      </trkpt>
      <trkpt lat="44.8844" lon="6.77266">
        <ele>2031.389891</ele>
        <time>2022-09-03T10:12:12+0200</time>
      </trkpt>
      <trkpt lat="44.88446" lon="6.77264">
        <ele>2031.659538</ele>
        <time>2022-09-03T10:12:14+0200</time>
      </trkpt>
      <trkpt lat="44.88451" lon="6.77267">
        <ele>2033.17396</ele>
        <time>2022-09-03T10:12:17+0200</time>
      </trkpt>
      <trkpt lat="44.88455" lon="6.77269">
        <ele>2033.061719</ele>
        <time>2022-09-03T10:12:19+0200</time>
      </trkpt>
      <trkpt lat="44.88461" lon="6.77269">
        <ele>2034.125947</ele>
        <time>2022-09-03T10:12:22+0200</time>
      </trkpt>
      <trkpt lat="44.88467" lon="6.77271">
        <ele>2035.019028</ele>
        <time>2022-09-03T10:12:25+0200</time>
      </trkpt>
      <trkpt lat="44.88472" lon="6.77275">
        <ele>2034.790113</ele>
        <time>2022-09-03T10:12:28+0200</time>
      </trkpt>
      <trkpt lat="44.88475" lon="6.77279">
        <ele>2035.173004</ele>
        <time>2022-09-03T10:12:31+0200</time>
      </trkpt>
      <trkpt lat="44.88479" lon="6.77284">
        <ele>2035.286296</ele>
        <time>2022-09-03T10:12:34+0200</time>
      </trkpt>
      <trkpt lat="44.88482" lon="6.77288">
        <ele>2035.770114</ele>
        <time>2022-09-03T10:12:38+0200</time>
      </trkpt>
      <trkpt lat="44.88485" lon="6.77293">
        <ele>2036.852061</ele>
        <time>2022-09-03T10:12:41+0200</time>
      </trkpt>
      <trkpt lat="44.88489" lon="6.77298">
        <ele>2037.267904</ele>
        <time>2022-09-03T10:12:44+0200</time>
      </trkpt>
      <trkpt lat="44.88495" lon="6.773">
        <ele>2038.219513</ele>
        <time>2022-09-03T10:12:47+0200</time>
      </trkpt>
      <trkpt lat="44.885" lon="6.77303">
        <ele>2040.226012</ele>
        <time>2022-09-03T10:12:50+0200</time>
      </trkpt>
      <trkpt lat="44.88504" lon="6.77308">
        <ele>2041.17668</ele>
        <time>2022-09-03T10:12:53+0200</time>
      </trkpt>
      <trkpt lat="44.88507" lon="6.77314">
        <ele>2042.958703</ele>
        <time>2022-09-03T10:12:55+0200</time>
      </trkpt>
      <trkpt lat="44.88507" lon="6.77321">
        <ele>2043.800967</ele>
        <time>2022-09-03T10:12:57+0200</time>
      </trkpt>
      <trkpt lat="44.88508" lon="6.7733">
        <ele>2045.182396</ele>
        <time>2022-09-03T10:13:00+0200</time>
      </trkpt>
      <trkpt lat="44.88511" lon="6.77336">
        <ele>2044.345025</ele>
        <time>2022-09-03T10:13:02+0200</time>
      </trkpt>
      <trkpt lat="44.88515" lon="6.77342">
        <ele>2044.405489</ele>
        <time>2022-09-03T10:13:05+0200</time>
      </trkpt>
      <trkpt lat="44.88519" lon="6.77346">
        <ele>2044.500236</ele>
        <time>2022-09-03T10:13:07+0200</time>
      </trkpt>
      <trkpt lat="44.88523" lon="6.77349">
        <ele>2044.691887</ele>
        <time>2022-09-03T10:13:09+0200</time>
      </trkpt>
      <trkpt lat="44.88528" lon="6.77356">
        <ele>2045.676857</ele>
        <time>2022-09-03T10:13:12+0200</time>
      </trkpt>
      <trkpt lat="44.88532" lon="6.7736">
        <ele>2048.853769</ele>
        <time>2022-09-03T10:13:16+0200</time>
      </trkpt>
      <trkpt lat="44.88535" lon="6.77365">
        <ele>2049.049583</ele>
        <time>2022-09-03T10:13:20+0200</time>
      </trkpt>
      <trkpt lat="44.88539" lon="6.7737">
        <ele>2050.581236</ele>
        <time>2022-09-03T10:13:24+0200</time>
      </trkpt>
      <trkpt lat="44.88544" lon="6.77373">
        <ele>2052.497986</ele>
        <time>2022-09-03T10:13:30+0200</time>
      </trkpt>
      <trkpt lat="44.88548" lon="6.7737">
        <ele>2052.929579</ele>
        <time>2022-09-03T10:13:35+0200</time>
      </trkpt>
      <trkpt lat="44.88554" lon="6.77367">
        <ele>2054.051376</ele>
        <time>2022-09-03T10:13:39+0200</time>
      </trkpt>
      <trkpt lat="44.88558" lon="6.77365">
        <ele>2054.999938</ele>
        <time>2022-09-03T10:13:43+0200</time>
      </trkpt>
      <trkpt lat="44.88563" lon="6.77363">
        <ele>2056.768607</ele>
        <time>2022-09-03T10:13:48+0200</time>
      </trkpt>
      <trkpt lat="44.88569" lon="6.77362">
        <ele>2057.911766</ele>
        <time>2022-09-03T10:13:52+0200</time>
      </trkpt>
      <trkpt lat="44.88574" lon="6.77361">
        <ele>2059.514048</ele>
        <time>2022-09-03T10:13:57+0200</time>
      </trkpt>
      <trkpt lat="44.88578" lon="6.7736">
        <ele>2060.698651</ele>
        <time>2022-09-03T10:14:01+0200</time>
      </trkpt>
      <trkpt lat="44.88583" lon="6.77363">
        <ele>2061.793948</ele>
        <time>2022-09-03T10:14:05+0200</time>
      </trkpt>
      <trkpt lat="44.88586" lon="6.77368">
        <ele>2063.286974</ele>
        <time>2022-09-03T10:14:10+0200</time>
      </trkpt>
      <trkpt lat="44.8859" lon="6.77372">
        <ele>2064.507611</ele>
        <time>2022-09-03T10:14:14+0200</time>
      </trkpt>
      <trkpt lat="44.88595" lon="6.77374">
        <ele>2065.326939</ele>
        <time>2022-09-03T10:14:18+0200</time>
      </trkpt>
      <trkpt lat="44.88601" lon="6.77376">
        <ele>2067.320937</ele>
        <time>2022-09-03T10:14:24+0200</time>
      </trkpt>
      <trkpt lat="44.88606" lon="6.77377">
        <ele>2068.084463</ele>
        <time>2022-09-03T10:14:27+0200</time>
      </trkpt>
      <trkpt lat="44.88611" lon="6.77379">
        <ele>2065.740232</ele>
        <time>2022-09-03T10:14:47+0200</time>
      </trkpt>
      <trkpt lat="44.88616" lon="6.77382">
        <ele>2066.361566</ele>
        <time>2022-09-03T10:14:50+0200</time>
      </trkpt>
      <trkpt lat="44.8862" lon="6.77385">
        <ele>2067.312372</ele>
        <time>2022-09-03T10:14:53+0200</time>
      </trkpt>
      <trkpt lat="44.88625" lon="6.77389">
        <ele>2068.649914</ele>
        <time>2022-09-03T10:14:56+0200</time>
      </trkpt>
      <trkpt lat="44.88629" lon="6.77392">
        <ele>2069.748197</ele>
        <time>2022-09-03T10:14:59+0200</time>
      </trkpt>
      <trkpt lat="44.88634" lon="6.77397">
        <ele>2071.721184</ele>
        <time>2022-09-03T10:15:04+0200</time>
      </trkpt>
      <trkpt lat="44.88639" lon="6.774">
        <ele>2072.336222</ele>
        <time>2022-09-03T10:15:08+0200</time>
      </trkpt>
      <trkpt lat="44.88644" lon="6.77401">
        <ele>2072.862508</ele>
        <time>2022-09-03T10:15:12+0200</time>
      </trkpt>
      <trkpt lat="44.88648" lon="6.77404">
        <ele>2073.328731</ele>
        <time>2022-09-03T10:15:15+0200</time>
      </trkpt>
      <trkpt lat="44.88654" lon="6.77404">
        <ele>2074.331626</ele>
        <time>2022-09-03T10:15:19+0200</time>
      </trkpt>
      <trkpt lat="44.8866" lon="6.77404">
        <ele>2075.041578</ele>
        <time>2022-09-03T10:15:24+0200</time>
      </trkpt>
      <trkpt lat="44.88665" lon="6.77406">
        <ele>2075.856811</ele>
        <time>2022-09-03T10:15:28+0200</time>
      </trkpt>
      <trkpt lat="44.8867" lon="6.77404">
        <ele>2078.205432</ele>
        <time>2022-09-03T10:15:33+0200</time>
      </trkpt>
      <trkpt lat="44.88675" lon="6.77402">
        <ele>2079.341483</ele>
        <time>2022-09-03T10:15:39+0200</time>
      </trkpt>
      <trkpt lat="44.88679" lon="6.774">
        <ele>2081.049363</ele>
        <time>2022-09-03T10:15:42+0200</time>
      </trkpt>
      <trkpt lat="44.88684" lon="6.77398">
        <ele>2082.312869</ele>
        <time>2022-09-03T10:15:46+0200</time>
      </trkpt>
      <trkpt lat="44.88689" lon="6.77396">
        <ele>2083.992766</ele>
        <time>2022-09-03T10:15:51+0200</time>
      </trkpt>
      <trkpt lat="44.88694" lon="6.77394">
        <ele>2084.762103</ele>
        <time>2022-09-03T10:15:55+0200</time>
      </trkpt>
      <trkpt lat="44.88699" lon="6.77392">
        <ele>2085.51248</ele>
        <time>2022-09-03T10:15:59+0200</time>
      </trkpt>
      <trkpt lat="44.88704" lon="6.77392">
        <ele>2085.740885</ele>
        <time>2022-09-03T10:16:02+0200</time>
      </trkpt>
      <trkpt lat="44.88708" lon="6.77393">
        <ele>2086.627607</ele>
        <time>2022-09-03T10:16:06+0200</time>
      </trkpt>
      <trkpt lat="44.88713" lon="6.77392">
        <ele>2087.599967</ele>
        <time>2022-09-03T10:16:09+0200</time>
      </trkpt>
      <trkpt lat="44.88718" lon="6.77392">
        <ele>2088.848783</ele>
        <time>2022-09-03T10:16:13+0200</time>
      </trkpt>
      <trkpt lat="44.88723" lon="6.77393">
        <ele>2089.368588</ele>
        <time>2022-09-03T10:16:16+0200</time>
      </trkpt>
      <trkpt lat="44.88728" lon="6.77393">
        <ele>2091.197604</ele>
        <time>2022-09-03T10:16:20+0200</time>
      </trkpt>
      <trkpt lat="44.88732" lon="6.77395">
        <ele>2090.747384</ele>
        <time>2022-09-03T10:16:23+0200</time>
      </trkpt>
      <trkpt lat="44.88737" lon="6.77397">
        <ele>2090.111776</ele>
        <time>2022-09-03T10:16:32+0200</time>
      </trkpt>
      <trkpt lat="44.88741" lon="6.774">
        <ele>2089.176245</ele>
        <time>2022-09-03T10:16:51+0200</time>
      </trkpt>
      <trkpt lat="44.88746" lon="6.77398">
        <ele>2090.456517</ele>
        <time>2022-09-03T10:17:56+0200</time>
      </trkpt>
      <trkpt lat="44.88751" lon="6.774">
        <ele>2090.164501</ele>
        <time>2022-09-03T10:17:59+0200</time>
      </trkpt>
      <trkpt lat="44.88756" lon="6.77402">
        <ele>2089.914363</ele>
        <time>2022-09-03T10:18:01+0200</time>
      </trkpt>
      <trkpt lat="44.88761" lon="6.77402">
        <ele>2090.11264</ele>
        <time>2022-09-03T10:18:03+0200</time>
      </trkpt>
      <trkpt lat="44.88766" lon="6.77405">
        <ele>2090.521402</ele>
        <time>2022-09-03T10:18:05+0200</time>
      </trkpt>
      <trkpt lat="44.88771" lon="6.77407">
        <ele>2090.586872</ele>
        <time>2022-09-03T10:18:07+0200</time>
      </trkpt>
      <trkpt lat="44.88776" lon="6.77409">
        <ele>2091.278565</ele>
        <time>2022-09-03T10:18:09+0200</time>
      </trkpt>
      <trkpt lat="44.88782" lon="6.77412">
        <ele>2092.630986</ele>
        <time>2022-09-03T10:18:12+0200</time>
      </trkpt>
      <trkpt lat="44.88787" lon="6.77415">
        <ele>2092.880658</ele>
        <time>2022-09-03T10:18:14+0200</time>
      </trkpt>
      <trkpt lat="44.88792" lon="6.77418">
        <ele>2093.398816</ele>
        <time>2022-09-03T10:18:16+0200</time>
      </trkpt>
      <trkpt lat="44.88797" lon="6.77423">
        <ele>2094.456748</ele>
        <time>2022-09-03T10:18:19+0200</time>
      </trkpt>
      <trkpt lat="44.88801" lon="6.77429">
        <ele>2095.278494</ele>
        <time>2022-09-03T10:18:22+0200</time>
      </trkpt>
      <trkpt lat="44.88807" lon="6.77434">
        <ele>2095.590823</ele>
        <time>2022-09-03T10:18:24+0200</time>
      </trkpt>
      <trkpt lat="44.8881" lon="6.77438">
        <ele>2095.140738</ele>
        <time>2022-09-03T10:18:25+0200</time>
      </trkpt>
      <trkpt lat="44.88816" lon="6.77446">
        <ele>2095.80958</ele>
        <time>2022-09-03T10:18:27+0200</time>
      </trkpt>
      <trkpt lat="44.88821" lon="6.77452">
        <ele>2096.76334</ele>
        <time>2022-09-03T10:18:29+0200</time>
      </trkpt>
      <trkpt lat="44.88825" lon="6.77458">
        <ele>2098.210367</ele>
        <time>2022-09-03T10:18:32+0200</time>
      </trkpt>
      <trkpt lat="44.88829" lon="6.77465">
        <ele>2099.286072</ele>
        <time>2022-09-03T10:18:35+0200</time>
      </trkpt>
      <trkpt lat="44.88833" lon="6.77468">
        <ele>2099.971862</ele>
        <time>2022-09-03T10:18:38+0200</time>
      </trkpt>
      <trkpt lat="44.88838" lon="6.77468">
        <ele>2100.540846</ele>
        <time>2022-09-03T10:18:41+0200</time>
      </trkpt>
      <trkpt lat="44.88839" lon="6.77461">
        <ele>2098.131484</ele>
        <time>2022-09-03T10:19:18+0200</time>
      </trkpt>
      <trkpt lat="44.88841" lon="6.77451">
        <ele>2097.523037</ele>
        <time>2022-09-03T10:19:21+0200</time>
      </trkpt>
      <trkpt lat="44.88841" lon="6.77445">
        <ele>2097.012261</ele>
        <time>2022-09-03T10:19:23+0200</time>
      </trkpt>
      <trkpt lat="44.8884" lon="6.77437">
        <ele>2097.368942</ele>
        <time>2022-09-03T10:19:26+0200</time>
      </trkpt>
      <trkpt lat="44.8884" lon="6.7743">
        <ele>2097.50361</ele>
        <time>2022-09-03T10:19:28+0200</time>
      </trkpt>
      <trkpt lat="44.8884" lon="6.77423">
        <ele>2097.301433</ele>
        <time>2022-09-03T10:19:31+0200</time>
      </trkpt>
      <trkpt lat="44.8884" lon="6.77415">
        <ele>2097.090271</ele>
        <time>2022-09-03T10:19:33+0200</time>
      </trkpt>
      <trkpt lat="44.88843" lon="6.77406">
        <ele>2097.168382</ele>
        <time>2022-09-03T10:19:35+0200</time>
      </trkpt>
      <trkpt lat="44.8884" lon="6.77395">
        <ele>2097.410873</ele>
        <time>2022-09-03T10:19:37+0200</time>
      </trkpt>
      <trkpt lat="44.88837" lon="6.77385">
        <ele>2097.394296</ele>
        <time>2022-09-03T10:19:39+0200</time>
      </trkpt>
      <trkpt lat="44.88834" lon="6.77377">
        <ele>2097.542172</ele>
        <time>2022-09-03T10:19:41+0200</time>
      </trkpt>
      <trkpt lat="44.88829" lon="6.7737">
        <ele>2097.367739</ele>
        <time>2022-09-03T10:19:44+0200</time>
      </trkpt>
      <trkpt lat="44.88825" lon="6.77362">
        <ele>2096.951829</ele>
        <time>2022-09-03T10:19:46+0200</time>
      </trkpt>
      <trkpt lat="44.88823" lon="6.77357">
        <ele>2097.825701</ele>
        <time>2022-09-03T10:19:48+0200</time>
      </trkpt>
      <trkpt lat="44.8882" lon="6.77351">
        <ele>2097.739313</ele>
        <time>2022-09-03T10:19:50+0200</time>
      </trkpt>
      <trkpt lat="44.88816" lon="6.77343">
        <ele>2097.00488</ele>
        <time>2022-09-03T10:19:52+0200</time>
      </trkpt>
      <trkpt lat="44.88811" lon="6.77337">
        <ele>2097.053777</ele>
        <time>2022-09-03T10:19:54+0200</time>
      </trkpt>
      <trkpt lat="44.88806" lon="6.77338">
        <ele>2097.033005</ele>
        <time>2022-09-03T10:19:56+0200</time>
      </trkpt>
      <trkpt lat="44.88802" lon="6.77337">
        <ele>2097.025363</ele>
        <time>2022-09-03T10:19:58+0200</time>
      </trkpt>
      <trkpt lat="44.88795" lon="6.77333">
        <ele>2096.612785</ele>
        <time>2022-09-03T10:20:00+0200</time>
      </trkpt>
      <trkpt lat="44.88789" lon="6.77327">
        <ele>2096.224654</ele>
        <time>2022-09-03T10:20:02+0200</time>
      </trkpt>
      <trkpt lat="44.88788" lon="6.77317">
        <ele>2095.66407</ele>
        <time>2022-09-03T10:20:04+0200</time>
      </trkpt>
      <trkpt lat="44.88788" lon="6.77311">
        <ele>2096.50144</ele>
        <time>2022-09-03T10:20:06+0200</time>
      </trkpt>
      <trkpt lat="44.88785" lon="6.77304">
        <ele>2097.657224</ele>
        <time>2022-09-03T10:20:09+0200</time>
      </trkpt>
      <trkpt lat="44.88784" lon="6.77296">
        <ele>2098.33236</ele>
        <time>2022-09-03T10:20:12+0200</time>
      </trkpt>
      <trkpt lat="44.88784" lon="6.77289">
        <ele>2099.510764</ele>
        <time>2022-09-03T10:20:15+0200</time>
      </trkpt>
      <trkpt lat="44.88783" lon="6.77281">
        <ele>2100.277215</ele>
        <time>2022-09-03T10:20:18+0200</time>
      </trkpt>
      <trkpt lat="44.88782" lon="6.77274">
        <ele>2101.427215</ele>
        <time>2022-09-03T10:20:20+0200</time>
      </trkpt>
      <trkpt lat="44.88781" lon="6.77266">
        <ele>2102.714211</ele>
        <time>2022-09-03T10:20:23+0200</time>
      </trkpt>
      <trkpt lat="44.88782" lon="6.77257">
        <ele>2104.617455</ele>
        <time>2022-09-03T10:20:26+0200</time>
      </trkpt>
      <trkpt lat="44.88784" lon="6.77251">
        <ele>2105.560814</ele>
        <time>2022-09-03T10:20:28+0200</time>
      </trkpt>
      <trkpt lat="44.88783" lon="6.77242">
        <ele>2105.524345</ele>
        <time>2022-09-03T10:20:31+0200</time>
      </trkpt>
      <trkpt lat="44.88783" lon="6.77233">
        <ele>2103.960623</ele>
        <time>2022-09-03T10:20:34+0200</time>
      </trkpt>
      <trkpt lat="44.88782" lon="6.77227">
        <ele>2104.232659</ele>
        <time>2022-09-03T10:20:37+0200</time>
      </trkpt>
      <trkpt lat="44.88778" lon="6.77223">
        <ele>2104.776154</ele>
        <time>2022-09-03T10:20:41+0200</time>
      </trkpt>
      <trkpt lat="44.88776" lon="6.77216">
        <ele>2104.385762</ele>
        <time>2022-09-03T10:20:44+0200</time>
      </trkpt>
      <trkpt lat="44.88774" lon="6.77209">
        <ele>2105.731223</ele>
        <time>2022-09-03T10:20:47+0200</time>
      </trkpt>
      <trkpt lat="44.88773" lon="6.77202">
        <ele>2107.989284</ele>
        <time>2022-09-03T10:20:50+0200</time>
      </trkpt>
      <trkpt lat="44.88771" lon="6.77196">
        <ele>2109.087318</ele>
        <time>2022-09-03T10:20:53+0200</time>
      </trkpt>
      <trkpt lat="44.88771" lon="6.77189">
        <ele>2110.539979</ele>
        <time>2022-09-03T10:20:57+0200</time>
      </trkpt>
      <trkpt lat="44.88769" lon="6.77183">
        <ele>2110.246673</ele>
        <time>2022-09-03T10:21:00+0200</time>
      </trkpt>
      <trkpt lat="44.88767" lon="6.77177">
        <ele>2110.06918</ele>
        <time>2022-09-03T10:21:03+0200</time>
      </trkpt>
      <trkpt lat="44.88764" lon="6.77171">
        <ele>2111.158591</ele>
        <time>2022-09-03T10:21:06+0200</time>
      </trkpt>
      <trkpt lat="44.88761" lon="6.77164">
        <ele>2111.699946</ele>
        <time>2022-09-03T10:21:09+0200</time>
      </trkpt>
      <trkpt lat="44.88759" lon="6.77157">
        <ele>2112.191352</ele>
        <time>2022-09-03T10:21:12+0200</time>
      </trkpt>
      <trkpt lat="44.88757" lon="6.77148">
        <ele>2111.743304</ele>
        <time>2022-09-03T10:21:15+0200</time>
      </trkpt>
      <trkpt lat="44.88756" lon="6.77141">
        <ele>2112.08304</ele>
        <time>2022-09-03T10:21:18+0200</time>
      </trkpt>
      <trkpt lat="44.88755" lon="6.77132">
        <ele>2111.249309</ele>
        <time>2022-09-03T10:21:21+0200</time>
      </trkpt>
      <trkpt lat="44.88754" lon="6.77124">
        <ele>2110.446709</ele>
        <time>2022-09-03T10:21:24+0200</time>
      </trkpt>
      <trkpt lat="44.88751" lon="6.77116">
        <ele>2110.119872</ele>
        <time>2022-09-03T10:21:28+0200</time>
      </trkpt>
      <trkpt lat="44.88751" lon="6.77107">
        <ele>2111.073792</ele>
        <time>2022-09-03T10:21:32+0200</time>
      </trkpt>
      <trkpt lat="44.88749" lon="6.771">
        <ele>2111.148759</ele>
        <time>2022-09-03T10:21:35+0200</time>
      </trkpt>
      <trkpt lat="44.88748" lon="6.77091">
        <ele>2112.121238</ele>
        <time>2022-09-03T10:21:38+0200</time>
      </trkpt>
      <trkpt lat="44.88746" lon="6.77084">
        <ele>2112.672462</ele>
        <time>2022-09-03T10:21:40+0200</time>
      </trkpt>
      <trkpt lat="44.88744" lon="6.77078">
        <ele>2112.128373</ele>
        <time>2022-09-03T10:21:42+0200</time>
      </trkpt>
      <trkpt lat="44.88741" lon="6.7707">
        <ele>2112.274914</ele>
        <time>2022-09-03T10:21:45+0200</time>
      </trkpt>
      <trkpt lat="44.88737" lon="6.77064">
        <ele>2111.48778</ele>
        <time>2022-09-03T10:21:47+0200</time>
      </trkpt>
      <trkpt lat="44.88734" lon="6.77058">
        <ele>2112.192146</ele>
        <time>2022-09-03T10:21:50+0200</time>
      </trkpt>
      <trkpt lat="44.88732" lon="6.7705">
        <ele>2114.152397</ele>
        <time>2022-09-03T10:21:53+0200</time>
      </trkpt>
      <trkpt lat="44.88731" lon="6.77041">
        <ele>2116.882464</ele>
        <time>2022-09-03T10:21:57+0200</time>
      </trkpt>
      <trkpt lat="44.88731" lon="6.77035">
        <ele>2117.665676</ele>
        <time>2022-09-03T10:21:59+0200</time>
      </trkpt>
      <trkpt lat="44.8873" lon="6.77027">
        <ele>2118.985048</ele>
        <time>2022-09-03T10:22:02+0200</time>
      </trkpt>
      <trkpt lat="44.88728" lon="6.77018">
        <ele>2119.433193</ele>
        <time>2022-09-03T10:22:05+0200</time>
      </trkpt>
      <trkpt lat="44.88726" lon="6.7701">
        <ele>2119.939064</ele>
        <time>2022-09-03T10:22:08+0200</time>
      </trkpt>
      <trkpt lat="44.88724" lon="6.77003">
        <ele>2119.773304</ele>
        <time>2022-09-03T10:22:11+0200</time>
      </trkpt>
      <trkpt lat="44.88722" lon="6.76994">
        <ele>2119.039293</ele>
        <time>2022-09-03T10:22:14+0200</time>
      </trkpt>
      <trkpt lat="44.88719" lon="6.76987">
        <ele>2118.928973</ele>
        <time>2022-09-03T10:22:17+0200</time>
      </trkpt>
      <trkpt lat="44.88715" lon="6.76979">
        <ele>2118.658117</ele>
        <time>2022-09-03T10:22:20+0200</time>
      </trkpt>
      <trkpt lat="44.88711" lon="6.76974">
        <ele>2118.149436</ele>
        <time>2022-09-03T10:22:23+0200</time>
      </trkpt>
      <trkpt lat="44.88707" lon="6.76967">
        <ele>2116.859144</ele>
        <time>2022-09-03T10:22:25+0200</time>
      </trkpt>
      <trkpt lat="44.88703" lon="6.76963">
        <ele>2116.752696</ele>
        <time>2022-09-03T10:22:27+0200</time>
      </trkpt>
      <trkpt lat="44.88698" lon="6.76957">
        <ele>2116.808717</ele>
        <time>2022-09-03T10:22:29+0200</time>
      </trkpt>
      <trkpt lat="44.88693" lon="6.7695">
        <ele>2116.356049</ele>
        <time>2022-09-03T10:22:31+0200</time>
      </trkpt>
      <trkpt lat="44.88688" lon="6.76944">
        <ele>2116.543714</ele>
        <time>2022-09-03T10:22:33+0200</time>
      </trkpt>
      <trkpt lat="44.88685" lon="6.7694">
        <ele>2117.182019</ele>
        <time>2022-09-03T10:22:35+0200</time>
      </trkpt>
      <trkpt lat="44.88679" lon="6.76936">
        <ele>2118.327568</ele>
        <time>2022-09-03T10:22:38+0200</time>
      </trkpt>
      <trkpt lat="44.88673" lon="6.76932">
        <ele>2119.198831</ele>
        <time>2022-09-03T10:22:41+0200</time>
      </trkpt>
      <trkpt lat="44.88668" lon="6.7693">
        <ele>2119.750767</ele>
        <time>2022-09-03T10:22:43+0200</time>
      </trkpt>
      <trkpt lat="44.88663" lon="6.76928">
        <ele>2119.522741</ele>
        <time>2022-09-03T10:22:45+0200</time>
      </trkpt>
      <trkpt lat="44.88657" lon="6.76922">
        <ele>2119.556096</ele>
        <time>2022-09-03T10:22:47+0200</time>
      </trkpt>
      <trkpt lat="44.88651" lon="6.76917">
        <ele>2118.764441</ele>
        <time>2022-09-03T10:22:49+0200</time>
      </trkpt>
      <trkpt lat="44.88646" lon="6.76912">
        <ele>2118.723592</ele>
        <time>2022-09-03T10:22:51+0200</time>
      </trkpt>
      <trkpt lat="44.88644" lon="6.76904">
        <ele>2118.903686</ele>
        <time>2022-09-03T10:22:54+0200</time>
      </trkpt>
      <trkpt lat="44.8864" lon="6.769">
        <ele>2118.385527</ele>
        <time>2022-09-03T10:22:56+0200</time>
      </trkpt>
      <trkpt lat="44.88637" lon="6.76892">
        <ele>2118.211259</ele>
        <time>2022-09-03T10:22:59+0200</time>
      </trkpt>
      <trkpt lat="44.88635" lon="6.76886">
        <ele>2118.622864</ele>
        <time>2022-09-03T10:23:01+0200</time>
      </trkpt>
      <trkpt lat="44.8863" lon="6.76881">
        <ele>2118.939456</ele>
        <time>2022-09-03T10:23:04+0200</time>
      </trkpt>
      <trkpt lat="44.88626" lon="6.76877">
        <ele>2120.150971</ele>
        <time>2022-09-03T10:23:07+0200</time>
      </trkpt>
      <trkpt lat="44.88626" lon="6.7687">
        <ele>2121.767426</ele>
        <time>2022-09-03T10:23:25+0200</time>
      </trkpt>
      <trkpt lat="44.88621" lon="6.76865">
        <ele>2122.054055</ele>
        <time>2022-09-03T10:23:28+0200</time>
      </trkpt>
      <trkpt lat="44.88617" lon="6.76861">
        <ele>2121.295837</ele>
        <time>2022-09-03T10:23:32+0200</time>
      </trkpt>
      <trkpt lat="44.88612" lon="6.76856">
        <ele>2120.451822</ele>
        <time>2022-09-03T10:23:35+0200</time>
      </trkpt>
      <trkpt lat="44.88607" lon="6.76852">
        <ele>2120.432815</ele>
        <time>2022-09-03T10:23:38+0200</time>
      </trkpt>
      <trkpt lat="44.88603" lon="6.76849">
        <ele>2119.833562</ele>
        <time>2022-09-03T10:23:40+0200</time>
      </trkpt>
      <trkpt lat="44.88597" lon="6.76846">
        <ele>2119.416214</ele>
        <time>2022-09-03T10:23:42+0200</time>
      </trkpt>
      <trkpt lat="44.88593" lon="6.76843">
        <ele>2118.979718</ele>
        <time>2022-09-03T10:23:45+0200</time>
      </trkpt>
      <trkpt lat="44.88588" lon="6.76838">
        <ele>2119.311044</ele>
        <time>2022-09-03T10:23:48+0200</time>
      </trkpt>
      <trkpt lat="44.88584" lon="6.76834">
        <ele>2119.275944</ele>
        <time>2022-09-03T10:23:50+0200</time>
      </trkpt>
      <trkpt lat="44.88579" lon="6.76831">
        <ele>2119.031304</ele>
        <time>2022-09-03T10:23:52+0200</time>
      </trkpt>
      <trkpt lat="44.88573" lon="6.76827">
        <ele>2118.598217</ele>
        <time>2022-09-03T10:23:55+0200</time>
      </trkpt>
      <trkpt lat="44.88567" lon="6.76822">
        <ele>2118.827848</ele>
        <time>2022-09-03T10:23:57+0200</time>
      </trkpt>
      <trkpt lat="44.8856" lon="6.7682">
        <ele>2118.793751</ele>
        <time>2022-09-03T10:23:59+0200</time>
      </trkpt>
      <trkpt lat="44.88552" lon="6.76814">
        <ele>2117.820893</ele>
        <time>2022-09-03T10:24:01+0200</time>
      </trkpt>
      <trkpt lat="44.88545" lon="6.76805">
        <ele>2116.399141</ele>
        <time>2022-09-03T10:24:03+0200</time>
      </trkpt>
      <trkpt lat="44.88541" lon="6.768">
        <ele>2115.711448</ele>
        <time>2022-09-03T10:24:04+0200</time>
      </trkpt>
      <trkpt lat="44.88538" lon="6.76795">
        <ele>2114.76042</ele>
        <time>2022-09-03T10:24:05+0200</time>
      </trkpt>
      <trkpt lat="44.88535" lon="6.76788">
        <ele>2114.318532</ele>
        <time>2022-09-03T10:24:06+0200</time>
      </trkpt>
      <trkpt lat="44.88532" lon="6.76781">
        <ele>2113.775159</ele>
        <time>2022-09-03T10:24:07+0200</time>
      </trkpt>
      <trkpt lat="44.8853" lon="6.76775">
        <ele>2112.843908</ele>
        <time>2022-09-03T10:24:08+0200</time>
      </trkpt>
      <trkpt lat="44.88527" lon="6.76769">
        <ele>2113.094843</ele>
        <time>2022-09-03T10:24:09+0200</time>
      </trkpt>
      <trkpt lat="44.88524" lon="6.76759">
        <ele>2113.828538</ele>
        <time>2022-09-03T10:24:11+0200</time>
      </trkpt>
      <trkpt lat="44.88523" lon="6.76751">
        <ele>2114.589733</ele>
        <time>2022-09-03T10:24:13+0200</time>
      </trkpt>
      <trkpt lat="44.88519" lon="6.76745">
        <ele>2116.383875</ele>
        <time>2022-09-03T10:24:16+0200</time>
      </trkpt>
      <trkpt lat="44.88516" lon="6.76739">
        <ele>2116.648356</ele>
        <time>2022-09-03T10:24:18+0200</time>
      </trkpt>
      <trkpt lat="44.88515" lon="6.76732">
        <ele>2116.382518</ele>
        <time>2022-09-03T10:24:20+0200</time>
      </trkpt>
      <trkpt lat="44.8851" lon="6.76725">
        <ele>2117.482667</ele>
        <time>2022-09-03T10:24:23+0200</time>
      </trkpt>
      <trkpt lat="44.88507" lon="6.76716">
        <ele>2118.53421</ele>
        <time>2022-09-03T10:24:26+0200</time>
      </trkpt>
      <trkpt lat="44.88503" lon="6.76709">
        <ele>2117.967703</ele>
        <time>2022-09-03T10:24:28+0200</time>
      </trkpt>
      <trkpt lat="44.88499" lon="6.76702">
        <ele>2117.256996</ele>
        <time>2022-09-03T10:24:30+0200</time>
      </trkpt>
      <trkpt lat="44.88496" lon="6.76695">
        <ele>2116.005046</ele>
        <time>2022-09-03T10:24:32+0200</time>
      </trkpt>
      <trkpt lat="44.88494" lon="6.7669">
        <ele>2114.124689</ele>
        <time>2022-09-03T10:24:34+0200</time>
      </trkpt>
      <trkpt lat="44.88492" lon="6.76684">
        <ele>2112.427079</ele>
        <time>2022-09-03T10:24:36+0200</time>
      </trkpt>
      <trkpt lat="44.88488" lon="6.76676">
        <ele>2111.489007</ele>
        <time>2022-09-03T10:24:38+0200</time>
      </trkpt>
      <trkpt lat="44.88486" lon="6.76666">
        <ele>2111.054713</ele>
        <time>2022-09-03T10:24:40+0200</time>
      </trkpt>
      <trkpt lat="44.88485" lon="6.76657">
        <ele>2111.539726</ele>
        <time>2022-09-03T10:24:42+0200</time>
      </trkpt>
      <trkpt lat="44.88485" lon="6.7665">
        <ele>2111.963836</ele>
        <time>2022-09-03T10:24:44+0200</time>
      </trkpt>
      <trkpt lat="44.88486" lon="6.76642">
        <ele>2112.051662</ele>
        <time>2022-09-03T10:24:47+0200</time>
      </trkpt>
      <trkpt lat="44.88482" lon="6.76637">
        <ele>2113.003022</ele>
        <time>2022-09-03T10:25:21+0200</time>
      </trkpt>
      <trkpt lat="44.88479" lon="6.76631">
        <ele>2112.424669</ele>
        <time>2022-09-03T10:25:23+0200</time>
      </trkpt>
      <trkpt lat="44.88477" lon="6.76623">
        <ele>2112.00043</ele>
        <time>2022-09-03T10:25:25+0200</time>
      </trkpt>
      <trkpt lat="44.88475" lon="6.76613">
        <ele>2111.191098</ele>
        <time>2022-09-03T10:25:27+0200</time>
      </trkpt>
      <trkpt lat="44.88471" lon="6.76601">
        <ele>2110.23834</ele>
        <time>2022-09-03T10:25:29+0200</time>
      </trkpt>
      <trkpt lat="44.88469" lon="6.76595">
        <ele>2110.090334</ele>
        <time>2022-09-03T10:25:30+0200</time>
      </trkpt>
      <trkpt lat="44.88465" lon="6.76583">
        <ele>2109.603132</ele>
        <time>2022-09-03T10:25:32+0200</time>
      </trkpt>
      <trkpt lat="44.88463" lon="6.76577">
        <ele>2109.081827</ele>
        <time>2022-09-03T10:25:33+0200</time>
      </trkpt>
      <trkpt lat="44.88461" lon="6.7657">
        <ele>2108.70038</ele>
        <time>2022-09-03T10:25:34+0200</time>
      </trkpt>
      <trkpt lat="44.8846" lon="6.76561">
        <ele>2108.345925</ele>
        <time>2022-09-03T10:25:36+0200</time>
      </trkpt>
      <trkpt lat="44.88458" lon="6.76551">
        <ele>2108.249083</ele>
        <time>2022-09-03T10:25:38+0200</time>
      </trkpt>
      <trkpt lat="44.88455" lon="6.76543">
        <ele>2107.828187</ele>
        <time>2022-09-03T10:25:40+0200</time>
      </trkpt>
      <trkpt lat="44.88452" lon="6.76532">
        <ele>2106.552432</ele>
        <time>2022-09-03T10:25:42+0200</time>
      </trkpt>
      <trkpt lat="44.88449" lon="6.76522">
        <ele>2105.597184</ele>
        <time>2022-09-03T10:25:44+0200</time>
      </trkpt>
      <trkpt lat="44.88447" lon="6.76511">
        <ele>2104.906086</ele>
        <time>2022-09-03T10:25:46+0200</time>
      </trkpt>
      <trkpt lat="44.88446" lon="6.76502">
        <ele>2104.488251</ele>
        <time>2022-09-03T10:25:48+0200</time>
      </trkpt>
      <trkpt lat="44.88445" lon="6.76495">
        <ele>2104.795157</ele>
        <time>2022-09-03T10:25:50+0200</time>
      </trkpt>
      <trkpt lat="44.8844" lon="6.76486">
        <ele>2104.297904</ele>
        <time>2022-09-03T10:25:52+0200</time>
      </trkpt>
      <trkpt lat="44.88438" lon="6.76479">
        <ele>2103.927695</ele>
        <time>2022-09-03T10:25:53+0200</time>
      </trkpt>
      <trkpt lat="44.88437" lon="6.76468">
        <ele>2103.743897</ele>
        <time>2022-09-03T10:25:55+0200</time>
      </trkpt>
      <trkpt lat="44.88436" lon="6.76457">
        <ele>2103.170386</ele>
        <time>2022-09-03T10:25:57+0200</time>
      </trkpt>
      <trkpt lat="44.88435" lon="6.76445">
        <ele>2102.841908</ele>
        <time>2022-09-03T10:25:59+0200</time>
      </trkpt>
      <trkpt lat="44.88437" lon="6.76433">
        <ele>2102.807007</ele>
        <time>2022-09-03T10:26:01+0200</time>
      </trkpt>
      <trkpt lat="44.88438" lon="6.76422">
        <ele>2102.471902</ele>
        <time>2022-09-03T10:26:03+0200</time>
      </trkpt>
      <trkpt lat="44.8844" lon="6.76416">
        <ele>2102.610668</ele>
        <time>2022-09-03T10:26:04+0200</time>
      </trkpt>
      <trkpt lat="44.88442" lon="6.76403">
        <ele>2102.343233</ele>
        <time>2022-09-03T10:26:06+0200</time>
      </trkpt>
      <trkpt lat="44.88444" lon="6.76395">
        <ele>2101.909456</ele>
        <time>2022-09-03T10:26:08+0200</time>
      </trkpt>
      <trkpt lat="44.88445" lon="6.76386">
        <ele>2100.456639</ele>
        <time>2022-09-03T10:26:10+0200</time>
      </trkpt>
      <trkpt lat="44.88447" lon="6.76378">
        <ele>2100.153499</ele>
        <time>2022-09-03T10:26:13+0200</time>
      </trkpt>
      <trkpt lat="44.88446" lon="6.76371">
        <ele>2098.937443</ele>
        <time>2022-09-03T10:26:16+0200</time>
      </trkpt>
      <trkpt lat="44.88445" lon="6.76361">
        <ele>2099.82726</ele>
        <time>2022-09-03T10:26:49+0200</time>
      </trkpt>
      <trkpt lat="44.88444" lon="6.76354">
        <ele>2099.015645</ele>
        <time>2022-09-03T10:26:51+0200</time>
      </trkpt>
      <trkpt lat="44.88442" lon="6.76343">
        <ele>2097.480456</ele>
        <time>2022-09-03T10:26:53+0200</time>
      </trkpt>
      <trkpt lat="44.88442" lon="6.76336">
        <ele>2096.05731</ele>
        <time>2022-09-03T10:26:54+0200</time>
      </trkpt>
      <trkpt lat="44.88444" lon="6.76329">
        <ele>2094.301283</ele>
        <time>2022-09-03T10:26:55+0200</time>
      </trkpt>
      <trkpt lat="44.88447" lon="6.7632">
        <ele>2092.426941</ele>
        <time>2022-09-03T10:26:56+0200</time>
      </trkpt>
      <trkpt lat="44.88448" lon="6.76312">
        <ele>2091.245968</ele>
        <time>2022-09-03T10:26:57+0200</time>
      </trkpt>
      <trkpt lat="44.88448" lon="6.76303">
        <ele>2089.712603</ele>
        <time>2022-09-03T10:26:58+0200</time>
      </trkpt>
      <trkpt lat="44.88448" lon="6.76292">
        <ele>2088.129804</ele>
        <time>2022-09-03T10:26:59+0200</time>
      </trkpt>
      <trkpt lat="44.88448" lon="6.76282">
        <ele>2086.574059</ele>
        <time>2022-09-03T10:27:00+0200</time>
      </trkpt>
      <trkpt lat="44.88451" lon="6.76272">
        <ele>2085.398152</ele>
        <time>2022-09-03T10:27:01+0200</time>
      </trkpt>
      <trkpt lat="44.88455" lon="6.76263">
        <ele>2084.570092</ele>
        <time>2022-09-03T10:27:02+0200</time>
      </trkpt>
      <trkpt lat="44.88457" lon="6.76253">
        <ele>2083.311154</ele>
        <time>2022-09-03T10:27:03+0200</time>
      </trkpt>
      <trkpt lat="44.88459" lon="6.76243">
        <ele>2081.889835</ele>
        <time>2022-09-03T10:27:04+0200</time>
      </trkpt>
      <trkpt lat="44.88461" lon="6.76231">
        <ele>2079.806395</ele>
        <time>2022-09-03T10:27:05+0200</time>
      </trkpt>
      <trkpt lat="44.88461" lon="6.76221">
        <ele>2078.318034</ele>
        <time>2022-09-03T10:27:06+0200</time>
      </trkpt>
      <trkpt lat="44.88462" lon="6.76212">
        <ele>2076.678144</ele>
        <time>2022-09-03T10:27:07+0200</time>
      </trkpt>
      <trkpt lat="44.88463" lon="6.76202">
        <ele>2074.802981</ele>
        <time>2022-09-03T10:27:08+0200</time>
      </trkpt>
      <trkpt lat="44.88463" lon="6.76188">
        <ele>2073.317272</ele>
        <time>2022-09-03T10:27:09+0200</time>
      </trkpt>
      <trkpt lat="44.88462" lon="6.76174">
        <ele>2071.502197</ele>
        <time>2022-09-03T10:27:10+0200</time>
      </trkpt>
      <trkpt lat="44.88462" lon="6.7616">
        <ele>2070.768334</ele>
        <time>2022-09-03T10:27:11+0200</time>
      </trkpt>
      <trkpt lat="44.88463" lon="6.76149">
        <ele>2070.121611</ele>
        <time>2022-09-03T10:27:12+0200</time>
      </trkpt>
      <trkpt lat="44.88462" lon="6.76139">
        <ele>2069.745881</ele>
        <time>2022-09-03T10:27:13+0200</time>
      </trkpt>
      <trkpt lat="44.88463" lon="6.7613">
        <ele>2069.732609</ele>
        <time>2022-09-03T10:27:14+0200</time>
      </trkpt>
      <trkpt lat="44.88465" lon="6.76123">
        <ele>2069.649711</ele>
        <time>2022-09-03T10:27:15+0200</time>
      </trkpt>
      <trkpt lat="44.88466" lon="6.76113">
        <ele>2069.920311</ele>
        <time>2022-09-03T10:27:17+0200</time>
      </trkpt>
      <trkpt lat="44.88466" lon="6.76101">
        <ele>2069.23641</ele>
        <time>2022-09-03T10:27:19+0200</time>
      </trkpt>
      <trkpt lat="44.88467" lon="6.76092">
        <ele>2069.111409</ele>
        <time>2022-09-03T10:27:21+0200</time>
      </trkpt>
      <trkpt lat="44.88467" lon="6.76084">
        <ele>2070.423021</ele>
        <time>2022-09-03T10:27:23+0200</time>
      </trkpt>
      <trkpt lat="44.88465" lon="6.76077">
        <ele>2071.041684</ele>
        <time>2022-09-03T10:27:25+0200</time>
      </trkpt>
      <trkpt lat="44.88466" lon="6.7607">
        <ele>2071.330403</ele>
        <time>2022-09-03T10:27:28+0200</time>
      </trkpt>
      <trkpt lat="44.88466" lon="6.76062">
        <ele>2073.974697</ele>
        <time>2022-09-03T10:27:31+0200</time>
      </trkpt>
      <trkpt lat="44.88466" lon="6.76056">
        <ele>2074.419973</ele>
        <time>2022-09-03T10:27:33+0200</time>
      </trkpt>
      <trkpt lat="44.88467" lon="6.76047">
        <ele>2074.820033</ele>
        <time>2022-09-03T10:27:36+0200</time>
      </trkpt>
      <trkpt lat="44.88471" lon="6.76039">
        <ele>2076.108098</ele>
        <time>2022-09-03T10:27:39+0200</time>
      </trkpt>
      <trkpt lat="44.88473" lon="6.76033">
        <ele>2077.521365</ele>
        <time>2022-09-03T10:27:42+0200</time>
      </trkpt>
      <trkpt lat="44.88472" lon="6.76024">
        <ele>2077.284404</ele>
        <time>2022-09-03T10:27:45+0200</time>
      </trkpt>
      <trkpt lat="44.88473" lon="6.76014">
        <ele>2076.988096</ele>
        <time>2022-09-03T10:27:48+0200</time>
      </trkpt>
      <trkpt lat="44.88474" lon="6.76008">
        <ele>2077.12331</ele>
        <time>2022-09-03T10:27:50+0200</time>
      </trkpt>
      <trkpt lat="44.88475" lon="6.75999">
        <ele>2076.498994</ele>
        <time>2022-09-03T10:27:53+0200</time>
      </trkpt>
      <trkpt lat="44.88477" lon="6.75992">
        <ele>2076.686879</ele>
        <time>2022-09-03T10:27:56+0200</time>
      </trkpt>
      <trkpt lat="44.88481" lon="6.75985">
        <ele>2076.524524</ele>
        <time>2022-09-03T10:27:59+0200</time>
      </trkpt>
      <trkpt lat="44.88482" lon="6.75979">
        <ele>2075.435586</ele>
        <time>2022-09-03T10:28:01+0200</time>
      </trkpt>
      <trkpt lat="44.88484" lon="6.75972">
        <ele>2074.476229</ele>
        <time>2022-09-03T10:28:03+0200</time>
      </trkpt>
      <trkpt lat="44.88486" lon="6.75965">
        <ele>2074.040907</ele>
        <time>2022-09-03T10:28:06+0200</time>
      </trkpt>
      <trkpt lat="44.88489" lon="6.7596">
        <ele>2074.93875</ele>
        <time>2022-09-03T10:28:09+0200</time>
      </trkpt>
      <trkpt lat="44.88493" lon="6.75956">
        <ele>2075.295829</ele>
        <time>2022-09-03T10:28:12+0200</time>
      </trkpt>
      <trkpt lat="44.88496" lon="6.75949">
        <ele>2075.833221</ele>
        <time>2022-09-03T10:28:15+0200</time>
      </trkpt>
      <trkpt lat="44.885" lon="6.75944">
        <ele>2077.034796</ele>
        <time>2022-09-03T10:28:18+0200</time>
      </trkpt>
      <trkpt lat="44.88504" lon="6.7594">
        <ele>2078.569911</ele>
        <time>2022-09-03T10:28:22+0200</time>
      </trkpt>
      <trkpt lat="44.88507" lon="6.75935">
        <ele>2077.50768</ele>
        <time>2022-09-03T10:28:36+0200</time>
      </trkpt>
      <trkpt lat="44.88511" lon="6.7593">
        <ele>2077.896861</ele>
        <time>2022-09-03T10:29:35+0200</time>
      </trkpt>
      <trkpt lat="44.88515" lon="6.75924">
        <ele>2076.429966</ele>
        <time>2022-09-03T10:30:05+0200</time>
      </trkpt>
      <trkpt lat="44.88519" lon="6.75921">
        <ele>2076.802046</ele>
        <time>2022-09-03T10:30:07+0200</time>
      </trkpt>
      <trkpt lat="44.88523" lon="6.75916">
        <ele>2076.710752</ele>
        <time>2022-09-03T10:30:10+0200</time>
      </trkpt>
      <trkpt lat="44.88527" lon="6.75912">
        <ele>2077.30903</ele>
        <time>2022-09-03T10:30:13+0200</time>
      </trkpt>
      <trkpt lat="44.88531" lon="6.75906">
        <ele>2077.761421</ele>
        <time>2022-09-03T10:30:16+0200</time>
      </trkpt>
      <trkpt lat="44.88535" lon="6.75899">
        <ele>2077.181491</ele>
        <time>2022-09-03T10:30:19+0200</time>
      </trkpt>
      <trkpt lat="44.88538" lon="6.75894">
        <ele>2076.538733</ele>
        <time>2022-09-03T10:30:22+0200</time>
      </trkpt>
      <trkpt lat="44.88542" lon="6.75888">
        <ele>2075.880353</ele>
        <time>2022-09-03T10:30:24+0200</time>
      </trkpt>
      <trkpt lat="44.88545" lon="6.75884">
        <ele>2076.028999</ele>
        <time>2022-09-03T10:30:26+0200</time>
      </trkpt>
      <trkpt lat="44.8855" lon="6.75883">
        <ele>2076.374503</ele>
        <time>2022-09-03T10:30:31+0200</time>
      </trkpt>
      <trkpt lat="44.88555" lon="6.75876">
        <ele>2077.397739</ele>
        <time>2022-09-03T10:30:34+0200</time>
      </trkpt>
      <trkpt lat="44.8856" lon="6.75874">
        <ele>2077.472609</ele>
        <time>2022-09-03T10:30:36+0200</time>
      </trkpt>
      <trkpt lat="44.88564" lon="6.75871">
        <ele>2078.047066</ele>
        <time>2022-09-03T10:30:39+0200</time>
      </trkpt>
      <trkpt lat="44.88568" lon="6.75864">
        <ele>2077.979366</ele>
        <time>2022-09-03T10:30:42+0200</time>
      </trkpt>
      <trkpt lat="44.88572" lon="6.75858">
        <ele>2077.987613</ele>
        <time>2022-09-03T10:30:44+0200</time>
      </trkpt>
      <trkpt lat="44.88576" lon="6.75851">
        <ele>2078.050613</ele>
        <time>2022-09-03T10:30:47+0200</time>
      </trkpt>
      <trkpt lat="44.88581" lon="6.75843">
        <ele>2077.657383</ele>
        <time>2022-09-03T10:30:49+0200</time>
      </trkpt>
      <trkpt lat="44.88586" lon="6.75837">
        <ele>2077.395532</ele>
        <time>2022-09-03T10:30:51+0200</time>
      </trkpt>
      <trkpt lat="44.88591" lon="6.75831">
        <ele>2077.461243</ele>
        <time>2022-09-03T10:30:53+0200</time>
      </trkpt>
      <trkpt lat="44.88595" lon="6.75823">
        <ele>2077.924254</ele>
        <time>2022-09-03T10:30:55+0200</time>
      </trkpt>
      <trkpt lat="44.88599" lon="6.75814">
        <ele>2077.693766</ele>
        <time>2022-09-03T10:30:57+0200</time>
      </trkpt>
      <trkpt lat="44.88601" lon="6.75806">
        <ele>2077.353522</ele>
        <time>2022-09-03T10:30:59+0200</time>
      </trkpt>
      <trkpt lat="44.88603" lon="6.75799">
        <ele>2077.28835</ele>
        <time>2022-09-03T10:31:01+0200</time>
      </trkpt>
      <trkpt lat="44.88605" lon="6.75792">
        <ele>2077.655182</ele>
        <time>2022-09-03T10:31:03+0200</time>
      </trkpt>
      <trkpt lat="44.88606" lon="6.75785">
        <ele>2077.758537</ele>
        <time>2022-09-03T10:31:05+0200</time>
      </trkpt>
      <trkpt lat="44.88608" lon="6.75777">
        <ele>2077.6858</ele>
        <time>2022-09-03T10:31:08+0200</time>
      </trkpt>
      <trkpt lat="44.8861" lon="6.75771">
        <ele>2076.461998</ele>
        <time>2022-09-03T10:31:10+0200</time>
      </trkpt>
      <trkpt lat="44.88612" lon="6.75764">
        <ele>2076.251123</ele>
        <time>2022-09-03T10:31:12+0200</time>
      </trkpt>
      <trkpt lat="44.88615" lon="6.75756">
        <ele>2076.705753</ele>
        <time>2022-09-03T10:31:15+0200</time>
      </trkpt>
      <trkpt lat="44.8862" lon="6.7575">
        <ele>2077.414291</ele>
        <time>2022-09-03T10:31:18+0200</time>
      </trkpt>
      <trkpt lat="44.88623" lon="6.75745">
        <ele>2079.072461</ele>
        <time>2022-09-03T10:31:21+0200</time>
      </trkpt>
      <trkpt lat="44.88626" lon="6.75737">
        <ele>2080.264843</ele>
        <time>2022-09-03T10:31:24+0200</time>
      </trkpt>
      <trkpt lat="44.8863" lon="6.75731">
        <ele>2080.707408</ele>
        <time>2022-09-03T10:31:27+0200</time>
      </trkpt>
      <trkpt lat="44.88632" lon="6.75722">
        <ele>2081.043242</ele>
        <time>2022-09-03T10:31:30+0200</time>
      </trkpt>
      <trkpt lat="44.88635" lon="6.75716">
        <ele>2080.294008</ele>
        <time>2022-09-03T10:31:32+0200</time>
      </trkpt>
      <trkpt lat="44.88639" lon="6.7571">
        <ele>2078.520681</ele>
        <time>2022-09-03T10:31:35+0200</time>
      </trkpt>
      <trkpt lat="44.88643" lon="6.75704">
        <ele>2077.358377</ele>
        <time>2022-09-03T10:31:37+0200</time>
      </trkpt>
      <trkpt lat="44.88652" lon="6.757">
        <ele>2076.279476</ele>
        <time>2022-09-03T10:31:39+0200</time>
      </trkpt>
      <trkpt lat="44.88658" lon="6.75698">
        <ele>2075.941331</ele>
        <time>2022-09-03T10:31:41+0200</time>
      </trkpt>
      <trkpt lat="44.88663" lon="6.75696">
        <ele>2077.145896</ele>
        <time>2022-09-03T10:31:45+0200</time>
      </trkpt>
      <trkpt lat="44.88668" lon="6.75693">
        <ele>2076.838924</ele>
        <time>2022-09-03T10:31:48+0200</time>
      </trkpt>
      <trkpt lat="44.88673" lon="6.75689">
        <ele>2076.469938</ele>
        <time>2022-09-03T10:31:51+0200</time>
      </trkpt>
      <trkpt lat="44.88678" lon="6.75684">
        <ele>2075.446409</ele>
        <time>2022-09-03T10:31:53+0200</time>
      </trkpt>
      <trkpt lat="44.88682" lon="6.75681">
        <ele>2074.398026</ele>
        <time>2022-09-03T10:31:58+0200</time>
      </trkpt>
      <trkpt lat="44.88684" lon="6.75674">
        <ele>2076.145111</ele>
        <time>2022-09-03T10:32:03+0200</time>
      </trkpt>
      <trkpt lat="44.88685" lon="6.75667">
        <ele>2074.897712</ele>
        <time>2022-09-03T10:32:08+0200</time>
      </trkpt>
      <trkpt lat="44.8868" lon="6.75663">
        <ele>2075.694881</ele>
        <time>2022-09-03T10:32:13+0200</time>
      </trkpt>
      <trkpt lat="44.88678" lon="6.75654">
        <ele>2074.911383</ele>
        <time>2022-09-03T10:32:16+0200</time>
      </trkpt>
      <trkpt lat="44.88676" lon="6.75648">
        <ele>2074.41203</ele>
        <time>2022-09-03T10:32:18+0200</time>
      </trkpt>
      <trkpt lat="44.88672" lon="6.75644">
        <ele>2073.672487</ele>
        <time>2022-09-03T10:32:21+0200</time>
      </trkpt>
      <trkpt lat="44.88671" lon="6.75637">
        <ele>2071.328063</ele>
        <time>2022-09-03T10:32:25+0200</time>
      </trkpt>
      <trkpt lat="44.8867" lon="6.7563">
        <ele>2067.929</ele>
        <time>2022-09-03T10:32:31+0200</time>
      </trkpt>
      <trkpt lat="44.88674" lon="6.75628">
        <ele>2071.932613</ele>
        <time>2022-09-03T10:32:48+0200</time>
      </trkpt>
      <trkpt lat="44.88677" lon="6.75623">
        <ele>2073.612735</ele>
        <time>2022-09-03T10:32:55+0200</time>
      </trkpt>
      <trkpt lat="44.88681" lon="6.75617">
        <ele>2075.145442</ele>
        <time>2022-09-03T10:33:03+0200</time>
      </trkpt>
      <trkpt lat="44.88686" lon="6.75617">
        <ele>2075.600284</ele>
        <time>2022-09-03T10:33:11+0200</time>
      </trkpt>
      <trkpt lat="44.88691" lon="6.75618">
        <ele>2076.148588</ele>
        <time>2022-09-03T10:33:17+0200</time>
      </trkpt>
      <trkpt lat="44.88695" lon="6.75621">
        <ele>2078.067643</ele>
        <time>2022-09-03T10:33:25+0200</time>
      </trkpt>
      <trkpt lat="44.88699" lon="6.75624">
        <ele>2079.234803</ele>
        <time>2022-09-03T10:33:45+0200</time>
      </trkpt>
      <trkpt lat="44.88704" lon="6.75627">
        <ele>2080.997731</ele>
        <time>2022-09-03T10:34:00+0200</time>
      </trkpt>
      <trkpt lat="44.88708" lon="6.75632">
        <ele>2082.74873</ele>
        <time>2022-09-03T10:34:06+0200</time>
      </trkpt>
      <trkpt lat="44.88711" lon="6.75636">
        <ele>2083.551099</ele>
        <time>2022-09-03T10:34:11+0200</time>
      </trkpt>
      <trkpt lat="44.88716" lon="6.75641">
        <ele>2084.763184</ele>
        <time>2022-09-03T10:34:19+0200</time>
      </trkpt>
      <trkpt lat="44.8872" lon="6.75645">
        <ele>2086.585758</ele>
        <time>2022-09-03T10:34:26+0200</time>
      </trkpt>
      <trkpt lat="44.88725" lon="6.75646">
        <ele>2086.765857</ele>
        <time>2022-09-03T10:34:32+0200</time>
      </trkpt>
      <trkpt lat="44.8873" lon="6.75646">
        <ele>2089.684885</ele>
        <time>2022-09-03T10:34:41+0200</time>
      </trkpt>
      <trkpt lat="44.88735" lon="6.75648">
        <ele>2091.118082</ele>
        <time>2022-09-03T10:34:49+0200</time>
      </trkpt>
      <trkpt lat="44.88739" lon="6.7565">
        <ele>2092.567511</ele>
        <time>2022-09-03T10:34:55+0200</time>
      </trkpt>
      <trkpt lat="44.88744" lon="6.75652">
        <ele>2092.848724</ele>
        <time>2022-09-03T10:35:26+0200</time>
      </trkpt>
      <trkpt lat="44.8875" lon="6.75654">
        <ele>2093.596608</ele>
        <time>2022-09-03T10:36:01+0200</time>
      </trkpt>
      <trkpt lat="44.88755" lon="6.75656">
        <ele>2095.832537</ele>
        <time>2022-09-03T10:36:08+0200</time>
      </trkpt>
      <trkpt lat="44.8876" lon="6.75655">
        <ele>2097.447536</ele>
        <time>2022-09-03T10:36:14+0200</time>
      </trkpt>
      <trkpt lat="44.88765" lon="6.75654">
        <ele>2098.963456</ele>
        <time>2022-09-03T10:36:20+0200</time>
      </trkpt>
      <trkpt lat="44.8877" lon="6.75654">
        <ele>2100.379047</ele>
        <time>2022-09-03T10:36:28+0200</time>
      </trkpt>
      <trkpt lat="44.88775" lon="6.75654">
        <ele>2100.999118</ele>
        <time>2022-09-03T10:36:33+0200</time>
      </trkpt>
      <trkpt lat="44.88779" lon="6.75654">
        <ele>2101.926171</ele>
        <time>2022-09-03T10:36:38+0200</time>
      </trkpt>
      <trkpt lat="44.88784" lon="6.75656">
        <ele>2103.140654</ele>
        <time>2022-09-03T10:36:44+0200</time>
      </trkpt>
      <trkpt lat="44.88789" lon="6.75655">
        <ele>2103.855691</ele>
        <time>2022-09-03T10:36:51+0200</time>
      </trkpt>
      <trkpt lat="44.88789" lon="6.75648">
        <ele>2104.448979</ele>
        <time>2022-09-03T10:36:57+0200</time>
      </trkpt>
      <trkpt lat="44.88791" lon="6.75655">
        <ele>2102.00704</ele>
        <time>2022-09-03T10:38:04+0200</time>
      </trkpt>
      <trkpt lat="44.88785" lon="6.75652">
        <ele>2099.991658</ele>
        <time>2022-09-03T10:38:07+0200</time>
      </trkpt>
      <trkpt lat="44.8878" lon="6.7565">
        <ele>2099.942847</ele>
        <time>2022-09-03T10:38:09+0200</time>
      </trkpt>
      <trkpt lat="44.88774" lon="6.75651">
        <ele>2099.566467</ele>
        <time>2022-09-03T10:38:12+0200</time>
      </trkpt>
      <trkpt lat="44.88769" lon="6.75652">
        <ele>2099.576016</ele>
        <time>2022-09-03T10:38:16+0200</time>
      </trkpt>
      <trkpt lat="44.88764" lon="6.75651">
        <ele>2099.245727</ele>
        <time>2022-09-03T10:38:20+0200</time>
      </trkpt>
      <trkpt lat="44.88759" lon="6.75654">
        <ele>2098.424894</ele>
        <time>2022-09-03T10:38:24+0200</time>
      </trkpt>
      <trkpt lat="44.88754" lon="6.75655">
        <ele>2094.250066</ele>
        <time>2022-09-03T10:38:40+0200</time>
      </trkpt>
      <trkpt lat="44.8875" lon="6.75657">
        <ele>2095.349415</ele>
        <time>2022-09-03T10:39:03+0200</time>
      </trkpt>
      <trkpt lat="44.88754" lon="6.75654">
        <ele>2093.293094</ele>
        <time>2022-09-03T10:39:26+0200</time>
      </trkpt>
      <trkpt lat="44.8876" lon="6.75654">
        <ele>2093.830013</ele>
        <time>2022-09-03T10:39:30+0200</time>
      </trkpt>
      <trkpt lat="44.88765" lon="6.75653">
        <ele>2094.248611</ele>
        <time>2022-09-03T10:39:34+0200</time>
      </trkpt>
      <trkpt lat="44.8877" lon="6.75652">
        <ele>2094.61439</ele>
        <time>2022-09-03T10:39:36+0200</time>
      </trkpt>
      <trkpt lat="44.88776" lon="6.75652">
        <ele>2097.521375</ele>
        <time>2022-09-03T10:39:39+0200</time>
      </trkpt>
      <trkpt lat="44.88781" lon="6.75654">
        <ele>2099.656377</ele>
        <time>2022-09-03T10:39:42+0200</time>
      </trkpt>
      <trkpt lat="44.88785" lon="6.75657">
        <ele>2102.201528</ele>
        <time>2022-09-03T10:39:46+0200</time>
      </trkpt>
      <trkpt lat="44.88787" lon="6.7565">
        <ele>2102.995838</ele>
        <time>2022-09-03T10:39:50+0200</time>
      </trkpt>
      <trkpt lat="44.8879" lon="6.75645">
        <ele>2102.395791</ele>
        <time>2022-09-03T10:41:36+0200</time>
      </trkpt>
      <trkpt lat="44.88789" lon="6.75637">
        <ele>2100.463671</ele>
        <time>2022-09-03T10:41:40+0200</time>
      </trkpt>
      <trkpt lat="44.8879" lon="6.7563">
        <ele>2099.727021</ele>
        <time>2022-09-03T10:41:43+0200</time>
      </trkpt>
      <trkpt lat="44.88787" lon="6.75624">
        <ele>2102.345608</ele>
        <time>2022-09-03T10:41:47+0200</time>
      </trkpt>
      <trkpt lat="44.88787" lon="6.75617">
        <ele>2103.296968</ele>
        <time>2022-09-03T10:41:50+0200</time>
      </trkpt>
      <trkpt lat="44.88785" lon="6.7561">
        <ele>2103.984717</ele>
        <time>2022-09-03T10:41:53+0200</time>
      </trkpt>
      <trkpt lat="44.88785" lon="6.75601">
        <ele>2103.663653</ele>
        <time>2022-09-03T10:41:56+0200</time>
      </trkpt>
      <trkpt lat="44.88784" lon="6.75593">
        <ele>2104.737657</ele>
        <time>2022-09-03T10:41:58+0200</time>
      </trkpt>
      <trkpt lat="44.88785" lon="6.75585">
        <ele>2106.663037</ele>
        <time>2022-09-03T10:42:00+0200</time>
      </trkpt>
      <trkpt lat="44.88784" lon="6.75577">
        <ele>2109.374561</ele>
        <time>2022-09-03T10:42:03+0200</time>
      </trkpt>
      <trkpt lat="44.88784" lon="6.75568">
        <ele>2109.130266</ele>
        <time>2022-09-03T10:42:05+0200</time>
      </trkpt>
      <trkpt lat="44.88783" lon="6.75559">
        <ele>2108.707113</ele>
        <time>2022-09-03T10:42:07+0200</time>
      </trkpt>
      <trkpt lat="44.88783" lon="6.75549">
        <ele>2109.942588</ele>
        <time>2022-09-03T10:42:10+0200</time>
      </trkpt>
      <trkpt lat="44.88784" lon="6.75542">
        <ele>2110.842383</ele>
        <time>2022-09-03T10:42:12+0200</time>
      </trkpt>
      <trkpt lat="44.88784" lon="6.75533">
        <ele>2111.165452</ele>
        <time>2022-09-03T10:42:15+0200</time>
      </trkpt>
      <trkpt lat="44.88785" lon="6.75523">
        <ele>2112.042585</ele>
        <time>2022-09-03T10:42:18+0200</time>
      </trkpt>
      <trkpt lat="44.88786" lon="6.75515">
        <ele>2112.730985</ele>
        <time>2022-09-03T10:42:21+0200</time>
      </trkpt>
      <trkpt lat="44.88786" lon="6.75509">
        <ele>2113.83598</ele>
        <time>2022-09-03T10:42:23+0200</time>
      </trkpt>
      <trkpt lat="44.88785" lon="6.75502">
        <ele>2114.434841</ele>
        <time>2022-09-03T10:42:25+0200</time>
      </trkpt>
      <trkpt lat="44.88786" lon="6.75493">
        <ele>2114.786027</ele>
        <time>2022-09-03T10:42:27+0200</time>
      </trkpt>
      <trkpt lat="44.88787" lon="6.75486">
        <ele>2114.770094</ele>
        <time>2022-09-03T10:42:29+0200</time>
      </trkpt>
      <trkpt lat="44.88789" lon="6.75478">
        <ele>2113.991711</ele>
        <time>2022-09-03T10:42:32+0200</time>
      </trkpt>
      <trkpt lat="44.8879" lon="6.75471">
        <ele>2113.787405</ele>
        <time>2022-09-03T10:42:34+0200</time>
      </trkpt>
      <trkpt lat="44.88792" lon="6.75463">
        <ele>2114.96402</ele>
        <time>2022-09-03T10:42:37+0200</time>
      </trkpt>
      <trkpt lat="44.88796" lon="6.75458">
        <ele>2117.22172</ele>
        <time>2022-09-03T10:42:40+0200</time>
      </trkpt>
      <trkpt lat="44.88799" lon="6.7545">
        <ele>2117.880506</ele>
        <time>2022-09-03T10:42:43+0200</time>
      </trkpt>
      <trkpt lat="44.88801" lon="6.75444">
        <ele>2118.025148</ele>
        <time>2022-09-03T10:42:45+0200</time>
      </trkpt>
      <trkpt lat="44.88805" lon="6.75438">
        <ele>2120.042638</ele>
        <time>2022-09-03T10:42:48+0200</time>
      </trkpt>
      <trkpt lat="44.8881" lon="6.75435">
        <ele>2122.710125</ele>
        <time>2022-09-03T10:42:51+0200</time>
      </trkpt>
      <trkpt lat="44.88816" lon="6.75436">
        <ele>2124.174649</ele>
        <time>2022-09-03T10:42:55+0200</time>
      </trkpt>
      <trkpt lat="44.8882" lon="6.7544">
        <ele>2124.817012</ele>
        <time>2022-09-03T10:42:59+0200</time>
      </trkpt>
      <trkpt lat="44.88824" lon="6.75445">
        <ele>2126.078024</ele>
        <time>2022-09-03T10:43:03+0200</time>
      </trkpt>
      <trkpt lat="44.88827" lon="6.75449">
        <ele>2125.69266</ele>
        <time>2022-09-03T10:43:07+0200</time>
      </trkpt>
      <trkpt lat="44.88831" lon="6.75453">
        <ele>2125.01334</ele>
        <time>2022-09-03T10:43:10+0200</time>
      </trkpt>
      <trkpt lat="44.88836" lon="6.75456">
        <ele>2125.029765</ele>
        <time>2022-09-03T10:43:13+0200</time>
      </trkpt>
      <trkpt lat="44.88841" lon="6.75461">
        <ele>2126.416769</ele>
        <time>2022-09-03T10:43:16+0200</time>
      </trkpt>
      <trkpt lat="44.88845" lon="6.75465">
        <ele>2127.553902</ele>
        <time>2022-09-03T10:43:19+0200</time>
      </trkpt>
      <trkpt lat="44.88851" lon="6.75468">
        <ele>2127.973052</ele>
        <time>2022-09-03T10:43:22+0200</time>
      </trkpt>
      <trkpt lat="44.88856" lon="6.7547">
        <ele>2128.757993</ele>
        <time>2022-09-03T10:43:25+0200</time>
      </trkpt>
      <trkpt lat="44.8886" lon="6.75473">
        <ele>2130.264707</ele>
        <time>2022-09-03T10:43:28+0200</time>
      </trkpt>
      <trkpt lat="44.88865" lon="6.75474">
        <ele>2132.314326</ele>
        <time>2022-09-03T10:43:32+0200</time>
      </trkpt>
      <trkpt lat="44.8887" lon="6.75475">
        <ele>2133.841246</ele>
        <time>2022-09-03T10:43:35+0200</time>
      </trkpt>
      <trkpt lat="44.88873" lon="6.75479">
        <ele>2134.952075</ele>
        <time>2022-09-03T10:43:39+0200</time>
      </trkpt>
      <trkpt lat="44.88878" lon="6.75481">
        <ele>2136.290206</ele>
        <time>2022-09-03T10:43:42+0200</time>
      </trkpt>
      <trkpt lat="44.88883" lon="6.75478">
        <ele>2136.604376</ele>
        <time>2022-09-03T10:43:49+0200</time>
      </trkpt>
      <trkpt lat="44.88884" lon="6.7547">
        <ele>2135.940887</ele>
        <time>2022-09-03T10:43:53+0200</time>
      </trkpt>
      <trkpt lat="44.88887" lon="6.75465">
        <ele>2135.764837</ele>
        <time>2022-09-03T10:43:56+0200</time>
      </trkpt>
      <trkpt lat="44.88891" lon="6.75459">
        <ele>2137.875734</ele>
        <time>2022-09-03T10:44:02+0200</time>
      </trkpt>
      <trkpt lat="44.88895" lon="6.75456">
        <ele>2139.841334</ele>
        <time>2022-09-03T10:44:06+0200</time>
      </trkpt>
      <trkpt lat="44.88899" lon="6.75451">
        <ele>2140.83026</ele>
        <time>2022-09-03T10:44:10+0200</time>
      </trkpt>
      <trkpt lat="44.88902" lon="6.75447">
        <ele>2143.242007</ele>
        <time>2022-09-03T10:44:14+0200</time>
      </trkpt>
      <trkpt lat="44.88906" lon="6.75442">
        <ele>2145.89305</ele>
        <time>2022-09-03T10:44:21+0200</time>
      </trkpt>
      <trkpt lat="44.88909" lon="6.75437">
        <ele>2144.474656</ele>
        <time>2022-09-03T10:44:24+0200</time>
      </trkpt>
      <trkpt lat="44.88913" lon="6.75433">
        <ele>2144.476503</ele>
        <time>2022-09-03T10:44:28+0200</time>
      </trkpt>
      <trkpt lat="44.88917" lon="6.75429">
        <ele>2145.817186</ele>
        <time>2022-09-03T10:44:31+0200</time>
      </trkpt>
      <trkpt lat="44.88921" lon="6.75425">
        <ele>2145.992808</ele>
        <time>2022-09-03T10:44:34+0200</time>
      </trkpt>
      <trkpt lat="44.88926" lon="6.75422">
        <ele>2148.67207</ele>
        <time>2022-09-03T10:44:38+0200</time>
      </trkpt>
      <trkpt lat="44.88929" lon="6.75418">
        <ele>2149.729853</ele>
        <time>2022-09-03T10:44:41+0200</time>
      </trkpt>
      <trkpt lat="44.88934" lon="6.75413">
        <ele>2151.338348</ele>
        <time>2022-09-03T10:44:45+0200</time>
      </trkpt>
      <trkpt lat="44.88936" lon="6.75407">
        <ele>2153.452157</ele>
        <time>2022-09-03T10:44:50+0200</time>
      </trkpt>
      <trkpt lat="44.88938" lon="6.75401">
        <ele>2154.724202</ele>
        <time>2022-09-03T10:44:53+0200</time>
      </trkpt>
      <trkpt lat="44.88941" lon="6.75396">
        <ele>2156.402069</ele>
        <time>2022-09-03T10:44:58+0200</time>
      </trkpt>
      <trkpt lat="44.88945" lon="6.7539">
        <ele>2157.841294</ele>
        <time>2022-09-03T10:45:02+0200</time>
      </trkpt>
      <trkpt lat="44.8895" lon="6.75385">
        <ele>2157.977694</ele>
        <time>2022-09-03T10:45:06+0200</time>
      </trkpt>
      <trkpt lat="44.88955" lon="6.75383">
        <ele>2159.631006</ele>
        <time>2022-09-03T10:45:11+0200</time>
      </trkpt>
      <trkpt lat="44.8896" lon="6.7538">
        <ele>2161.039333</ele>
        <time>2022-09-03T10:45:15+0200</time>
      </trkpt>
      <trkpt lat="44.88965" lon="6.75381">
        <ele>2161.303796</ele>
        <time>2022-09-03T10:45:19+0200</time>
      </trkpt>
      <trkpt lat="44.88972" lon="6.75382">
        <ele>2161.007818</ele>
        <time>2022-09-03T10:45:23+0200</time>
      </trkpt>
      <trkpt lat="44.88976" lon="6.75384">
        <ele>2160.684383</ele>
        <time>2022-09-03T10:45:26+0200</time>
      </trkpt>
      <trkpt lat="44.88981" lon="6.75387">
        <ele>2161.871727</ele>
        <time>2022-09-03T10:45:29+0200</time>
      </trkpt>
      <trkpt lat="44.88985" lon="6.75392">
        <ele>2163.848091</ele>
        <time>2022-09-03T10:45:33+0200</time>
      </trkpt>
      <trkpt lat="44.8899" lon="6.75392">
        <ele>2164.842205</ele>
        <time>2022-09-03T10:45:36+0200</time>
      </trkpt>
      <trkpt lat="44.88994" lon="6.75386">
        <ele>2165.796256</ele>
        <time>2022-09-03T10:45:40+0200</time>
      </trkpt>
      <trkpt lat="44.88998" lon="6.75382">
        <ele>2165.832637</ele>
        <time>2022-09-03T10:45:43+0200</time>
      </trkpt>
      <trkpt lat="44.89001" lon="6.75377">
        <ele>2165.635706</ele>
        <time>2022-09-03T10:45:46+0200</time>
      </trkpt>
      <trkpt lat="44.89003" lon="6.75371">
        <ele>2166.128306</ele>
        <time>2022-09-03T10:45:50+0200</time>
      </trkpt>
      <trkpt lat="44.89005" lon="6.75365">
        <ele>2167.525123</ele>
        <time>2022-09-03T10:45:54+0200</time>
      </trkpt>
      <trkpt lat="44.89009" lon="6.75359">
        <ele>2167.668445</ele>
        <time>2022-09-03T10:45:56+0200</time>
      </trkpt>
      <trkpt lat="44.89012" lon="6.75355">
        <ele>2167.551875</ele>
        <time>2022-09-03T10:46:01+0200</time>
      </trkpt>
      <trkpt lat="44.89016" lon="6.75351">
        <ele>2168.767808</ele>
        <time>2022-09-03T10:46:05+0200</time>
      </trkpt>
      <trkpt lat="44.8902" lon="6.75346">
        <ele>2170.484142</ele>
        <time>2022-09-03T10:46:10+0200</time>
      </trkpt>
      <trkpt lat="44.89023" lon="6.7534">
        <ele>2170.744755</ele>
        <time>2022-09-03T10:46:14+0200</time>
      </trkpt>
      <trkpt lat="44.89026" lon="6.75335">
        <ele>2171.641942</ele>
        <time>2022-09-03T10:46:18+0200</time>
      </trkpt>
      <trkpt lat="44.8903" lon="6.75329">
        <ele>2171.806225</ele>
        <time>2022-09-03T10:46:22+0200</time>
      </trkpt>
      <trkpt lat="44.89035" lon="6.7533">
        <ele>2171.254736</ele>
        <time>2022-09-03T10:47:08+0200</time>
      </trkpt>
      <trkpt lat="44.8904" lon="6.75328">
        <ele>2172.725438</ele>
        <time>2022-09-03T10:47:18+0200</time>
      </trkpt>
      <trkpt lat="44.89045" lon="6.75327">
        <ele>2173.758902</ele>
        <time>2022-09-03T10:47:22+0200</time>
      </trkpt>
      <trkpt lat="44.8905" lon="6.75326">
        <ele>2174.309951</ele>
        <time>2022-09-03T10:47:26+0200</time>
      </trkpt>
      <trkpt lat="44.89055" lon="6.75328">
        <ele>2175.828589</ele>
        <time>2022-09-03T10:47:30+0200</time>
      </trkpt>
      <trkpt lat="44.8906" lon="6.7533">
        <ele>2177.718424</ele>
        <time>2022-09-03T10:47:34+0200</time>
      </trkpt>
      <trkpt lat="44.89064" lon="6.75333">
        <ele>2178.620492</ele>
        <time>2022-09-03T10:47:38+0200</time>
      </trkpt>
      <trkpt lat="44.89067" lon="6.75339">
        <ele>2180.293406</ele>
        <time>2022-09-03T10:47:43+0200</time>
      </trkpt>
      <trkpt lat="44.89068" lon="6.75347">
        <ele>2182.390689</ele>
        <time>2022-09-03T10:47:48+0200</time>
      </trkpt>
      <trkpt lat="44.89072" lon="6.75352">
        <ele>2181.655492</ele>
        <time>2022-09-03T10:48:17+0200</time>
      </trkpt>
      <trkpt lat="44.89077" lon="6.75355">
        <ele>2182.29881</ele>
        <time>2022-09-03T10:48:50+0200</time>
      </trkpt>
      <trkpt lat="44.89081" lon="6.75359">
        <ele>2183.911906</ele>
        <time>2022-09-03T10:48:54+0200</time>
      </trkpt>
      <trkpt lat="44.89085" lon="6.75363">
        <ele>2186.048942</ele>
        <time>2022-09-03T10:49:00+0200</time>
      </trkpt>
      <trkpt lat="44.8909" lon="6.75364">
        <ele>2187.857626</ele>
        <time>2022-09-03T10:49:06+0200</time>
      </trkpt>
      <trkpt lat="44.89095" lon="6.75366">
        <ele>2189.985196</ele>
        <time>2022-09-03T10:49:13+0200</time>
      </trkpt>
      <trkpt lat="44.891" lon="6.75367">
        <ele>2190.820636</ele>
        <time>2022-09-03T10:49:33+0200</time>
      </trkpt>
      <trkpt lat="44.89104" lon="6.7537">
        <ele>2191.309264</ele>
        <time>2022-09-03T10:49:37+0200</time>
      </trkpt>
      <trkpt lat="44.89109" lon="6.75376">
        <ele>2193.934587</ele>
        <time>2022-09-03T10:49:41+0200</time>
      </trkpt>
      <trkpt lat="44.89112" lon="6.75382">
        <ele>2195.888735</ele>
        <time>2022-09-03T10:49:45+0200</time>
      </trkpt>
      <trkpt lat="44.89116" lon="6.75388">
        <ele>2197.769941</ele>
        <time>2022-09-03T10:49:49+0200</time>
      </trkpt>
      <trkpt lat="44.89119" lon="6.75393">
        <ele>2199.095067</ele>
        <time>2022-09-03T10:49:53+0200</time>
      </trkpt>
      <trkpt lat="44.89122" lon="6.75399">
        <ele>2200.229914</ele>
        <time>2022-09-03T10:49:57+0200</time>
      </trkpt>
      <trkpt lat="44.89125" lon="6.75406">
        <ele>2201.317833</ele>
        <time>2022-09-03T10:50:01+0200</time>
      </trkpt>
      <trkpt lat="44.8913" lon="6.75411">
        <ele>2202.571554</ele>
        <time>2022-09-03T10:50:05+0200</time>
      </trkpt>
      <trkpt lat="44.89133" lon="6.75416">
        <ele>2203.372005</ele>
        <time>2022-09-03T10:50:08+0200</time>
      </trkpt>
      <trkpt lat="44.89137" lon="6.7542">
        <ele>2204.196851</ele>
        <time>2022-09-03T10:50:11+0200</time>
      </trkpt>
      <trkpt lat="44.89141" lon="6.75424">
        <ele>2205.706308</ele>
        <time>2022-09-03T10:50:16+0200</time>
      </trkpt>
      <trkpt lat="44.89146" lon="6.75426">
        <ele>2206.863169</ele>
        <time>2022-09-03T10:50:22+0200</time>
      </trkpt>
      <trkpt lat="44.89152" lon="6.75424">
        <ele>2208.627069</ele>
        <time>2022-09-03T10:50:25+0200</time>
      </trkpt>
      <trkpt lat="44.89155" lon="6.7542">
        <ele>2208.935576</ele>
        <time>2022-09-03T10:50:27+0200</time>
      </trkpt>
      <trkpt lat="44.89159" lon="6.75414">
        <ele>2208.467707</ele>
        <time>2022-09-03T10:50:29+0200</time>
      </trkpt>
      <trkpt lat="44.89163" lon="6.75409">
        <ele>2209.061097</ele>
        <time>2022-09-03T10:50:31+0200</time>
      </trkpt>
      <trkpt lat="44.89164" lon="6.75403">
        <ele>2209.475389</ele>
        <time>2022-09-03T10:50:33+0200</time>
      </trkpt>
      <trkpt lat="44.89166" lon="6.75397">
        <ele>2209.970664</ele>
        <time>2022-09-03T10:50:35+0200</time>
      </trkpt>
      <trkpt lat="44.89168" lon="6.75388">
        <ele>2210.151893</ele>
        <time>2022-09-03T10:50:37+0200</time>
      </trkpt>
      <trkpt lat="44.8917" lon="6.75378">
        <ele>2210.963437</ele>
        <time>2022-09-03T10:50:39+0200</time>
      </trkpt>
      <trkpt lat="44.89171" lon="6.75369">
        <ele>2212.755698</ele>
        <time>2022-09-03T10:50:42+0200</time>
      </trkpt>
      <trkpt lat="44.89174" lon="6.75361">
        <ele>2213.867547</ele>
        <time>2022-09-03T10:50:46+0200</time>
      </trkpt>
      <trkpt lat="44.89175" lon="6.75355">
        <ele>2213.566548</ele>
        <time>2022-09-03T10:50:49+0200</time>
      </trkpt>
      <trkpt lat="44.89175" lon="6.75348">
        <ele>2215.741363</ele>
        <time>2022-09-03T10:50:53+0200</time>
      </trkpt>
      <trkpt lat="44.89178" lon="6.75342">
        <ele>2216.963686</ele>
        <time>2022-09-03T10:50:56+0200</time>
      </trkpt>
      <trkpt lat="44.89181" lon="6.75336">
        <ele>2219.372305</ele>
        <time>2022-09-03T10:51:00+0200</time>
      </trkpt>
      <trkpt lat="44.89185" lon="6.75331">
        <ele>2221.11223</ele>
        <time>2022-09-03T10:51:04+0200</time>
      </trkpt>
      <trkpt lat="44.8919" lon="6.75329">
        <ele>2222.021947</ele>
        <time>2022-09-03T10:51:07+0200</time>
      </trkpt>
      <trkpt lat="44.89194" lon="6.75326">
        <ele>2222.499933</ele>
        <time>2022-09-03T10:51:10+0200</time>
      </trkpt>
      <trkpt lat="44.89198" lon="6.75321">
        <ele>2223.687764</ele>
        <time>2022-09-03T10:51:14+0200</time>
      </trkpt>
      <trkpt lat="44.89202" lon="6.75317">
        <ele>2224.82343</ele>
        <time>2022-09-03T10:51:18+0200</time>
      </trkpt>
      <trkpt lat="44.89206" lon="6.75311">
        <ele>2226.875384</ele>
        <time>2022-09-03T10:51:23+0200</time>
      </trkpt>
      <trkpt lat="44.89207" lon="6.75305">
        <ele>2226.538581</ele>
        <time>2022-09-03T10:51:27+0200</time>
      </trkpt>
      <trkpt lat="44.89209" lon="6.75299">
        <ele>2227.71806</ele>
        <time>2022-09-03T10:51:32+0200</time>
      </trkpt>
      <trkpt lat="44.89211" lon="6.75291">
        <ele>2228.814947</ele>
        <time>2022-09-03T10:51:36+0200</time>
      </trkpt>
      <trkpt lat="44.89212" lon="6.75284">
        <ele>2230.595604</ele>
        <time>2022-09-03T10:51:40+0200</time>
      </trkpt>
      <trkpt lat="44.89214" lon="6.75277">
        <ele>2230.845219</ele>
        <time>2022-09-03T10:51:45+0200</time>
      </trkpt>
      <trkpt lat="44.89217" lon="6.75271">
        <ele>2230.35388</ele>
        <time>2022-09-03T10:51:49+0200</time>
      </trkpt>
      <trkpt lat="44.8922" lon="6.75266">
        <ele>2233.729276</ele>
        <time>2022-09-03T10:51:55+0200</time>
      </trkpt>
      <trkpt lat="44.89223" lon="6.7526">
        <ele>2234.317463</ele>
        <time>2022-09-03T10:52:00+0200</time>
      </trkpt>
      <trkpt lat="44.89225" lon="6.75254">
        <ele>2230.806072</ele>
        <time>2022-09-03T10:52:21+0200</time>
      </trkpt>
      <trkpt lat="44.89222" lon="6.75248">
        <ele>2230.103658</ele>
        <time>2022-09-03T10:54:19+0200</time>
      </trkpt>
      <trkpt lat="44.89222" lon="6.75241">
        <ele>2230.419467</ele>
        <time>2022-09-03T10:54:22+0200</time>
      </trkpt>
      <trkpt lat="44.8922" lon="6.75233">
        <ele>2230.528468</ele>
        <time>2022-09-03T10:54:25+0200</time>
      </trkpt>
      <trkpt lat="44.89217" lon="6.75222">
        <ele>2231.060553</ele>
        <time>2022-09-03T10:54:27+0200</time>
      </trkpt>
      <trkpt lat="44.89216" lon="6.75213">
        <ele>2231.961733</ele>
        <time>2022-09-03T10:54:29+0200</time>
      </trkpt>
      <trkpt lat="44.89215" lon="6.75205">
        <ele>2233.130031</ele>
        <time>2022-09-03T10:54:32+0200</time>
      </trkpt>
      <trkpt lat="44.89215" lon="6.75198">
        <ele>2233.397525</ele>
        <time>2022-09-03T10:54:34+0200</time>
      </trkpt>
      <trkpt lat="44.89217" lon="6.75192">
        <ele>2234.4828</ele>
        <time>2022-09-03T10:54:36+0200</time>
      </trkpt>
      <trkpt lat="44.89218" lon="6.75185">
        <ele>2236.543545</ele>
        <time>2022-09-03T10:54:39+0200</time>
      </trkpt>
      <trkpt lat="44.89219" lon="6.75178">
        <ele>2235.533243</ele>
        <time>2022-09-03T10:54:41+0200</time>
      </trkpt>
      <trkpt lat="44.8922" lon="6.75172">
        <ele>2237.073438</ele>
        <time>2022-09-03T10:54:44+0200</time>
      </trkpt>
      <trkpt lat="44.8922" lon="6.75164">
        <ele>2239.160959</ele>
        <time>2022-09-03T10:54:48+0200</time>
      </trkpt>
      <trkpt lat="44.89219" lon="6.75157">
        <ele>2239.830789</ele>
        <time>2022-09-03T10:54:51+0200</time>
      </trkpt>
      <trkpt lat="44.89216" lon="6.75149">
        <ele>2239.604526</ele>
        <time>2022-09-03T10:54:54+0200</time>
      </trkpt>
      <trkpt lat="44.89214" lon="6.75143">
        <ele>2239.249297</ele>
        <time>2022-09-03T10:54:57+0200</time>
      </trkpt>
      <trkpt lat="44.89212" lon="6.75134">
        <ele>2239.969999</ele>
        <time>2022-09-03T10:55:00+0200</time>
      </trkpt>
      <trkpt lat="44.8921" lon="6.75127">
        <ele>2240.174215</ele>
        <time>2022-09-03T10:55:02+0200</time>
      </trkpt>
      <trkpt lat="44.89209" lon="6.7512">
        <ele>2241.893745</ele>
        <time>2022-09-03T10:55:07+0200</time>
      </trkpt>
      <trkpt lat="44.89208" lon="6.75112">
        <ele>2243.671931</ele>
        <time>2022-09-03T10:55:11+0200</time>
      </trkpt>
      <trkpt lat="44.89204" lon="6.75106">
        <ele>2245.417765</ele>
        <time>2022-09-03T10:55:15+0200</time>
      </trkpt>
      <trkpt lat="44.89201" lon="6.75101">
        <ele>2246.436389</ele>
        <time>2022-09-03T10:55:18+0200</time>
      </trkpt>
      <trkpt lat="44.89198" lon="6.75095">
        <ele>2247.145507</ele>
        <time>2022-09-03T10:55:21+0200</time>
      </trkpt>
      <trkpt lat="44.89195" lon="6.7509">
        <ele>2247.544734</ele>
        <time>2022-09-03T10:55:23+0200</time>
      </trkpt>
      <trkpt lat="44.89191" lon="6.75086">
        <ele>2248.348029</ele>
        <time>2022-09-03T10:55:25+0200</time>
      </trkpt>
      <trkpt lat="44.89187" lon="6.75081">
        <ele>2248.036754</ele>
        <time>2022-09-03T10:55:27+0200</time>
      </trkpt>
      <trkpt lat="44.89182" lon="6.75079">
        <ele>2248.075758</ele>
        <time>2022-09-03T10:55:29+0200</time>
      </trkpt>
      <trkpt lat="44.89178" lon="6.75074">
        <ele>2247.51711</ele>
        <time>2022-09-03T10:55:31+0200</time>
      </trkpt>
      <trkpt lat="44.89172" lon="6.75068">
        <ele>2246.879477</ele>
        <time>2022-09-03T10:55:33+0200</time>
      </trkpt>
      <trkpt lat="44.89168" lon="6.75064">
        <ele>2246.375548</ele>
        <time>2022-09-03T10:55:34+0200</time>
      </trkpt>
      <trkpt lat="44.89165" lon="6.75057">
        <ele>2245.708525</ele>
        <time>2022-09-03T10:55:35+0200</time>
      </trkpt>
      <trkpt lat="44.89164" lon="6.7505">
        <ele>2244.993078</ele>
        <time>2022-09-03T10:55:36+0200</time>
      </trkpt>
      <trkpt lat="44.89164" lon="6.75041">
        <ele>2243.704939</ele>
        <time>2022-09-03T10:55:37+0200</time>
      </trkpt>
      <trkpt lat="44.89163" lon="6.75031">
        <ele>2244.158595</ele>
        <time>2022-09-03T10:55:38+0200</time>
      </trkpt>
      <trkpt lat="44.89162" lon="6.75023">
        <ele>2244.151293</ele>
        <time>2022-09-03T10:55:39+0200</time>
      </trkpt>
      <trkpt lat="44.89161" lon="6.75015">
        <ele>2244.424835</ele>
        <time>2022-09-03T10:55:41+0200</time>
      </trkpt>
      <trkpt lat="44.89161" lon="6.75009">
        <ele>2244.331918</ele>
        <time>2022-09-03T10:55:44+0200</time>
      </trkpt>
      <trkpt lat="44.89162" lon="6.75001">
        <ele>2246.053864</ele>
        <time>2022-09-03T10:55:48+0200</time>
      </trkpt>
      <trkpt lat="44.8916" lon="6.74993">
        <ele>2246.27264</ele>
        <time>2022-09-03T10:55:50+0200</time>
      </trkpt>
      <trkpt lat="44.89159" lon="6.74987">
        <ele>2246.624291</ele>
        <time>2022-09-03T10:55:53+0200</time>
      </trkpt>
      <trkpt lat="44.89157" lon="6.74979">
        <ele>2245.313113</ele>
        <time>2022-09-03T10:55:56+0200</time>
      </trkpt>
      <trkpt lat="44.89155" lon="6.74973">
        <ele>2243.932619</ele>
        <time>2022-09-03T10:55:58+0200</time>
      </trkpt>
      <trkpt lat="44.89152" lon="6.74966">
        <ele>2242.417811</ele>
        <time>2022-09-03T10:56:01+0200</time>
      </trkpt>
      <trkpt lat="44.89152" lon="6.74958">
        <ele>2241.256102</ele>
        <time>2022-09-03T10:56:04+0200</time>
      </trkpt>
      <trkpt lat="44.89152" lon="6.7495">
        <ele>2241.208709</ele>
        <time>2022-09-03T10:56:06+0200</time>
      </trkpt>
      <trkpt lat="44.89152" lon="6.74941">
        <ele>2240.761645</ele>
        <time>2022-09-03T10:56:08+0200</time>
      </trkpt>
      <trkpt lat="44.89152" lon="6.74933">
        <ele>2241.078255</ele>
        <time>2022-09-03T10:56:10+0200</time>
      </trkpt>
      <trkpt lat="44.89152" lon="6.74927">
        <ele>2242.590671</ele>
        <time>2022-09-03T10:56:14+0200</time>
      </trkpt>
      <trkpt lat="44.89151" lon="6.7492">
        <ele>2243.63981</ele>
        <time>2022-09-03T10:56:18+0200</time>
      </trkpt>
      <trkpt lat="44.89152" lon="6.74914">
        <ele>2245.377849</ele>
        <time>2022-09-03T10:56:21+0200</time>
      </trkpt>
      <trkpt lat="44.89151" lon="6.74905">
        <ele>2245.074554</ele>
        <time>2022-09-03T10:56:24+0200</time>
      </trkpt>
      <trkpt lat="44.89153" lon="6.74899">
        <ele>2245.52835</ele>
        <time>2022-09-03T10:56:27+0200</time>
      </trkpt>
      <trkpt lat="44.89154" lon="6.7489">
        <ele>2246.993798</ele>
        <time>2022-09-03T10:56:30+0200</time>
      </trkpt>
      <trkpt lat="44.89156" lon="6.74881">
        <ele>2246.504831</ele>
        <time>2022-09-03T10:56:32+0200</time>
      </trkpt>
      <trkpt lat="44.89156" lon="6.74874">
        <ele>2245.55139</ele>
        <time>2022-09-03T10:56:33+0200</time>
      </trkpt>
      <trkpt lat="44.89158" lon="6.74861">
        <ele>2244.254441</ele>
        <time>2022-09-03T10:56:35+0200</time>
      </trkpt>
      <trkpt lat="44.89162" lon="6.74851">
        <ele>2243.743947</ele>
        <time>2022-09-03T10:56:37+0200</time>
      </trkpt>
      <trkpt lat="44.89165" lon="6.74839">
        <ele>2243.045256</ele>
        <time>2022-09-03T10:56:39+0200</time>
      </trkpt>
      <trkpt lat="44.89166" lon="6.74832">
        <ele>2241.956645</ele>
        <time>2022-09-03T10:56:40+0200</time>
      </trkpt>
      <trkpt lat="44.89168" lon="6.74825">
        <ele>2242.088546</ele>
        <time>2022-09-03T10:56:41+0200</time>
      </trkpt>
      <trkpt lat="44.89169" lon="6.74815">
        <ele>2242.044889</ele>
        <time>2022-09-03T10:56:43+0200</time>
      </trkpt>
      <trkpt lat="44.89169" lon="6.74805">
        <ele>2241.71412</ele>
        <time>2022-09-03T10:56:46+0200</time>
      </trkpt>
      <trkpt lat="44.89171" lon="6.74797">
        <ele>2242.035865</ele>
        <time>2022-09-03T10:56:48+0200</time>
      </trkpt>
      <trkpt lat="44.8917" lon="6.7479">
        <ele>2242.439259</ele>
        <time>2022-09-03T10:56:52+0200</time>
      </trkpt>
      <trkpt lat="44.89168" lon="6.74782">
        <ele>2240.623027</ele>
        <time>2022-09-03T10:57:00+0200</time>
      </trkpt>
      <trkpt lat="44.89166" lon="6.74766">
        <ele>2239.028752</ele>
        <time>2022-09-03T10:57:02+0200</time>
      </trkpt>
      <trkpt lat="44.89161" lon="6.74754">
        <ele>2236.60607</ele>
        <time>2022-09-03T10:57:03+0200</time>
      </trkpt>
      <trkpt lat="44.89153" lon="6.74742">
        <ele>2235.684517</ele>
        <time>2022-09-03T10:57:04+0200</time>
      </trkpt>
      <trkpt lat="44.89148" lon="6.74734">
        <ele>2235.521233</ele>
        <time>2022-09-03T10:57:05+0200</time>
      </trkpt>
      <trkpt lat="44.89145" lon="6.74729">
        <ele>2236.873824</ele>
        <time>2022-09-03T10:57:08+0200</time>
      </trkpt>
      <trkpt lat="44.89144" lon="6.74721">
        <ele>2240.704087</ele>
        <time>2022-09-03T10:57:12+0200</time>
      </trkpt>
      <trkpt lat="44.89141" lon="6.74713">
        <ele>2241.574489</ele>
        <time>2022-09-03T10:57:15+0200</time>
      </trkpt>
      <trkpt lat="44.89138" lon="6.74707">
        <ele>2243.378432</ele>
        <time>2022-09-03T10:57:18+0200</time>
      </trkpt>
      <trkpt lat="44.89134" lon="6.74696">
        <ele>2244.544653</ele>
        <time>2022-09-03T10:57:21+0200</time>
      </trkpt>
      <trkpt lat="44.89131" lon="6.74687">
        <ele>2244.917362</ele>
        <time>2022-09-03T10:57:23+0200</time>
      </trkpt>
      <trkpt lat="44.89128" lon="6.74677">
        <ele>2245.100133</ele>
        <time>2022-09-03T10:57:25+0200</time>
      </trkpt>
      <trkpt lat="44.89126" lon="6.74669">
        <ele>2245.762837</ele>
        <time>2022-09-03T10:57:27+0200</time>
      </trkpt>
      <trkpt lat="44.89123" lon="6.74662">
        <ele>2244.70209</ele>
        <time>2022-09-03T10:57:30+0200</time>
      </trkpt>
      <trkpt lat="44.89119" lon="6.74652">
        <ele>2243.546696</ele>
        <time>2022-09-03T10:57:33+0200</time>
      </trkpt>
      <trkpt lat="44.89114" lon="6.74645">
        <ele>2243.607117</ele>
        <time>2022-09-03T10:57:35+0200</time>
      </trkpt>
      <trkpt lat="44.89109" lon="6.74634">
        <ele>2243.774719</ele>
        <time>2022-09-03T10:57:37+0200</time>
      </trkpt>
      <trkpt lat="44.89107" lon="6.74623">
        <ele>2243.234819</ele>
        <time>2022-09-03T10:57:39+0200</time>
      </trkpt>
      <trkpt lat="44.89109" lon="6.74615">
        <ele>2243.159968</ele>
        <time>2022-09-03T10:57:41+0200</time>
      </trkpt>
      <trkpt lat="44.89111" lon="6.74607">
        <ele>2242.900547</ele>
        <time>2022-09-03T10:57:43+0200</time>
      </trkpt>
      <trkpt lat="44.89112" lon="6.74599">
        <ele>2241.867975</ele>
        <time>2022-09-03T10:57:45+0200</time>
      </trkpt>
      <trkpt lat="44.89114" lon="6.7459">
        <ele>2240.657157</ele>
        <time>2022-09-03T10:57:47+0200</time>
      </trkpt>
      <trkpt lat="44.8912" lon="6.74583">
        <ele>2240.81465</ele>
        <time>2022-09-03T10:57:49+0200</time>
      </trkpt>
      <trkpt lat="44.89127" lon="6.74575">
        <ele>2240.320105</ele>
        <time>2022-09-03T10:57:51+0200</time>
      </trkpt>
      <trkpt lat="44.8913" lon="6.74571">
        <ele>2239.730703</ele>
        <time>2022-09-03T10:57:52+0200</time>
      </trkpt>
      <trkpt lat="44.89135" lon="6.74565">
        <ele>2239.270112</ele>
        <time>2022-09-03T10:57:53+0200</time>
      </trkpt>
      <trkpt lat="44.89137" lon="6.7456">
        <ele>2239.042099</ele>
        <time>2022-09-03T10:57:54+0200</time>
      </trkpt>
      <trkpt lat="44.89141" lon="6.74554">
        <ele>2238.822113</ele>
        <time>2022-09-03T10:57:55+0200</time>
      </trkpt>
      <trkpt lat="44.89146" lon="6.74547">
        <ele>2239.468963</ele>
        <time>2022-09-03T10:57:57+0200</time>
      </trkpt>
      <trkpt lat="44.89152" lon="6.7454">
        <ele>2239.736662</ele>
        <time>2022-09-03T10:57:59+0200</time>
      </trkpt>
      <trkpt lat="44.89156" lon="6.74532">
        <ele>2239.965458</ele>
        <time>2022-09-03T10:58:01+0200</time>
      </trkpt>
      <trkpt lat="44.89158" lon="6.74524">
        <ele>2240.916614</ele>
        <time>2022-09-03T10:58:03+0200</time>
      </trkpt>
      <trkpt lat="44.89159" lon="6.74516">
        <ele>2239.893052</ele>
        <time>2022-09-03T10:58:05+0200</time>
      </trkpt>
      <trkpt lat="44.8916" lon="6.74507">
        <ele>2239.76551</ele>
        <time>2022-09-03T10:58:07+0200</time>
      </trkpt>
      <trkpt lat="44.89162" lon="6.74501">
        <ele>2240.244899</ele>
        <time>2022-09-03T10:58:09+0200</time>
      </trkpt>
      <trkpt lat="44.89163" lon="6.74493">
        <ele>2240.405346</ele>
        <time>2022-09-03T10:58:11+0200</time>
      </trkpt>
      <trkpt lat="44.89164" lon="6.74485">
        <ele>2239.726734</ele>
        <time>2022-09-03T10:58:13+0200</time>
      </trkpt>
      <trkpt lat="44.89166" lon="6.74477">
        <ele>2239.249159</ele>
        <time>2022-09-03T10:58:15+0200</time>
      </trkpt>
      <trkpt lat="44.89167" lon="6.74471">
        <ele>2238.815621</ele>
        <time>2022-09-03T10:58:17+0200</time>
      </trkpt>
      <trkpt lat="44.89169" lon="6.74463">
        <ele>2238.401943</ele>
        <time>2022-09-03T10:58:19+0200</time>
      </trkpt>
      <trkpt lat="44.89171" lon="6.74454">
        <ele>2238.674075</ele>
        <time>2022-09-03T10:58:21+0200</time>
      </trkpt>
      <trkpt lat="44.89172" lon="6.74445">
        <ele>2238.283799</ele>
        <time>2022-09-03T10:58:23+0200</time>
      </trkpt>
      <trkpt lat="44.89172" lon="6.74437">
        <ele>2238.168921</ele>
        <time>2022-09-03T10:58:25+0200</time>
      </trkpt>
      <trkpt lat="44.89171" lon="6.74429">
        <ele>2238.033336</ele>
        <time>2022-09-03T10:58:27+0200</time>
      </trkpt>
      <trkpt lat="44.89171" lon="6.74422">
        <ele>2237.358802</ele>
        <time>2022-09-03T10:58:29+0200</time>
      </trkpt>
      <trkpt lat="44.89171" lon="6.74415">
        <ele>2236.422944</ele>
        <time>2022-09-03T10:58:31+0200</time>
      </trkpt>
      <trkpt lat="44.89172" lon="6.74407">
        <ele>2236.093357</ele>
        <time>2022-09-03T10:58:34+0200</time>
      </trkpt>
      <trkpt lat="44.89173" lon="6.74401">
        <ele>2235.653994</ele>
        <time>2022-09-03T10:58:37+0200</time>
      </trkpt>
      <trkpt lat="44.89175" lon="6.74394">
        <ele>2235.312571</ele>
        <time>2022-09-03T10:58:41+0200</time>
      </trkpt>
      <trkpt lat="44.89176" lon="6.74387">
        <ele>2234.399207</ele>
        <time>2022-09-03T10:58:44+0200</time>
      </trkpt>
      <trkpt lat="44.89178" lon="6.74378">
        <ele>2234.292848</ele>
        <time>2022-09-03T10:58:48+0200</time>
      </trkpt>
      <trkpt lat="44.8918" lon="6.74372">
        <ele>2234.741332</ele>
        <time>2022-09-03T10:58:51+0200</time>
      </trkpt>
      <trkpt lat="44.89183" lon="6.74363">
        <ele>2235.244418</ele>
        <time>2022-09-03T10:58:54+0200</time>
      </trkpt>
      <trkpt lat="44.89184" lon="6.74356">
        <ele>2234.876333</ele>
        <time>2022-09-03T10:58:56+0200</time>
      </trkpt>
      <trkpt lat="44.89186" lon="6.74346">
        <ele>2234.99029</ele>
        <time>2022-09-03T10:58:58+0200</time>
      </trkpt>
      <trkpt lat="44.89189" lon="6.74336">
        <ele>2234.534643</ele>
        <time>2022-09-03T10:59:00+0200</time>
      </trkpt>
      <trkpt lat="44.8919" lon="6.74326">
        <ele>2234.400201</ele>
        <time>2022-09-03T10:59:02+0200</time>
      </trkpt>
      <trkpt lat="44.89193" lon="6.74319">
        <ele>2233.754999</ele>
        <time>2022-09-03T10:59:04+0200</time>
      </trkpt>
      <trkpt lat="44.89196" lon="6.7431">
        <ele>2233.328618</ele>
        <time>2022-09-03T10:59:06+0200</time>
      </trkpt>
      <trkpt lat="44.89197" lon="6.74304">
        <ele>2233.012745</ele>
        <time>2022-09-03T10:59:07+0200</time>
      </trkpt>
      <trkpt lat="44.89199" lon="6.74297">
        <ele>2232.944709</ele>
        <time>2022-09-03T10:59:08+0200</time>
      </trkpt>
      <trkpt lat="44.89204" lon="6.74287">
        <ele>2232.924062</ele>
        <time>2022-09-03T10:59:10+0200</time>
      </trkpt>
      <trkpt lat="44.89207" lon="6.7428">
        <ele>2232.883329</ele>
        <time>2022-09-03T10:59:11+0200</time>
      </trkpt>
      <trkpt lat="44.8921" lon="6.74276">
        <ele>2232.829808</ele>
        <time>2022-09-03T10:59:12+0200</time>
      </trkpt>
      <trkpt lat="44.89214" lon="6.74271">
        <ele>2232.540423</ele>
        <time>2022-09-03T10:59:13+0200</time>
      </trkpt>
      <trkpt lat="44.89218" lon="6.74266">
        <ele>2232.090909</ele>
        <time>2022-09-03T10:59:14+0200</time>
      </trkpt>
      <trkpt lat="44.89222" lon="6.74261">
        <ele>2231.747957</ele>
        <time>2022-09-03T10:59:15+0200</time>
      </trkpt>
      <trkpt lat="44.89224" lon="6.74255">
        <ele>2231.862866</ele>
        <time>2022-09-03T10:59:16+0200</time>
      </trkpt>
      <trkpt lat="44.89228" lon="6.7425">
        <ele>2231.595484</ele>
        <time>2022-09-03T10:59:17+0200</time>
      </trkpt>
      <trkpt lat="44.89232" lon="6.74244">
        <ele>2231.263234</ele>
        <time>2022-09-03T10:59:18+0200</time>
      </trkpt>
      <trkpt lat="44.89236" lon="6.74239">
        <ele>2231.57187</ele>
        <time>2022-09-03T10:59:19+0200</time>
      </trkpt>
      <trkpt lat="44.89239" lon="6.74233">
        <ele>2231.876264</ele>
        <time>2022-09-03T10:59:20+0200</time>
      </trkpt>
      <trkpt lat="44.89241" lon="6.74225">
        <ele>2231.958285</ele>
        <time>2022-09-03T10:59:21+0200</time>
      </trkpt>
      <trkpt lat="44.89243" lon="6.74216">
        <ele>2231.429034</ele>
        <time>2022-09-03T10:59:22+0200</time>
      </trkpt>
      <trkpt lat="44.89246" lon="6.74207">
        <ele>2231.134123</ele>
        <time>2022-09-03T10:59:23+0200</time>
      </trkpt>
      <trkpt lat="44.89251" lon="6.74198">
        <ele>2230.62541</ele>
        <time>2022-09-03T10:59:24+0200</time>
      </trkpt>
      <trkpt lat="44.89255" lon="6.74188">
        <ele>2229.822528</ele>
        <time>2022-09-03T10:59:25+0200</time>
      </trkpt>
      <trkpt lat="44.89259" lon="6.74177">
        <ele>2228.771491</ele>
        <time>2022-09-03T10:59:26+0200</time>
      </trkpt>
      <trkpt lat="44.89263" lon="6.74167">
        <ele>2227.72591</ele>
        <time>2022-09-03T10:59:27+0200</time>
      </trkpt>
      <trkpt lat="44.89266" lon="6.74156">
        <ele>2225.826206</ele>
        <time>2022-09-03T10:59:28+0200</time>
      </trkpt>
      <trkpt lat="44.89269" lon="6.74148">
        <ele>2223.866287</ele>
        <time>2022-09-03T10:59:29+0200</time>
      </trkpt>
      <trkpt lat="44.89272" lon="6.74142">
        <ele>2222.313092</ele>
        <time>2022-09-03T10:59:30+0200</time>
      </trkpt>
      <trkpt lat="44.89274" lon="6.74134">
        <ele>2220.303783</ele>
        <time>2022-09-03T10:59:32+0200</time>
      </trkpt>
      <trkpt lat="44.89278" lon="6.74127">
        <ele>2219.890416</ele>
        <time>2022-09-03T10:59:34+0200</time>
      </trkpt>
      <trkpt lat="44.89282" lon="6.74119">
        <ele>2219.997859</ele>
        <time>2022-09-03T10:59:36+0200</time>
      </trkpt>
      <trkpt lat="44.89288" lon="6.7411">
        <ele>2220.398933</ele>
        <time>2022-09-03T10:59:38+0200</time>
      </trkpt>
      <trkpt lat="44.89291" lon="6.74104">
        <ele>2219.786417</ele>
        <time>2022-09-03T10:59:39+0200</time>
      </trkpt>
      <trkpt lat="44.89294" lon="6.74098">
        <ele>2219.151931</ele>
        <time>2022-09-03T10:59:40+0200</time>
      </trkpt>
      <trkpt lat="44.89296" lon="6.74091">
        <ele>2218.824487</ele>
        <time>2022-09-03T10:59:41+0200</time>
      </trkpt>
      <trkpt lat="44.89299" lon="6.74083">
        <ele>2218.324827</ele>
        <time>2022-09-03T10:59:42+0200</time>
      </trkpt>
      <trkpt lat="44.89303" lon="6.74073">
        <ele>2217.238103</ele>
        <time>2022-09-03T10:59:43+0200</time>
      </trkpt>
      <trkpt lat="44.89307" lon="6.74065">
        <ele>2216.666704</ele>
        <time>2022-09-03T10:59:44+0200</time>
      </trkpt>
      <trkpt lat="44.89309" lon="6.74057">
        <ele>2216.31572</ele>
        <time>2022-09-03T10:59:45+0200</time>
      </trkpt>
      <trkpt lat="44.8931" lon="6.74048">
        <ele>2215.757343</ele>
        <time>2022-09-03T10:59:46+0200</time>
      </trkpt>
      <trkpt lat="44.89312" lon="6.7404">
        <ele>2215.219947</ele>
        <time>2022-09-03T10:59:47+0200</time>
      </trkpt>
      <trkpt lat="44.89313" lon="6.74031">
        <ele>2215.309284</ele>
        <time>2022-09-03T10:59:48+0200</time>
      </trkpt>
      <trkpt lat="44.89312" lon="6.74022">
        <ele>2215.305607</ele>
        <time>2022-09-03T10:59:49+0200</time>
      </trkpt>
      <trkpt lat="44.89309" lon="6.74011">
        <ele>2214.891629</ele>
        <time>2022-09-03T10:59:50+0200</time>
      </trkpt>
      <trkpt lat="44.89306" lon="6.74001">
        <ele>2214.690968</ele>
        <time>2022-09-03T10:59:51+0200</time>
      </trkpt>
      <trkpt lat="44.89306" lon="6.73991">
        <ele>2213.719788</ele>
        <time>2022-09-03T10:59:52+0200</time>
      </trkpt>
      <trkpt lat="44.89307" lon="6.73983">
        <ele>2212.948158</ele>
        <time>2022-09-03T10:59:53+0200</time>
      </trkpt>
      <trkpt lat="44.89308" lon="6.73974">
        <ele>2211.883758</ele>
        <time>2022-09-03T10:59:54+0200</time>
      </trkpt>
      <trkpt lat="44.89311" lon="6.73964">
        <ele>2211.123465</ele>
        <time>2022-09-03T10:59:55+0200</time>
      </trkpt>
      <trkpt lat="44.89314" lon="6.73953">
        <ele>2210.223294</ele>
        <time>2022-09-03T10:59:56+0200</time>
      </trkpt>
      <trkpt lat="44.89316" lon="6.73942">
        <ele>2209.208386</ele>
        <time>2022-09-03T10:59:57+0200</time>
      </trkpt>
      <trkpt lat="44.89317" lon="6.73929">
        <ele>2208.368134</ele>
        <time>2022-09-03T10:59:58+0200</time>
      </trkpt>
      <trkpt lat="44.89316" lon="6.73917">
        <ele>2208.230891</ele>
        <time>2022-09-03T10:59:59+0200</time>
      </trkpt>
      <trkpt lat="44.89314" lon="6.73908">
        <ele>2208.166659</ele>
        <time>2022-09-03T11:00:00+0200</time>
      </trkpt>
      <trkpt lat="44.89312" lon="6.73898">
        <ele>2207.369561</ele>
        <time>2022-09-03T11:00:01+0200</time>
      </trkpt>
      <trkpt lat="44.89311" lon="6.73888">
        <ele>2206.392646</ele>
        <time>2022-09-03T11:00:02+0200</time>
      </trkpt>
      <trkpt lat="44.89311" lon="6.73879">
        <ele>2205.557585</ele>
        <time>2022-09-03T11:00:04+0200</time>
      </trkpt>
      <trkpt lat="44.8931" lon="6.73868">
        <ele>2204.997709</ele>
        <time>2022-09-03T11:00:08+0200</time>
      </trkpt>
      <trkpt lat="44.8931" lon="6.73856">
        <ele>2203.626617</ele>
        <time>2022-09-03T11:00:10+0200</time>
      </trkpt>
      <trkpt lat="44.89311" lon="6.73849">
        <ele>2203.321143</ele>
        <time>2022-09-03T11:00:11+0200</time>
      </trkpt>
      <trkpt lat="44.89312" lon="6.73842">
        <ele>2203.512463</ele>
        <time>2022-09-03T11:00:13+0200</time>
      </trkpt>
      <trkpt lat="44.89315" lon="6.73837">
        <ele>2204.469308</ele>
        <time>2022-09-03T11:00:17+0200</time>
      </trkpt>
      <trkpt lat="44.89317" lon="6.73829">
        <ele>2204.972742</ele>
        <time>2022-09-03T11:00:19+0200</time>
      </trkpt>
      <trkpt lat="44.8932" lon="6.73822">
        <ele>2205.111952</ele>
        <time>2022-09-03T11:00:21+0200</time>
      </trkpt>
      <trkpt lat="44.89322" lon="6.73815">
        <ele>2205.910961</ele>
        <time>2022-09-03T11:00:23+0200</time>
      </trkpt>
      <trkpt lat="44.89323" lon="6.73806">
        <ele>2205.517035</ele>
        <time>2022-09-03T11:00:25+0200</time>
      </trkpt>
      <trkpt lat="44.89325" lon="6.73796">
        <ele>2204.235979</ele>
        <time>2022-09-03T11:00:27+0200</time>
      </trkpt>
      <trkpt lat="44.89326" lon="6.73786">
        <ele>2203.201947</ele>
        <time>2022-09-03T11:00:29+0200</time>
      </trkpt>
      <trkpt lat="44.89324" lon="6.73776">
        <ele>2202.976615</ele>
        <time>2022-09-03T11:00:31+0200</time>
      </trkpt>
      <trkpt lat="44.89323" lon="6.73768">
        <ele>2203.172847</ele>
        <time>2022-09-03T11:00:33+0200</time>
      </trkpt>
      <trkpt lat="44.89321" lon="6.73761">
        <ele>2203.345532</ele>
        <time>2022-09-03T11:00:35+0200</time>
      </trkpt>
      <trkpt lat="44.89316" lon="6.73754">
        <ele>2203.307686</ele>
        <time>2022-09-03T11:00:37+0200</time>
      </trkpt>
      <trkpt lat="44.89314" lon="6.73747">
        <ele>2203.422089</ele>
        <time>2022-09-03T11:00:39+0200</time>
      </trkpt>
      <trkpt lat="44.8931" lon="6.73743">
        <ele>2203.695529</ele>
        <time>2022-09-03T11:00:41+0200</time>
      </trkpt>
      <trkpt lat="44.89305" lon="6.73739">
        <ele>2203.938749</ele>
        <time>2022-09-03T11:00:44+0200</time>
      </trkpt>
      <trkpt lat="44.89301" lon="6.73734">
        <ele>2202.96724</ele>
        <time>2022-09-03T11:00:50+0200</time>
      </trkpt>
      <trkpt lat="44.89297" lon="6.73738">
        <ele>2202.328926</ele>
        <time>2022-09-03T11:03:25+0200</time>
      </trkpt>
      <trkpt lat="44.893" lon="6.73744">
        <ele>2200.608113</ele>
        <time>2022-09-03T11:04:06+0200</time>
      </trkpt>
      <trkpt lat="44.89295" lon="6.73742">
        <ele>2202.39736</ele>
        <time>2022-09-03T11:04:24+0200</time>
      </trkpt>
      <trkpt lat="44.89296" lon="6.73734">
        <ele>2202.698831</ele>
        <time>2022-09-03T11:04:34+0200</time>
      </trkpt>
      <trkpt lat="44.89293" lon="6.73728">
        <ele>2202.282425</ele>
        <time>2022-09-03T11:04:36+0200</time>
      </trkpt>
      <trkpt lat="44.8929" lon="6.73717">
        <ele>2200.885164</ele>
        <time>2022-09-03T11:04:38+0200</time>
      </trkpt>
      <trkpt lat="44.89287" lon="6.73711">
        <ele>2200.190526</ele>
        <time>2022-09-03T11:04:39+0200</time>
      </trkpt>
      <trkpt lat="44.89281" lon="6.73701">
        <ele>2199.276656</ele>
        <time>2022-09-03T11:04:41+0200</time>
      </trkpt>
      <trkpt lat="44.89275" lon="6.73697">
        <ele>2198.334221</ele>
        <time>2022-09-03T11:04:42+0200</time>
      </trkpt>
      <trkpt lat="44.8927" lon="6.73695">
        <ele>2197.751991</ele>
        <time>2022-09-03T11:04:43+0200</time>
      </trkpt>
      <trkpt lat="44.89264" lon="6.73693">
        <ele>2197.730195</ele>
        <time>2022-09-03T11:04:44+0200</time>
      </trkpt>
      <trkpt lat="44.89259" lon="6.73686">
        <ele>2199.156119</ele>
        <time>2022-09-03T11:04:46+0200</time>
      </trkpt>
      <trkpt lat="44.89255" lon="6.73684">
        <ele>2198.929203</ele>
        <time>2022-09-03T11:04:47+0200</time>
      </trkpt>
      <trkpt lat="44.89252" lon="6.73679">
        <ele>2199.03059</ele>
        <time>2022-09-03T11:04:50+0200</time>
      </trkpt>
      <trkpt lat="44.89247" lon="6.73676">
        <ele>2198.139554</ele>
        <time>2022-09-03T11:04:54+0200</time>
      </trkpt>
      <trkpt lat="44.89246" lon="6.73669">
        <ele>2197.047626</ele>
        <time>2022-09-03T11:04:57+0200</time>
      </trkpt>
      <trkpt lat="44.89247" lon="6.73662">
        <ele>2197.63766</ele>
        <time>2022-09-03T11:05:01+0200</time>
      </trkpt>
      <trkpt lat="44.89249" lon="6.73656">
        <ele>2198.441398</ele>
        <time>2022-09-03T11:05:04+0200</time>
      </trkpt>
      <trkpt lat="44.89249" lon="6.73647">
        <ele>2200.52513</ele>
        <time>2022-09-03T11:05:08+0200</time>
      </trkpt>
      <trkpt lat="44.89247" lon="6.7364">
        <ele>2199.165296</ele>
        <time>2022-09-03T11:05:13+0200</time>
      </trkpt>
      <trkpt lat="44.89247" lon="6.73631">
        <ele>2197.787796</ele>
        <time>2022-09-03T11:05:16+0200</time>
      </trkpt>
      <trkpt lat="44.89252" lon="6.73619">
        <ele>2197.733402</ele>
        <time>2022-09-03T11:05:18+0200</time>
      </trkpt>
      <trkpt lat="44.89249" lon="6.73611">
        <ele>2198.386558</ele>
        <time>2022-09-03T11:05:20+0200</time>
      </trkpt>
      <trkpt lat="44.89246" lon="6.73605">
        <ele>2199.145381</ele>
        <time>2022-09-03T11:05:23+0200</time>
      </trkpt>
      <trkpt lat="44.8924" lon="6.73602">
        <ele>2198.620967</ele>
        <time>2022-09-03T11:05:27+0200</time>
      </trkpt>
      <trkpt lat="44.89234" lon="6.73594">
        <ele>2197.232955</ele>
        <time>2022-09-03T11:05:29+0200</time>
      </trkpt>
      <trkpt lat="44.8923" lon="6.73589">
        <ele>2197.704384</ele>
        <time>2022-09-03T11:05:31+0200</time>
      </trkpt>
      <trkpt lat="44.89223" lon="6.7359">
        <ele>2198.054316</ele>
        <time>2022-09-03T11:05:33+0200</time>
      </trkpt>
      <trkpt lat="44.89218" lon="6.73586">
        <ele>2198.065047</ele>
        <time>2022-09-03T11:05:34+0200</time>
      </trkpt>
      <trkpt lat="44.89211" lon="6.73584">
        <ele>2197.163151</ele>
        <time>2022-09-03T11:05:36+0200</time>
      </trkpt>
      <trkpt lat="44.89205" lon="6.73581">
        <ele>2195.829587</ele>
        <time>2022-09-03T11:05:39+0200</time>
      </trkpt>
      <trkpt lat="44.89198" lon="6.73579">
        <ele>2194.320297</ele>
        <time>2022-09-03T11:05:41+0200</time>
      </trkpt>
      <trkpt lat="44.89193" lon="6.73577">
        <ele>2193.937267</ele>
        <time>2022-09-03T11:05:42+0200</time>
      </trkpt>
      <trkpt lat="44.89188" lon="6.73577">
        <ele>2193.685186</ele>
        <time>2022-09-03T11:05:43+0200</time>
      </trkpt>
      <trkpt lat="44.89183" lon="6.73573">
        <ele>2193.201977</ele>
        <time>2022-09-03T11:05:44+0200</time>
      </trkpt>
      <trkpt lat="44.89175" lon="6.73573">
        <ele>2192.607791</ele>
        <time>2022-09-03T11:05:46+0200</time>
      </trkpt>
      <trkpt lat="44.89168" lon="6.73572">
        <ele>2191.193453</ele>
        <time>2022-09-03T11:05:48+0200</time>
      </trkpt>
      <trkpt lat="44.89161" lon="6.73571">
        <ele>2190.009716</ele>
        <time>2022-09-03T11:05:50+0200</time>
      </trkpt>
      <trkpt lat="44.89155" lon="6.73571">
        <ele>2189.148191</ele>
        <time>2022-09-03T11:05:52+0200</time>
      </trkpt>
      <trkpt lat="44.89149" lon="6.73572">
        <ele>2188.123859</ele>
        <time>2022-09-03T11:05:53+0200</time>
      </trkpt>
      <trkpt lat="44.89144" lon="6.73573">
        <ele>2187.210268</ele>
        <time>2022-09-03T11:05:54+0200</time>
      </trkpt>
      <trkpt lat="44.89136" lon="6.73575">
        <ele>2186.768847</ele>
        <time>2022-09-03T11:05:56+0200</time>
      </trkpt>
      <trkpt lat="44.89129" lon="6.73579">
        <ele>2185.932736</ele>
        <time>2022-09-03T11:05:58+0200</time>
      </trkpt>
      <trkpt lat="44.89122" lon="6.73583">
        <ele>2183.966742</ele>
        <time>2022-09-03T11:06:01+0200</time>
      </trkpt>
      <trkpt lat="44.89116" lon="6.73584">
        <ele>2183.1144</ele>
        <time>2022-09-03T11:06:03+0200</time>
      </trkpt>
      <trkpt lat="44.89108" lon="6.73587">
        <ele>2181.937372</ele>
        <time>2022-09-03T11:06:05+0200</time>
      </trkpt>
      <trkpt lat="44.89098" lon="6.73591">
        <ele>2180.733621</ele>
        <time>2022-09-03T11:06:07+0200</time>
      </trkpt>
      <trkpt lat="44.89092" lon="6.73593">
        <ele>2179.860843</ele>
        <time>2022-09-03T11:06:08+0200</time>
      </trkpt>
      <trkpt lat="44.89087" lon="6.73597">
        <ele>2179.338593</ele>
        <time>2022-09-03T11:06:09+0200</time>
      </trkpt>
      <trkpt lat="44.89082" lon="6.73603">
        <ele>2178.644039</ele>
        <time>2022-09-03T11:06:10+0200</time>
      </trkpt>
      <trkpt lat="44.89078" lon="6.7361">
        <ele>2179.173751</ele>
        <time>2022-09-03T11:06:11+0200</time>
      </trkpt>
      <trkpt lat="44.89073" lon="6.73614">
        <ele>2178.960886</ele>
        <time>2022-09-03T11:06:12+0200</time>
      </trkpt>
      <trkpt lat="44.89068" lon="6.73618">
        <ele>2178.650291</ele>
        <time>2022-09-03T11:06:13+0200</time>
      </trkpt>
      <trkpt lat="44.89061" lon="6.73622">
        <ele>2178.128207</ele>
        <time>2022-09-03T11:06:14+0200</time>
      </trkpt>
      <trkpt lat="44.89055" lon="6.73626">
        <ele>2178.116889</ele>
        <time>2022-09-03T11:06:15+0200</time>
      </trkpt>
      <trkpt lat="44.89048" lon="6.73629">
        <ele>2178.437865</ele>
        <time>2022-09-03T11:06:16+0200</time>
      </trkpt>
      <trkpt lat="44.89042" lon="6.73633">
        <ele>2178.295875</ele>
        <time>2022-09-03T11:06:17+0200</time>
      </trkpt>
      <trkpt lat="44.89035" lon="6.73636">
        <ele>2177.824337</ele>
        <time>2022-09-03T11:06:18+0200</time>
      </trkpt>
      <trkpt lat="44.89028" lon="6.73639">
        <ele>2177.383971</ele>
        <time>2022-09-03T11:06:19+0200</time>
      </trkpt>
      <trkpt lat="44.89023" lon="6.73643">
        <ele>2177.931418</ele>
        <time>2022-09-03T11:06:20+0200</time>
      </trkpt>
      <trkpt lat="44.89019" lon="6.73645">
        <ele>2178.318672</ele>
        <time>2022-09-03T11:06:21+0200</time>
      </trkpt>
      <trkpt lat="44.89014" lon="6.73645">
        <ele>2178.267562</ele>
        <time>2022-09-03T11:06:22+0200</time>
      </trkpt>
      <trkpt lat="44.89009" lon="6.73647">
        <ele>2180.147103</ele>
        <time>2022-09-03T11:06:24+0200</time>
      </trkpt>
      <trkpt lat="44.89003" lon="6.73652">
        <ele>2181.502648</ele>
        <time>2022-09-03T11:06:26+0200</time>
      </trkpt>
      <trkpt lat="44.88997" lon="6.73656">
        <ele>2181.5551</ele>
        <time>2022-09-03T11:06:29+0200</time>
      </trkpt>
      <trkpt lat="44.88994" lon="6.73662">
        <ele>2177.94637</ele>
        <time>2022-09-03T11:06:32+0200</time>
      </trkpt>
      <trkpt lat="44.88989" lon="6.73664">
        <ele>2174.786685</ele>
        <time>2022-09-03T11:06:37+0200</time>
      </trkpt>
      <trkpt lat="44.88984" lon="6.73667">
        <ele>2171.179131</ele>
        <time>2022-09-03T11:06:52+0200</time>
      </trkpt>
      <trkpt lat="44.88979" lon="6.73665">
        <ele>2171.612186</ele>
        <time>2022-09-03T11:07:35+0200</time>
      </trkpt>
      <trkpt lat="44.88974" lon="6.73662">
        <ele>2171.760284</ele>
        <time>2022-09-03T11:07:37+0200</time>
      </trkpt>
      <trkpt lat="44.88968" lon="6.73657">
        <ele>2171.470202</ele>
        <time>2022-09-03T11:07:39+0200</time>
      </trkpt>
      <trkpt lat="44.88959" lon="6.73654">
        <ele>2170.688231</ele>
        <time>2022-09-03T11:07:41+0200</time>
      </trkpt>
      <trkpt lat="44.88954" lon="6.73652">
        <ele>2170.264451</ele>
        <time>2022-09-03T11:07:42+0200</time>
      </trkpt>
      <trkpt lat="44.88948" lon="6.73652">
        <ele>2169.522934</ele>
        <time>2022-09-03T11:07:43+0200</time>
      </trkpt>
      <trkpt lat="44.88942" lon="6.73648">
        <ele>2169.635559</ele>
        <time>2022-09-03T11:07:45+0200</time>
      </trkpt>
      <trkpt lat="44.88938" lon="6.73645">
        <ele>2170.211128</ele>
        <time>2022-09-03T11:07:48+0200</time>
      </trkpt>
      <trkpt lat="44.88933" lon="6.73643">
        <ele>2171.348147</ele>
        <time>2022-09-03T11:07:51+0200</time>
      </trkpt>
      <trkpt lat="44.88928" lon="6.73643">
        <ele>2171.869592</ele>
        <time>2022-09-03T11:07:53+0200</time>
      </trkpt>
      <trkpt lat="44.88922" lon="6.73642">
        <ele>2170.692287</ele>
        <time>2022-09-03T11:07:57+0200</time>
      </trkpt>
      <trkpt lat="44.88916" lon="6.73642">
        <ele>2169.182999</ele>
        <time>2022-09-03T11:07:59+0200</time>
      </trkpt>
      <trkpt lat="44.88911" lon="6.73641">
        <ele>2169.201473</ele>
        <time>2022-09-03T11:08:01+0200</time>
      </trkpt>
      <trkpt lat="44.88903" lon="6.7364">
        <ele>2169.672706</ele>
        <time>2022-09-03T11:08:04+0200</time>
      </trkpt>
      <trkpt lat="44.88894" lon="6.73638">
        <ele>2169.618671</ele>
        <time>2022-09-03T11:08:06+0200</time>
      </trkpt>
      <trkpt lat="44.88889" lon="6.73638">
        <ele>2168.930208</ele>
        <time>2022-09-03T11:08:07+0200</time>
      </trkpt>
      <trkpt lat="44.88884" lon="6.7364">
        <ele>2167.945673</ele>
        <time>2022-09-03T11:08:08+0200</time>
      </trkpt>
      <trkpt lat="44.88879" lon="6.73642">
        <ele>2166.749411</ele>
        <time>2022-09-03T11:08:09+0200</time>
      </trkpt>
      <trkpt lat="44.88874" lon="6.73642">
        <ele>2165.847778</ele>
        <time>2022-09-03T11:08:11+0200</time>
      </trkpt>
      <trkpt lat="44.88869" lon="6.7364">
        <ele>2164.537806</ele>
        <time>2022-09-03T11:08:14+0200</time>
      </trkpt>
      <trkpt lat="44.88865" lon="6.73637">
        <ele>2164.526671</ele>
        <time>2022-09-03T11:08:16+0200</time>
      </trkpt>
      <trkpt lat="44.88859" lon="6.73634">
        <ele>2164.287007</ele>
        <time>2022-09-03T11:08:18+0200</time>
      </trkpt>
      <trkpt lat="44.88854" lon="6.73628">
        <ele>2163.750229</ele>
        <time>2022-09-03T11:08:20+0200</time>
      </trkpt>
      <trkpt lat="44.88849" lon="6.73621">
        <ele>2164.067887</ele>
        <time>2022-09-03T11:08:22+0200</time>
      </trkpt>
      <trkpt lat="44.88843" lon="6.73614">
        <ele>2164.03865</ele>
        <time>2022-09-03T11:08:24+0200</time>
      </trkpt>
      <trkpt lat="44.88839" lon="6.73608">
        <ele>2164.635176</ele>
        <time>2022-09-03T11:08:26+0200</time>
      </trkpt>
      <trkpt lat="44.88834" lon="6.73601">
        <ele>2164.718575</ele>
        <time>2022-09-03T11:08:28+0200</time>
      </trkpt>
      <trkpt lat="44.88831" lon="6.73596">
        <ele>2164.306781</ele>
        <time>2022-09-03T11:08:30+0200</time>
      </trkpt>
      <trkpt lat="44.88827" lon="6.73587">
        <ele>2163.86451</ele>
        <time>2022-09-03T11:08:32+0200</time>
      </trkpt>
      <trkpt lat="44.88822" lon="6.73578">
        <ele>2163.062655</ele>
        <time>2022-09-03T11:08:34+0200</time>
      </trkpt>
      <trkpt lat="44.8882" lon="6.73571">
        <ele>2162.501359</ele>
        <time>2022-09-03T11:08:36+0200</time>
      </trkpt>
      <trkpt lat="44.88815" lon="6.73565">
        <ele>2161.117325</ele>
        <time>2022-09-03T11:08:39+0200</time>
      </trkpt>
      <trkpt lat="44.88812" lon="6.73559">
        <ele>2161.427605</ele>
        <time>2022-09-03T11:08:41+0200</time>
      </trkpt>
      <trkpt lat="44.8881" lon="6.73553">
        <ele>2161.093636</ele>
        <time>2022-09-03T11:08:44+0200</time>
      </trkpt>
      <trkpt lat="44.88809" lon="6.73547">
        <ele>2160.538359</ele>
        <time>2022-09-03T11:08:47+0200</time>
      </trkpt>
      <trkpt lat="44.88811" lon="6.73539">
        <ele>2161.248203</ele>
        <time>2022-09-03T11:08:50+0200</time>
      </trkpt>
      <trkpt lat="44.88812" lon="6.73532">
        <ele>2161.13701</ele>
        <time>2022-09-03T11:08:53+0200</time>
      </trkpt>
      <trkpt lat="44.88812" lon="6.73524">
        <ele>2162.182288</ele>
        <time>2022-09-03T11:08:56+0200</time>
      </trkpt>
      <trkpt lat="44.88813" lon="6.73516">
        <ele>2163.076796</ele>
        <time>2022-09-03T11:08:59+0200</time>
      </trkpt>
      <trkpt lat="44.88814" lon="6.73508">
        <ele>2164.396544</ele>
        <time>2022-09-03T11:09:03+0200</time>
      </trkpt>
      <trkpt lat="44.88814" lon="6.73499">
        <ele>2164.735944</ele>
        <time>2022-09-03T11:09:06+0200</time>
      </trkpt>
      <trkpt lat="44.88816" lon="6.73491">
        <ele>2164.731663</ele>
        <time>2022-09-03T11:09:09+0200</time>
      </trkpt>
      <trkpt lat="44.88818" lon="6.73483">
        <ele>2164.210726</ele>
        <time>2022-09-03T11:09:11+0200</time>
      </trkpt>
      <trkpt lat="44.88819" lon="6.73476">
        <ele>2164.19547</ele>
        <time>2022-09-03T11:09:13+0200</time>
      </trkpt>
      <trkpt lat="44.8882" lon="6.73468">
        <ele>2165.755206</ele>
        <time>2022-09-03T11:09:16+0200</time>
      </trkpt>
      <trkpt lat="44.88821" lon="6.73461">
        <ele>2166.983787</ele>
        <time>2022-09-03T11:09:19+0200</time>
      </trkpt>
      <trkpt lat="44.8882" lon="6.73453">
        <ele>2167.044123</ele>
        <time>2022-09-03T11:09:21+0200</time>
      </trkpt>
      <trkpt lat="44.88821" lon="6.73445">
        <ele>2166.552808</ele>
        <time>2022-09-03T11:09:23+0200</time>
      </trkpt>
      <trkpt lat="44.88822" lon="6.73436">
        <ele>2165.892673</ele>
        <time>2022-09-03T11:09:25+0200</time>
      </trkpt>
      <trkpt lat="44.88822" lon="6.73427">
        <ele>2166.294697</ele>
        <time>2022-09-03T11:09:27+0200</time>
      </trkpt>
      <trkpt lat="44.88822" lon="6.7342">
        <ele>2167.668558</ele>
        <time>2022-09-03T11:09:29+0200</time>
      </trkpt>
      <trkpt lat="44.88822" lon="6.73413">
        <ele>2169.682194</ele>
        <time>2022-09-03T11:09:31+0200</time>
      </trkpt>
      <trkpt lat="44.8882" lon="6.73406">
        <ele>2170.888283</ele>
        <time>2022-09-03T11:09:33+0200</time>
      </trkpt>
      <trkpt lat="44.88817" lon="6.73398">
        <ele>2171.049137</ele>
        <time>2022-09-03T11:09:35+0200</time>
      </trkpt>
      <trkpt lat="44.88815" lon="6.73392">
        <ele>2171.946701</ele>
        <time>2022-09-03T11:09:37+0200</time>
      </trkpt>
      <trkpt lat="44.88814" lon="6.73385">
        <ele>2171.88418</ele>
        <time>2022-09-03T11:09:39+0200</time>
      </trkpt>
      <trkpt lat="44.88811" lon="6.73379">
        <ele>2171.870613</ele>
        <time>2022-09-03T11:09:43+0200</time>
      </trkpt>
      <trkpt lat="44.88809" lon="6.73371">
        <ele>2172.441958</ele>
        <time>2022-09-03T11:09:46+0200</time>
      </trkpt>
      <trkpt lat="44.88807" lon="6.73364">
        <ele>2173.310789</ele>
        <time>2022-09-03T11:09:49+0200</time>
      </trkpt>
      <trkpt lat="44.88805" lon="6.73356">
        <ele>2174.916215</ele>
        <time>2022-09-03T11:09:53+0200</time>
      </trkpt>
      <trkpt lat="44.88806" lon="6.73348">
        <ele>2175.828642</ele>
        <time>2022-09-03T11:09:56+0200</time>
      </trkpt>
      <trkpt lat="44.88806" lon="6.73338">
        <ele>2176.668477</ele>
        <time>2022-09-03T11:09:59+0200</time>
      </trkpt>
      <trkpt lat="44.88807" lon="6.73331">
        <ele>2176.793361</ele>
        <time>2022-09-03T11:10:02+0200</time>
      </trkpt>
      <trkpt lat="44.88808" lon="6.73323">
        <ele>2176.481939</ele>
        <time>2022-09-03T11:10:05+0200</time>
      </trkpt>
      <trkpt lat="44.88808" lon="6.73314">
        <ele>2175.899663</ele>
        <time>2022-09-03T11:10:08+0200</time>
      </trkpt>
      <trkpt lat="44.88807" lon="6.73307">
        <ele>2175.477176</ele>
        <time>2022-09-03T11:10:10+0200</time>
      </trkpt>
      <trkpt lat="44.88809" lon="6.73299">
        <ele>2175.444957</ele>
        <time>2022-09-03T11:10:13+0200</time>
      </trkpt>
      <trkpt lat="44.8881" lon="6.7329">
        <ele>2176.081492</ele>
        <time>2022-09-03T11:10:16+0200</time>
      </trkpt>
      <trkpt lat="44.88812" lon="6.7328">
        <ele>2176.162114</ele>
        <time>2022-09-03T11:10:18+0200</time>
      </trkpt>
      <trkpt lat="44.88813" lon="6.73272">
        <ele>2175.945256</ele>
        <time>2022-09-03T11:10:20+0200</time>
      </trkpt>
      <trkpt lat="44.88814" lon="6.73263">
        <ele>2177.503669</ele>
        <time>2022-09-03T11:10:23+0200</time>
      </trkpt>
      <trkpt lat="44.88816" lon="6.73256">
        <ele>2178.594892</ele>
        <time>2022-09-03T11:10:25+0200</time>
      </trkpt>
      <trkpt lat="44.88817" lon="6.73249">
        <ele>2178.919313</ele>
        <time>2022-09-03T11:10:27+0200</time>
      </trkpt>
      <trkpt lat="44.88819" lon="6.73243">
        <ele>2178.798304</ele>
        <time>2022-09-03T11:10:29+0200</time>
      </trkpt>
      <trkpt lat="44.8882" lon="6.73235">
        <ele>2180.376287</ele>
        <time>2022-09-03T11:10:32+0200</time>
      </trkpt>
      <trkpt lat="44.88823" lon="6.73227">
        <ele>2182.081471</ele>
        <time>2022-09-03T11:10:35+0200</time>
      </trkpt>
      <trkpt lat="44.88825" lon="6.7322">
        <ele>2183.010456</ele>
        <time>2022-09-03T11:10:38+0200</time>
      </trkpt>
      <trkpt lat="44.88828" lon="6.73213">
        <ele>2182.821771</ele>
        <time>2022-09-03T11:10:40+0200</time>
      </trkpt>
      <trkpt lat="44.88831" lon="6.73206">
        <ele>2184.814411</ele>
        <time>2022-09-03T11:10:43+0200</time>
      </trkpt>
      <trkpt lat="44.88834" lon="6.73198">
        <ele>2185.093498</ele>
        <time>2022-09-03T11:10:46+0200</time>
      </trkpt>
      <trkpt lat="44.88838" lon="6.73191">
        <ele>2185.40479</ele>
        <time>2022-09-03T11:10:49+0200</time>
      </trkpt>
      <trkpt lat="44.88841" lon="6.73183">
        <ele>2186.791278</ele>
        <time>2022-09-03T11:10:52+0200</time>
      </trkpt>
      <trkpt lat="44.88843" lon="6.73177">
        <ele>2188.289795</ele>
        <time>2022-09-03T11:10:56+0200</time>
      </trkpt>
      <trkpt lat="44.88843" lon="6.73168">
        <ele>2188.252182</ele>
        <time>2022-09-03T11:11:00+0200</time>
      </trkpt>
      <trkpt lat="44.88842" lon="6.73161">
        <ele>2188.718977</ele>
        <time>2022-09-03T11:11:04+0200</time>
      </trkpt>
      <trkpt lat="44.88838" lon="6.73154">
        <ele>2188.916106</ele>
        <time>2022-09-03T11:11:08+0200</time>
      </trkpt>
      <trkpt lat="44.88837" lon="6.73145">
        <ele>2189.182192</ele>
        <time>2022-09-03T11:11:11+0200</time>
      </trkpt>
      <trkpt lat="44.88836" lon="6.73139">
        <ele>2189.240174</ele>
        <time>2022-09-03T11:11:13+0200</time>
      </trkpt>
      <trkpt lat="44.88835" lon="6.7313">
        <ele>2190.027028</ele>
        <time>2022-09-03T11:11:16+0200</time>
      </trkpt>
      <trkpt lat="44.88833" lon="6.73124">
        <ele>2190.487292</ele>
        <time>2022-09-03T11:11:18+0200</time>
      </trkpt>
      <trkpt lat="44.88831" lon="6.73117">
        <ele>2189.089179</ele>
        <time>2022-09-03T11:11:31+0200</time>
      </trkpt>
      <trkpt lat="44.88827" lon="6.73119">
        <ele>2188.237824</ele>
        <time>2022-09-03T11:14:25+0200</time>
      </trkpt>
      <trkpt lat="44.88822" lon="6.73121">
        <ele>2186.712372</ele>
        <time>2022-09-03T11:14:28+0200</time>
      </trkpt>
      <trkpt lat="44.88816" lon="6.73123">
        <ele>2185.332821</ele>
        <time>2022-09-03T11:14:30+0200</time>
      </trkpt>
      <trkpt lat="44.8881" lon="6.73127">
        <ele>2183.179089</ele>
        <time>2022-09-03T11:14:32+0200</time>
      </trkpt>
      <trkpt lat="44.88805" lon="6.73132">
        <ele>2182.199101</ele>
        <time>2022-09-03T11:14:34+0200</time>
      </trkpt>
      <trkpt lat="44.88798" lon="6.73135">
        <ele>2180.616529</ele>
        <time>2022-09-03T11:14:36+0200</time>
      </trkpt>
      <trkpt lat="44.88794" lon="6.73138">
        <ele>2180.104588</ele>
        <time>2022-09-03T11:14:37+0200</time>
      </trkpt>
      <trkpt lat="44.88785" lon="6.73139">
        <ele>2179.591474</ele>
        <time>2022-09-03T11:14:39+0200</time>
      </trkpt>
      <trkpt lat="44.88781" lon="6.73141">
        <ele>2179.125594</ele>
        <time>2022-09-03T11:14:40+0200</time>
      </trkpt>
      <trkpt lat="44.88777" lon="6.73144">
        <ele>2179.196156</ele>
        <time>2022-09-03T11:14:41+0200</time>
      </trkpt>
      <trkpt lat="44.88772" lon="6.73156">
        <ele>2179.288747</ele>
        <time>2022-09-03T11:14:43+0200</time>
      </trkpt>
      <trkpt lat="44.88771" lon="6.73163">
        <ele>2179.04734</ele>
        <time>2022-09-03T11:14:44+0200</time>
      </trkpt>
      <trkpt lat="44.8877" lon="6.73172">
        <ele>2177.841155</ele>
        <time>2022-09-03T11:14:45+0200</time>
      </trkpt>
      <trkpt lat="44.88768" lon="6.73178">
        <ele>2177.105891</ele>
        <time>2022-09-03T11:14:46+0200</time>
      </trkpt>
      <trkpt lat="44.88764" lon="6.73183">
        <ele>2176.655974</ele>
        <time>2022-09-03T11:14:47+0200</time>
      </trkpt>
      <trkpt lat="44.88761" lon="6.73189">
        <ele>2176.558611</ele>
        <time>2022-09-03T11:14:48+0200</time>
      </trkpt>
      <trkpt lat="44.88761" lon="6.73195">
        <ele>2176.614715</ele>
        <time>2022-09-03T11:14:49+0200</time>
      </trkpt>
      <trkpt lat="44.88756" lon="6.73199">
        <ele>2175.714989</ele>
        <time>2022-09-03T11:14:51+0200</time>
      </trkpt>
      <trkpt lat="44.88752" lon="6.73204">
        <ele>2175.649696</ele>
        <time>2022-09-03T11:14:52+0200</time>
      </trkpt>
      <trkpt lat="44.88748" lon="6.73211">
        <ele>2174.516602</ele>
        <time>2022-09-03T11:14:53+0200</time>
      </trkpt>
      <trkpt lat="44.88744" lon="6.73217">
        <ele>2173.287059</ele>
        <time>2022-09-03T11:14:54+0200</time>
      </trkpt>
      <trkpt lat="44.8874" lon="6.73222">
        <ele>2172.779223</ele>
        <time>2022-09-03T11:14:55+0200</time>
      </trkpt>
      <trkpt lat="44.88737" lon="6.73227">
        <ele>2172.384078</ele>
        <time>2022-09-03T11:14:56+0200</time>
      </trkpt>
      <trkpt lat="44.88732" lon="6.73237">
        <ele>2171.590879</ele>
        <time>2022-09-03T11:14:58+0200</time>
      </trkpt>
      <trkpt lat="44.88727" lon="6.73247">
        <ele>2170.048724</ele>
        <time>2022-09-03T11:15:00+0200</time>
      </trkpt>
      <trkpt lat="44.88723" lon="6.73252">
        <ele>2168.61894</ele>
        <time>2022-09-03T11:15:01+0200</time>
      </trkpt>
      <trkpt lat="44.88719" lon="6.73257">
        <ele>2167.002637</ele>
        <time>2022-09-03T11:15:02+0200</time>
      </trkpt>
      <trkpt lat="44.88713" lon="6.73261">
        <ele>2165.840403</ele>
        <time>2022-09-03T11:15:03+0200</time>
      </trkpt>
      <trkpt lat="44.88707" lon="6.73265">
        <ele>2164.668321</ele>
        <time>2022-09-03T11:15:04+0200</time>
      </trkpt>
      <trkpt lat="44.887" lon="6.73272">
        <ele>2163.398711</ele>
        <time>2022-09-03T11:15:05+0200</time>
      </trkpt>
      <trkpt lat="44.88695" lon="6.7328">
        <ele>2161.158158</ele>
        <time>2022-09-03T11:15:06+0200</time>
      </trkpt>
      <trkpt lat="44.88691" lon="6.73291">
        <ele>2159.430379</ele>
        <time>2022-09-03T11:15:07+0200</time>
      </trkpt>
      <trkpt lat="44.88688" lon="6.73303">
        <ele>2157.343617</ele>
        <time>2022-09-03T11:15:08+0200</time>
      </trkpt>
      <trkpt lat="44.88686" lon="6.73312">
        <ele>2156.456059</ele>
        <time>2022-09-03T11:15:09+0200</time>
      </trkpt>
      <trkpt lat="44.88682" lon="6.73319">
        <ele>2155.228945</ele>
        <time>2022-09-03T11:15:10+0200</time>
      </trkpt>
      <trkpt lat="44.88678" lon="6.73328">
        <ele>2153.876777</ele>
        <time>2022-09-03T11:15:11+0200</time>
      </trkpt>
      <trkpt lat="44.88675" lon="6.73335">
        <ele>2152.361816</ele>
        <time>2022-09-03T11:15:12+0200</time>
      </trkpt>
      <trkpt lat="44.88672" lon="6.73343">
        <ele>2151.301666</ele>
        <time>2022-09-03T11:15:13+0200</time>
      </trkpt>
      <trkpt lat="44.8867" lon="6.73352">
        <ele>2150.049054</ele>
        <time>2022-09-03T11:15:14+0200</time>
      </trkpt>
      <trkpt lat="44.88667" lon="6.7336">
        <ele>2149.68952</ele>
        <time>2022-09-03T11:15:15+0200</time>
      </trkpt>
      <trkpt lat="44.88661" lon="6.73364">
        <ele>2148.541599</ele>
        <time>2022-09-03T11:15:17+0200</time>
      </trkpt>
      <trkpt lat="44.88656" lon="6.73375">
        <ele>2147.738093</ele>
        <time>2022-09-03T11:15:19+0200</time>
      </trkpt>
      <trkpt lat="44.88656" lon="6.73382">
        <ele>2145.530057</ele>
        <time>2022-09-03T11:15:20+0200</time>
      </trkpt>
      <trkpt lat="44.88653" lon="6.73388">
        <ele>2145.250792</ele>
        <time>2022-09-03T11:15:21+0200</time>
      </trkpt>
      <trkpt lat="44.8865" lon="6.73399">
        <ele>2142.667059</ele>
        <time>2022-09-03T11:15:23+0200</time>
      </trkpt>
      <trkpt lat="44.88649" lon="6.73406">
        <ele>2141.251624</ele>
        <time>2022-09-03T11:15:24+0200</time>
      </trkpt>
      <trkpt lat="44.88648" lon="6.73414">
        <ele>2139.806093</ele>
        <time>2022-09-03T11:15:25+0200</time>
      </trkpt>
      <trkpt lat="44.88645" lon="6.73423">
        <ele>2139.054107</ele>
        <time>2022-09-03T11:15:26+0200</time>
      </trkpt>
      <trkpt lat="44.88643" lon="6.73431">
        <ele>2138.00093</ele>
        <time>2022-09-03T11:15:27+0200</time>
      </trkpt>
      <trkpt lat="44.88642" lon="6.73437">
        <ele>2137.356942</ele>
        <time>2022-09-03T11:15:28+0200</time>
      </trkpt>
      <trkpt lat="44.8864" lon="6.73446">
        <ele>2136.720306</ele>
        <time>2022-09-03T11:15:29+0200</time>
      </trkpt>
      <trkpt lat="44.88637" lon="6.73456">
        <ele>2136.022134</ele>
        <time>2022-09-03T11:15:30+0200</time>
      </trkpt>
      <trkpt lat="44.88633" lon="6.73466">
        <ele>2135.535988</ele>
        <time>2022-09-03T11:15:31+0200</time>
      </trkpt>
      <trkpt lat="44.8863" lon="6.73476">
        <ele>2134.698507</ele>
        <time>2022-09-03T11:15:32+0200</time>
      </trkpt>
      <trkpt lat="44.88627" lon="6.73483">
        <ele>2133.991627</ele>
        <time>2022-09-03T11:15:33+0200</time>
      </trkpt>
      <trkpt lat="44.88624" lon="6.73489">
        <ele>2134.399007</ele>
        <time>2022-09-03T11:15:34+0200</time>
      </trkpt>
      <trkpt lat="44.88621" lon="6.73496">
        <ele>2134.608227</ele>
        <time>2022-09-03T11:15:35+0200</time>
      </trkpt>
      <trkpt lat="44.88619" lon="6.73505">
        <ele>2134.199414</ele>
        <time>2022-09-03T11:15:36+0200</time>
      </trkpt>
      <trkpt lat="44.88616" lon="6.73511">
        <ele>2134.062591</ele>
        <time>2022-09-03T11:15:37+0200</time>
      </trkpt>
      <trkpt lat="44.88612" lon="6.73517">
        <ele>2134.549831</ele>
        <time>2022-09-03T11:15:38+0200</time>
      </trkpt>
      <trkpt lat="44.8861" lon="6.73523">
        <ele>2136.119608</ele>
        <time>2022-09-03T11:15:39+0200</time>
      </trkpt>
      <trkpt lat="44.88605" lon="6.73534">
        <ele>2139.566123</ele>
        <time>2022-09-03T11:15:41+0200</time>
      </trkpt>
      <trkpt lat="44.88601" lon="6.73538">
        <ele>2141.147358</ele>
        <time>2022-09-03T11:15:42+0200</time>
      </trkpt>
      <trkpt lat="44.88597" lon="6.73543">
        <ele>2142.459191</ele>
        <time>2022-09-03T11:15:43+0200</time>
      </trkpt>
      <trkpt lat="44.88595" lon="6.73548">
        <ele>2142.574584</ele>
        <time>2022-09-03T11:15:45+0200</time>
      </trkpt>
      <trkpt lat="44.88592" lon="6.73556">
        <ele>2140.219932</ele>
        <time>2022-09-03T11:15:47+0200</time>
      </trkpt>
      <trkpt lat="44.88587" lon="6.73566">
        <ele>2137.517419</ele>
        <time>2022-09-03T11:15:49+0200</time>
      </trkpt>
      <trkpt lat="44.88586" lon="6.73577">
        <ele>2136.64942</ele>
        <time>2022-09-03T11:15:51+0200</time>
      </trkpt>
      <trkpt lat="44.8858" lon="6.73586">
        <ele>2134.928004</ele>
        <time>2022-09-03T11:15:53+0200</time>
      </trkpt>
      <trkpt lat="44.88575" lon="6.73596">
        <ele>2133.076891</ele>
        <time>2022-09-03T11:15:55+0200</time>
      </trkpt>
      <trkpt lat="44.88572" lon="6.73606">
        <ele>2131.572702</ele>
        <time>2022-09-03T11:15:57+0200</time>
      </trkpt>
      <trkpt lat="44.88569" lon="6.73614">
        <ele>2130.811015</ele>
        <time>2022-09-03T11:15:58+0200</time>
      </trkpt>
      <trkpt lat="44.88567" lon="6.7362">
        <ele>2129.181875</ele>
        <time>2022-09-03T11:15:59+0200</time>
      </trkpt>
      <trkpt lat="44.88562" lon="6.73627">
        <ele>2127.282759</ele>
        <time>2022-09-03T11:16:01+0200</time>
      </trkpt>
      <trkpt lat="44.88554" lon="6.73633">
        <ele>2125.88021</ele>
        <time>2022-09-03T11:16:03+0200</time>
      </trkpt>
      <trkpt lat="44.88549" lon="6.73634">
        <ele>2124.847038</ele>
        <time>2022-09-03T11:16:04+0200</time>
      </trkpt>
      <trkpt lat="44.88544" lon="6.73636">
        <ele>2123.547742</ele>
        <time>2022-09-03T11:16:05+0200</time>
      </trkpt>
      <trkpt lat="44.88539" lon="6.73641">
        <ele>2123.01603</ele>
        <time>2022-09-03T11:16:06+0200</time>
      </trkpt>
      <trkpt lat="44.88534" lon="6.73645">
        <ele>2122.215329</ele>
        <time>2022-09-03T11:16:07+0200</time>
      </trkpt>
      <trkpt lat="44.88533" lon="6.73652">
        <ele>2113.698842</ele>
        <time>2022-09-03T11:16:17+0200</time>
      </trkpt>
      <trkpt lat="44.88531" lon="6.73658">
        <ele>2113.514966</ele>
        <time>2022-09-03T11:18:59+0200</time>
      </trkpt>
      <trkpt lat="44.88527" lon="6.7366">
        <ele>2113.464856</ele>
        <time>2022-09-03T11:19:02+0200</time>
      </trkpt>
      <trkpt lat="44.88521" lon="6.73665">
        <ele>2113.331052</ele>
        <time>2022-09-03T11:19:05+0200</time>
      </trkpt>
      <trkpt lat="44.88518" lon="6.73671">
        <ele>2115.029488</ele>
        <time>2022-09-03T11:19:07+0200</time>
      </trkpt>
      <trkpt lat="44.88514" lon="6.73675">
        <ele>2114.831367</ele>
        <time>2022-09-03T11:19:08+0200</time>
      </trkpt>
      <trkpt lat="44.8851" lon="6.73681">
        <ele>2113.786506</ele>
        <time>2022-09-03T11:19:09+0200</time>
      </trkpt>
      <trkpt lat="44.88504" lon="6.73685">
        <ele>2112.807199</ele>
        <time>2022-09-03T11:19:10+0200</time>
      </trkpt>
      <trkpt lat="44.88498" lon="6.73691">
        <ele>2112.627812</ele>
        <time>2022-09-03T11:19:12+0200</time>
      </trkpt>
      <trkpt lat="44.88496" lon="6.73698">
        <ele>2112.692776</ele>
        <time>2022-09-03T11:19:13+0200</time>
      </trkpt>
      <trkpt lat="44.88492" lon="6.73702">
        <ele>2112.633323</ele>
        <time>2022-09-03T11:19:14+0200</time>
      </trkpt>
      <trkpt lat="44.8849" lon="6.73708">
        <ele>2112.552704</ele>
        <time>2022-09-03T11:19:15+0200</time>
      </trkpt>
      <trkpt lat="44.88487" lon="6.73719">
        <ele>2111.411235</ele>
        <time>2022-09-03T11:19:17+0200</time>
      </trkpt>
      <trkpt lat="44.8849" lon="6.73731">
        <ele>2108.452667</ele>
        <time>2022-09-03T11:19:19+0200</time>
      </trkpt>
      <trkpt lat="44.88495" lon="6.73736">
        <ele>2105.518856</ele>
        <time>2022-09-03T11:19:20+0200</time>
      </trkpt>
      <trkpt lat="44.885" lon="6.73742">
        <ele>2103.20382</ele>
        <time>2022-09-03T11:19:21+0200</time>
      </trkpt>
      <trkpt lat="44.88506" lon="6.73744">
        <ele>2101.717153</ele>
        <time>2022-09-03T11:19:22+0200</time>
      </trkpt>
      <trkpt lat="44.88507" lon="6.73752">
        <ele>2099.620482</ele>
        <time>2022-09-03T11:19:24+0200</time>
      </trkpt>
      <trkpt lat="44.88503" lon="6.73759">
        <ele>2098.361718</ele>
        <time>2022-09-03T11:19:26+0200</time>
      </trkpt>
      <trkpt lat="44.88497" lon="6.73768">
        <ele>2097.510643</ele>
        <time>2022-09-03T11:19:28+0200</time>
      </trkpt>
      <trkpt lat="44.88493" lon="6.73771">
        <ele>2096.564735</ele>
        <time>2022-09-03T11:19:29+0200</time>
      </trkpt>
      <trkpt lat="44.88488" lon="6.73769">
        <ele>2095.389599</ele>
        <time>2022-09-03T11:19:30+0200</time>
      </trkpt>
      <trkpt lat="44.88482" lon="6.73771">
        <ele>2094.432463</ele>
        <time>2022-09-03T11:19:31+0200</time>
      </trkpt>
      <trkpt lat="44.88477" lon="6.73773">
        <ele>2093.243442</ele>
        <time>2022-09-03T11:19:32+0200</time>
      </trkpt>
      <trkpt lat="44.88473" lon="6.73776">
        <ele>2091.979176</ele>
        <time>2022-09-03T11:19:33+0200</time>
      </trkpt>
      <trkpt lat="44.88467" lon="6.73783">
        <ele>2090.082775</ele>
        <time>2022-09-03T11:19:35+0200</time>
      </trkpt>
      <trkpt lat="44.88463" lon="6.73787">
        <ele>2089.063191</ele>
        <time>2022-09-03T11:19:36+0200</time>
      </trkpt>
      <trkpt lat="44.8846" lon="6.73793">
        <ele>2088.54541</ele>
        <time>2022-09-03T11:19:37+0200</time>
      </trkpt>
      <trkpt lat="44.88455" lon="6.73796">
        <ele>2087.259653</ele>
        <time>2022-09-03T11:19:38+0200</time>
      </trkpt>
      <trkpt lat="44.88451" lon="6.738">
        <ele>2086.068653</ele>
        <time>2022-09-03T11:19:39+0200</time>
      </trkpt>
      <trkpt lat="44.88443" lon="6.73803">
        <ele>2081.922172</ele>
        <time>2022-09-03T11:19:41+0200</time>
      </trkpt>
      <trkpt lat="44.88439" lon="6.73808">
        <ele>2079.974471</ele>
        <time>2022-09-03T11:19:42+0200</time>
      </trkpt>
      <trkpt lat="44.88434" lon="6.73812">
        <ele>2078.950618</ele>
        <time>2022-09-03T11:19:43+0200</time>
      </trkpt>
      <trkpt lat="44.88429" lon="6.73817">
        <ele>2079.279191</ele>
        <time>2022-09-03T11:19:44+0200</time>
      </trkpt>
      <trkpt lat="44.88425" lon="6.73824">
        <ele>2078.290435</ele>
        <time>2022-09-03T11:19:45+0200</time>
      </trkpt>
      <trkpt lat="44.8842" lon="6.7383">
        <ele>2078.461769</ele>
        <time>2022-09-03T11:19:46+0200</time>
      </trkpt>
      <trkpt lat="44.88413" lon="6.73837">
        <ele>2077.196813</ele>
        <time>2022-09-03T11:19:47+0200</time>
      </trkpt>
      <trkpt lat="44.88405" lon="6.73845">
        <ele>2075.444248</ele>
        <time>2022-09-03T11:19:48+0200</time>
      </trkpt>
      <trkpt lat="44.88399" lon="6.73852">
        <ele>2074.156658</ele>
        <time>2022-09-03T11:19:49+0200</time>
      </trkpt>
      <trkpt lat="44.88391" lon="6.73855">
        <ele>2073.074949</ele>
        <time>2022-09-03T11:19:51+0200</time>
      </trkpt>
      <trkpt lat="44.88386" lon="6.7386">
        <ele>2072.628295</ele>
        <time>2022-09-03T11:19:53+0200</time>
      </trkpt>
      <trkpt lat="44.88378" lon="6.73862">
        <ele>2071.685901</ele>
        <time>2022-09-03T11:19:55+0200</time>
      </trkpt>
      <trkpt lat="44.88374" lon="6.73866">
        <ele>2071.712742</ele>
        <time>2022-09-03T11:19:56+0200</time>
      </trkpt>
      <trkpt lat="44.8837" lon="6.73868">
        <ele>2072.897795</ele>
        <time>2022-09-03T11:19:57+0200</time>
      </trkpt>
      <trkpt lat="44.88366" lon="6.73872">
        <ele>2074.06313</ele>
        <time>2022-09-03T11:19:58+0200</time>
      </trkpt>
      <trkpt lat="44.8836" lon="6.73873">
        <ele>2073.963036</ele>
        <time>2022-09-03T11:19:59+0200</time>
      </trkpt>
      <trkpt lat="44.88353" lon="6.73878">
        <ele>2071.838362</ele>
        <time>2022-09-03T11:20:01+0200</time>
      </trkpt>
      <trkpt lat="44.88348" lon="6.73882">
        <ele>2071.547998</ele>
        <time>2022-09-03T11:20:03+0200</time>
      </trkpt>
      <trkpt lat="44.88343" lon="6.73887">
        <ele>2070.057357</ele>
        <time>2022-09-03T11:20:04+0200</time>
      </trkpt>
      <trkpt lat="44.88338" lon="6.73889">
        <ele>2068.984892</ele>
        <time>2022-09-03T11:20:05+0200</time>
      </trkpt>
      <trkpt lat="44.88334" lon="6.73895">
        <ele>2067.810299</ele>
        <time>2022-09-03T11:20:06+0200</time>
      </trkpt>
      <trkpt lat="44.88328" lon="6.739">
        <ele>2067.553367</ele>
        <time>2022-09-03T11:20:07+0200</time>
      </trkpt>
      <trkpt lat="44.88323" lon="6.73902">
        <ele>2067.245953</ele>
        <time>2022-09-03T11:20:08+0200</time>
      </trkpt>
      <trkpt lat="44.88317" lon="6.73909">
        <ele>2065.675177</ele>
        <time>2022-09-03T11:20:09+0200</time>
      </trkpt>
      <trkpt lat="44.88309" lon="6.73911">
        <ele>2065.05947</ele>
        <time>2022-09-03T11:20:10+0200</time>
      </trkpt>
      <trkpt lat="44.88303" lon="6.73913">
        <ele>2063.455834</ele>
        <time>2022-09-03T11:20:11+0200</time>
      </trkpt>
      <trkpt lat="44.88295" lon="6.73921">
        <ele>2060.960287</ele>
        <time>2022-09-03T11:20:12+0200</time>
      </trkpt>
      <trkpt lat="44.88287" lon="6.73927">
        <ele>2058.918478</ele>
        <time>2022-09-03T11:20:13+0200</time>
      </trkpt>
      <trkpt lat="44.88279" lon="6.73933">
        <ele>2057.44394</ele>
        <time>2022-09-03T11:20:14+0200</time>
      </trkpt>
      <trkpt lat="44.88273" lon="6.7394">
        <ele>2056.130329</ele>
        <time>2022-09-03T11:20:15+0200</time>
      </trkpt>
      <trkpt lat="44.88267" lon="6.73945">
        <ele>2054.991981</ele>
        <time>2022-09-03T11:20:16+0200</time>
      </trkpt>
      <trkpt lat="44.8826" lon="6.73953">
        <ele>2053.443779</ele>
        <time>2022-09-03T11:20:17+0200</time>
      </trkpt>
      <trkpt lat="44.88254" lon="6.73961">
        <ele>2052.008285</ele>
        <time>2022-09-03T11:20:18+0200</time>
      </trkpt>
      <trkpt lat="44.8825" lon="6.73968">
        <ele>2050.600249</ele>
        <time>2022-09-03T11:20:19+0200</time>
      </trkpt>
      <trkpt lat="44.88246" lon="6.73978">
        <ele>2046.779534</ele>
        <time>2022-09-03T11:20:21+0200</time>
      </trkpt>
      <trkpt lat="44.88244" lon="6.73985">
        <ele>2045.426347</ele>
        <time>2022-09-03T11:20:22+0200</time>
      </trkpt>
      <trkpt lat="44.88243" lon="6.73993">
        <ele>2043.80695</ele>
        <time>2022-09-03T11:20:23+0200</time>
      </trkpt>
      <trkpt lat="44.88242" lon="6.74003">
        <ele>2042.505103</ele>
        <time>2022-09-03T11:20:24+0200</time>
      </trkpt>
      <trkpt lat="44.88239" lon="6.74008">
        <ele>2040.988981</ele>
        <time>2022-09-03T11:20:25+0200</time>
      </trkpt>
      <trkpt lat="44.88235" lon="6.74012">
        <ele>2039.562765</ele>
        <time>2022-09-03T11:20:26+0200</time>
      </trkpt>
      <trkpt lat="44.88231" lon="6.74019">
        <ele>2038.260703</ele>
        <time>2022-09-03T11:20:27+0200</time>
      </trkpt>
      <trkpt lat="44.88225" lon="6.74028">
        <ele>2036.244957</ele>
        <time>2022-09-03T11:20:28+0200</time>
      </trkpt>
      <trkpt lat="44.88218" lon="6.74035">
        <ele>2033.970433</ele>
        <time>2022-09-03T11:20:29+0200</time>
      </trkpt>
      <trkpt lat="44.88211" lon="6.74041">
        <ele>2032.28843</ele>
        <time>2022-09-03T11:20:30+0200</time>
      </trkpt>
      <trkpt lat="44.88207" lon="6.74047">
        <ele>2031.057201</ele>
        <time>2022-09-03T11:20:31+0200</time>
      </trkpt>
      <trkpt lat="44.88202" lon="6.74058">
        <ele>2028.872383</ele>
        <time>2022-09-03T11:20:33+0200</time>
      </trkpt>
      <trkpt lat="44.88201" lon="6.74065">
        <ele>2027.65447</ele>
        <time>2022-09-03T11:20:34+0200</time>
      </trkpt>
      <trkpt lat="44.88199" lon="6.74074">
        <ele>2026.901293</ele>
        <time>2022-09-03T11:20:35+0200</time>
      </trkpt>
      <trkpt lat="44.88198" lon="6.74082">
        <ele>2025.454586</ele>
        <time>2022-09-03T11:20:36+0200</time>
      </trkpt>
      <trkpt lat="44.88196" lon="6.7409">
        <ele>2023.300293</ele>
        <time>2022-09-03T11:20:38+0200</time>
      </trkpt>
      <trkpt lat="44.882" lon="6.74101">
        <ele>2020.923417</ele>
        <time>2022-09-03T11:20:40+0200</time>
      </trkpt>
      <trkpt lat="44.88204" lon="6.74109">
        <ele>2019.37072</ele>
        <time>2022-09-03T11:20:41+0200</time>
      </trkpt>
      <trkpt lat="44.88207" lon="6.74118">
        <ele>2018.417716</ele>
        <time>2022-09-03T11:20:42+0200</time>
      </trkpt>
      <trkpt lat="44.8821" lon="6.74125">
        <ele>2017.559631</ele>
        <time>2022-09-03T11:20:43+0200</time>
      </trkpt>
      <trkpt lat="44.88209" lon="6.74134">
        <ele>2016.584452</ele>
        <time>2022-09-03T11:20:44+0200</time>
      </trkpt>
      <trkpt lat="44.8821" lon="6.74143">
        <ele>2014.978554</ele>
        <time>2022-09-03T11:20:45+0200</time>
      </trkpt>
      <trkpt lat="44.88211" lon="6.74153">
        <ele>2013.497392</ele>
        <time>2022-09-03T11:20:46+0200</time>
      </trkpt>
      <trkpt lat="44.88211" lon="6.74162">
        <ele>2011.85565</ele>
        <time>2022-09-03T11:20:47+0200</time>
      </trkpt>
      <trkpt lat="44.88209" lon="6.7417">
        <ele>2009.638098</ele>
        <time>2022-09-03T11:20:48+0200</time>
      </trkpt>
      <trkpt lat="44.88208" lon="6.74176">
        <ele>2007.454264</ele>
        <time>2022-09-03T11:20:49+0200</time>
      </trkpt>
      <trkpt lat="44.88207" lon="6.74184">
        <ele>2006.16571</ele>
        <time>2022-09-03T11:20:50+0200</time>
      </trkpt>
      <trkpt lat="44.88204" lon="6.74193">
        <ele>2004.613338</ele>
        <time>2022-09-03T11:20:51+0200</time>
      </trkpt>
      <trkpt lat="44.88201" lon="6.74204">
        <ele>2003.019653</ele>
        <time>2022-09-03T11:20:52+0200</time>
      </trkpt>
      <trkpt lat="44.88199" lon="6.74217">
        <ele>2002.742422</ele>
        <time>2022-09-03T11:20:53+0200</time>
      </trkpt>
      <trkpt lat="44.88198" lon="6.74227">
        <ele>2000.605786</ele>
        <time>2022-09-03T11:20:54+0200</time>
      </trkpt>
      <trkpt lat="44.88195" lon="6.74234">
        <ele>1998.745846</ele>
        <time>2022-09-03T11:20:55+0200</time>
      </trkpt>
      <trkpt lat="44.88188" lon="6.7424">
        <ele>1996.32834</ele>
        <time>2022-09-03T11:20:57+0200</time>
      </trkpt>
      <trkpt lat="44.88183" lon="6.74241">
        <ele>1995.244623</ele>
        <time>2022-09-03T11:20:58+0200</time>
      </trkpt>
      <trkpt lat="44.8818" lon="6.74247">
        <ele>1994.068972</ele>
        <time>2022-09-03T11:21:00+0200</time>
      </trkpt>
      <trkpt lat="44.8818" lon="6.74259">
        <ele>1994.027958</ele>
        <time>2022-09-03T11:21:02+0200</time>
      </trkpt>
      <trkpt lat="44.88179" lon="6.74265">
        <ele>1993.948805</ele>
        <time>2022-09-03T11:21:03+0200</time>
      </trkpt>
      <trkpt lat="44.88177" lon="6.74271">
        <ele>1995.597288</ele>
        <time>2022-09-03T11:21:05+0200</time>
      </trkpt>
      <trkpt lat="44.88173" lon="6.74277">
        <ele>1996.742201</ele>
        <time>2022-09-03T11:21:07+0200</time>
      </trkpt>
      <trkpt lat="44.88169" lon="6.74282">
        <ele>1997.190693</ele>
        <time>2022-09-03T11:21:08+0200</time>
      </trkpt>
      <trkpt lat="44.88166" lon="6.74289">
        <ele>1997.308189</ele>
        <time>2022-09-03T11:21:09+0200</time>
      </trkpt>
      <trkpt lat="44.88163" lon="6.74295">
        <ele>1996.251269</ele>
        <time>2022-09-03T11:21:10+0200</time>
      </trkpt>
      <trkpt lat="44.88163" lon="6.74303">
        <ele>1993.917152</ele>
        <time>2022-09-03T11:21:12+0200</time>
      </trkpt>
      <trkpt lat="44.88165" lon="6.74309">
        <ele>1992.572852</ele>
        <time>2022-09-03T11:21:14+0200</time>
      </trkpt>
      <trkpt lat="44.88169" lon="6.74314">
        <ele>1991.34752</ele>
        <time>2022-09-03T11:21:15+0200</time>
      </trkpt>
      <trkpt lat="44.88167" lon="6.74325">
        <ele>1990.104538</ele>
        <time>2022-09-03T11:21:17+0200</time>
      </trkpt>
      <trkpt lat="44.88165" lon="6.74333">
        <ele>1989.036141</ele>
        <time>2022-09-03T11:21:19+0200</time>
      </trkpt>
      <trkpt lat="44.88166" lon="6.74342">
        <ele>1987.53586</ele>
        <time>2022-09-03T11:21:22+0200</time>
      </trkpt>
      <trkpt lat="44.8817" lon="6.7435">
        <ele>1985.17222</ele>
        <time>2022-09-03T11:21:24+0200</time>
      </trkpt>
      <trkpt lat="44.8817" lon="6.74359">
        <ele>1984.914193</ele>
        <time>2022-09-03T11:21:26+0200</time>
      </trkpt>
      <trkpt lat="44.88168" lon="6.74365">
        <ele>1984.348593</ele>
        <time>2022-09-03T11:21:27+0200</time>
      </trkpt>
      <trkpt lat="44.88166" lon="6.74371">
        <ele>1983.810555</ele>
        <time>2022-09-03T11:21:28+0200</time>
      </trkpt>
      <trkpt lat="44.88163" lon="6.74384">
        <ele>1981.38813</ele>
        <time>2022-09-03T11:21:30+0200</time>
      </trkpt>
      <trkpt lat="44.88162" lon="6.74393">
        <ele>1980.329894</ele>
        <time>2022-09-03T11:21:31+0200</time>
      </trkpt>
      <trkpt lat="44.88159" lon="6.74403">
        <ele>1979.277901</ele>
        <time>2022-09-03T11:21:32+0200</time>
      </trkpt>
      <trkpt lat="44.88157" lon="6.74412">
        <ele>1978.029912</ele>
        <time>2022-09-03T11:21:33+0200</time>
      </trkpt>
      <trkpt lat="44.88153" lon="6.7442">
        <ele>1976.757951</ele>
        <time>2022-09-03T11:21:34+0200</time>
      </trkpt>
      <trkpt lat="44.88149" lon="6.74431">
        <ele>1975.179739</ele>
        <time>2022-09-03T11:21:35+0200</time>
      </trkpt>
      <trkpt lat="44.88147" lon="6.74441">
        <ele>1973.566656</ele>
        <time>2022-09-03T11:21:36+0200</time>
      </trkpt>
      <trkpt lat="44.88144" lon="6.74449">
        <ele>1970.602053</ele>
        <time>2022-09-03T11:21:38+0200</time>
      </trkpt>
      <trkpt lat="44.88147" lon="6.74454">
        <ele>1967.437076</ele>
        <time>2022-09-03T11:21:47+0200</time>
      </trkpt>
      <trkpt lat="44.88142" lon="6.74454">
        <ele>1964.763232</ele>
        <time>2022-09-03T11:23:46+0200</time>
      </trkpt>
      <trkpt lat="44.88139" lon="6.7446">
        <ele>1965.911848</ele>
        <time>2022-09-03T11:23:48+0200</time>
      </trkpt>
      <trkpt lat="44.88135" lon="6.74464">
        <ele>1965.837627</ele>
        <time>2022-09-03T11:23:49+0200</time>
      </trkpt>
      <trkpt lat="44.8813" lon="6.7447">
        <ele>1964.958342</ele>
        <time>2022-09-03T11:23:50+0200</time>
      </trkpt>
      <trkpt lat="44.88127" lon="6.74476">
        <ele>1963.839008</ele>
        <time>2022-09-03T11:23:51+0200</time>
      </trkpt>
      <trkpt lat="44.88124" lon="6.74485">
        <ele>1963.098001</ele>
        <time>2022-09-03T11:23:52+0200</time>
      </trkpt>
      <trkpt lat="44.8812" lon="6.74495">
        <ele>1962.035166</ele>
        <time>2022-09-03T11:23:53+0200</time>
      </trkpt>
      <trkpt lat="44.88116" lon="6.74505">
        <ele>1960.948769</ele>
        <time>2022-09-03T11:23:54+0200</time>
      </trkpt>
      <trkpt lat="44.88113" lon="6.74511">
        <ele>1959.751358</ele>
        <time>2022-09-03T11:23:55+0200</time>
      </trkpt>
      <trkpt lat="44.8811" lon="6.74517">
        <ele>1958.322405</ele>
        <time>2022-09-03T11:23:56+0200</time>
      </trkpt>
      <trkpt lat="44.88107" lon="6.74526">
        <ele>1956.808477</ele>
        <time>2022-09-03T11:23:58+0200</time>
      </trkpt>
      <trkpt lat="44.88102" lon="6.74529">
        <ele>1955.748784</ele>
        <time>2022-09-03T11:23:59+0200</time>
      </trkpt>
      <trkpt lat="44.881" lon="6.74535">
        <ele>1954.167708</ele>
        <time>2022-09-03T11:24:00+0200</time>
      </trkpt>
      <trkpt lat="44.881" lon="6.74543">
        <ele>1952.821946</ele>
        <time>2022-09-03T11:24:01+0200</time>
      </trkpt>
      <trkpt lat="44.88099" lon="6.74553">
        <ele>1950.632421</ele>
        <time>2022-09-03T11:24:03+0200</time>
      </trkpt>
      <trkpt lat="44.88093" lon="6.74553">
        <ele>1948.107687</ele>
        <time>2022-09-03T11:24:06+0200</time>
      </trkpt>
      <trkpt lat="44.88091" lon="6.74562">
        <ele>1947.66606</ele>
        <time>2022-09-03T11:24:08+0200</time>
      </trkpt>
      <trkpt lat="44.88091" lon="6.7457">
        <ele>1946.628913</ele>
        <time>2022-09-03T11:24:09+0200</time>
      </trkpt>
      <trkpt lat="44.88093" lon="6.74577">
        <ele>1945.468955</ele>
        <time>2022-09-03T11:24:10+0200</time>
      </trkpt>
      <trkpt lat="44.88096" lon="6.74585">
        <ele>1943.697388</ele>
        <time>2022-09-03T11:24:11+0200</time>
      </trkpt>
      <trkpt lat="44.88099" lon="6.74591">
        <ele>1941.946871</ele>
        <time>2022-09-03T11:24:12+0200</time>
      </trkpt>
      <trkpt lat="44.88097" lon="6.74598">
        <ele>1941.288959</ele>
        <time>2022-09-03T11:24:13+0200</time>
      </trkpt>
      <trkpt lat="44.88094" lon="6.74603">
        <ele>1940.245536</ele>
        <time>2022-09-03T11:24:14+0200</time>
      </trkpt>
      <trkpt lat="44.88089" lon="6.74607">
        <ele>1939.382802</ele>
        <time>2022-09-03T11:24:15+0200</time>
      </trkpt>
      <trkpt lat="44.88083" lon="6.74611">
        <ele>1938.527941</ele>
        <time>2022-09-03T11:24:16+0200</time>
      </trkpt>
      <trkpt lat="44.88076" lon="6.74617">
        <ele>1937.919498</ele>
        <time>2022-09-03T11:24:17+0200</time>
      </trkpt>
      <trkpt lat="44.8807" lon="6.74622">
        <ele>1936.996232</ele>
        <time>2022-09-03T11:24:18+0200</time>
      </trkpt>
      <trkpt lat="44.88065" lon="6.74629">
        <ele>1936.392513</ele>
        <time>2022-09-03T11:24:19+0200</time>
      </trkpt>
      <trkpt lat="44.88058" lon="6.74633">
        <ele>1935.77289</ele>
        <time>2022-09-03T11:24:20+0200</time>
      </trkpt>
      <trkpt lat="44.8805" lon="6.74637">
        <ele>1934.612178</ele>
        <time>2022-09-03T11:24:21+0200</time>
      </trkpt>
      <trkpt lat="44.88043" lon="6.74645">
        <ele>1933.231691</ele>
        <time>2022-09-03T11:24:22+0200</time>
      </trkpt>
      <trkpt lat="44.88035" lon="6.74651">
        <ele>1931.698648</ele>
        <time>2022-09-03T11:24:23+0200</time>
      </trkpt>
      <trkpt lat="44.88025" lon="6.74653">
        <ele>1930.170026</ele>
        <time>2022-09-03T11:24:24+0200</time>
      </trkpt>
      <trkpt lat="44.88016" lon="6.74654">
        <ele>1928.034882</ele>
        <time>2022-09-03T11:24:25+0200</time>
      </trkpt>
      <trkpt lat="44.88004" lon="6.74656">
        <ele>1925.643276</ele>
        <time>2022-09-03T11:24:26+0200</time>
      </trkpt>
      <trkpt lat="44.87993" lon="6.74659">
        <ele>1923.399809</ele>
        <time>2022-09-03T11:24:27+0200</time>
      </trkpt>
      <trkpt lat="44.87982" lon="6.74659">
        <ele>1922.599017</ele>
        <time>2022-09-03T11:24:28+0200</time>
      </trkpt>
      <trkpt lat="44.87972" lon="6.74657">
        <ele>1921.136402</ele>
        <time>2022-09-03T11:24:29+0200</time>
      </trkpt>
      <trkpt lat="44.87962" lon="6.74653">
        <ele>1919.284192</ele>
        <time>2022-09-03T11:24:30+0200</time>
      </trkpt>
      <trkpt lat="44.87952" lon="6.74651">
        <ele>1918.16722</ele>
        <time>2022-09-03T11:24:31+0200</time>
      </trkpt>
      <trkpt lat="44.87942" lon="6.74648">
        <ele>1917.003799</ele>
        <time>2022-09-03T11:24:32+0200</time>
      </trkpt>
      <trkpt lat="44.87934" lon="6.74646">
        <ele>1914.892374</ele>
        <time>2022-09-03T11:24:33+0200</time>
      </trkpt>
      <trkpt lat="44.87926" lon="6.74644">
        <ele>1913.332045</ele>
        <time>2022-09-03T11:24:34+0200</time>
      </trkpt>
      <trkpt lat="44.87917" lon="6.74643">
        <ele>1912.032981</ele>
        <time>2022-09-03T11:24:35+0200</time>
      </trkpt>
      <trkpt lat="44.87907" lon="6.74643">
        <ele>1910.989964</ele>
        <time>2022-09-03T11:24:36+0200</time>
      </trkpt>
      <trkpt lat="44.87898" lon="6.74643">
        <ele>1909.407879</ele>
        <time>2022-09-03T11:24:37+0200</time>
      </trkpt>
      <trkpt lat="44.8789" lon="6.74642">
        <ele>1907.764892</ele>
        <time>2022-09-03T11:24:38+0200</time>
      </trkpt>
      <trkpt lat="44.87885" lon="6.7464">
        <ele>1906.52515</ele>
        <time>2022-09-03T11:24:39+0200</time>
      </trkpt>
      <trkpt lat="44.87878" lon="6.74635">
        <ele>1904.525694</ele>
        <time>2022-09-03T11:24:41+0200</time>
      </trkpt>
      <trkpt lat="44.8787" lon="6.74634">
        <ele>1902.394264</ele>
        <time>2022-09-03T11:24:43+0200</time>
      </trkpt>
      <trkpt lat="44.87862" lon="6.74637">
        <ele>1900.528772</ele>
        <time>2022-09-03T11:24:45+0200</time>
      </trkpt>
      <trkpt lat="44.87863" lon="6.7463">
        <ele>1897.76435</ele>
        <time>2022-09-03T11:24:49+0200</time>
      </trkpt>
      <trkpt lat="44.87869" lon="6.74623">
        <ele>1896.931835</ele>
        <time>2022-09-03T11:24:51+0200</time>
      </trkpt>
      <trkpt lat="44.87873" lon="6.7462">
        <ele>1896.466557</ele>
        <time>2022-09-03T11:24:54+0200</time>
      </trkpt>
      <trkpt lat="44.87866" lon="6.74616">
        <ele>1895.766021</ele>
        <time>2022-09-03T11:24:59+0200</time>
      </trkpt>
      <trkpt lat="44.87861" lon="6.74614">
        <ele>1895.134209</ele>
        <time>2022-09-03T11:25:00+0200</time>
      </trkpt>
      <trkpt lat="44.87856" lon="6.74613">
        <ele>1894.182035</ele>
        <time>2022-09-03T11:25:01+0200</time>
      </trkpt>
      <trkpt lat="44.8785" lon="6.74615">
        <ele>1892.639161</ele>
        <time>2022-09-03T11:25:03+0200</time>
      </trkpt>
      <trkpt lat="44.87845" lon="6.74607">
        <ele>1892.808861</ele>
        <time>2022-09-03T11:25:06+0200</time>
      </trkpt>
      <trkpt lat="44.8784" lon="6.74603">
        <ele>1892.267751</ele>
        <time>2022-09-03T11:25:08+0200</time>
      </trkpt>
      <trkpt lat="44.87834" lon="6.74594">
        <ele>1891.229304</ele>
        <time>2022-09-03T11:25:10+0200</time>
      </trkpt>
      <trkpt lat="44.8783" lon="6.74587">
        <ele>1888.96947</ele>
        <time>2022-09-03T11:25:11+0200</time>
      </trkpt>
      <trkpt lat="44.87829" lon="6.74578">
        <ele>1888.337229</ele>
        <time>2022-09-03T11:25:13+0200</time>
      </trkpt>
      <trkpt lat="44.87824" lon="6.74575">
        <ele>1888.191871</ele>
        <time>2022-09-03T11:25:38+0200</time>
      </trkpt>
      <trkpt lat="44.87826" lon="6.74567">
        <ele>1888.22648</ele>
        <time>2022-09-03T11:26:49+0200</time>
      </trkpt>
      <trkpt lat="44.87826" lon="6.7456">
        <ele>1888.649614</ele>
        <time>2022-09-03T11:26:53+0200</time>
      </trkpt>
      <trkpt lat="44.87826" lon="6.74553">
        <ele>1889.843693</ele>
        <time>2022-09-03T11:26:57+0200</time>
      </trkpt>
      <trkpt lat="44.87828" lon="6.74546">
        <ele>1890.26106</ele>
        <time>2022-09-03T11:26:59+0200</time>
      </trkpt>
      <trkpt lat="44.87829" lon="6.74537">
        <ele>1890.579787</ele>
        <time>2022-09-03T11:27:02+0200</time>
      </trkpt>
      <trkpt lat="44.87831" lon="6.74528">
        <ele>1890.893421</ele>
        <time>2022-09-03T11:27:04+0200</time>
      </trkpt>
      <trkpt lat="44.87833" lon="6.74517">
        <ele>1889.693774</ele>
        <time>2022-09-03T11:27:06+0200</time>
      </trkpt>
      <trkpt lat="44.87834" lon="6.74507">
        <ele>1890.162943</ele>
        <time>2022-09-03T11:27:08+0200</time>
      </trkpt>
      <trkpt lat="44.87835" lon="6.74496">
        <ele>1889.71989</ele>
        <time>2022-09-03T11:27:10+0200</time>
      </trkpt>
      <trkpt lat="44.87835" lon="6.74487">
        <ele>1889.124333</ele>
        <time>2022-09-03T11:27:12+0200</time>
      </trkpt>
      <trkpt lat="44.87837" lon="6.74478">
        <ele>1889.107645</ele>
        <time>2022-09-03T11:27:14+0200</time>
      </trkpt>
      <trkpt lat="44.87834" lon="6.74471">
        <ele>1888.033729</ele>
        <time>2022-09-03T11:27:16+0200</time>
      </trkpt>
      <trkpt lat="44.87834" lon="6.74463">
        <ele>1887.990302</ele>
        <time>2022-09-03T11:27:18+0200</time>
      </trkpt>
      <trkpt lat="44.87833" lon="6.74455">
        <ele>1887.844644</ele>
        <time>2022-09-03T11:27:35+0200</time>
      </trkpt>
      <trkpt lat="44.87831" lon="6.7445">
        <ele>1887.931427</ele>
        <time>2022-09-03T11:27:37+0200</time>
      </trkpt>
      <trkpt lat="44.87828" lon="6.74443">
        <ele>1886.539214</ele>
        <time>2022-09-03T11:27:39+0200</time>
      </trkpt>
      <trkpt lat="44.87826" lon="6.74433">
        <ele>1885.649835</ele>
        <time>2022-09-03T11:27:41+0200</time>
      </trkpt>
      <trkpt lat="44.87825" lon="6.74422">
        <ele>1884.546893</ele>
        <time>2022-09-03T11:27:43+0200</time>
      </trkpt>
      <trkpt lat="44.87825" lon="6.74415">
        <ele>1884.079246</ele>
        <time>2022-09-03T11:27:44+0200</time>
      </trkpt>
      <trkpt lat="44.87826" lon="6.74409">
        <ele>1884.029096</ele>
        <time>2022-09-03T11:27:45+0200</time>
      </trkpt>
      <trkpt lat="44.87827" lon="6.74401">
        <ele>1883.133652</ele>
        <time>2022-09-03T11:27:46+0200</time>
      </trkpt>
      <trkpt lat="44.87828" lon="6.74392">
        <ele>1882.137908</ele>
        <time>2022-09-03T11:27:47+0200</time>
      </trkpt>
      <trkpt lat="44.87828" lon="6.74383">
        <ele>1881.500756</ele>
        <time>2022-09-03T11:27:48+0200</time>
      </trkpt>
      <trkpt lat="44.87829" lon="6.74373">
        <ele>1881.097397</ele>
        <time>2022-09-03T11:27:49+0200</time>
      </trkpt>
      <trkpt lat="44.87829" lon="6.74363">
        <ele>1880.583245</ele>
        <time>2022-09-03T11:27:50+0200</time>
      </trkpt>
      <trkpt lat="44.87831" lon="6.74353">
        <ele>1879.840903</ele>
        <time>2022-09-03T11:27:51+0200</time>
      </trkpt>
      <trkpt lat="44.87832" lon="6.74343">
        <ele>1879.359768</ele>
        <time>2022-09-03T11:27:52+0200</time>
      </trkpt>
      <trkpt lat="44.87833" lon="6.74333">
        <ele>1878.976754</ele>
        <time>2022-09-03T11:27:53+0200</time>
      </trkpt>
      <trkpt lat="44.87834" lon="6.74323">
        <ele>1878.909391</ele>
        <time>2022-09-03T11:27:54+0200</time>
      </trkpt>
      <trkpt lat="44.87835" lon="6.74314">
        <ele>1878.926395</ele>
        <time>2022-09-03T11:27:55+0200</time>
      </trkpt>
      <trkpt lat="44.87835" lon="6.74303">
        <ele>1878.73615</ele>
        <time>2022-09-03T11:27:56+0200</time>
      </trkpt>
      <trkpt lat="44.87834" lon="6.74293">
        <ele>1878.422924</ele>
        <time>2022-09-03T11:27:57+0200</time>
      </trkpt>
      <trkpt lat="44.87833" lon="6.74281">
        <ele>1877.881827</ele>
        <time>2022-09-03T11:27:58+0200</time>
      </trkpt>
      <trkpt lat="44.8783" lon="6.74271">
        <ele>1877.063423</ele>
        <time>2022-09-03T11:27:59+0200</time>
      </trkpt>
      <trkpt lat="44.87827" lon="6.74261">
        <ele>1876.604478</ele>
        <time>2022-09-03T11:28:00+0200</time>
      </trkpt>
      <trkpt lat="44.87824" lon="6.74251">
        <ele>1875.862743</ele>
        <time>2022-09-03T11:28:01+0200</time>
      </trkpt>
      <trkpt lat="44.8782" lon="6.74242">
        <ele>1875.776521</ele>
        <time>2022-09-03T11:28:02+0200</time>
      </trkpt>
      <trkpt lat="44.87818" lon="6.74233">
        <ele>1875.636089</ele>
        <time>2022-09-03T11:28:03+0200</time>
      </trkpt>
      <trkpt lat="44.87816" lon="6.74224">
        <ele>1875.486386</ele>
        <time>2022-09-03T11:28:04+0200</time>
      </trkpt>
      <trkpt lat="44.87812" lon="6.74215">
        <ele>1875.39542</ele>
        <time>2022-09-03T11:28:05+0200</time>
      </trkpt>
      <trkpt lat="44.87809" lon="6.74206">
        <ele>1875.218646</ele>
        <time>2022-09-03T11:28:06+0200</time>
      </trkpt>
      <trkpt lat="44.87806" lon="6.74196">
        <ele>1874.567712</ele>
        <time>2022-09-03T11:28:07+0200</time>
      </trkpt>
      <trkpt lat="44.87803" lon="6.74188">
        <ele>1874.184758</ele>
        <time>2022-09-03T11:28:08+0200</time>
      </trkpt>
      <trkpt lat="44.87797" lon="6.7418">
        <ele>1873.960795</ele>
        <time>2022-09-03T11:28:09+0200</time>
      </trkpt>
      <trkpt lat="44.87789" lon="6.74173">
        <ele>1872.948094</ele>
        <time>2022-09-03T11:28:10+0200</time>
      </trkpt>
      <trkpt lat="44.8778" lon="6.74167">
        <ele>1872.355221</ele>
        <time>2022-09-03T11:28:11+0200</time>
      </trkpt>
      <trkpt lat="44.87772" lon="6.74162">
        <ele>1871.526608</ele>
        <time>2022-09-03T11:28:12+0200</time>
      </trkpt>
      <trkpt lat="44.87763" lon="6.74156">
        <ele>1870.402874</ele>
        <time>2022-09-03T11:28:13+0200</time>
      </trkpt>
      <trkpt lat="44.87755" lon="6.74151">
        <ele>1869.527571</ele>
        <time>2022-09-03T11:28:14+0200</time>
      </trkpt>
      <trkpt lat="44.87748" lon="6.74147">
        <ele>1868.148558</ele>
        <time>2022-09-03T11:28:15+0200</time>
      </trkpt>
      <trkpt lat="44.87741" lon="6.74143">
        <ele>1866.380967</ele>
        <time>2022-09-03T11:28:16+0200</time>
      </trkpt>
      <trkpt lat="44.87733" lon="6.7414">
        <ele>1864.437224</ele>
        <time>2022-09-03T11:28:17+0200</time>
      </trkpt>
      <trkpt lat="44.87723" lon="6.74136">
        <ele>1862.622193</ele>
        <time>2022-09-03T11:28:18+0200</time>
      </trkpt>
      <trkpt lat="44.87716" lon="6.74131">
        <ele>1861.603742</ele>
        <time>2022-09-03T11:28:19+0200</time>
      </trkpt>
      <trkpt lat="44.87709" lon="6.7413">
        <ele>1861.012893</ele>
        <time>2022-09-03T11:28:20+0200</time>
      </trkpt>
      <trkpt lat="44.87703" lon="6.74131">
        <ele>1860.238053</ele>
        <time>2022-09-03T11:28:21+0200</time>
      </trkpt>
      <trkpt lat="44.87696" lon="6.74135">
        <ele>1859.217353</ele>
        <time>2022-09-03T11:28:22+0200</time>
      </trkpt>
      <trkpt lat="44.87689" lon="6.74142">
        <ele>1858.016742</ele>
        <time>2022-09-03T11:28:23+0200</time>
      </trkpt>
      <trkpt lat="44.87685" lon="6.74148">
        <ele>1856.710801</ele>
        <time>2022-09-03T11:28:24+0200</time>
      </trkpt>
      <trkpt lat="44.87682" lon="6.74155">
        <ele>1855.485506</ele>
        <time>2022-09-03T11:28:25+0200</time>
      </trkpt>
      <trkpt lat="44.87681" lon="6.74163">
        <ele>1854.161115</ele>
        <time>2022-09-03T11:28:26+0200</time>
      </trkpt>
      <trkpt lat="44.87683" lon="6.74171">
        <ele>1853.070774</ele>
        <time>2022-09-03T11:28:27+0200</time>
      </trkpt>
      <trkpt lat="44.87687" lon="6.74177">
        <ele>1853.340869</ele>
        <time>2022-09-03T11:28:28+0200</time>
      </trkpt>
      <trkpt lat="44.87691" lon="6.74185">
        <ele>1853.238701</ele>
        <time>2022-09-03T11:28:29+0200</time>
      </trkpt>
      <trkpt lat="44.87693" lon="6.74192">
        <ele>1852.737962</ele>
        <time>2022-09-03T11:28:30+0200</time>
      </trkpt>
      <trkpt lat="44.87693" lon="6.74201">
        <ele>1851.93714</ele>
        <time>2022-09-03T11:28:31+0200</time>
      </trkpt>
      <trkpt lat="44.87688" lon="6.74211">
        <ele>1849.828865</ele>
        <time>2022-09-03T11:28:33+0200</time>
      </trkpt>
      <trkpt lat="44.87684" lon="6.74214">
        <ele>1848.705727</ele>
        <time>2022-09-03T11:28:34+0200</time>
      </trkpt>
      <trkpt lat="44.87678" lon="6.74215">
        <ele>1847.593515</ele>
        <time>2022-09-03T11:28:35+0200</time>
      </trkpt>
      <trkpt lat="44.87672" lon="6.74213">
        <ele>1846.579975</ele>
        <time>2022-09-03T11:28:36+0200</time>
      </trkpt>
      <trkpt lat="44.87666" lon="6.74209">
        <ele>1845.873296</ele>
        <time>2022-09-03T11:28:37+0200</time>
      </trkpt>
      <trkpt lat="44.87659" lon="6.74204">
        <ele>1845.133404</ele>
        <time>2022-09-03T11:28:38+0200</time>
      </trkpt>
      <trkpt lat="44.87652" lon="6.74199">
        <ele>1844.744448</ele>
        <time>2022-09-03T11:28:39+0200</time>
      </trkpt>
      <trkpt lat="44.87648" lon="6.74193">
        <ele>1844.229231</ele>
        <time>2022-09-03T11:28:40+0200</time>
      </trkpt>
      <trkpt lat="44.87645" lon="6.74187">
        <ele>1843.261346</ele>
        <time>2022-09-03T11:28:41+0200</time>
      </trkpt>
      <trkpt lat="44.87641" lon="6.7418">
        <ele>1842.300201</ele>
        <time>2022-09-03T11:28:42+0200</time>
      </trkpt>
      <trkpt lat="44.87638" lon="6.74174">
        <ele>1840.847862</ele>
        <time>2022-09-03T11:28:43+0200</time>
      </trkpt>
      <trkpt lat="44.87638" lon="6.74167">
        <ele>1839.697433</ele>
        <time>2022-09-03T11:28:44+0200</time>
      </trkpt>
      <trkpt lat="44.87637" lon="6.74159">
        <ele>1837.958564</ele>
        <time>2022-09-03T11:28:45+0200</time>
      </trkpt>
      <trkpt lat="44.87637" lon="6.74148">
        <ele>1836.53912</ele>
        <time>2022-09-03T11:28:46+0200</time>
      </trkpt>
      <trkpt lat="44.87638" lon="6.74137">
        <ele>1835.257651</ele>
        <time>2022-09-03T11:28:47+0200</time>
      </trkpt>
      <trkpt lat="44.87638" lon="6.74129">
        <ele>1834.256937</ele>
        <time>2022-09-03T11:28:48+0200</time>
      </trkpt>
      <trkpt lat="44.87637" lon="6.74121">
        <ele>1833.344699</ele>
        <time>2022-09-03T11:28:49+0200</time>
      </trkpt>
      <trkpt lat="44.87633" lon="6.74114">
        <ele>1832.041759</ele>
        <time>2022-09-03T11:28:50+0200</time>
      </trkpt>
      <trkpt lat="44.87629" lon="6.74109">
        <ele>1830.525984</ele>
        <time>2022-09-03T11:28:51+0200</time>
      </trkpt>
      <trkpt lat="44.87624" lon="6.74104">
        <ele>1829.246798</ele>
        <time>2022-09-03T11:28:52+0200</time>
      </trkpt>
      <trkpt lat="44.87621" lon="6.74098">
        <ele>1827.320109</ele>
        <time>2022-09-03T11:28:53+0200</time>
      </trkpt>
      <trkpt lat="44.87619" lon="6.74091">
        <ele>1825.548865</ele>
        <time>2022-09-03T11:28:54+0200</time>
      </trkpt>
      <trkpt lat="44.87619" lon="6.74082">
        <ele>1823.659344</ele>
        <time>2022-09-03T11:28:55+0200</time>
      </trkpt>
      <trkpt lat="44.87621" lon="6.74074">
        <ele>1822.795514</ele>
        <time>2022-09-03T11:28:56+0200</time>
      </trkpt>
      <trkpt lat="44.87623" lon="6.74066">
        <ele>1821.680932</ele>
        <time>2022-09-03T11:28:57+0200</time>
      </trkpt>
      <trkpt lat="44.87625" lon="6.74057">
        <ele>1820.48796</ele>
        <time>2022-09-03T11:28:58+0200</time>
      </trkpt>
      <trkpt lat="44.87627" lon="6.74046">
        <ele>1819.656358</ele>
        <time>2022-09-03T11:28:59+0200</time>
      </trkpt>
      <trkpt lat="44.87628" lon="6.74036">
        <ele>1819.305591</ele>
        <time>2022-09-03T11:29:00+0200</time>
      </trkpt>
      <trkpt lat="44.87628" lon="6.74027">
        <ele>1818.606319</ele>
        <time>2022-09-03T11:29:01+0200</time>
      </trkpt>
      <trkpt lat="44.87628" lon="6.74018">
        <ele>1817.816394</ele>
        <time>2022-09-03T11:29:02+0200</time>
      </trkpt>
      <trkpt lat="44.87628" lon="6.74007">
        <ele>1816.371542</ele>
        <time>2022-09-03T11:29:03+0200</time>
      </trkpt>
      <trkpt lat="44.87626" lon="6.73996">
        <ele>1815.697422</ele>
        <time>2022-09-03T11:29:04+0200</time>
      </trkpt>
      <trkpt lat="44.87623" lon="6.73985">
        <ele>1815.108613</ele>
        <time>2022-09-03T11:29:05+0200</time>
      </trkpt>
      <trkpt lat="44.87618" lon="6.73972">
        <ele>1814.668431</ele>
        <time>2022-09-03T11:29:06+0200</time>
      </trkpt>
      <trkpt lat="44.87613" lon="6.73961">
        <ele>1814.134153</ele>
        <time>2022-09-03T11:29:07+0200</time>
      </trkpt>
      <trkpt lat="44.87608" lon="6.7395">
        <ele>1813.833143</ele>
        <time>2022-09-03T11:29:08+0200</time>
      </trkpt>
      <trkpt lat="44.87603" lon="6.73941">
        <ele>1812.675721</ele>
        <time>2022-09-03T11:29:09+0200</time>
      </trkpt>
      <trkpt lat="44.87601" lon="6.73935">
        <ele>1811.324125</ele>
        <time>2022-09-03T11:29:10+0200</time>
      </trkpt>
      <trkpt lat="44.87597" lon="6.73931">
        <ele>1809.448097</ele>
        <time>2022-09-03T11:29:13+0200</time>
      </trkpt>
      <trkpt lat="44.87594" lon="6.7394">
        <ele>1808.880274</ele>
        <time>2022-09-03T11:29:15+0200</time>
      </trkpt>
      <trkpt lat="44.87594" lon="6.73946">
        <ele>1808.439773</ele>
        <time>2022-09-03T11:29:16+0200</time>
      </trkpt>
      <trkpt lat="44.87596" lon="6.73953">
        <ele>1807.642763</ele>
        <time>2022-09-03T11:29:17+0200</time>
      </trkpt>
      <trkpt lat="44.87598" lon="6.73959">
        <ele>1807.475251</ele>
        <time>2022-09-03T11:29:18+0200</time>
      </trkpt>
      <trkpt lat="44.876" lon="6.73965">
        <ele>1807.222465</ele>
        <time>2022-09-03T11:29:19+0200</time>
      </trkpt>
      <trkpt lat="44.87603" lon="6.73971">
        <ele>1807.825776</ele>
        <time>2022-09-03T11:29:20+0200</time>
      </trkpt>
      <trkpt lat="44.87603" lon="6.73978">
        <ele>1808.030462</ele>
        <time>2022-09-03T11:29:21+0200</time>
      </trkpt>
      <trkpt lat="44.87602" lon="6.73986">
        <ele>1808.254585</ele>
        <time>2022-09-03T11:29:22+0200</time>
      </trkpt>
      <trkpt lat="44.876" lon="6.73994">
        <ele>1807.344502</ele>
        <time>2022-09-03T11:29:23+0200</time>
      </trkpt>
      <trkpt lat="44.87598" lon="6.74001">
        <ele>1806.510108</ele>
        <time>2022-09-03T11:29:24+0200</time>
      </trkpt>
      <trkpt lat="44.87594" lon="6.74007">
        <ele>1805.567459</ele>
        <time>2022-09-03T11:29:25+0200</time>
      </trkpt>
      <trkpt lat="44.87589" lon="6.74011">
        <ele>1804.513456</ele>
        <time>2022-09-03T11:29:26+0200</time>
      </trkpt>
      <trkpt lat="44.87582" lon="6.74016">
        <ele>1803.854043</ele>
        <time>2022-09-03T11:29:27+0200</time>
      </trkpt>
      <trkpt lat="44.87576" lon="6.74018">
        <ele>1803.240863</ele>
        <time>2022-09-03T11:29:28+0200</time>
      </trkpt>
      <trkpt lat="44.87571" lon="6.74021">
        <ele>1802.43009</ele>
        <time>2022-09-03T11:29:29+0200</time>
      </trkpt>
      <trkpt lat="44.87566" lon="6.74021">
        <ele>1801.554096</ele>
        <time>2022-09-03T11:29:30+0200</time>
      </trkpt>
      <trkpt lat="44.8756" lon="6.7402">
        <ele>1800.943667</ele>
        <time>2022-09-03T11:29:31+0200</time>
      </trkpt>
      <trkpt lat="44.87556" lon="6.74012">
        <ele>1799.8006</ele>
        <time>2022-09-03T11:29:32+0200</time>
      </trkpt>
      <trkpt lat="44.87552" lon="6.74006">
        <ele>1798.535737</ele>
        <time>2022-09-03T11:29:33+0200</time>
      </trkpt>
      <trkpt lat="44.87549" lon="6.73999">
        <ele>1797.502446</ele>
        <time>2022-09-03T11:29:34+0200</time>
      </trkpt>
      <trkpt lat="44.87547" lon="6.73993">
        <ele>1796.281047</ele>
        <time>2022-09-03T11:29:35+0200</time>
      </trkpt>
      <trkpt lat="44.87543" lon="6.73987">
        <ele>1795.307653</ele>
        <time>2022-09-03T11:29:36+0200</time>
      </trkpt>
      <trkpt lat="44.8754" lon="6.73982">
        <ele>1794.20131</ele>
        <time>2022-09-03T11:29:37+0200</time>
      </trkpt>
      <trkpt lat="44.87536" lon="6.73978">
        <ele>1793.143161</ele>
        <time>2022-09-03T11:29:38+0200</time>
      </trkpt>
      <trkpt lat="44.87531" lon="6.73975">
        <ele>1791.894768</ele>
        <time>2022-09-03T11:29:39+0200</time>
      </trkpt>
      <trkpt lat="44.87525" lon="6.73972">
        <ele>1790.708258</ele>
        <time>2022-09-03T11:29:40+0200</time>
      </trkpt>
      <trkpt lat="44.87517" lon="6.73969">
        <ele>1788.742819</ele>
        <time>2022-09-03T11:29:41+0200</time>
      </trkpt>
      <trkpt lat="44.87509" lon="6.73966">
        <ele>1787.48307</ele>
        <time>2022-09-03T11:29:42+0200</time>
      </trkpt>
      <trkpt lat="44.87501" lon="6.73963">
        <ele>1786.490838</ele>
        <time>2022-09-03T11:29:43+0200</time>
      </trkpt>
      <trkpt lat="44.87491" lon="6.7396">
        <ele>1785.431636</ele>
        <time>2022-09-03T11:29:44+0200</time>
      </trkpt>
      <trkpt lat="44.87483" lon="6.73957">
        <ele>1784.328693</ele>
        <time>2022-09-03T11:29:45+0200</time>
      </trkpt>
      <trkpt lat="44.87476" lon="6.73957">
        <ele>1782.85954</ele>
        <time>2022-09-03T11:29:46+0200</time>
      </trkpt>
      <trkpt lat="44.87471" lon="6.73958">
        <ele>1781.127918</ele>
        <time>2022-09-03T11:29:47+0200</time>
      </trkpt>
      <trkpt lat="44.87465" lon="6.73958">
        <ele>1779.312272</ele>
        <time>2022-09-03T11:29:48+0200</time>
      </trkpt>
      <trkpt lat="44.87459" lon="6.73959">
        <ele>1777.641449</ele>
        <time>2022-09-03T11:29:49+0200</time>
      </trkpt>
      <trkpt lat="44.87454" lon="6.73961">
        <ele>1776.150032</ele>
        <time>2022-09-03T11:29:50+0200</time>
      </trkpt>
      <trkpt lat="44.87448" lon="6.73964">
        <ele>1775.242437</ele>
        <time>2022-09-03T11:29:51+0200</time>
      </trkpt>
      <trkpt lat="44.87441" lon="6.73967">
        <ele>1774.215308</ele>
        <time>2022-09-03T11:29:52+0200</time>
      </trkpt>
      <trkpt lat="44.87434" lon="6.73971">
        <ele>1773.404388</ele>
        <time>2022-09-03T11:29:53+0200</time>
      </trkpt>
      <trkpt lat="44.87428" lon="6.73973">
        <ele>1772.06237</ele>
        <time>2022-09-03T11:29:54+0200</time>
      </trkpt>
      <trkpt lat="44.8742" lon="6.73974">
        <ele>1770.930098</ele>
        <time>2022-09-03T11:29:55+0200</time>
      </trkpt>
      <trkpt lat="44.87413" lon="6.73973">
        <ele>1769.68202</ele>
        <time>2022-09-03T11:29:56+0200</time>
      </trkpt>
      <trkpt lat="44.87406" lon="6.7397">
        <ele>1768.285762</ele>
        <time>2022-09-03T11:29:57+0200</time>
      </trkpt>
      <trkpt lat="44.87398" lon="6.73966">
        <ele>1766.378762</ele>
        <time>2022-09-03T11:29:58+0200</time>
      </trkpt>
      <trkpt lat="44.87388" lon="6.73959">
        <ele>1764.630543</ele>
        <time>2022-09-03T11:29:59+0200</time>
      </trkpt>
      <trkpt lat="44.8738" lon="6.73949">
        <ele>1762.955567</ele>
        <time>2022-09-03T11:30:00+0200</time>
      </trkpt>
      <trkpt lat="44.87372" lon="6.73939">
        <ele>1761.500796</ele>
        <time>2022-09-03T11:30:01+0200</time>
      </trkpt>
      <trkpt lat="44.87368" lon="6.73925">
        <ele>1760.962699</ele>
        <time>2022-09-03T11:30:02+0200</time>
      </trkpt>
      <trkpt lat="44.87365" lon="6.73912">
        <ele>1760.547082</ele>
        <time>2022-09-03T11:30:03+0200</time>
      </trkpt>
      <trkpt lat="44.87364" lon="6.73898">
        <ele>1760.584037</ele>
        <time>2022-09-03T11:30:04+0200</time>
      </trkpt>
      <trkpt lat="44.87365" lon="6.73885">
        <ele>1759.334847</ele>
        <time>2022-09-03T11:30:05+0200</time>
      </trkpt>
      <trkpt lat="44.87365" lon="6.73872">
        <ele>1758.034778</ele>
        <time>2022-09-03T11:30:06+0200</time>
      </trkpt>
      <trkpt lat="44.87366" lon="6.73856">
        <ele>1757.893952</ele>
        <time>2022-09-03T11:30:07+0200</time>
      </trkpt>
      <trkpt lat="44.87367" lon="6.73842">
        <ele>1757.524093</ele>
        <time>2022-09-03T11:30:08+0200</time>
      </trkpt>
      <trkpt lat="44.87367" lon="6.7383">
        <ele>1757.063976</ele>
        <time>2022-09-03T11:30:09+0200</time>
      </trkpt>
      <trkpt lat="44.87368" lon="6.73817">
        <ele>1757.659801</ele>
        <time>2022-09-03T11:30:10+0200</time>
      </trkpt>
      <trkpt lat="44.87369" lon="6.73802">
        <ele>1758.441792</ele>
        <time>2022-09-03T11:30:11+0200</time>
      </trkpt>
      <trkpt lat="44.87369" lon="6.73789">
        <ele>1758.139167</ele>
        <time>2022-09-03T11:30:12+0200</time>
      </trkpt>
      <trkpt lat="44.87372" lon="6.73777">
        <ele>1758.837371</ele>
        <time>2022-09-03T11:30:13+0200</time>
      </trkpt>
      <trkpt lat="44.87371" lon="6.73765">
        <ele>1758.951268</ele>
        <time>2022-09-03T11:30:14+0200</time>
      </trkpt>
      <trkpt lat="44.87367" lon="6.73754">
        <ele>1759.047283</ele>
        <time>2022-09-03T11:30:15+0200</time>
      </trkpt>
      <trkpt lat="44.87364" lon="6.73745">
        <ele>1759.689966</ele>
        <time>2022-09-03T11:30:16+0200</time>
      </trkpt>
      <trkpt lat="44.87363" lon="6.73735">
        <ele>1760.396108</ele>
        <time>2022-09-03T11:30:17+0200</time>
      </trkpt>
      <trkpt lat="44.87362" lon="6.73725">
        <ele>1760.374553</ele>
        <time>2022-09-03T11:30:18+0200</time>
      </trkpt>
      <trkpt lat="44.87363" lon="6.73714">
        <ele>1760.018995</ele>
        <time>2022-09-03T11:30:19+0200</time>
      </trkpt>
      <trkpt lat="44.87363" lon="6.73703">
        <ele>1759.487933</ele>
        <time>2022-09-03T11:30:20+0200</time>
      </trkpt>
      <trkpt lat="44.87363" lon="6.73693">
        <ele>1759.043755</ele>
        <time>2022-09-03T11:30:21+0200</time>
      </trkpt>
      <trkpt lat="44.87363" lon="6.73681">
        <ele>1758.313773</ele>
        <time>2022-09-03T11:30:22+0200</time>
      </trkpt>
      <trkpt lat="44.87363" lon="6.73669">
        <ele>1757.163676</ele>
        <time>2022-09-03T11:30:23+0200</time>
      </trkpt>
      <trkpt lat="44.87363" lon="6.73659">
        <ele>1755.675809</ele>
        <time>2022-09-03T11:30:24+0200</time>
      </trkpt>
      <trkpt lat="44.87361" lon="6.73651">
        <ele>1754.160871</ele>
        <time>2022-09-03T11:30:25+0200</time>
      </trkpt>
      <trkpt lat="44.87357" lon="6.73642">
        <ele>1752.786348</ele>
        <time>2022-09-03T11:30:26+0200</time>
      </trkpt>
      <trkpt lat="44.87352" lon="6.73634">
        <ele>1751.771418</ele>
        <time>2022-09-03T11:30:27+0200</time>
      </trkpt>
      <trkpt lat="44.87347" lon="6.73627">
        <ele>1750.817719</ele>
        <time>2022-09-03T11:30:28+0200</time>
      </trkpt>
      <trkpt lat="44.87343" lon="6.73619">
        <ele>1751.104479</ele>
        <time>2022-09-03T11:30:29+0200</time>
      </trkpt>
      <trkpt lat="44.87338" lon="6.7361">
        <ele>1750.961899</ele>
        <time>2022-09-03T11:30:30+0200</time>
      </trkpt>
      <trkpt lat="44.87335" lon="6.73599">
        <ele>1750.735987</ele>
        <time>2022-09-03T11:30:31+0200</time>
      </trkpt>
      <trkpt lat="44.87331" lon="6.73589">
        <ele>1750.671221</ele>
        <time>2022-09-03T11:30:32+0200</time>
      </trkpt>
      <trkpt lat="44.87327" lon="6.73579">
        <ele>1750.215525</ele>
        <time>2022-09-03T11:30:33+0200</time>
      </trkpt>
      <trkpt lat="44.87324" lon="6.73568">
        <ele>1749.625128</ele>
        <time>2022-09-03T11:30:34+0200</time>
      </trkpt>
      <trkpt lat="44.87322" lon="6.73557">
        <ele>1748.805513</ele>
        <time>2022-09-03T11:30:35+0200</time>
      </trkpt>
      <trkpt lat="44.8732" lon="6.73548">
        <ele>1748.164994</ele>
        <time>2022-09-03T11:30:36+0200</time>
      </trkpt>
      <trkpt lat="44.87319" lon="6.73539">
        <ele>1747.61577</ele>
        <time>2022-09-03T11:30:37+0200</time>
      </trkpt>
      <trkpt lat="44.87318" lon="6.73532">
        <ele>1746.967761</ele>
        <time>2022-09-03T11:30:38+0200</time>
      </trkpt>
      <trkpt lat="44.87318" lon="6.73523">
        <ele>1746.271483</ele>
        <time>2022-09-03T11:30:39+0200</time>
      </trkpt>
      <trkpt lat="44.87318" lon="6.73514">
        <ele>1745.332912</ele>
        <time>2022-09-03T11:30:40+0200</time>
      </trkpt>
      <trkpt lat="44.8732" lon="6.73507">
        <ele>1744.205647</ele>
        <time>2022-09-03T11:30:41+0200</time>
      </trkpt>
      <trkpt lat="44.87326" lon="6.73502">
        <ele>1742.576363</ele>
        <time>2022-09-03T11:30:43+0200</time>
      </trkpt>
      <trkpt lat="44.87331" lon="6.73503">
        <ele>1741.454101</ele>
        <time>2022-09-03T11:30:44+0200</time>
      </trkpt>
      <trkpt lat="44.87335" lon="6.73507">
        <ele>1740.315903</ele>
        <time>2022-09-03T11:30:45+0200</time>
      </trkpt>
      <trkpt lat="44.87339" lon="6.73512">
        <ele>1739.716881</ele>
        <time>2022-09-03T11:30:46+0200</time>
      </trkpt>
      <trkpt lat="44.87342" lon="6.73521">
        <ele>1738.816978</ele>
        <time>2022-09-03T11:30:47+0200</time>
      </trkpt>
      <trkpt lat="44.87346" lon="6.7353">
        <ele>1736.627731</ele>
        <time>2022-09-03T11:30:48+0200</time>
      </trkpt>
      <trkpt lat="44.87352" lon="6.73539">
        <ele>1735.207198</ele>
        <time>2022-09-03T11:30:49+0200</time>
      </trkpt>
      <trkpt lat="44.87357" lon="6.73551">
        <ele>1734.559951</ele>
        <time>2022-09-03T11:30:50+0200</time>
      </trkpt>
      <trkpt lat="44.87362" lon="6.73563">
        <ele>1733.35206</ele>
        <time>2022-09-03T11:30:51+0200</time>
      </trkpt>
      <trkpt lat="44.87366" lon="6.73574">
        <ele>1732.343389</ele>
        <time>2022-09-03T11:30:52+0200</time>
      </trkpt>
      <trkpt lat="44.8737" lon="6.73582">
        <ele>1731.555613</ele>
        <time>2022-09-03T11:30:53+0200</time>
      </trkpt>
      <trkpt lat="44.87374" lon="6.73588">
        <ele>1730.737848</ele>
        <time>2022-09-03T11:30:54+0200</time>
      </trkpt>
      <trkpt lat="44.87382" lon="6.73587">
        <ele>1729.082421</ele>
        <time>2022-09-03T11:30:56+0200</time>
      </trkpt>
      <trkpt lat="44.87384" lon="6.73581">
        <ele>1727.664948</ele>
        <time>2022-09-03T11:30:57+0200</time>
      </trkpt>
      <trkpt lat="44.8738" lon="6.73578">
        <ele>1726.621577</ele>
        <time>2022-09-03T11:31:10+0200</time>
      </trkpt>
      <trkpt lat="44.87384" lon="6.73577">
        <ele>1728.688772</ele>
        <time>2022-09-03T11:31:46+0200</time>
      </trkpt>
      <trkpt lat="44.87383" lon="6.73569">
        <ele>1727.737222</ele>
        <time>2022-09-03T11:31:55+0200</time>
      </trkpt>
      <trkpt lat="44.87381" lon="6.73558">
        <ele>1726.926684</ele>
        <time>2022-09-03T11:31:57+0200</time>
      </trkpt>
      <trkpt lat="44.8738" lon="6.7355">
        <ele>1726.540425</ele>
        <time>2022-09-03T11:31:58+0200</time>
      </trkpt>
      <trkpt lat="44.87379" lon="6.7354">
        <ele>1726.075876</ele>
        <time>2022-09-03T11:31:59+0200</time>
      </trkpt>
      <trkpt lat="44.87375" lon="6.73528">
        <ele>1724.632591</ele>
        <time>2022-09-03T11:32:00+0200</time>
      </trkpt>
      <trkpt lat="44.87372" lon="6.73514">
        <ele>1723.03886</ele>
        <time>2022-09-03T11:32:01+0200</time>
      </trkpt>
      <trkpt lat="44.87371" lon="6.73499">
        <ele>1721.553689</ele>
        <time>2022-09-03T11:32:02+0200</time>
      </trkpt>
      <trkpt lat="44.8737" lon="6.73485">
        <ele>1720.40855</ele>
        <time>2022-09-03T11:32:03+0200</time>
      </trkpt>
      <trkpt lat="44.87371" lon="6.73471">
        <ele>1719.662974</ele>
        <time>2022-09-03T11:32:04+0200</time>
      </trkpt>
      <trkpt lat="44.87372" lon="6.73459">
        <ele>1719.26361</ele>
        <time>2022-09-03T11:32:05+0200</time>
      </trkpt>
      <trkpt lat="44.87373" lon="6.7345">
        <ele>1718.906277</ele>
        <time>2022-09-03T11:32:06+0200</time>
      </trkpt>
      <trkpt lat="44.87371" lon="6.73443">
        <ele>1718.856807</ele>
        <time>2022-09-03T11:32:07+0200</time>
      </trkpt>
      <trkpt lat="44.87368" lon="6.73437">
        <ele>1718.368302</ele>
        <time>2022-09-03T11:32:08+0200</time>
      </trkpt>
      <trkpt lat="44.87364" lon="6.7343">
        <ele>1717.551313</ele>
        <time>2022-09-03T11:32:09+0200</time>
      </trkpt>
      <trkpt lat="44.8736" lon="6.73423">
        <ele>1716.432634</ele>
        <time>2022-09-03T11:32:10+0200</time>
      </trkpt>
      <trkpt lat="44.87356" lon="6.73416">
        <ele>1716.433132</ele>
        <time>2022-09-03T11:32:11+0200</time>
      </trkpt>
      <trkpt lat="44.87352" lon="6.73409">
        <ele>1715.366526</ele>
        <time>2022-09-03T11:32:12+0200</time>
      </trkpt>
      <trkpt lat="44.87345" lon="6.73404">
        <ele>1714.673614</ele>
        <time>2022-09-03T11:32:13+0200</time>
      </trkpt>
      <trkpt lat="44.87338" lon="6.73399">
        <ele>1714.428558</ele>
        <time>2022-09-03T11:32:14+0200</time>
      </trkpt>
      <trkpt lat="44.87333" lon="6.73394">
        <ele>1714.298217</ele>
        <time>2022-09-03T11:32:15+0200</time>
      </trkpt>
      <trkpt lat="44.8733" lon="6.73389">
        <ele>1714.135445</ele>
        <time>2022-09-03T11:32:16+0200</time>
      </trkpt>
      <trkpt lat="44.87331" lon="6.73382">
        <ele>1714.500285</ele>
        <time>2022-09-03T11:32:18+0200</time>
      </trkpt>
      <trkpt lat="44.87336" lon="6.73374">
        <ele>1714.105085</ele>
        <time>2022-09-03T11:32:20+0200</time>
      </trkpt>
      <trkpt lat="44.87342" lon="6.73368">
        <ele>1713.491675</ele>
        <time>2022-09-03T11:32:22+0200</time>
      </trkpt>
      <trkpt lat="44.87348" lon="6.73366">
        <ele>1712.47641</ele>
        <time>2022-09-03T11:32:24+0200</time>
      </trkpt>
      <trkpt lat="44.87351" lon="6.73357">
        <ele>1710.411518</ele>
        <time>2022-09-03T11:32:26+0200</time>
      </trkpt>
      <trkpt lat="44.87352" lon="6.7335">
        <ele>1710.39842</ele>
        <time>2022-09-03T11:32:27+0200</time>
      </trkpt>
      <trkpt lat="44.8735" lon="6.73341">
        <ele>1710.68859</ele>
        <time>2022-09-03T11:32:29+0200</time>
      </trkpt>
      <trkpt lat="44.87347" lon="6.73334">
        <ele>1709.241263</ele>
        <time>2022-09-03T11:32:30+0200</time>
      </trkpt>
      <trkpt lat="44.87345" lon="6.73325">
        <ele>1707.433111</ele>
        <time>2022-09-03T11:32:31+0200</time>
      </trkpt>
      <trkpt lat="44.8734" lon="6.73315">
        <ele>1704.992013</ele>
        <time>2022-09-03T11:32:32+0200</time>
      </trkpt>
      <trkpt lat="44.87335" lon="6.73306">
        <ele>1703.033351</ele>
        <time>2022-09-03T11:32:33+0200</time>
      </trkpt>
      <trkpt lat="44.87331" lon="6.73295">
        <ele>1701.74783</ele>
        <time>2022-09-03T11:32:34+0200</time>
      </trkpt>
      <trkpt lat="44.87327" lon="6.73282">
        <ele>1700.187367</ele>
        <time>2022-09-03T11:32:35+0200</time>
      </trkpt>
      <trkpt lat="44.87325" lon="6.73269">
        <ele>1698.655529</ele>
        <time>2022-09-03T11:32:36+0200</time>
      </trkpt>
      <trkpt lat="44.87322" lon="6.73258">
        <ele>1697.212023</ele>
        <time>2022-09-03T11:32:37+0200</time>
      </trkpt>
      <trkpt lat="44.87319" lon="6.73247">
        <ele>1696.177376</ele>
        <time>2022-09-03T11:32:38+0200</time>
      </trkpt>
      <trkpt lat="44.87315" lon="6.73234">
        <ele>1694.880191</ele>
        <time>2022-09-03T11:32:39+0200</time>
      </trkpt>
      <trkpt lat="44.87312" lon="6.73222">
        <ele>1693.525886</ele>
        <time>2022-09-03T11:32:40+0200</time>
      </trkpt>
      <trkpt lat="44.87307" lon="6.73211">
        <ele>1692.218427</ele>
        <time>2022-09-03T11:32:41+0200</time>
      </trkpt>
      <trkpt lat="44.87301" lon="6.73201">
        <ele>1691.421212</ele>
        <time>2022-09-03T11:32:42+0200</time>
      </trkpt>
      <trkpt lat="44.87295" lon="6.73191">
        <ele>1690.37742</ele>
        <time>2022-09-03T11:32:43+0200</time>
      </trkpt>
      <trkpt lat="44.87289" lon="6.73181">
        <ele>1689.225336</ele>
        <time>2022-09-03T11:32:44+0200</time>
      </trkpt>
      <trkpt lat="44.87282" lon="6.73172">
        <ele>1687.697586</ele>
        <time>2022-09-03T11:32:45+0200</time>
      </trkpt>
      <trkpt lat="44.87275" lon="6.73164">
        <ele>1686.461352</ele>
        <time>2022-09-03T11:32:46+0200</time>
      </trkpt>
      <trkpt lat="44.87267" lon="6.73158">
        <ele>1684.877891</ele>
        <time>2022-09-03T11:32:47+0200</time>
      </trkpt>
      <trkpt lat="44.87259" lon="6.7315">
        <ele>1683.930013</ele>
        <time>2022-09-03T11:32:48+0200</time>
      </trkpt>
      <trkpt lat="44.87251" lon="6.7314">
        <ele>1682.650079</ele>
        <time>2022-09-03T11:32:49+0200</time>
      </trkpt>
      <trkpt lat="44.87244" lon="6.7313">
        <ele>1681.699985</ele>
        <time>2022-09-03T11:32:50+0200</time>
      </trkpt>
      <trkpt lat="44.87237" lon="6.73118">
        <ele>1680.299539</ele>
        <time>2022-09-03T11:32:51+0200</time>
      </trkpt>
      <trkpt lat="44.8723" lon="6.73106">
        <ele>1678.953008</ele>
        <time>2022-09-03T11:32:52+0200</time>
      </trkpt>
      <trkpt lat="44.87222" lon="6.73096">
        <ele>1677.417596</ele>
        <time>2022-09-03T11:32:53+0200</time>
      </trkpt>
      <trkpt lat="44.87214" lon="6.73084">
        <ele>1675.990165</ele>
        <time>2022-09-03T11:32:54+0200</time>
      </trkpt>
      <trkpt lat="44.87207" lon="6.73072">
        <ele>1674.559308</ele>
        <time>2022-09-03T11:32:55+0200</time>
      </trkpt>
      <trkpt lat="44.87198" lon="6.7306">
        <ele>1673.725256</ele>
        <time>2022-09-03T11:32:55+0200</time>
      </trkpt>
      <trkpt lat="44.8719" lon="6.73048">
        <ele>1672.723588</ele>
        <time>2022-09-03T11:32:56+0200</time>
      </trkpt>
      <trkpt lat="44.87182" lon="6.73036">
        <ele>1671.40435</ele>
        <time>2022-09-03T11:32:57+0200</time>
      </trkpt>
      <trkpt lat="44.87174" lon="6.73025">
        <ele>1670.140135</ele>
        <time>2022-09-03T11:32:58+0200</time>
      </trkpt>
      <trkpt lat="44.87168" lon="6.73015">
        <ele>1669.056508</ele>
        <time>2022-09-03T11:32:59+0200</time>
      </trkpt>
      <trkpt lat="44.8716" lon="6.73004">
        <ele>1667.708669</ele>
        <time>2022-09-03T11:33:00+0200</time>
      </trkpt>
      <trkpt lat="44.87153" lon="6.72995">
        <ele>1666.468639</ele>
        <time>2022-09-03T11:33:01+0200</time>
      </trkpt>
      <trkpt lat="44.87146" lon="6.72987">
        <ele>1665.82861</ele>
        <time>2022-09-03T11:33:02+0200</time>
      </trkpt>
      <trkpt lat="44.8714" lon="6.72981">
        <ele>1665.26967</ele>
        <time>2022-09-03T11:33:03+0200</time>
      </trkpt>
      <trkpt lat="44.87133" lon="6.72975">
        <ele>1664.711171</ele>
        <time>2022-09-03T11:33:04+0200</time>
      </trkpt>
      <trkpt lat="44.87126" lon="6.72968">
        <ele>1664.754029</ele>
        <time>2022-09-03T11:33:05+0200</time>
      </trkpt>
      <trkpt lat="44.87119" lon="6.7296">
        <ele>1664.085576</ele>
        <time>2022-09-03T11:33:06+0200</time>
      </trkpt>
      <trkpt lat="44.87114" lon="6.72949">
        <ele>1663.144821</ele>
        <time>2022-09-03T11:33:07+0200</time>
      </trkpt>
      <trkpt lat="44.87109" lon="6.72937">
        <ele>1662.133692</ele>
        <time>2022-09-03T11:33:08+0200</time>
      </trkpt>
      <trkpt lat="44.87103" lon="6.72925">
        <ele>1661.250643</ele>
        <time>2022-09-03T11:33:09+0200</time>
      </trkpt>
      <trkpt lat="44.87097" lon="6.72913">
        <ele>1660.563954</ele>
        <time>2022-09-03T11:33:10+0200</time>
      </trkpt>
      <trkpt lat="44.87091" lon="6.72902">
        <ele>1659.682944</ele>
        <time>2022-09-03T11:33:11+0200</time>
      </trkpt>
      <trkpt lat="44.87085" lon="6.7289">
        <ele>1658.374039</ele>
        <time>2022-09-03T11:33:12+0200</time>
      </trkpt>
      <trkpt lat="44.87078" lon="6.72877">
        <ele>1656.945809</ele>
        <time>2022-09-03T11:33:13+0200</time>
      </trkpt>
      <trkpt lat="44.87072" lon="6.72865">
        <ele>1655.95133</ele>
        <time>2022-09-03T11:33:14+0200</time>
      </trkpt>
      <trkpt lat="44.87068" lon="6.72851">
        <ele>1654.962457</ele>
        <time>2022-09-03T11:33:15+0200</time>
      </trkpt>
      <trkpt lat="44.87064" lon="6.72839">
        <ele>1654.359319</ele>
        <time>2022-09-03T11:33:16+0200</time>
      </trkpt>
      <trkpt lat="44.87062" lon="6.72825">
        <ele>1653.744481</ele>
        <time>2022-09-03T11:33:17+0200</time>
      </trkpt>
      <trkpt lat="44.87062" lon="6.7281">
        <ele>1653.288993</ele>
        <time>2022-09-03T11:33:18+0200</time>
      </trkpt>
      <trkpt lat="44.8706" lon="6.72796">
        <ele>1652.298294</ele>
        <time>2022-09-03T11:33:19+0200</time>
      </trkpt>
      <trkpt lat="44.8706" lon="6.72782">
        <ele>1651.281085</ele>
        <time>2022-09-03T11:33:20+0200</time>
      </trkpt>
      <trkpt lat="44.87059" lon="6.72769">
        <ele>1649.936002</ele>
        <time>2022-09-03T11:33:21+0200</time>
      </trkpt>
      <trkpt lat="44.87057" lon="6.72757">
        <ele>1648.709379</ele>
        <time>2022-09-03T11:33:22+0200</time>
      </trkpt>
      <trkpt lat="44.87052" lon="6.72744">
        <ele>1647.137569</ele>
        <time>2022-09-03T11:33:23+0200</time>
      </trkpt>
      <trkpt lat="44.87048" lon="6.72732">
        <ele>1646.392018</ele>
        <time>2022-09-03T11:33:24+0200</time>
      </trkpt>
      <trkpt lat="44.87044" lon="6.72721">
        <ele>1645.532379</ele>
        <time>2022-09-03T11:33:25+0200</time>
      </trkpt>
      <trkpt lat="44.87038" lon="6.72709">
        <ele>1644.603125</ele>
        <time>2022-09-03T11:33:26+0200</time>
      </trkpt>
      <trkpt lat="44.87034" lon="6.72697">
        <ele>1643.603637</ele>
        <time>2022-09-03T11:33:27+0200</time>
      </trkpt>
      <trkpt lat="44.87029" lon="6.72686">
        <ele>1642.748159</ele>
        <time>2022-09-03T11:33:28+0200</time>
      </trkpt>
      <trkpt lat="44.87024" lon="6.72675">
        <ele>1641.788108</ele>
        <time>2022-09-03T11:33:29+0200</time>
      </trkpt>
      <trkpt lat="44.87017" lon="6.72664">
        <ele>1640.408117</ele>
        <time>2022-09-03T11:33:30+0200</time>
      </trkpt>
      <trkpt lat="44.8701" lon="6.72655">
        <ele>1639.304081</ele>
        <time>2022-09-03T11:33:31+0200</time>
      </trkpt>
      <trkpt lat="44.87004" lon="6.72645">
        <ele>1638.323809</ele>
        <time>2022-09-03T11:33:32+0200</time>
      </trkpt>
      <trkpt lat="44.86999" lon="6.72639">
        <ele>1638.019705</ele>
        <time>2022-09-03T11:33:33+0200</time>
      </trkpt>
      <trkpt lat="44.86995" lon="6.72631">
        <ele>1637.291558</ele>
        <time>2022-09-03T11:33:35+0200</time>
      </trkpt>
      <trkpt lat="44.86992" lon="6.72625">
        <ele>1637.120679</ele>
        <time>2022-09-03T11:33:37+0200</time>
      </trkpt>
      <trkpt lat="44.86997" lon="6.72618">
        <ele>1636.576553</ele>
        <time>2022-09-03T11:33:39+0200</time>
      </trkpt>
      <trkpt lat="44.87003" lon="6.72613">
        <ele>1635.77941</ele>
        <time>2022-09-03T11:33:41+0200</time>
      </trkpt>
      <trkpt lat="44.8701" lon="6.72605">
        <ele>1634.728912</ele>
        <time>2022-09-03T11:33:43+0200</time>
      </trkpt>
      <trkpt lat="44.87015" lon="6.72595">
        <ele>1633.889774</ele>
        <time>2022-09-03T11:33:45+0200</time>
      </trkpt>
      <trkpt lat="44.87018" lon="6.7259">
        <ele>1633.324368</ele>
        <time>2022-09-03T11:33:47+0200</time>
      </trkpt>
      <trkpt lat="44.8702" lon="6.72585">
        <ele>1633.532016</ele>
        <time>2022-09-03T11:33:50+0200</time>
      </trkpt>
      <trkpt lat="44.87025" lon="6.72586">
        <ele>1632.958329</ele>
        <time>2022-09-03T11:33:55+0200</time>
      </trkpt>
      <trkpt lat="44.87029" lon="6.72591">
        <ele>1633.479125</ele>
        <time>2022-09-03T11:33:58+0200</time>
      </trkpt>
      <trkpt lat="44.87033" lon="6.72596">
        <ele>1633.323119</ele>
        <time>2022-09-03T11:34:01+0200</time>
      </trkpt>
      <trkpt lat="44.87038" lon="6.72599">
        <ele>1633.808183</ele>
        <time>2022-09-03T11:34:04+0200</time>
      </trkpt>
      <trkpt lat="44.87043" lon="6.72602">
        <ele>1633.648205</ele>
        <time>2022-09-03T11:34:06+0200</time>
      </trkpt>
      <trkpt lat="44.87048" lon="6.72604">
        <ele>1633.151653</ele>
        <time>2022-09-03T11:34:08+0200</time>
      </trkpt>
      <trkpt lat="44.87055" lon="6.72605">
        <ele>1632.920653</ele>
        <time>2022-09-03T11:34:10+0200</time>
      </trkpt>
      <trkpt lat="44.87061" lon="6.72602">
        <ele>1632.975092</ele>
        <time>2022-09-03T11:34:12+0200</time>
      </trkpt>
      <trkpt lat="44.87068" lon="6.72597">
        <ele>1632.705823</ele>
        <time>2022-09-03T11:34:14+0200</time>
      </trkpt>
      <trkpt lat="44.87075" lon="6.72591">
        <ele>1631.955677</ele>
        <time>2022-09-03T11:34:16+0200</time>
      </trkpt>
      <trkpt lat="44.87081" lon="6.72585">
        <ele>1631.056181</ele>
        <time>2022-09-03T11:34:18+0200</time>
      </trkpt>
      <trkpt lat="44.87087" lon="6.72577">
        <ele>1629.889431</ele>
        <time>2022-09-03T11:34:20+0200</time>
      </trkpt>
      <trkpt lat="44.87093" lon="6.72571">
        <ele>1629.538073</ele>
        <time>2022-09-03T11:34:22+0200</time>
      </trkpt>
      <trkpt lat="44.87097" lon="6.72564">
        <ele>1630.108728</ele>
        <time>2022-09-03T11:34:24+0200</time>
      </trkpt>
      <trkpt lat="44.87095" lon="6.72553">
        <ele>1630.827075</ele>
        <time>2022-09-03T11:34:26+0200</time>
      </trkpt>
      <trkpt lat="44.87092" lon="6.72546">
        <ele>1630.247941</ele>
        <time>2022-09-03T11:34:27+0200</time>
      </trkpt>
      <trkpt lat="44.87089" lon="6.7254">
        <ele>1630.294972</ele>
        <time>2022-09-03T11:34:28+0200</time>
      </trkpt>
      <trkpt lat="44.87084" lon="6.72534">
        <ele>1629.935491</ele>
        <time>2022-09-03T11:34:29+0200</time>
      </trkpt>
      <trkpt lat="44.87081" lon="6.72528">
        <ele>1630.373063</ele>
        <time>2022-09-03T11:34:30+0200</time>
      </trkpt>
      <trkpt lat="44.87077" lon="6.72522">
        <ele>1631.697432</ele>
        <time>2022-09-03T11:34:31+0200</time>
      </trkpt>
      <trkpt lat="44.87074" lon="6.72514">
        <ele>1632.698988</ele>
        <time>2022-09-03T11:34:32+0200</time>
      </trkpt>
      <trkpt lat="44.87069" lon="6.72506">
        <ele>1632.60275</ele>
        <time>2022-09-03T11:34:33+0200</time>
      </trkpt>
      <trkpt lat="44.87066" lon="6.72498">
        <ele>1632.877141</ele>
        <time>2022-09-03T11:34:34+0200</time>
      </trkpt>
      <trkpt lat="44.87062" lon="6.72488">
        <ele>1632.4367</ele>
        <time>2022-09-03T11:34:35+0200</time>
      </trkpt>
      <trkpt lat="44.87057" lon="6.72476">
        <ele>1631.141759</ele>
        <time>2022-09-03T11:34:36+0200</time>
      </trkpt>
      <trkpt lat="44.87052" lon="6.72465">
        <ele>1630.466081</ele>
        <time>2022-09-03T11:34:37+0200</time>
      </trkpt>
      <trkpt lat="44.87048" lon="6.72453">
        <ele>1629.899048</ele>
        <time>2022-09-03T11:34:38+0200</time>
      </trkpt>
      <trkpt lat="44.87045" lon="6.7244">
        <ele>1628.984142</ele>
        <time>2022-09-03T11:34:39+0200</time>
      </trkpt>
      <trkpt lat="44.87042" lon="6.72427">
        <ele>1627.276346</ele>
        <time>2022-09-03T11:34:40+0200</time>
      </trkpt>
      <trkpt lat="44.87042" lon="6.72414">
        <ele>1626.268608</ele>
        <time>2022-09-03T11:34:42+0200</time>
      </trkpt>
      <trkpt lat="44.87043" lon="6.72399">
        <ele>1624.86822</ele>
        <time>2022-09-03T11:34:43+0200</time>
      </trkpt>
      <trkpt lat="44.87042" lon="6.72386">
        <ele>1624.290493</ele>
        <time>2022-09-03T11:34:44+0200</time>
      </trkpt>
      <trkpt lat="44.87041" lon="6.72374">
        <ele>1623.886264</ele>
        <time>2022-09-03T11:34:45+0200</time>
      </trkpt>
      <trkpt lat="44.87038" lon="6.72362">
        <ele>1623.486056</ele>
        <time>2022-09-03T11:34:46+0200</time>
      </trkpt>
      <trkpt lat="44.87036" lon="6.72355">
        <ele>1624.210161</ele>
        <time>2022-09-03T11:34:47+0200</time>
      </trkpt>
      <trkpt lat="44.87034" lon="6.72347">
        <ele>1624.71647</ele>
        <time>2022-09-03T11:34:48+0200</time>
      </trkpt>
      <trkpt lat="44.87033" lon="6.7234">
        <ele>1625.379022</ele>
        <time>2022-09-03T11:34:49+0200</time>
      </trkpt>
      <trkpt lat="44.87032" lon="6.7233">
        <ele>1625.646091</ele>
        <time>2022-09-03T11:34:50+0200</time>
      </trkpt>
      <trkpt lat="44.87029" lon="6.72319">
        <ele>1626.650382</ele>
        <time>2022-09-03T11:34:53+0200</time>
      </trkpt>
      <trkpt lat="44.8703" lon="6.72313">
        <ele>1626.707833</ele>
        <time>2022-09-03T11:34:55+0200</time>
      </trkpt>
    </trkseg>
  </trk>
</gpx>